<?xml version="1.0" encoding="UTF-8" standalone="no" ?>
<gpx xmlns="http://www.topografix.com/GPX/1/1" xmlns:xsi="http://www.w3.org/2001/XMLSchema-instance" xsi:schemaLocation="http://www.topografix.com/GPX/1/1 http://www.topografix.com/GPX/1/1/gpx.xsd" version="1.1" creator="VisuGPX - https://www.visugpx.com">
  <metadata>
    <name>Pont sur Yonne 30/03/2019</name>
    <desc><![CDATA[Jolie boucle entre campagne et forêt autour de Pont sur Yonne.]]></desc>
  </metadata>
  <trk>
    <name><![CDATA[2019-03-30 15:52:48]]></name>
    <trkseg>
      <trkpt lat="48.28278" lon="3.20353">
        <ele>68.26</ele>
        <time>2019-03-30T08:18:11Z</time>
      </trkpt>
      <trkpt lat="48.28278" lon="3.20354">
        <ele>68.14</ele>
        <time>2019-03-30T08:18:16Z</time>
      </trkpt>
      <trkpt lat="48.28279" lon="3.20353">
        <ele>68.14</ele>
        <time>2019-03-30T08:18:21Z</time>
      </trkpt>
      <trkpt lat="48.28279" lon="3.20352">
        <ele>68.11</ele>
        <time>2019-03-30T08:18:26Z</time>
      </trkpt>
      <trkpt lat="48.28279" lon="3.20352">
        <ele>68.2</ele>
        <time>2019-03-30T08:18:31Z</time>
      </trkpt>
      <trkpt lat="48.28279" lon="3.20352">
        <ele>68.25</ele>
        <time>2019-03-30T08:18:36Z</time>
      </trkpt>
      <trkpt lat="48.28278" lon="3.20352">
        <ele>68.23</ele>
        <time>2019-03-30T08:18:41Z</time>
      </trkpt>
      <trkpt lat="48.28279" lon="3.20352">
        <ele>68.18</ele>
        <time>2019-03-30T08:18:46Z</time>
      </trkpt>
      <trkpt lat="48.28279" lon="3.20352">
        <ele>68.05</ele>
        <time>2019-03-30T08:18:51Z</time>
      </trkpt>
      <trkpt lat="48.28279" lon="3.20352">
        <ele>68.12</ele>
        <time>2019-03-30T08:18:56Z</time>
      </trkpt>
      <trkpt lat="48.28279" lon="3.20352">
        <ele>68.03</ele>
        <time>2019-03-30T08:19:01Z</time>
      </trkpt>
      <trkpt lat="48.28278" lon="3.20353">
        <ele>67.95</ele>
        <time>2019-03-30T08:19:06Z</time>
      </trkpt>
      <trkpt lat="48.28278" lon="3.20355">
        <ele>67.82</ele>
        <time>2019-03-30T08:19:11Z</time>
      </trkpt>
      <trkpt lat="48.28277" lon="3.20356">
        <ele>67.85</ele>
        <time>2019-03-30T08:19:16Z</time>
      </trkpt>
      <trkpt lat="48.28277" lon="3.20357">
        <ele>67.85</ele>
        <time>2019-03-30T08:19:21Z</time>
      </trkpt>
      <trkpt lat="48.28278" lon="3.20358">
        <ele>67.85</ele>
        <time>2019-03-30T08:19:26Z</time>
      </trkpt>
      <trkpt lat="48.28278" lon="3.20358">
        <ele>67.85</ele>
        <time>2019-03-30T08:19:31Z</time>
      </trkpt>
      <trkpt lat="48.28277" lon="3.20358">
        <ele>67.85</ele>
        <time>2019-03-30T08:19:36Z</time>
      </trkpt>
      <trkpt lat="48.28277" lon="3.20359">
        <ele>67.85</ele>
        <time>2019-03-30T08:19:41Z</time>
      </trkpt>
      <trkpt lat="48.28271" lon="3.2036">
        <ele>67.85</ele>
        <time>2019-03-30T08:19:46Z</time>
      </trkpt>
      <trkpt lat="48.28266" lon="3.20361">
        <ele>67.85</ele>
        <time>2019-03-30T08:19:51Z</time>
      </trkpt>
      <trkpt lat="48.2826" lon="3.20362">
        <ele>67.85</ele>
        <time>2019-03-30T08:19:56Z</time>
      </trkpt>
      <trkpt lat="48.28255" lon="3.20362">
        <ele>67.85</ele>
        <time>2019-03-30T08:20:01Z</time>
      </trkpt>
      <trkpt lat="48.28249" lon="3.20363">
        <ele>69.4</ele>
        <time>2019-03-30T08:20:06Z</time>
      </trkpt>
      <trkpt lat="48.28244" lon="3.20364">
        <ele>70.27</ele>
        <time>2019-03-30T08:20:11Z</time>
      </trkpt>
      <trkpt lat="48.2824" lon="3.20365">
        <ele>70.7</ele>
        <time>2019-03-30T08:20:16Z</time>
      </trkpt>
      <trkpt lat="48.28235" lon="3.20364">
        <ele>71.17</ele>
        <time>2019-03-30T08:20:21Z</time>
      </trkpt>
      <trkpt lat="48.28229" lon="3.20366">
        <ele>71.54</ele>
        <time>2019-03-30T08:20:26Z</time>
      </trkpt>
      <trkpt lat="48.28224" lon="3.20367">
        <ele>71.93</ele>
        <time>2019-03-30T08:20:31Z</time>
      </trkpt>
      <trkpt lat="48.28219" lon="3.20367">
        <ele>72.21</ele>
        <time>2019-03-30T08:20:36Z</time>
      </trkpt>
      <trkpt lat="48.28214" lon="3.20367">
        <ele>72.52</ele>
        <time>2019-03-30T08:20:41Z</time>
      </trkpt>
      <trkpt lat="48.28209" lon="3.20368">
        <ele>73.08</ele>
        <time>2019-03-30T08:20:46Z</time>
      </trkpt>
      <trkpt lat="48.28205" lon="3.20367">
        <ele>73.46</ele>
        <time>2019-03-30T08:20:51Z</time>
      </trkpt>
      <trkpt lat="48.28199" lon="3.20368">
        <ele>73.91</ele>
        <time>2019-03-30T08:20:56Z</time>
      </trkpt>
      <trkpt lat="48.28193" lon="3.20368">
        <ele>74.32</ele>
        <time>2019-03-30T08:21:01Z</time>
      </trkpt>
      <trkpt lat="48.28188" lon="3.20367">
        <ele>74.83</ele>
        <time>2019-03-30T08:21:06Z</time>
      </trkpt>
      <trkpt lat="48.28183" lon="3.20368">
        <ele>75.27</ele>
        <time>2019-03-30T08:21:11Z</time>
      </trkpt>
      <trkpt lat="48.28178" lon="3.2037">
        <ele>75.64</ele>
        <time>2019-03-30T08:21:16Z</time>
      </trkpt>
      <trkpt lat="48.28175" lon="3.2037">
        <ele>76.01</ele>
        <time>2019-03-30T08:21:21Z</time>
      </trkpt>
      <trkpt lat="48.28172" lon="3.20369">
        <ele>76.27</ele>
        <time>2019-03-30T08:21:26Z</time>
      </trkpt>
      <trkpt lat="48.28169" lon="3.20368">
        <ele>76.67</ele>
        <time>2019-03-30T08:21:31Z</time>
      </trkpt>
      <trkpt lat="48.28166" lon="3.20368">
        <ele>76.93</ele>
        <time>2019-03-30T08:21:36Z</time>
      </trkpt>
      <trkpt lat="48.28162" lon="3.20367">
        <ele>77.4</ele>
        <time>2019-03-30T08:21:41Z</time>
      </trkpt>
      <trkpt lat="48.28158" lon="3.20365">
        <ele>77.71</ele>
        <time>2019-03-30T08:21:46Z</time>
      </trkpt>
      <trkpt lat="48.28153" lon="3.20366">
        <ele>78.06</ele>
        <time>2019-03-30T08:21:51Z</time>
      </trkpt>
      <trkpt lat="48.28151" lon="3.20365">
        <ele>78.25</ele>
        <time>2019-03-30T08:21:56Z</time>
      </trkpt>
      <trkpt lat="48.28146" lon="3.20363">
        <ele>78.73</ele>
        <time>2019-03-30T08:22:01Z</time>
      </trkpt>
      <trkpt lat="48.28142" lon="3.20364">
        <ele>79.11</ele>
        <time>2019-03-30T08:22:06Z</time>
      </trkpt>
      <trkpt lat="48.28138" lon="3.20364">
        <ele>79.51</ele>
        <time>2019-03-30T08:22:11Z</time>
      </trkpt>
      <trkpt lat="48.28133" lon="3.20364">
        <ele>79.88</ele>
        <time>2019-03-30T08:22:16Z</time>
      </trkpt>
      <trkpt lat="48.28128" lon="3.20367">
        <ele>80.3</ele>
        <time>2019-03-30T08:22:21Z</time>
      </trkpt>
      <trkpt lat="48.28125" lon="3.20366">
        <ele>80.66</ele>
        <time>2019-03-30T08:22:26Z</time>
      </trkpt>
      <trkpt lat="48.28121" lon="3.20365">
        <ele>81.26</ele>
        <time>2019-03-30T08:22:31Z</time>
      </trkpt>
      <trkpt lat="48.28119" lon="3.20364">
        <ele>81.72</ele>
        <time>2019-03-30T08:22:36Z</time>
      </trkpt>
      <trkpt lat="48.28116" lon="3.20364">
        <ele>82.19</ele>
        <time>2019-03-30T08:22:41Z</time>
      </trkpt>
      <trkpt lat="48.28112" lon="3.20365">
        <ele>82.56</ele>
        <time>2019-03-30T08:22:46Z</time>
      </trkpt>
      <trkpt lat="48.28108" lon="3.20362">
        <ele>83.1</ele>
        <time>2019-03-30T08:22:51Z</time>
      </trkpt>
      <trkpt lat="48.28104" lon="3.20357">
        <ele>83.58</ele>
        <time>2019-03-30T08:22:56Z</time>
      </trkpt>
      <trkpt lat="48.28097" lon="3.20352">
        <ele>84.08</ele>
        <time>2019-03-30T08:23:01Z</time>
      </trkpt>
      <trkpt lat="48.28092" lon="3.20349">
        <ele>85.01</ele>
        <time>2019-03-30T08:23:06Z</time>
      </trkpt>
      <trkpt lat="48.28086" lon="3.20347">
        <ele>85.63</ele>
        <time>2019-03-30T08:23:11Z</time>
      </trkpt>
      <trkpt lat="48.28077" lon="3.20346">
        <ele>86.02</ele>
        <time>2019-03-30T08:23:16Z</time>
      </trkpt>
      <trkpt lat="48.28073" lon="3.20345">
        <ele>86.63</ele>
        <time>2019-03-30T08:23:21Z</time>
      </trkpt>
      <trkpt lat="48.28069" lon="3.20342">
        <ele>87.13</ele>
        <time>2019-03-30T08:23:26Z</time>
      </trkpt>
      <trkpt lat="48.28067" lon="3.20338">
        <ele>87.51</ele>
        <time>2019-03-30T08:23:31Z</time>
      </trkpt>
      <trkpt lat="48.28064" lon="3.20329">
        <ele>87.87</ele>
        <time>2019-03-30T08:23:36Z</time>
      </trkpt>
      <trkpt lat="48.28062" lon="3.20319">
        <ele>88.11</ele>
        <time>2019-03-30T08:23:41Z</time>
      </trkpt>
      <trkpt lat="48.28059" lon="3.2031">
        <ele>88.21</ele>
        <time>2019-03-30T08:23:46Z</time>
      </trkpt>
      <trkpt lat="48.28057" lon="3.20302">
        <ele>88.55</ele>
        <time>2019-03-30T08:23:51Z</time>
      </trkpt>
      <trkpt lat="48.28054" lon="3.20299">
        <ele>88.89</ele>
        <time>2019-03-30T08:23:56Z</time>
      </trkpt>
      <trkpt lat="48.2805" lon="3.20295">
        <ele>89.04</ele>
        <time>2019-03-30T08:24:01Z</time>
      </trkpt>
      <trkpt lat="48.28047" lon="3.2029">
        <ele>89.27</ele>
        <time>2019-03-30T08:24:06Z</time>
      </trkpt>
      <trkpt lat="48.28044" lon="3.20284">
        <ele>89.61</ele>
        <time>2019-03-30T08:24:11Z</time>
      </trkpt>
      <trkpt lat="48.2804" lon="3.20278">
        <ele>90.06</ele>
        <time>2019-03-30T08:24:16Z</time>
      </trkpt>
      <trkpt lat="48.28037" lon="3.20271">
        <ele>90.37</ele>
        <time>2019-03-30T08:24:21Z</time>
      </trkpt>
      <trkpt lat="48.28034" lon="3.20266">
        <ele>90.56</ele>
        <time>2019-03-30T08:24:26Z</time>
      </trkpt>
      <trkpt lat="48.28029" lon="3.20257">
        <ele>90.78</ele>
        <time>2019-03-30T08:24:31Z</time>
      </trkpt>
      <trkpt lat="48.28025" lon="3.20252">
        <ele>91.2</ele>
        <time>2019-03-30T08:24:36Z</time>
      </trkpt>
      <trkpt lat="48.2802" lon="3.20249">
        <ele>91.44</ele>
        <time>2019-03-30T08:24:41Z</time>
      </trkpt>
      <trkpt lat="48.28016" lon="3.20245">
        <ele>91.77</ele>
        <time>2019-03-30T08:24:46Z</time>
      </trkpt>
      <trkpt lat="48.28013" lon="3.20242">
        <ele>92.13</ele>
        <time>2019-03-30T08:24:51Z</time>
      </trkpt>
      <trkpt lat="48.2801" lon="3.20238">
        <ele>92.54</ele>
        <time>2019-03-30T08:24:56Z</time>
      </trkpt>
      <trkpt lat="48.28007" lon="3.20233">
        <ele>92.8</ele>
        <time>2019-03-30T08:25:01Z</time>
      </trkpt>
      <trkpt lat="48.28003" lon="3.20228">
        <ele>93.15</ele>
        <time>2019-03-30T08:25:06Z</time>
      </trkpt>
      <trkpt lat="48.28" lon="3.20224">
        <ele>93.57</ele>
        <time>2019-03-30T08:25:11Z</time>
      </trkpt>
      <trkpt lat="48.27998" lon="3.20217">
        <ele>93.87</ele>
        <time>2019-03-30T08:25:16Z</time>
      </trkpt>
      <trkpt lat="48.27994" lon="3.20211">
        <ele>94.08</ele>
        <time>2019-03-30T08:25:21Z</time>
      </trkpt>
      <trkpt lat="48.27991" lon="3.20205">
        <ele>94.5</ele>
        <time>2019-03-30T08:25:26Z</time>
      </trkpt>
      <trkpt lat="48.27988" lon="3.20199">
        <ele>94.79</ele>
        <time>2019-03-30T08:25:31Z</time>
      </trkpt>
      <trkpt lat="48.27985" lon="3.20195">
        <ele>95.07</ele>
        <time>2019-03-30T08:25:36Z</time>
      </trkpt>
      <trkpt lat="48.27982" lon="3.20191">
        <ele>95.25</ele>
        <time>2019-03-30T08:25:41Z</time>
      </trkpt>
      <trkpt lat="48.27977" lon="3.20184">
        <ele>95.38</ele>
        <time>2019-03-30T08:25:46Z</time>
      </trkpt>
      <trkpt lat="48.27974" lon="3.20178">
        <ele>95.53</ele>
        <time>2019-03-30T08:25:51Z</time>
      </trkpt>
      <trkpt lat="48.27966" lon="3.20168">
        <ele>95.58</ele>
        <time>2019-03-30T08:25:56Z</time>
      </trkpt>
      <trkpt lat="48.27961" lon="3.2016">
        <ele>95.72</ele>
        <time>2019-03-30T08:26:01Z</time>
      </trkpt>
      <trkpt lat="48.27956" lon="3.20157">
        <ele>95.76</ele>
        <time>2019-03-30T08:26:06Z</time>
      </trkpt>
      <trkpt lat="48.27952" lon="3.20153">
        <ele>95.82</ele>
        <time>2019-03-30T08:26:11Z</time>
      </trkpt>
      <trkpt lat="48.27948" lon="3.20148">
        <ele>95.82</ele>
        <time>2019-03-30T08:26:16Z</time>
      </trkpt>
      <trkpt lat="48.27944" lon="3.20142">
        <ele>95.83</ele>
        <time>2019-03-30T08:26:21Z</time>
      </trkpt>
      <trkpt lat="48.27941" lon="3.20138">
        <ele>95.91</ele>
        <time>2019-03-30T08:26:26Z</time>
      </trkpt>
      <trkpt lat="48.27937" lon="3.20132">
        <ele>95.95</ele>
        <time>2019-03-30T08:26:31Z</time>
      </trkpt>
      <trkpt lat="48.27934" lon="3.20125">
        <ele>96.04</ele>
        <time>2019-03-30T08:26:36Z</time>
      </trkpt>
      <trkpt lat="48.27931" lon="3.20121">
        <ele>96.16</ele>
        <time>2019-03-30T08:26:41Z</time>
      </trkpt>
      <trkpt lat="48.27927" lon="3.20116">
        <ele>96.23</ele>
        <time>2019-03-30T08:26:46Z</time>
      </trkpt>
      <trkpt lat="48.27924" lon="3.20111">
        <ele>96.26</ele>
        <time>2019-03-30T08:26:51Z</time>
      </trkpt>
      <trkpt lat="48.2792" lon="3.20106">
        <ele>96.31</ele>
        <time>2019-03-30T08:26:56Z</time>
      </trkpt>
      <trkpt lat="48.27917" lon="3.20099">
        <ele>96.37</ele>
        <time>2019-03-30T08:27:01Z</time>
      </trkpt>
      <trkpt lat="48.27914" lon="3.20093">
        <ele>96.53</ele>
        <time>2019-03-30T08:27:06Z</time>
      </trkpt>
      <trkpt lat="48.27911" lon="3.20087">
        <ele>96.65</ele>
        <time>2019-03-30T08:27:11Z</time>
      </trkpt>
      <trkpt lat="48.27908" lon="3.20082">
        <ele>96.79</ele>
        <time>2019-03-30T08:27:16Z</time>
      </trkpt>
      <trkpt lat="48.27905" lon="3.20078">
        <ele>96.96</ele>
        <time>2019-03-30T08:27:21Z</time>
      </trkpt>
      <trkpt lat="48.279" lon="3.20073">
        <ele>97.23</ele>
        <time>2019-03-30T08:27:26Z</time>
      </trkpt>
      <trkpt lat="48.27896" lon="3.20066">
        <ele>97.39</ele>
        <time>2019-03-30T08:27:31Z</time>
      </trkpt>
      <trkpt lat="48.27893" lon="3.2006">
        <ele>97.47</ele>
        <time>2019-03-30T08:27:36Z</time>
      </trkpt>
      <trkpt lat="48.27891" lon="3.20055">
        <ele>97.69</ele>
        <time>2019-03-30T08:27:41Z</time>
      </trkpt>
      <trkpt lat="48.27887" lon="3.2005">
        <ele>97.73</ele>
        <time>2019-03-30T08:27:46Z</time>
      </trkpt>
      <trkpt lat="48.27884" lon="3.20043">
        <ele>97.93</ele>
        <time>2019-03-30T08:27:51Z</time>
      </trkpt>
      <trkpt lat="48.27881" lon="3.20037">
        <ele>98.13</ele>
        <time>2019-03-30T08:27:56Z</time>
      </trkpt>
      <trkpt lat="48.27878" lon="3.20031">
        <ele>98.2</ele>
        <time>2019-03-30T08:28:01Z</time>
      </trkpt>
      <trkpt lat="48.27875" lon="3.20025">
        <ele>98.34</ele>
        <time>2019-03-30T08:28:06Z</time>
      </trkpt>
      <trkpt lat="48.27872" lon="3.2002">
        <ele>98.65</ele>
        <time>2019-03-30T08:28:11Z</time>
      </trkpt>
      <trkpt lat="48.27869" lon="3.20016">
        <ele>98.82</ele>
        <time>2019-03-30T08:28:16Z</time>
      </trkpt>
      <trkpt lat="48.27865" lon="3.20011">
        <ele>98.95</ele>
        <time>2019-03-30T08:28:21Z</time>
      </trkpt>
      <trkpt lat="48.27862" lon="3.20004">
        <ele>99.24</ele>
        <time>2019-03-30T08:28:26Z</time>
      </trkpt>
      <trkpt lat="48.27859" lon="3.19998">
        <ele>99.53</ele>
        <time>2019-03-30T08:28:31Z</time>
      </trkpt>
      <trkpt lat="48.27858" lon="3.19993">
        <ele>100.03</ele>
        <time>2019-03-30T08:28:36Z</time>
      </trkpt>
      <trkpt lat="48.27855" lon="3.19987">
        <ele>100.63</ele>
        <time>2019-03-30T08:28:41Z</time>
      </trkpt>
      <trkpt lat="48.27852" lon="3.19983">
        <ele>101.19</ele>
        <time>2019-03-30T08:28:46Z</time>
      </trkpt>
      <trkpt lat="48.27849" lon="3.19979">
        <ele>101.63</ele>
        <time>2019-03-30T08:28:51Z</time>
      </trkpt>
      <trkpt lat="48.27846" lon="3.19973">
        <ele>102.01</ele>
        <time>2019-03-30T08:28:56Z</time>
      </trkpt>
      <trkpt lat="48.27844" lon="3.19968">
        <ele>102.4</ele>
        <time>2019-03-30T08:29:01Z</time>
      </trkpt>
      <trkpt lat="48.27841" lon="3.19964">
        <ele>102.91</ele>
        <time>2019-03-30T08:29:06Z</time>
      </trkpt>
      <trkpt lat="48.27838" lon="3.19959">
        <ele>103.36</ele>
        <time>2019-03-30T08:29:11Z</time>
      </trkpt>
      <trkpt lat="48.27834" lon="3.19954">
        <ele>103.89</ele>
        <time>2019-03-30T08:29:16Z</time>
      </trkpt>
      <trkpt lat="48.27831" lon="3.19951">
        <ele>104.31</ele>
        <time>2019-03-30T08:29:21Z</time>
      </trkpt>
      <trkpt lat="48.27829" lon="3.19948">
        <ele>104.74</ele>
        <time>2019-03-30T08:29:26Z</time>
      </trkpt>
      <trkpt lat="48.27827" lon="3.19947">
        <ele>105.21</ele>
        <time>2019-03-30T08:29:31Z</time>
      </trkpt>
      <trkpt lat="48.27826" lon="3.19947">
        <ele>105.52</ele>
        <time>2019-03-30T08:29:36Z</time>
      </trkpt>
      <trkpt lat="48.27826" lon="3.19945">
        <ele>105.51</ele>
        <time>2019-03-30T08:29:41Z</time>
      </trkpt>
      <trkpt lat="48.27824" lon="3.1994">
        <ele>105.63</ele>
        <time>2019-03-30T08:29:46Z</time>
      </trkpt>
      <trkpt lat="48.27822" lon="3.19936">
        <ele>106.1</ele>
        <time>2019-03-30T08:29:51Z</time>
      </trkpt>
      <trkpt lat="48.2782" lon="3.19933">
        <ele>106.62</ele>
        <time>2019-03-30T08:29:56Z</time>
      </trkpt>
      <trkpt lat="48.27818" lon="3.19929">
        <ele>107</ele>
        <time>2019-03-30T08:30:01Z</time>
      </trkpt>
      <trkpt lat="48.27815" lon="3.19927">
        <ele>107.48</ele>
        <time>2019-03-30T08:30:06Z</time>
      </trkpt>
      <trkpt lat="48.27813" lon="3.19922">
        <ele>108.2</ele>
        <time>2019-03-30T08:30:11Z</time>
      </trkpt>
      <trkpt lat="48.27809" lon="3.19918">
        <ele>108.91</ele>
        <time>2019-03-30T08:30:16Z</time>
      </trkpt>
      <trkpt lat="48.27807" lon="3.19913">
        <ele>109.35</ele>
        <time>2019-03-30T08:30:21Z</time>
      </trkpt>
      <trkpt lat="48.27804" lon="3.19909">
        <ele>109.89</ele>
        <time>2019-03-30T08:30:26Z</time>
      </trkpt>
      <trkpt lat="48.27802" lon="3.19907">
        <ele>110.65</ele>
        <time>2019-03-30T08:30:31Z</time>
      </trkpt>
      <trkpt lat="48.27801" lon="3.19901">
        <ele>111.07</ele>
        <time>2019-03-30T08:30:36Z</time>
      </trkpt>
      <trkpt lat="48.27799" lon="3.19895">
        <ele>111.54</ele>
        <time>2019-03-30T08:30:41Z</time>
      </trkpt>
      <trkpt lat="48.27797" lon="3.19889">
        <ele>112.01</ele>
        <time>2019-03-30T08:30:46Z</time>
      </trkpt>
      <trkpt lat="48.27795" lon="3.19883">
        <ele>112.61</ele>
        <time>2019-03-30T08:30:51Z</time>
      </trkpt>
      <trkpt lat="48.27793" lon="3.19877">
        <ele>113.02</ele>
        <time>2019-03-30T08:30:56Z</time>
      </trkpt>
      <trkpt lat="48.27791" lon="3.1987">
        <ele>113.47</ele>
        <time>2019-03-30T08:31:01Z</time>
      </trkpt>
      <trkpt lat="48.27789" lon="3.19863">
        <ele>114.16</ele>
        <time>2019-03-30T08:31:06Z</time>
      </trkpt>
      <trkpt lat="48.27788" lon="3.19857">
        <ele>114.65</ele>
        <time>2019-03-30T08:31:11Z</time>
      </trkpt>
      <trkpt lat="48.27785" lon="3.19851">
        <ele>114.97</ele>
        <time>2019-03-30T08:31:16Z</time>
      </trkpt>
      <trkpt lat="48.27783" lon="3.19843">
        <ele>115.28</ele>
        <time>2019-03-30T08:31:21Z</time>
      </trkpt>
      <trkpt lat="48.2778" lon="3.19836">
        <ele>115.66</ele>
        <time>2019-03-30T08:31:26Z</time>
      </trkpt>
      <trkpt lat="48.27778" lon="3.19829">
        <ele>116.17</ele>
        <time>2019-03-30T08:31:31Z</time>
      </trkpt>
      <trkpt lat="48.27776" lon="3.19822">
        <ele>116.68</ele>
        <time>2019-03-30T08:31:36Z</time>
      </trkpt>
      <trkpt lat="48.27774" lon="3.19814">
        <ele>117.34</ele>
        <time>2019-03-30T08:31:41Z</time>
      </trkpt>
      <trkpt lat="48.27771" lon="3.19808">
        <ele>117.83</ele>
        <time>2019-03-30T08:31:46Z</time>
      </trkpt>
      <trkpt lat="48.27768" lon="3.19802">
        <ele>118.39</ele>
        <time>2019-03-30T08:31:51Z</time>
      </trkpt>
      <trkpt lat="48.27765" lon="3.19797">
        <ele>119</ele>
        <time>2019-03-30T08:31:56Z</time>
      </trkpt>
      <trkpt lat="48.27761" lon="3.19792">
        <ele>119.57</ele>
        <time>2019-03-30T08:32:01Z</time>
      </trkpt>
      <trkpt lat="48.27758" lon="3.19786">
        <ele>120.11</ele>
        <time>2019-03-30T08:32:06Z</time>
      </trkpt>
      <trkpt lat="48.27754" lon="3.1978">
        <ele>120.73</ele>
        <time>2019-03-30T08:32:11Z</time>
      </trkpt>
      <trkpt lat="48.2775" lon="3.19773">
        <ele>121.28</ele>
        <time>2019-03-30T08:32:16Z</time>
      </trkpt>
      <trkpt lat="48.27747" lon="3.19768">
        <ele>121.7</ele>
        <time>2019-03-30T08:32:21Z</time>
      </trkpt>
      <trkpt lat="48.27744" lon="3.19761">
        <ele>122.11</ele>
        <time>2019-03-30T08:32:26Z</time>
      </trkpt>
      <trkpt lat="48.27739" lon="3.19755">
        <ele>122.59</ele>
        <time>2019-03-30T08:32:31Z</time>
      </trkpt>
      <trkpt lat="48.27734" lon="3.1975">
        <ele>123.06</ele>
        <time>2019-03-30T08:32:36Z</time>
      </trkpt>
      <trkpt lat="48.2773" lon="3.19742">
        <ele>123.44</ele>
        <time>2019-03-30T08:32:41Z</time>
      </trkpt>
      <trkpt lat="48.27727" lon="3.19738">
        <ele>123.72</ele>
        <time>2019-03-30T08:32:46Z</time>
      </trkpt>
      <trkpt lat="48.27722" lon="3.19735">
        <ele>124.03</ele>
        <time>2019-03-30T08:32:51Z</time>
      </trkpt>
      <trkpt lat="48.27717" lon="3.19731">
        <ele>124.35</ele>
        <time>2019-03-30T08:32:56Z</time>
      </trkpt>
      <trkpt lat="48.27712" lon="3.19726">
        <ele>124.69</ele>
        <time>2019-03-30T08:33:01Z</time>
      </trkpt>
      <trkpt lat="48.27706" lon="3.19722">
        <ele>124.96</ele>
        <time>2019-03-30T08:33:06Z</time>
      </trkpt>
      <trkpt lat="48.27702" lon="3.19718">
        <ele>125.34</ele>
        <time>2019-03-30T08:33:11Z</time>
      </trkpt>
      <trkpt lat="48.27698" lon="3.19714">
        <ele>125.64</ele>
        <time>2019-03-30T08:33:16Z</time>
      </trkpt>
      <trkpt lat="48.27695" lon="3.19711">
        <ele>126.02</ele>
        <time>2019-03-30T08:33:21Z</time>
      </trkpt>
      <trkpt lat="48.27691" lon="3.1971">
        <ele>126.48</ele>
        <time>2019-03-30T08:33:26Z</time>
      </trkpt>
      <trkpt lat="48.2769" lon="3.1971">
        <ele>126.84</ele>
        <time>2019-03-30T08:33:31Z</time>
      </trkpt>
      <trkpt lat="48.27689" lon="3.19709">
        <ele>126.97</ele>
        <time>2019-03-30T08:33:36Z</time>
      </trkpt>
      <trkpt lat="48.27688" lon="3.19707">
        <ele>127.2</ele>
        <time>2019-03-30T08:33:41Z</time>
      </trkpt>
      <trkpt lat="48.27688" lon="3.19706">
        <ele>127.25</ele>
        <time>2019-03-30T08:33:46Z</time>
      </trkpt>
      <trkpt lat="48.27688" lon="3.19705">
        <ele>127.25</ele>
        <time>2019-03-30T08:33:51Z</time>
      </trkpt>
      <trkpt lat="48.27687" lon="3.19705">
        <ele>127.28</ele>
        <time>2019-03-30T08:33:56Z</time>
      </trkpt>
      <trkpt lat="48.27686" lon="3.19704">
        <ele>127.31</ele>
        <time>2019-03-30T08:34:01Z</time>
      </trkpt>
      <trkpt lat="48.27685" lon="3.19703">
        <ele>127.29</ele>
        <time>2019-03-30T08:34:06Z</time>
      </trkpt>
      <trkpt lat="48.27685" lon="3.19701">
        <ele>127.21</ele>
        <time>2019-03-30T08:34:11Z</time>
      </trkpt>
      <trkpt lat="48.27683" lon="3.19697">
        <ele>127.21</ele>
        <time>2019-03-30T08:34:16Z</time>
      </trkpt>
      <trkpt lat="48.2768" lon="3.19695">
        <ele>127.44</ele>
        <time>2019-03-30T08:34:21Z</time>
      </trkpt>
      <trkpt lat="48.27677" lon="3.19693">
        <ele>127.74</ele>
        <time>2019-03-30T08:34:26Z</time>
      </trkpt>
      <trkpt lat="48.27674" lon="3.19688">
        <ele>127.85</ele>
        <time>2019-03-30T08:34:31Z</time>
      </trkpt>
      <trkpt lat="48.27672" lon="3.19684">
        <ele>128.33</ele>
        <time>2019-03-30T08:34:36Z</time>
      </trkpt>
      <trkpt lat="48.27669" lon="3.19678">
        <ele>128.78</ele>
        <time>2019-03-30T08:34:41Z</time>
      </trkpt>
      <trkpt lat="48.27666" lon="3.19673">
        <ele>129.17</ele>
        <time>2019-03-30T08:34:46Z</time>
      </trkpt>
      <trkpt lat="48.27663" lon="3.19668">
        <ele>129.67</ele>
        <time>2019-03-30T08:34:51Z</time>
      </trkpt>
      <trkpt lat="48.2766" lon="3.19664">
        <ele>130.13</ele>
        <time>2019-03-30T08:34:56Z</time>
      </trkpt>
      <trkpt lat="48.27658" lon="3.19658">
        <ele>130.52</ele>
        <time>2019-03-30T08:35:01Z</time>
      </trkpt>
      <trkpt lat="48.27655" lon="3.19653">
        <ele>130.92</ele>
        <time>2019-03-30T08:35:06Z</time>
      </trkpt>
      <trkpt lat="48.27652" lon="3.19648">
        <ele>131.23</ele>
        <time>2019-03-30T08:35:11Z</time>
      </trkpt>
      <trkpt lat="48.27649" lon="3.19643">
        <ele>131.69</ele>
        <time>2019-03-30T08:35:16Z</time>
      </trkpt>
      <trkpt lat="48.27645" lon="3.19637">
        <ele>131.97</ele>
        <time>2019-03-30T08:35:21Z</time>
      </trkpt>
      <trkpt lat="48.27642" lon="3.19634">
        <ele>132.23</ele>
        <time>2019-03-30T08:35:26Z</time>
      </trkpt>
      <trkpt lat="48.27638" lon="3.19631">
        <ele>132.53</ele>
        <time>2019-03-30T08:35:31Z</time>
      </trkpt>
      <trkpt lat="48.27633" lon="3.19628">
        <ele>132.94</ele>
        <time>2019-03-30T08:35:36Z</time>
      </trkpt>
      <trkpt lat="48.27629" lon="3.19625">
        <ele>133.33</ele>
        <time>2019-03-30T08:35:41Z</time>
      </trkpt>
      <trkpt lat="48.27624" lon="3.19624">
        <ele>133.86</ele>
        <time>2019-03-30T08:35:46Z</time>
      </trkpt>
      <trkpt lat="48.27621" lon="3.19623">
        <ele>134.19</ele>
        <time>2019-03-30T08:35:51Z</time>
      </trkpt>
      <trkpt lat="48.27616" lon="3.19622">
        <ele>134.42</ele>
        <time>2019-03-30T08:35:56Z</time>
      </trkpt>
      <trkpt lat="48.27612" lon="3.1962">
        <ele>134.86</ele>
        <time>2019-03-30T08:36:01Z</time>
      </trkpt>
      <trkpt lat="48.27608" lon="3.19619">
        <ele>135.46</ele>
        <time>2019-03-30T08:36:06Z</time>
      </trkpt>
      <trkpt lat="48.27603" lon="3.19617">
        <ele>135.96</ele>
        <time>2019-03-30T08:36:11Z</time>
      </trkpt>
      <trkpt lat="48.27599" lon="3.19617">
        <ele>136.55</ele>
        <time>2019-03-30T08:36:16Z</time>
      </trkpt>
      <trkpt lat="48.27595" lon="3.19617">
        <ele>137.14</ele>
        <time>2019-03-30T08:36:21Z</time>
      </trkpt>
      <trkpt lat="48.27591" lon="3.19615">
        <ele>137.59</ele>
        <time>2019-03-30T08:36:26Z</time>
      </trkpt>
      <trkpt lat="48.27587" lon="3.19615">
        <ele>138.02</ele>
        <time>2019-03-30T08:36:31Z</time>
      </trkpt>
      <trkpt lat="48.27584" lon="3.19612">
        <ele>138.52</ele>
        <time>2019-03-30T08:36:36Z</time>
      </trkpt>
      <trkpt lat="48.2758" lon="3.19612">
        <ele>139.22</ele>
        <time>2019-03-30T08:36:41Z</time>
      </trkpt>
      <trkpt lat="48.27577" lon="3.19612">
        <ele>139.6</ele>
        <time>2019-03-30T08:36:46Z</time>
      </trkpt>
      <trkpt lat="48.27574" lon="3.1961">
        <ele>140.13</ele>
        <time>2019-03-30T08:36:51Z</time>
      </trkpt>
      <trkpt lat="48.27569" lon="3.19612">
        <ele>140.52</ele>
        <time>2019-03-30T08:36:56Z</time>
      </trkpt>
      <trkpt lat="48.27566" lon="3.19612">
        <ele>141.11</ele>
        <time>2019-03-30T08:37:01Z</time>
      </trkpt>
      <trkpt lat="48.27562" lon="3.19614">
        <ele>141.63</ele>
        <time>2019-03-30T08:37:06Z</time>
      </trkpt>
      <trkpt lat="48.27558" lon="3.19617">
        <ele>142.19</ele>
        <time>2019-03-30T08:37:11Z</time>
      </trkpt>
      <trkpt lat="48.27553" lon="3.19621">
        <ele>142.87</ele>
        <time>2019-03-30T08:37:16Z</time>
      </trkpt>
      <trkpt lat="48.27549" lon="3.19623">
        <ele>143.46</ele>
        <time>2019-03-30T08:37:21Z</time>
      </trkpt>
      <trkpt lat="48.27546" lon="3.19625">
        <ele>144.12</ele>
        <time>2019-03-30T08:37:26Z</time>
      </trkpt>
      <trkpt lat="48.27541" lon="3.19627">
        <ele>144.88</ele>
        <time>2019-03-30T08:37:31Z</time>
      </trkpt>
      <trkpt lat="48.27537" lon="3.19628">
        <ele>145.39</ele>
        <time>2019-03-30T08:37:36Z</time>
      </trkpt>
      <trkpt lat="48.27532" lon="3.19629">
        <ele>145.96</ele>
        <time>2019-03-30T08:37:41Z</time>
      </trkpt>
      <trkpt lat="48.27528" lon="3.19629">
        <ele>146.68</ele>
        <time>2019-03-30T08:37:46Z</time>
      </trkpt>
      <trkpt lat="48.27524" lon="3.19629">
        <ele>147.33</ele>
        <time>2019-03-30T08:37:51Z</time>
      </trkpt>
      <trkpt lat="48.2752" lon="3.1963">
        <ele>147.98</ele>
        <time>2019-03-30T08:37:56Z</time>
      </trkpt>
      <trkpt lat="48.27515" lon="3.1963">
        <ele>148.68</ele>
        <time>2019-03-30T08:38:01Z</time>
      </trkpt>
      <trkpt lat="48.27511" lon="3.19629">
        <ele>149.1</ele>
        <time>2019-03-30T08:38:06Z</time>
      </trkpt>
      <trkpt lat="48.27506" lon="3.19627">
        <ele>149.5</ele>
        <time>2019-03-30T08:38:11Z</time>
      </trkpt>
      <trkpt lat="48.27502" lon="3.19625">
        <ele>149.87</ele>
        <time>2019-03-30T08:38:16Z</time>
      </trkpt>
      <trkpt lat="48.27497" lon="3.19623">
        <ele>150.35</ele>
        <time>2019-03-30T08:38:21Z</time>
      </trkpt>
      <trkpt lat="48.27492" lon="3.1962">
        <ele>151.11</ele>
        <time>2019-03-30T08:38:26Z</time>
      </trkpt>
      <trkpt lat="48.27488" lon="3.19618">
        <ele>151.5</ele>
        <time>2019-03-30T08:38:31Z</time>
      </trkpt>
      <trkpt lat="48.27482" lon="3.19615">
        <ele>151.93</ele>
        <time>2019-03-30T08:38:36Z</time>
      </trkpt>
      <trkpt lat="48.27478" lon="3.19614">
        <ele>152.37</ele>
        <time>2019-03-30T08:38:41Z</time>
      </trkpt>
      <trkpt lat="48.27473" lon="3.19613">
        <ele>152.69</ele>
        <time>2019-03-30T08:38:46Z</time>
      </trkpt>
      <trkpt lat="48.27468" lon="3.1961">
        <ele>153.06</ele>
        <time>2019-03-30T08:38:51Z</time>
      </trkpt>
      <trkpt lat="48.27465" lon="3.19607">
        <ele>153.47</ele>
        <time>2019-03-30T08:38:56Z</time>
      </trkpt>
      <trkpt lat="48.27464" lon="3.19607">
        <ele>153.84</ele>
        <time>2019-03-30T08:39:01Z</time>
      </trkpt>
      <trkpt lat="48.27464" lon="3.19607">
        <ele>154.02</ele>
        <time>2019-03-30T08:39:06Z</time>
      </trkpt>
      <trkpt lat="48.27465" lon="3.19607">
        <ele>153.91</ele>
        <time>2019-03-30T08:39:11Z</time>
      </trkpt>
      <trkpt lat="48.27465" lon="3.19608">
        <ele>153.85</ele>
        <time>2019-03-30T08:39:16Z</time>
      </trkpt>
      <trkpt lat="48.27464" lon="3.19609">
        <ele>153.87</ele>
        <time>2019-03-30T08:39:21Z</time>
      </trkpt>
      <trkpt lat="48.27465" lon="3.19609">
        <ele>153.85</ele>
        <time>2019-03-30T08:39:26Z</time>
      </trkpt>
      <trkpt lat="48.27464" lon="3.19608">
        <ele>153.83</ele>
        <time>2019-03-30T08:39:31Z</time>
      </trkpt>
      <trkpt lat="48.27461" lon="3.19607">
        <ele>153.77</ele>
        <time>2019-03-30T08:39:36Z</time>
      </trkpt>
      <trkpt lat="48.27457" lon="3.19605">
        <ele>153.86</ele>
        <time>2019-03-30T08:39:41Z</time>
      </trkpt>
      <trkpt lat="48.27454" lon="3.19601">
        <ele>154.18</ele>
        <time>2019-03-30T08:39:46Z</time>
      </trkpt>
      <trkpt lat="48.2745" lon="3.19598">
        <ele>154.41</ele>
        <time>2019-03-30T08:39:51Z</time>
      </trkpt>
      <trkpt lat="48.27447" lon="3.19595">
        <ele>154.77</ele>
        <time>2019-03-30T08:39:56Z</time>
      </trkpt>
      <trkpt lat="48.27443" lon="3.19592">
        <ele>155.1</ele>
        <time>2019-03-30T08:40:01Z</time>
      </trkpt>
      <trkpt lat="48.27439" lon="3.19588">
        <ele>155.38</ele>
        <time>2019-03-30T08:40:06Z</time>
      </trkpt>
      <trkpt lat="48.27435" lon="3.19585">
        <ele>155.57</ele>
        <time>2019-03-30T08:40:11Z</time>
      </trkpt>
      <trkpt lat="48.27432" lon="3.19582">
        <ele>155.84</ele>
        <time>2019-03-30T08:40:16Z</time>
      </trkpt>
      <trkpt lat="48.27429" lon="3.19579">
        <ele>156.05</ele>
        <time>2019-03-30T08:40:21Z</time>
      </trkpt>
      <trkpt lat="48.27425" lon="3.19575">
        <ele>156.42</ele>
        <time>2019-03-30T08:40:26Z</time>
      </trkpt>
      <trkpt lat="48.2742" lon="3.19571">
        <ele>156.78</ele>
        <time>2019-03-30T08:40:31Z</time>
      </trkpt>
      <trkpt lat="48.27417" lon="3.19567">
        <ele>157.11</ele>
        <time>2019-03-30T08:40:36Z</time>
      </trkpt>
      <trkpt lat="48.27413" lon="3.19562">
        <ele>157.38</ele>
        <time>2019-03-30T08:40:41Z</time>
      </trkpt>
      <trkpt lat="48.27409" lon="3.19557">
        <ele>157.62</ele>
        <time>2019-03-30T08:40:46Z</time>
      </trkpt>
      <trkpt lat="48.27406" lon="3.19553">
        <ele>158.02</ele>
        <time>2019-03-30T08:40:51Z</time>
      </trkpt>
      <trkpt lat="48.27402" lon="3.19551">
        <ele>158.36</ele>
        <time>2019-03-30T08:40:56Z</time>
      </trkpt>
      <trkpt lat="48.27398" lon="3.19548">
        <ele>158.78</ele>
        <time>2019-03-30T08:41:01Z</time>
      </trkpt>
      <trkpt lat="48.27395" lon="3.19545">
        <ele>158.9</ele>
        <time>2019-03-30T08:41:06Z</time>
      </trkpt>
      <trkpt lat="48.27394" lon="3.19545">
        <ele>159.24</ele>
        <time>2019-03-30T08:41:11Z</time>
      </trkpt>
      <trkpt lat="48.2739" lon="3.1954">
        <ele>159.31</ele>
        <time>2019-03-30T08:41:16Z</time>
      </trkpt>
      <trkpt lat="48.27386" lon="3.19536">
        <ele>159.26</ele>
        <time>2019-03-30T08:41:21Z</time>
      </trkpt>
      <trkpt lat="48.27381" lon="3.19531">
        <ele>159.48</ele>
        <time>2019-03-30T08:41:26Z</time>
      </trkpt>
      <trkpt lat="48.27377" lon="3.19526">
        <ele>159.64</ele>
        <time>2019-03-30T08:41:31Z</time>
      </trkpt>
      <trkpt lat="48.27372" lon="3.19521">
        <ele>159.76</ele>
        <time>2019-03-30T08:41:36Z</time>
      </trkpt>
      <trkpt lat="48.27368" lon="3.19517">
        <ele>159.99</ele>
        <time>2019-03-30T08:41:41Z</time>
      </trkpt>
      <trkpt lat="48.27364" lon="3.19512">
        <ele>160.27</ele>
        <time>2019-03-30T08:41:46Z</time>
      </trkpt>
      <trkpt lat="48.27359" lon="3.19508">
        <ele>160.59</ele>
        <time>2019-03-30T08:41:51Z</time>
      </trkpt>
      <trkpt lat="48.27355" lon="3.19504">
        <ele>160.84</ele>
        <time>2019-03-30T08:41:56Z</time>
      </trkpt>
      <trkpt lat="48.27351" lon="3.19499">
        <ele>161.27</ele>
        <time>2019-03-30T08:42:01Z</time>
      </trkpt>
      <trkpt lat="48.27346" lon="3.19495">
        <ele>161.34</ele>
        <time>2019-03-30T08:42:06Z</time>
      </trkpt>
      <trkpt lat="48.27341" lon="3.19491">
        <ele>161.58</ele>
        <time>2019-03-30T08:42:11Z</time>
      </trkpt>
      <trkpt lat="48.27337" lon="3.19486">
        <ele>161.93</ele>
        <time>2019-03-30T08:42:16Z</time>
      </trkpt>
      <trkpt lat="48.27332" lon="3.19482">
        <ele>161.96</ele>
        <time>2019-03-30T08:42:21Z</time>
      </trkpt>
      <trkpt lat="48.27327" lon="3.19477">
        <ele>162.09</ele>
        <time>2019-03-30T08:42:26Z</time>
      </trkpt>
      <trkpt lat="48.27323" lon="3.19472">
        <ele>162.37</ele>
        <time>2019-03-30T08:42:31Z</time>
      </trkpt>
      <trkpt lat="48.27318" lon="3.19467">
        <ele>162.88</ele>
        <time>2019-03-30T08:42:36Z</time>
      </trkpt>
      <trkpt lat="48.27314" lon="3.19464">
        <ele>163.08</ele>
        <time>2019-03-30T08:42:41Z</time>
      </trkpt>
      <trkpt lat="48.2731" lon="3.19459">
        <ele>163.23</ele>
        <time>2019-03-30T08:42:46Z</time>
      </trkpt>
      <trkpt lat="48.27306" lon="3.19455">
        <ele>163.42</ele>
        <time>2019-03-30T08:42:51Z</time>
      </trkpt>
      <trkpt lat="48.27301" lon="3.19451">
        <ele>163.66</ele>
        <time>2019-03-30T08:42:56Z</time>
      </trkpt>
      <trkpt lat="48.27298" lon="3.19447">
        <ele>163.82</ele>
        <time>2019-03-30T08:43:01Z</time>
      </trkpt>
      <trkpt lat="48.27294" lon="3.19442">
        <ele>163.9</ele>
        <time>2019-03-30T08:43:06Z</time>
      </trkpt>
      <trkpt lat="48.27289" lon="3.19438">
        <ele>164.27</ele>
        <time>2019-03-30T08:43:11Z</time>
      </trkpt>
      <trkpt lat="48.27285" lon="3.19435">
        <ele>164.47</ele>
        <time>2019-03-30T08:43:16Z</time>
      </trkpt>
      <trkpt lat="48.27282" lon="3.19431">
        <ele>164.72</ele>
        <time>2019-03-30T08:43:21Z</time>
      </trkpt>
      <trkpt lat="48.27278" lon="3.19427">
        <ele>165</ele>
        <time>2019-03-30T08:43:26Z</time>
      </trkpt>
      <trkpt lat="48.27275" lon="3.19424">
        <ele>165.19</ele>
        <time>2019-03-30T08:43:31Z</time>
      </trkpt>
      <trkpt lat="48.27272" lon="3.1942">
        <ele>165.35</ele>
        <time>2019-03-30T08:43:36Z</time>
      </trkpt>
      <trkpt lat="48.27268" lon="3.19416">
        <ele>165.54</ele>
        <time>2019-03-30T08:43:41Z</time>
      </trkpt>
      <trkpt lat="48.27264" lon="3.19411">
        <ele>165.72</ele>
        <time>2019-03-30T08:43:46Z</time>
      </trkpt>
      <trkpt lat="48.2726" lon="3.19406">
        <ele>165.75</ele>
        <time>2019-03-30T08:43:51Z</time>
      </trkpt>
      <trkpt lat="48.27256" lon="3.19402">
        <ele>165.89</ele>
        <time>2019-03-30T08:43:56Z</time>
      </trkpt>
      <trkpt lat="48.27252" lon="3.19396">
        <ele>165.94</ele>
        <time>2019-03-30T08:44:01Z</time>
      </trkpt>
      <trkpt lat="48.27249" lon="3.19391">
        <ele>165.99</ele>
        <time>2019-03-30T08:44:06Z</time>
      </trkpt>
      <trkpt lat="48.27245" lon="3.19386">
        <ele>166.14</ele>
        <time>2019-03-30T08:44:11Z</time>
      </trkpt>
      <trkpt lat="48.27241" lon="3.19382">
        <ele>166.23</ele>
        <time>2019-03-30T08:44:16Z</time>
      </trkpt>
      <trkpt lat="48.27237" lon="3.19377">
        <ele>166.15</ele>
        <time>2019-03-30T08:44:21Z</time>
      </trkpt>
      <trkpt lat="48.27233" lon="3.19371">
        <ele>166.2</ele>
        <time>2019-03-30T08:44:26Z</time>
      </trkpt>
      <trkpt lat="48.27229" lon="3.19365">
        <ele>166.42</ele>
        <time>2019-03-30T08:44:31Z</time>
      </trkpt>
      <trkpt lat="48.27224" lon="3.1936">
        <ele>166.54</ele>
        <time>2019-03-30T08:44:36Z</time>
      </trkpt>
      <trkpt lat="48.2722" lon="3.19356">
        <ele>166.63</ele>
        <time>2019-03-30T08:44:41Z</time>
      </trkpt>
      <trkpt lat="48.27215" lon="3.19351">
        <ele>166.86</ele>
        <time>2019-03-30T08:44:46Z</time>
      </trkpt>
      <trkpt lat="48.27211" lon="3.19345">
        <ele>166.94</ele>
        <time>2019-03-30T08:44:51Z</time>
      </trkpt>
      <trkpt lat="48.27209" lon="3.19339">
        <ele>166.97</ele>
        <time>2019-03-30T08:44:56Z</time>
      </trkpt>
      <trkpt lat="48.27207" lon="3.19333">
        <ele>167.24</ele>
        <time>2019-03-30T08:45:01Z</time>
      </trkpt>
      <trkpt lat="48.27205" lon="3.19325">
        <ele>167.42</ele>
        <time>2019-03-30T08:45:06Z</time>
      </trkpt>
      <trkpt lat="48.27203" lon="3.19317">
        <ele>167.72</ele>
        <time>2019-03-30T08:45:11Z</time>
      </trkpt>
      <trkpt lat="48.272" lon="3.19311">
        <ele>168.06</ele>
        <time>2019-03-30T08:45:16Z</time>
      </trkpt>
      <trkpt lat="48.27197" lon="3.19304">
        <ele>168.23</ele>
        <time>2019-03-30T08:45:21Z</time>
      </trkpt>
      <trkpt lat="48.27194" lon="3.19296">
        <ele>168.42</ele>
        <time>2019-03-30T08:45:26Z</time>
      </trkpt>
      <trkpt lat="48.27191" lon="3.19289">
        <ele>168.6</ele>
        <time>2019-03-30T08:45:31Z</time>
      </trkpt>
      <trkpt lat="48.27188" lon="3.19281">
        <ele>168.8</ele>
        <time>2019-03-30T08:45:36Z</time>
      </trkpt>
      <trkpt lat="48.27185" lon="3.19275">
        <ele>168.93</ele>
        <time>2019-03-30T08:45:41Z</time>
      </trkpt>
      <trkpt lat="48.27182" lon="3.19269">
        <ele>168.97</ele>
        <time>2019-03-30T08:45:46Z</time>
      </trkpt>
      <trkpt lat="48.2718" lon="3.19262">
        <ele>169.02</ele>
        <time>2019-03-30T08:45:51Z</time>
      </trkpt>
      <trkpt lat="48.27178" lon="3.19255">
        <ele>169.13</ele>
        <time>2019-03-30T08:45:56Z</time>
      </trkpt>
      <trkpt lat="48.27176" lon="3.19249">
        <ele>169.24</ele>
        <time>2019-03-30T08:46:01Z</time>
      </trkpt>
      <trkpt lat="48.27175" lon="3.19243">
        <ele>169.31</ele>
        <time>2019-03-30T08:46:06Z</time>
      </trkpt>
      <trkpt lat="48.27173" lon="3.19237">
        <ele>169.34</ele>
        <time>2019-03-30T08:46:11Z</time>
      </trkpt>
      <trkpt lat="48.2717" lon="3.1923">
        <ele>169.55</ele>
        <time>2019-03-30T08:46:16Z</time>
      </trkpt>
      <trkpt lat="48.27168" lon="3.19224">
        <ele>169.65</ele>
        <time>2019-03-30T08:46:21Z</time>
      </trkpt>
      <trkpt lat="48.27165" lon="3.19217">
        <ele>169.58</ele>
        <time>2019-03-30T08:46:26Z</time>
      </trkpt>
      <trkpt lat="48.27162" lon="3.19208">
        <ele>169.37</ele>
        <time>2019-03-30T08:46:31Z</time>
      </trkpt>
      <trkpt lat="48.27159" lon="3.19199">
        <ele>169.37</ele>
        <time>2019-03-30T08:46:36Z</time>
      </trkpt>
      <trkpt lat="48.27157" lon="3.19192">
        <ele>169.38</ele>
        <time>2019-03-30T08:46:41Z</time>
      </trkpt>
      <trkpt lat="48.27155" lon="3.19186">
        <ele>169.38</ele>
        <time>2019-03-30T08:46:46Z</time>
      </trkpt>
      <trkpt lat="48.27152" lon="3.19179">
        <ele>169.31</ele>
        <time>2019-03-30T08:46:51Z</time>
      </trkpt>
      <trkpt lat="48.2715" lon="3.19172">
        <ele>169.38</ele>
        <time>2019-03-30T08:46:56Z</time>
      </trkpt>
      <trkpt lat="48.27147" lon="3.19164">
        <ele>169.48</ele>
        <time>2019-03-30T08:47:01Z</time>
      </trkpt>
      <trkpt lat="48.27144" lon="3.19156">
        <ele>169.42</ele>
        <time>2019-03-30T08:47:06Z</time>
      </trkpt>
      <trkpt lat="48.27142" lon="3.19149">
        <ele>169.38</ele>
        <time>2019-03-30T08:47:11Z</time>
      </trkpt>
      <trkpt lat="48.27138" lon="3.19142">
        <ele>169.43</ele>
        <time>2019-03-30T08:47:16Z</time>
      </trkpt>
      <trkpt lat="48.27135" lon="3.19136">
        <ele>169.43</ele>
        <time>2019-03-30T08:47:21Z</time>
      </trkpt>
      <trkpt lat="48.27131" lon="3.1913">
        <ele>169.43</ele>
        <time>2019-03-30T08:47:26Z</time>
      </trkpt>
      <trkpt lat="48.27127" lon="3.19126">
        <ele>169.09</ele>
        <time>2019-03-30T08:47:31Z</time>
      </trkpt>
      <trkpt lat="48.27123" lon="3.1912">
        <ele>169.03</ele>
        <time>2019-03-30T08:47:36Z</time>
      </trkpt>
      <trkpt lat="48.2712" lon="3.19115">
        <ele>169</ele>
        <time>2019-03-30T08:47:41Z</time>
      </trkpt>
      <trkpt lat="48.27116" lon="3.19109">
        <ele>169.03</ele>
        <time>2019-03-30T08:47:46Z</time>
      </trkpt>
      <trkpt lat="48.27112" lon="3.19104">
        <ele>169.06</ele>
        <time>2019-03-30T08:47:51Z</time>
      </trkpt>
      <trkpt lat="48.27109" lon="3.19099">
        <ele>169.11</ele>
        <time>2019-03-30T08:47:56Z</time>
      </trkpt>
      <trkpt lat="48.27108" lon="3.19097">
        <ele>169.31</ele>
        <time>2019-03-30T08:48:01Z</time>
      </trkpt>
      <trkpt lat="48.27108" lon="3.19096">
        <ele>169.67</ele>
        <time>2019-03-30T08:48:06Z</time>
      </trkpt>
      <trkpt lat="48.27108" lon="3.19096">
        <ele>169.63</ele>
        <time>2019-03-30T08:48:11Z</time>
      </trkpt>
      <trkpt lat="48.27108" lon="3.19096">
        <ele>169.61</ele>
        <time>2019-03-30T08:48:16Z</time>
      </trkpt>
      <trkpt lat="48.27108" lon="3.19097">
        <ele>169.9</ele>
        <time>2019-03-30T08:48:21Z</time>
      </trkpt>
      <trkpt lat="48.27107" lon="3.19096">
        <ele>169.88</ele>
        <time>2019-03-30T08:48:26Z</time>
      </trkpt>
      <trkpt lat="48.27107" lon="3.19096">
        <ele>169.82</ele>
        <time>2019-03-30T08:48:31Z</time>
      </trkpt>
      <trkpt lat="48.27107" lon="3.19096">
        <ele>169.88</ele>
        <time>2019-03-30T08:48:36Z</time>
      </trkpt>
      <trkpt lat="48.27107" lon="3.19096">
        <ele>169.87</ele>
        <time>2019-03-30T08:48:41Z</time>
      </trkpt>
      <trkpt lat="48.27107" lon="3.19095">
        <ele>169.81</ele>
        <time>2019-03-30T08:48:46Z</time>
      </trkpt>
      <trkpt lat="48.27107" lon="3.19096">
        <ele>169.74</ele>
        <time>2019-03-30T08:48:51Z</time>
      </trkpt>
      <trkpt lat="48.27108" lon="3.19096">
        <ele>169.89</ele>
        <time>2019-03-30T08:48:56Z</time>
      </trkpt>
      <trkpt lat="48.27107" lon="3.19095">
        <ele>169.93</ele>
        <time>2019-03-30T08:49:01Z</time>
      </trkpt>
      <trkpt lat="48.27107" lon="3.19095">
        <ele>169.86</ele>
        <time>2019-03-30T08:49:06Z</time>
      </trkpt>
      <trkpt lat="48.27108" lon="3.19095">
        <ele>169.86</ele>
        <time>2019-03-30T08:49:11Z</time>
      </trkpt>
      <trkpt lat="48.27108" lon="3.19096">
        <ele>169.86</ele>
        <time>2019-03-30T08:49:16Z</time>
      </trkpt>
      <trkpt lat="48.27108" lon="3.19095">
        <ele>169.86</ele>
        <time>2019-03-30T08:49:21Z</time>
      </trkpt>
      <trkpt lat="48.27108" lon="3.19095">
        <ele>169.86</ele>
        <time>2019-03-30T08:49:26Z</time>
      </trkpt>
      <trkpt lat="48.27108" lon="3.19095">
        <ele>169.86</ele>
        <time>2019-03-30T08:49:31Z</time>
      </trkpt>
      <trkpt lat="48.27108" lon="3.19095">
        <ele>169.86</ele>
        <time>2019-03-30T08:49:36Z</time>
      </trkpt>
      <trkpt lat="48.27108" lon="3.19095">
        <ele>169.86</ele>
        <time>2019-03-30T08:49:41Z</time>
      </trkpt>
      <trkpt lat="48.27108" lon="3.19094">
        <ele>169.86</ele>
        <time>2019-03-30T08:49:46Z</time>
      </trkpt>
      <trkpt lat="48.27109" lon="3.19095">
        <ele>169.86</ele>
        <time>2019-03-30T08:49:51Z</time>
      </trkpt>
      <trkpt lat="48.27109" lon="3.19095">
        <ele>169.86</ele>
        <time>2019-03-30T08:49:56Z</time>
      </trkpt>
      <trkpt lat="48.27109" lon="3.19095">
        <ele>169.86</ele>
        <time>2019-03-30T08:50:01Z</time>
      </trkpt>
      <trkpt lat="48.27109" lon="3.19096">
        <ele>169.86</ele>
        <time>2019-03-30T08:50:06Z</time>
      </trkpt>
      <trkpt lat="48.27109" lon="3.19095">
        <ele>169.86</ele>
        <time>2019-03-30T08:50:11Z</time>
      </trkpt>
      <trkpt lat="48.27109" lon="3.19096">
        <ele>169.86</ele>
        <time>2019-03-30T08:50:16Z</time>
      </trkpt>
      <trkpt lat="48.27109" lon="3.19096">
        <ele>169.86</ele>
        <time>2019-03-30T08:50:21Z</time>
      </trkpt>
      <trkpt lat="48.27108" lon="3.19096">
        <ele>169.86</ele>
        <time>2019-03-30T08:50:26Z</time>
      </trkpt>
      <trkpt lat="48.27109" lon="3.19096">
        <ele>169.86</ele>
        <time>2019-03-30T08:50:31Z</time>
      </trkpt>
      <trkpt lat="48.27108" lon="3.19095">
        <ele>169.86</ele>
        <time>2019-03-30T08:50:36Z</time>
      </trkpt>
      <trkpt lat="48.27109" lon="3.19095">
        <ele>169.86</ele>
        <time>2019-03-30T08:50:41Z</time>
      </trkpt>
      <trkpt lat="48.27109" lon="3.19094">
        <ele>169.86</ele>
        <time>2019-03-30T08:50:46Z</time>
      </trkpt>
      <trkpt lat="48.27109" lon="3.19094">
        <ele>169.86</ele>
        <time>2019-03-30T08:50:51Z</time>
      </trkpt>
      <trkpt lat="48.27109" lon="3.19093">
        <ele>169.86</ele>
        <time>2019-03-30T08:50:56Z</time>
      </trkpt>
      <trkpt lat="48.27109" lon="3.19093">
        <ele>169.86</ele>
        <time>2019-03-30T08:51:01Z</time>
      </trkpt>
      <trkpt lat="48.2711" lon="3.19093">
        <ele>169.86</ele>
        <time>2019-03-30T08:51:06Z</time>
      </trkpt>
      <trkpt lat="48.27109" lon="3.19094">
        <ele>169.86</ele>
        <time>2019-03-30T08:51:11Z</time>
      </trkpt>
      <trkpt lat="48.27109" lon="3.19094">
        <ele>169.86</ele>
        <time>2019-03-30T08:51:16Z</time>
      </trkpt>
      <trkpt lat="48.27109" lon="3.19094">
        <ele>169.86</ele>
        <time>2019-03-30T08:51:21Z</time>
      </trkpt>
      <trkpt lat="48.27109" lon="3.19094">
        <ele>169.86</ele>
        <time>2019-03-30T08:51:26Z</time>
      </trkpt>
      <trkpt lat="48.27109" lon="3.19095">
        <ele>169.86</ele>
        <time>2019-03-30T08:51:31Z</time>
      </trkpt>
      <trkpt lat="48.2711" lon="3.19094">
        <ele>169.86</ele>
        <time>2019-03-30T08:51:36Z</time>
      </trkpt>
      <trkpt lat="48.2711" lon="3.19095">
        <ele>169.86</ele>
        <time>2019-03-30T08:51:41Z</time>
      </trkpt>
      <trkpt lat="48.27111" lon="3.19095">
        <ele>169.86</ele>
        <time>2019-03-30T08:51:46Z</time>
      </trkpt>
      <trkpt lat="48.2711" lon="3.19094">
        <ele>169.86</ele>
        <time>2019-03-30T08:51:51Z</time>
      </trkpt>
      <trkpt lat="48.27108" lon="3.19093">
        <ele>169.86</ele>
        <time>2019-03-30T08:51:56Z</time>
      </trkpt>
      <trkpt lat="48.27105" lon="3.1909">
        <ele>169.86</ele>
        <time>2019-03-30T08:52:01Z</time>
      </trkpt>
      <trkpt lat="48.27105" lon="3.19089">
        <ele>169.86</ele>
        <time>2019-03-30T08:52:06Z</time>
      </trkpt>
      <trkpt lat="48.27105" lon="3.19089">
        <ele>169.86</ele>
        <time>2019-03-30T08:52:11Z</time>
      </trkpt>
      <trkpt lat="48.27105" lon="3.19088">
        <ele>169.86</ele>
        <time>2019-03-30T08:52:16Z</time>
      </trkpt>
      <trkpt lat="48.27105" lon="3.19088">
        <ele>169.86</ele>
        <time>2019-03-30T08:52:21Z</time>
      </trkpt>
      <trkpt lat="48.27104" lon="3.19088">
        <ele>169.86</ele>
        <time>2019-03-30T08:52:26Z</time>
      </trkpt>
      <trkpt lat="48.27104" lon="3.19089">
        <ele>169.86</ele>
        <time>2019-03-30T08:52:31Z</time>
      </trkpt>
      <trkpt lat="48.27104" lon="3.19089">
        <ele>169.86</ele>
        <time>2019-03-30T08:52:36Z</time>
      </trkpt>
      <trkpt lat="48.27101" lon="3.19087">
        <ele>169.86</ele>
        <time>2019-03-30T08:52:41Z</time>
      </trkpt>
      <trkpt lat="48.27098" lon="3.19082">
        <ele>169.86</ele>
        <time>2019-03-30T08:52:46Z</time>
      </trkpt>
      <trkpt lat="48.27095" lon="3.19078">
        <ele>169.26</ele>
        <time>2019-03-30T08:52:51Z</time>
      </trkpt>
      <trkpt lat="48.27091" lon="3.19072">
        <ele>169.09</ele>
        <time>2019-03-30T08:52:56Z</time>
      </trkpt>
      <trkpt lat="48.27087" lon="3.19068">
        <ele>169.02</ele>
        <time>2019-03-30T08:53:01Z</time>
      </trkpt>
      <trkpt lat="48.27084" lon="3.19064">
        <ele>169.03</ele>
        <time>2019-03-30T08:53:06Z</time>
      </trkpt>
      <trkpt lat="48.2708" lon="3.19059">
        <ele>169.05</ele>
        <time>2019-03-30T08:53:11Z</time>
      </trkpt>
      <trkpt lat="48.27075" lon="3.19053">
        <ele>169.17</ele>
        <time>2019-03-30T08:53:16Z</time>
      </trkpt>
      <trkpt lat="48.27071" lon="3.19048">
        <ele>169.18</ele>
        <time>2019-03-30T08:53:21Z</time>
      </trkpt>
      <trkpt lat="48.27067" lon="3.19042">
        <ele>169.26</ele>
        <time>2019-03-30T08:53:26Z</time>
      </trkpt>
      <trkpt lat="48.27063" lon="3.19037">
        <ele>169.26</ele>
        <time>2019-03-30T08:53:31Z</time>
      </trkpt>
      <trkpt lat="48.27059" lon="3.19032">
        <ele>169.24</ele>
        <time>2019-03-30T08:53:36Z</time>
      </trkpt>
      <trkpt lat="48.27054" lon="3.19028">
        <ele>169.36</ele>
        <time>2019-03-30T08:53:41Z</time>
      </trkpt>
      <trkpt lat="48.2705" lon="3.19024">
        <ele>169.43</ele>
        <time>2019-03-30T08:53:46Z</time>
      </trkpt>
      <trkpt lat="48.27047" lon="3.19021">
        <ele>169.52</ele>
        <time>2019-03-30T08:53:51Z</time>
      </trkpt>
      <trkpt lat="48.27043" lon="3.19018">
        <ele>169.69</ele>
        <time>2019-03-30T08:53:56Z</time>
      </trkpt>
      <trkpt lat="48.27038" lon="3.19014">
        <ele>169.86</ele>
        <time>2019-03-30T08:54:01Z</time>
      </trkpt>
      <trkpt lat="48.27034" lon="3.19011">
        <ele>169.98</ele>
        <time>2019-03-30T08:54:06Z</time>
      </trkpt>
      <trkpt lat="48.2703" lon="3.19008">
        <ele>170.04</ele>
        <time>2019-03-30T08:54:11Z</time>
      </trkpt>
      <trkpt lat="48.27025" lon="3.19005">
        <ele>169.95</ele>
        <time>2019-03-30T08:54:16Z</time>
      </trkpt>
      <trkpt lat="48.27021" lon="3.19002">
        <ele>170.08</ele>
        <time>2019-03-30T08:54:21Z</time>
      </trkpt>
      <trkpt lat="48.27016" lon="3.18998">
        <ele>170.19</ele>
        <time>2019-03-30T08:54:26Z</time>
      </trkpt>
      <trkpt lat="48.27012" lon="3.18993">
        <ele>170.27</ele>
        <time>2019-03-30T08:54:31Z</time>
      </trkpt>
      <trkpt lat="48.27007" lon="3.18989">
        <ele>170.27</ele>
        <time>2019-03-30T08:54:36Z</time>
      </trkpt>
      <trkpt lat="48.27002" lon="3.18985">
        <ele>170.35</ele>
        <time>2019-03-30T08:54:41Z</time>
      </trkpt>
      <trkpt lat="48.26998" lon="3.1898">
        <ele>170.29</ele>
        <time>2019-03-30T08:54:46Z</time>
      </trkpt>
      <trkpt lat="48.26993" lon="3.18977">
        <ele>170.28</ele>
        <time>2019-03-30T08:54:51Z</time>
      </trkpt>
      <trkpt lat="48.26989" lon="3.18971">
        <ele>170.17</ele>
        <time>2019-03-30T08:54:56Z</time>
      </trkpt>
      <trkpt lat="48.26983" lon="3.18968">
        <ele>170.09</ele>
        <time>2019-03-30T08:55:01Z</time>
      </trkpt>
      <trkpt lat="48.26977" lon="3.18966">
        <ele>169.95</ele>
        <time>2019-03-30T08:55:06Z</time>
      </trkpt>
      <trkpt lat="48.26971" lon="3.18962">
        <ele>169.74</ele>
        <time>2019-03-30T08:55:11Z</time>
      </trkpt>
      <trkpt lat="48.26965" lon="3.18958">
        <ele>169.76</ele>
        <time>2019-03-30T08:55:16Z</time>
      </trkpt>
      <trkpt lat="48.26961" lon="3.18953">
        <ele>169.76</ele>
        <time>2019-03-30T08:55:21Z</time>
      </trkpt>
      <trkpt lat="48.26956" lon="3.18949">
        <ele>169.64</ele>
        <time>2019-03-30T08:55:26Z</time>
      </trkpt>
      <trkpt lat="48.26949" lon="3.18944">
        <ele>169.26</ele>
        <time>2019-03-30T08:55:31Z</time>
      </trkpt>
      <trkpt lat="48.26944" lon="3.18939">
        <ele>169.16</ele>
        <time>2019-03-30T08:55:36Z</time>
      </trkpt>
      <trkpt lat="48.26939" lon="3.18934">
        <ele>169.02</ele>
        <time>2019-03-30T08:55:41Z</time>
      </trkpt>
      <trkpt lat="48.26934" lon="3.18927">
        <ele>169.11</ele>
        <time>2019-03-30T08:55:46Z</time>
      </trkpt>
      <trkpt lat="48.26929" lon="3.18921">
        <ele>169.29</ele>
        <time>2019-03-30T08:55:51Z</time>
      </trkpt>
      <trkpt lat="48.26925" lon="3.18917">
        <ele>169.43</ele>
        <time>2019-03-30T08:55:56Z</time>
      </trkpt>
      <trkpt lat="48.26922" lon="3.18911">
        <ele>169.43</ele>
        <time>2019-03-30T08:56:01Z</time>
      </trkpt>
      <trkpt lat="48.26918" lon="3.18904">
        <ele>169.27</ele>
        <time>2019-03-30T08:56:06Z</time>
      </trkpt>
      <trkpt lat="48.26913" lon="3.18897">
        <ele>169.23</ele>
        <time>2019-03-30T08:56:11Z</time>
      </trkpt>
      <trkpt lat="48.26909" lon="3.18891">
        <ele>169.31</ele>
        <time>2019-03-30T08:56:16Z</time>
      </trkpt>
      <trkpt lat="48.26905" lon="3.18881">
        <ele>169.14</ele>
        <time>2019-03-30T08:56:21Z</time>
      </trkpt>
      <trkpt lat="48.269" lon="3.18872">
        <ele>169.19</ele>
        <time>2019-03-30T08:56:26Z</time>
      </trkpt>
      <trkpt lat="48.26895" lon="3.18867">
        <ele>168.91</ele>
        <time>2019-03-30T08:56:31Z</time>
      </trkpt>
      <trkpt lat="48.2689" lon="3.18863">
        <ele>169.33</ele>
        <time>2019-03-30T08:56:36Z</time>
      </trkpt>
      <trkpt lat="48.26887" lon="3.18857">
        <ele>169.38</ele>
        <time>2019-03-30T08:56:41Z</time>
      </trkpt>
      <trkpt lat="48.26882" lon="3.18851">
        <ele>169.33</ele>
        <time>2019-03-30T08:56:46Z</time>
      </trkpt>
      <trkpt lat="48.26878" lon="3.18844">
        <ele>169.18</ele>
        <time>2019-03-30T08:56:51Z</time>
      </trkpt>
      <trkpt lat="48.26874" lon="3.18838">
        <ele>168.96</ele>
        <time>2019-03-30T08:56:56Z</time>
      </trkpt>
      <trkpt lat="48.26869" lon="3.18831">
        <ele>168.85</ele>
        <time>2019-03-30T08:57:01Z</time>
      </trkpt>
      <trkpt lat="48.26864" lon="3.18826">
        <ele>168.81</ele>
        <time>2019-03-30T08:57:06Z</time>
      </trkpt>
      <trkpt lat="48.26859" lon="3.18821">
        <ele>168.64</ele>
        <time>2019-03-30T08:57:11Z</time>
      </trkpt>
      <trkpt lat="48.26853" lon="3.18817">
        <ele>168.58</ele>
        <time>2019-03-30T08:57:16Z</time>
      </trkpt>
      <trkpt lat="48.26849" lon="3.18812">
        <ele>168.58</ele>
        <time>2019-03-30T08:57:21Z</time>
      </trkpt>
      <trkpt lat="48.26843" lon="3.18807">
        <ele>168.4</ele>
        <time>2019-03-30T08:57:26Z</time>
      </trkpt>
      <trkpt lat="48.26839" lon="3.18802">
        <ele>168.29</ele>
        <time>2019-03-30T08:57:31Z</time>
      </trkpt>
      <trkpt lat="48.26834" lon="3.18798">
        <ele>168.28</ele>
        <time>2019-03-30T08:57:36Z</time>
      </trkpt>
      <trkpt lat="48.26828" lon="3.18793">
        <ele>168.3</ele>
        <time>2019-03-30T08:57:41Z</time>
      </trkpt>
      <trkpt lat="48.26824" lon="3.18788">
        <ele>168.37</ele>
        <time>2019-03-30T08:57:46Z</time>
      </trkpt>
      <trkpt lat="48.2682" lon="3.18784">
        <ele>168.37</ele>
        <time>2019-03-30T08:57:51Z</time>
      </trkpt>
      <trkpt lat="48.26815" lon="3.1878">
        <ele>168.31</ele>
        <time>2019-03-30T08:57:56Z</time>
      </trkpt>
      <trkpt lat="48.26811" lon="3.18777">
        <ele>168.04</ele>
        <time>2019-03-30T08:58:01Z</time>
      </trkpt>
      <trkpt lat="48.26807" lon="3.18772">
        <ele>167.88</ele>
        <time>2019-03-30T08:58:06Z</time>
      </trkpt>
      <trkpt lat="48.26804" lon="3.18766">
        <ele>167.94</ele>
        <time>2019-03-30T08:58:11Z</time>
      </trkpt>
      <trkpt lat="48.26801" lon="3.18761">
        <ele>167.83</ele>
        <time>2019-03-30T08:58:16Z</time>
      </trkpt>
      <trkpt lat="48.26798" lon="3.18757">
        <ele>167.6</ele>
        <time>2019-03-30T08:58:21Z</time>
      </trkpt>
      <trkpt lat="48.26793" lon="3.18754">
        <ele>167.37</ele>
        <time>2019-03-30T08:58:26Z</time>
      </trkpt>
      <trkpt lat="48.26789" lon="3.1875">
        <ele>167.28</ele>
        <time>2019-03-30T08:58:31Z</time>
      </trkpt>
      <trkpt lat="48.26785" lon="3.18747">
        <ele>167.01</ele>
        <time>2019-03-30T08:58:36Z</time>
      </trkpt>
      <trkpt lat="48.26782" lon="3.18742">
        <ele>166.78</ele>
        <time>2019-03-30T08:58:41Z</time>
      </trkpt>
      <trkpt lat="48.26777" lon="3.18735">
        <ele>166.6</ele>
        <time>2019-03-30T08:58:46Z</time>
      </trkpt>
      <trkpt lat="48.26773" lon="3.18731">
        <ele>166.27</ele>
        <time>2019-03-30T08:58:51Z</time>
      </trkpt>
      <trkpt lat="48.26767" lon="3.18724">
        <ele>165.98</ele>
        <time>2019-03-30T08:58:56Z</time>
      </trkpt>
      <trkpt lat="48.26762" lon="3.18719">
        <ele>165.61</ele>
        <time>2019-03-30T08:59:01Z</time>
      </trkpt>
      <trkpt lat="48.26758" lon="3.18713">
        <ele>165.19</ele>
        <time>2019-03-30T08:59:06Z</time>
      </trkpt>
      <trkpt lat="48.26755" lon="3.18708">
        <ele>164.85</ele>
        <time>2019-03-30T08:59:11Z</time>
      </trkpt>
      <trkpt lat="48.26753" lon="3.18702">
        <ele>164.62</ele>
        <time>2019-03-30T08:59:16Z</time>
      </trkpt>
      <trkpt lat="48.26755" lon="3.18697">
        <ele>164.42</ele>
        <time>2019-03-30T08:59:21Z</time>
      </trkpt>
      <trkpt lat="48.26758" lon="3.18691">
        <ele>164.57</ele>
        <time>2019-03-30T08:59:26Z</time>
      </trkpt>
      <trkpt lat="48.26763" lon="3.18686">
        <ele>165</ele>
        <time>2019-03-30T08:59:31Z</time>
      </trkpt>
      <trkpt lat="48.26768" lon="3.18682">
        <ele>165.09</ele>
        <time>2019-03-30T08:59:36Z</time>
      </trkpt>
      <trkpt lat="48.26772" lon="3.18676">
        <ele>165.34</ele>
        <time>2019-03-30T08:59:41Z</time>
      </trkpt>
      <trkpt lat="48.26777" lon="3.18671">
        <ele>165.74</ele>
        <time>2019-03-30T08:59:46Z</time>
      </trkpt>
      <trkpt lat="48.26781" lon="3.18667">
        <ele>166.18</ele>
        <time>2019-03-30T08:59:51Z</time>
      </trkpt>
      <trkpt lat="48.26784" lon="3.18664">
        <ele>166.41</ele>
        <time>2019-03-30T08:59:56Z</time>
      </trkpt>
      <trkpt lat="48.26788" lon="3.18661">
        <ele>166.68</ele>
        <time>2019-03-30T09:00:01Z</time>
      </trkpt>
      <trkpt lat="48.26793" lon="3.18658">
        <ele>166.82</ele>
        <time>2019-03-30T09:00:06Z</time>
      </trkpt>
      <trkpt lat="48.26797" lon="3.18655">
        <ele>167.14</ele>
        <time>2019-03-30T09:00:11Z</time>
      </trkpt>
      <trkpt lat="48.26801" lon="3.1865">
        <ele>167.46</ele>
        <time>2019-03-30T09:00:16Z</time>
      </trkpt>
      <trkpt lat="48.26806" lon="3.18647">
        <ele>168</ele>
        <time>2019-03-30T09:00:21Z</time>
      </trkpt>
      <trkpt lat="48.26809" lon="3.18641">
        <ele>168.47</ele>
        <time>2019-03-30T09:00:26Z</time>
      </trkpt>
      <trkpt lat="48.26814" lon="3.18633">
        <ele>168.59</ele>
        <time>2019-03-30T09:00:31Z</time>
      </trkpt>
      <trkpt lat="48.26817" lon="3.18626">
        <ele>168.85</ele>
        <time>2019-03-30T09:00:36Z</time>
      </trkpt>
      <trkpt lat="48.2682" lon="3.18618">
        <ele>169.14</ele>
        <time>2019-03-30T09:00:41Z</time>
      </trkpt>
      <trkpt lat="48.26822" lon="3.1861">
        <ele>169.42</ele>
        <time>2019-03-30T09:00:46Z</time>
      </trkpt>
      <trkpt lat="48.26823" lon="3.18604">
        <ele>169.65</ele>
        <time>2019-03-30T09:00:51Z</time>
      </trkpt>
      <trkpt lat="48.26825" lon="3.18598">
        <ele>169.68</ele>
        <time>2019-03-30T09:00:56Z</time>
      </trkpt>
      <trkpt lat="48.26823" lon="3.1859">
        <ele>169.77</ele>
        <time>2019-03-30T09:01:01Z</time>
      </trkpt>
      <trkpt lat="48.26819" lon="3.18583">
        <ele>169.83</ele>
        <time>2019-03-30T09:01:06Z</time>
      </trkpt>
      <trkpt lat="48.26816" lon="3.18575">
        <ele>169.82</ele>
        <time>2019-03-30T09:01:11Z</time>
      </trkpt>
      <trkpt lat="48.26812" lon="3.18569">
        <ele>169.65</ele>
        <time>2019-03-30T09:01:16Z</time>
      </trkpt>
      <trkpt lat="48.2681" lon="3.18564">
        <ele>169.33</ele>
        <time>2019-03-30T09:01:21Z</time>
      </trkpt>
      <trkpt lat="48.26805" lon="3.18557">
        <ele>169.17</ele>
        <time>2019-03-30T09:01:26Z</time>
      </trkpt>
      <trkpt lat="48.268" lon="3.18552">
        <ele>169.13</ele>
        <time>2019-03-30T09:01:31Z</time>
      </trkpt>
      <trkpt lat="48.26794" lon="3.18549">
        <ele>169.1</ele>
        <time>2019-03-30T09:01:36Z</time>
      </trkpt>
      <trkpt lat="48.2679" lon="3.18545">
        <ele>169.1</ele>
        <time>2019-03-30T09:01:41Z</time>
      </trkpt>
      <trkpt lat="48.26785" lon="3.1854">
        <ele>168.65</ele>
        <time>2019-03-30T09:01:46Z</time>
      </trkpt>
      <trkpt lat="48.26781" lon="3.18535">
        <ele>168.58</ele>
        <time>2019-03-30T09:01:51Z</time>
      </trkpt>
      <trkpt lat="48.26777" lon="3.18532">
        <ele>168.64</ele>
        <time>2019-03-30T09:01:56Z</time>
      </trkpt>
      <trkpt lat="48.26771" lon="3.18528">
        <ele>168.64</ele>
        <time>2019-03-30T09:02:01Z</time>
      </trkpt>
      <trkpt lat="48.26766" lon="3.18524">
        <ele>168.67</ele>
        <time>2019-03-30T09:02:06Z</time>
      </trkpt>
      <trkpt lat="48.26763" lon="3.18521">
        <ele>168.53</ele>
        <time>2019-03-30T09:02:11Z</time>
      </trkpt>
      <trkpt lat="48.26763" lon="3.1852">
        <ele>168.51</ele>
        <time>2019-03-30T09:02:16Z</time>
      </trkpt>
      <trkpt lat="48.26763" lon="3.1852">
        <ele>168.5</ele>
        <time>2019-03-30T09:02:21Z</time>
      </trkpt>
      <trkpt lat="48.26763" lon="3.1852">
        <ele>168.41</ele>
        <time>2019-03-30T09:02:26Z</time>
      </trkpt>
      <trkpt lat="48.26763" lon="3.1852">
        <ele>168.5</ele>
        <time>2019-03-30T09:02:31Z</time>
      </trkpt>
      <trkpt lat="48.26763" lon="3.18521">
        <ele>168.5</ele>
        <time>2019-03-30T09:02:36Z</time>
      </trkpt>
      <trkpt lat="48.26763" lon="3.1852">
        <ele>168.21</ele>
        <time>2019-03-30T09:02:41Z</time>
      </trkpt>
      <trkpt lat="48.26763" lon="3.18518">
        <ele>168.03</ele>
        <time>2019-03-30T09:02:46Z</time>
      </trkpt>
      <trkpt lat="48.26763" lon="3.18515">
        <ele>168.03</ele>
        <time>2019-03-30T09:02:51Z</time>
      </trkpt>
      <trkpt lat="48.26765" lon="3.18511">
        <ele>168.14</ele>
        <time>2019-03-30T09:02:56Z</time>
      </trkpt>
      <trkpt lat="48.26767" lon="3.18506">
        <ele>168.34</ele>
        <time>2019-03-30T09:03:01Z</time>
      </trkpt>
      <trkpt lat="48.26767" lon="3.18504">
        <ele>168.66</ele>
        <time>2019-03-30T09:03:06Z</time>
      </trkpt>
      <trkpt lat="48.26768" lon="3.18504">
        <ele>168.82</ele>
        <time>2019-03-30T09:03:11Z</time>
      </trkpt>
      <trkpt lat="48.26768" lon="3.18503">
        <ele>168.71</ele>
        <time>2019-03-30T09:03:16Z</time>
      </trkpt>
      <trkpt lat="48.26769" lon="3.18504">
        <ele>168.71</ele>
        <time>2019-03-30T09:03:21Z</time>
      </trkpt>
      <trkpt lat="48.26769" lon="3.18505">
        <ele>168.71</ele>
        <time>2019-03-30T09:03:26Z</time>
      </trkpt>
      <trkpt lat="48.2677" lon="3.18505">
        <ele>168.71</ele>
        <time>2019-03-30T09:03:31Z</time>
      </trkpt>
      <trkpt lat="48.26771" lon="3.18505">
        <ele>168.71</ele>
        <time>2019-03-30T09:03:36Z</time>
      </trkpt>
      <trkpt lat="48.26772" lon="3.18505">
        <ele>168.71</ele>
        <time>2019-03-30T09:03:41Z</time>
      </trkpt>
      <trkpt lat="48.26773" lon="3.18505">
        <ele>168.71</ele>
        <time>2019-03-30T09:03:46Z</time>
      </trkpt>
      <trkpt lat="48.26772" lon="3.18504">
        <ele>168.71</ele>
        <time>2019-03-30T09:03:51Z</time>
      </trkpt>
      <trkpt lat="48.26773" lon="3.18504">
        <ele>168.71</ele>
        <time>2019-03-30T09:03:56Z</time>
      </trkpt>
      <trkpt lat="48.26773" lon="3.18503">
        <ele>168.71</ele>
        <time>2019-03-30T09:04:01Z</time>
      </trkpt>
      <trkpt lat="48.26773" lon="3.18502">
        <ele>168.71</ele>
        <time>2019-03-30T09:04:06Z</time>
      </trkpt>
      <trkpt lat="48.26772" lon="3.18501">
        <ele>168.71</ele>
        <time>2019-03-30T09:04:11Z</time>
      </trkpt>
      <trkpt lat="48.26771" lon="3.185">
        <ele>168.71</ele>
        <time>2019-03-30T09:04:16Z</time>
      </trkpt>
      <trkpt lat="48.26771" lon="3.18499">
        <ele>168.71</ele>
        <time>2019-03-30T09:04:21Z</time>
      </trkpt>
      <trkpt lat="48.2677" lon="3.18498">
        <ele>168.71</ele>
        <time>2019-03-30T09:04:26Z</time>
      </trkpt>
      <trkpt lat="48.2677" lon="3.18497">
        <ele>168.71</ele>
        <time>2019-03-30T09:04:31Z</time>
      </trkpt>
      <trkpt lat="48.2677" lon="3.18499">
        <ele>168.71</ele>
        <time>2019-03-30T09:04:36Z</time>
      </trkpt>
      <trkpt lat="48.2677" lon="3.185">
        <ele>168.71</ele>
        <time>2019-03-30T09:04:41Z</time>
      </trkpt>
      <trkpt lat="48.26771" lon="3.185">
        <ele>168.71</ele>
        <time>2019-03-30T09:04:46Z</time>
      </trkpt>
      <trkpt lat="48.26771" lon="3.18501">
        <ele>168.71</ele>
        <time>2019-03-30T09:04:51Z</time>
      </trkpt>
      <trkpt lat="48.26771" lon="3.185">
        <ele>168.71</ele>
        <time>2019-03-30T09:04:56Z</time>
      </trkpt>
      <trkpt lat="48.2677" lon="3.185">
        <ele>168.71</ele>
        <time>2019-03-30T09:05:01Z</time>
      </trkpt>
      <trkpt lat="48.2677" lon="3.18501">
        <ele>168.71</ele>
        <time>2019-03-30T09:05:06Z</time>
      </trkpt>
      <trkpt lat="48.26771" lon="3.18502">
        <ele>168.71</ele>
        <time>2019-03-30T09:05:11Z</time>
      </trkpt>
      <trkpt lat="48.26772" lon="3.18502">
        <ele>168.71</ele>
        <time>2019-03-30T09:05:16Z</time>
      </trkpt>
      <trkpt lat="48.26772" lon="3.18502">
        <ele>168.71</ele>
        <time>2019-03-30T09:05:21Z</time>
      </trkpt>
      <trkpt lat="48.26772" lon="3.18502">
        <ele>168.71</ele>
        <time>2019-03-30T09:05:26Z</time>
      </trkpt>
      <trkpt lat="48.26771" lon="3.18503">
        <ele>168.71</ele>
        <time>2019-03-30T09:05:31Z</time>
      </trkpt>
      <trkpt lat="48.26771" lon="3.18503">
        <ele>168.71</ele>
        <time>2019-03-30T09:05:36Z</time>
      </trkpt>
      <trkpt lat="48.2677" lon="3.18503">
        <ele>168.71</ele>
        <time>2019-03-30T09:05:41Z</time>
      </trkpt>
      <trkpt lat="48.26769" lon="3.18503">
        <ele>168.71</ele>
        <time>2019-03-30T09:05:46Z</time>
      </trkpt>
      <trkpt lat="48.26769" lon="3.18503">
        <ele>168.71</ele>
        <time>2019-03-30T09:05:51Z</time>
      </trkpt>
      <trkpt lat="48.26768" lon="3.18503">
        <ele>168.71</ele>
        <time>2019-03-30T09:05:56Z</time>
      </trkpt>
      <trkpt lat="48.26768" lon="3.18502">
        <ele>168.71</ele>
        <time>2019-03-30T09:06:01Z</time>
      </trkpt>
      <trkpt lat="48.26768" lon="3.18503">
        <ele>168.71</ele>
        <time>2019-03-30T09:06:06Z</time>
      </trkpt>
      <trkpt lat="48.26767" lon="3.18503">
        <ele>168.71</ele>
        <time>2019-03-30T09:06:11Z</time>
      </trkpt>
      <trkpt lat="48.26767" lon="3.18503">
        <ele>168.71</ele>
        <time>2019-03-30T09:06:16Z</time>
      </trkpt>
      <trkpt lat="48.26767" lon="3.18506">
        <ele>168.71</ele>
        <time>2019-03-30T09:06:21Z</time>
      </trkpt>
      <trkpt lat="48.26768" lon="3.18507">
        <ele>168.71</ele>
        <time>2019-03-30T09:06:26Z</time>
      </trkpt>
      <trkpt lat="48.26768" lon="3.18509">
        <ele>168.71</ele>
        <time>2019-03-30T09:06:31Z</time>
      </trkpt>
      <trkpt lat="48.26767" lon="3.18511">
        <ele>168.71</ele>
        <time>2019-03-30T09:06:36Z</time>
      </trkpt>
      <trkpt lat="48.26767" lon="3.18512">
        <ele>168.71</ele>
        <time>2019-03-30T09:06:41Z</time>
      </trkpt>
      <trkpt lat="48.26767" lon="3.18512">
        <ele>168.71</ele>
        <time>2019-03-30T09:06:46Z</time>
      </trkpt>
      <trkpt lat="48.26766" lon="3.18513">
        <ele>168.71</ele>
        <time>2019-03-30T09:06:51Z</time>
      </trkpt>
      <trkpt lat="48.26766" lon="3.18514">
        <ele>168.71</ele>
        <time>2019-03-30T09:06:56Z</time>
      </trkpt>
      <trkpt lat="48.26766" lon="3.18514">
        <ele>168.71</ele>
        <time>2019-03-30T09:07:01Z</time>
      </trkpt>
      <trkpt lat="48.26766" lon="3.18514">
        <ele>168.71</ele>
        <time>2019-03-30T09:07:06Z</time>
      </trkpt>
      <trkpt lat="48.26766" lon="3.18514">
        <ele>168.71</ele>
        <time>2019-03-30T09:07:11Z</time>
      </trkpt>
      <trkpt lat="48.26765" lon="3.18512">
        <ele>168.71</ele>
        <time>2019-03-30T09:07:16Z</time>
      </trkpt>
      <trkpt lat="48.26764" lon="3.18512">
        <ele>168.71</ele>
        <time>2019-03-30T09:07:21Z</time>
      </trkpt>
      <trkpt lat="48.26765" lon="3.18511">
        <ele>168.71</ele>
        <time>2019-03-30T09:07:26Z</time>
      </trkpt>
      <trkpt lat="48.26765" lon="3.18511">
        <ele>168.71</ele>
        <time>2019-03-30T09:07:31Z</time>
      </trkpt>
      <trkpt lat="48.26764" lon="3.18511">
        <ele>168.71</ele>
        <time>2019-03-30T09:07:36Z</time>
      </trkpt>
      <trkpt lat="48.26765" lon="3.18511">
        <ele>168.71</ele>
        <time>2019-03-30T09:07:41Z</time>
      </trkpt>
      <trkpt lat="48.26765" lon="3.18511">
        <ele>168.71</ele>
        <time>2019-03-30T09:07:46Z</time>
      </trkpt>
      <trkpt lat="48.26765" lon="3.18511">
        <ele>168.71</ele>
        <time>2019-03-30T09:07:51Z</time>
      </trkpt>
      <trkpt lat="48.26765" lon="3.18511">
        <ele>168.71</ele>
        <time>2019-03-30T09:07:56Z</time>
      </trkpt>
      <trkpt lat="48.26765" lon="3.18511">
        <ele>168.71</ele>
        <time>2019-03-30T09:08:01Z</time>
      </trkpt>
      <trkpt lat="48.26765" lon="3.18512">
        <ele>168.71</ele>
        <time>2019-03-30T09:08:06Z</time>
      </trkpt>
      <trkpt lat="48.26765" lon="3.18513">
        <ele>168.71</ele>
        <time>2019-03-30T09:08:11Z</time>
      </trkpt>
      <trkpt lat="48.26764" lon="3.18514">
        <ele>168.71</ele>
        <time>2019-03-30T09:08:16Z</time>
      </trkpt>
      <trkpt lat="48.26764" lon="3.18514">
        <ele>168.71</ele>
        <time>2019-03-30T09:08:21Z</time>
      </trkpt>
      <trkpt lat="48.26764" lon="3.18514">
        <ele>168.71</ele>
        <time>2019-03-30T09:08:26Z</time>
      </trkpt>
      <trkpt lat="48.26764" lon="3.18514">
        <ele>168.71</ele>
        <time>2019-03-30T09:08:31Z</time>
      </trkpt>
      <trkpt lat="48.26763" lon="3.18514">
        <ele>168.71</ele>
        <time>2019-03-30T09:08:36Z</time>
      </trkpt>
      <trkpt lat="48.26763" lon="3.18513">
        <ele>168.71</ele>
        <time>2019-03-30T09:08:41Z</time>
      </trkpt>
      <trkpt lat="48.26763" lon="3.18513">
        <ele>168.71</ele>
        <time>2019-03-30T09:08:46Z</time>
      </trkpt>
      <trkpt lat="48.26763" lon="3.18512">
        <ele>168.71</ele>
        <time>2019-03-30T09:08:51Z</time>
      </trkpt>
      <trkpt lat="48.26762" lon="3.18513">
        <ele>168.71</ele>
        <time>2019-03-30T09:08:56Z</time>
      </trkpt>
      <trkpt lat="48.26762" lon="3.18513">
        <ele>168.71</ele>
        <time>2019-03-30T09:09:01Z</time>
      </trkpt>
      <trkpt lat="48.26762" lon="3.18513">
        <ele>168.71</ele>
        <time>2019-03-30T09:09:06Z</time>
      </trkpt>
      <trkpt lat="48.26761" lon="3.18513">
        <ele>168.71</ele>
        <time>2019-03-30T09:09:11Z</time>
      </trkpt>
      <trkpt lat="48.26761" lon="3.18513">
        <ele>168.71</ele>
        <time>2019-03-30T09:09:16Z</time>
      </trkpt>
      <trkpt lat="48.26762" lon="3.18514">
        <ele>168.71</ele>
        <time>2019-03-30T09:09:21Z</time>
      </trkpt>
      <trkpt lat="48.26762" lon="3.18514">
        <ele>168.71</ele>
        <time>2019-03-30T09:09:26Z</time>
      </trkpt>
      <trkpt lat="48.26762" lon="3.18514">
        <ele>168.71</ele>
        <time>2019-03-30T09:09:31Z</time>
      </trkpt>
      <trkpt lat="48.26762" lon="3.18514">
        <ele>168.71</ele>
        <time>2019-03-30T09:09:36Z</time>
      </trkpt>
      <trkpt lat="48.26762" lon="3.18513">
        <ele>168.71</ele>
        <time>2019-03-30T09:09:41Z</time>
      </trkpt>
      <trkpt lat="48.26763" lon="3.18513">
        <ele>168.71</ele>
        <time>2019-03-30T09:09:46Z</time>
      </trkpt>
      <trkpt lat="48.26764" lon="3.18514">
        <ele>168.71</ele>
        <time>2019-03-30T09:09:51Z</time>
      </trkpt>
      <trkpt lat="48.26764" lon="3.18514">
        <ele>168.71</ele>
        <time>2019-03-30T09:09:56Z</time>
      </trkpt>
      <trkpt lat="48.26764" lon="3.18514">
        <ele>168.71</ele>
        <time>2019-03-30T09:10:01Z</time>
      </trkpt>
      <trkpt lat="48.26764" lon="3.18514">
        <ele>168.71</ele>
        <time>2019-03-30T09:10:06Z</time>
      </trkpt>
      <trkpt lat="48.26766" lon="3.18514">
        <ele>168.71</ele>
        <time>2019-03-30T09:10:11Z</time>
      </trkpt>
      <trkpt lat="48.26768" lon="3.18512">
        <ele>168.71</ele>
        <time>2019-03-30T09:10:16Z</time>
      </trkpt>
      <trkpt lat="48.2677" lon="3.18508">
        <ele>168.71</ele>
        <time>2019-03-30T09:10:21Z</time>
      </trkpt>
      <trkpt lat="48.26773" lon="3.18504">
        <ele>168.71</ele>
        <time>2019-03-30T09:10:26Z</time>
      </trkpt>
      <trkpt lat="48.26776" lon="3.185">
        <ele>168.81</ele>
        <time>2019-03-30T09:10:31Z</time>
      </trkpt>
      <trkpt lat="48.26779" lon="3.18495">
        <ele>169.56</ele>
        <time>2019-03-30T09:10:36Z</time>
      </trkpt>
      <trkpt lat="48.26781" lon="3.1849">
        <ele>169.66</ele>
        <time>2019-03-30T09:10:41Z</time>
      </trkpt>
      <trkpt lat="48.26784" lon="3.18485">
        <ele>169.67</ele>
        <time>2019-03-30T09:10:46Z</time>
      </trkpt>
      <trkpt lat="48.26787" lon="3.18478">
        <ele>169.7</ele>
        <time>2019-03-30T09:10:51Z</time>
      </trkpt>
      <trkpt lat="48.2679" lon="3.18472">
        <ele>169.77</ele>
        <time>2019-03-30T09:10:56Z</time>
      </trkpt>
      <trkpt lat="48.26793" lon="3.18467">
        <ele>169.64</ele>
        <time>2019-03-30T09:11:01Z</time>
      </trkpt>
      <trkpt lat="48.26796" lon="3.1846">
        <ele>169.59</ele>
        <time>2019-03-30T09:11:06Z</time>
      </trkpt>
      <trkpt lat="48.26799" lon="3.18454">
        <ele>169.52</ele>
        <time>2019-03-30T09:11:11Z</time>
      </trkpt>
      <trkpt lat="48.26802" lon="3.18448">
        <ele>169.33</ele>
        <time>2019-03-30T09:11:16Z</time>
      </trkpt>
      <trkpt lat="48.26806" lon="3.18444">
        <ele>169.22</ele>
        <time>2019-03-30T09:11:21Z</time>
      </trkpt>
      <trkpt lat="48.26809" lon="3.18438">
        <ele>169.01</ele>
        <time>2019-03-30T09:11:26Z</time>
      </trkpt>
      <trkpt lat="48.26811" lon="3.18432">
        <ele>168.69</ele>
        <time>2019-03-30T09:11:31Z</time>
      </trkpt>
      <trkpt lat="48.26813" lon="3.18428">
        <ele>168.43</ele>
        <time>2019-03-30T09:11:36Z</time>
      </trkpt>
      <trkpt lat="48.26818" lon="3.1842">
        <ele>168.31</ele>
        <time>2019-03-30T09:11:41Z</time>
      </trkpt>
      <trkpt lat="48.26818" lon="3.18413">
        <ele>168.25</ele>
        <time>2019-03-30T09:11:46Z</time>
      </trkpt>
      <trkpt lat="48.26816" lon="3.18405">
        <ele>168.15</ele>
        <time>2019-03-30T09:11:51Z</time>
      </trkpt>
      <trkpt lat="48.26813" lon="3.18397">
        <ele>168.04</ele>
        <time>2019-03-30T09:11:56Z</time>
      </trkpt>
      <trkpt lat="48.26811" lon="3.1839">
        <ele>167.7</ele>
        <time>2019-03-30T09:12:01Z</time>
      </trkpt>
      <trkpt lat="48.26807" lon="3.18382">
        <ele>167.55</ele>
        <time>2019-03-30T09:12:06Z</time>
      </trkpt>
      <trkpt lat="48.26805" lon="3.18373">
        <ele>167.48</ele>
        <time>2019-03-30T09:12:11Z</time>
      </trkpt>
      <trkpt lat="48.26804" lon="3.18365">
        <ele>167.19</ele>
        <time>2019-03-30T09:12:16Z</time>
      </trkpt>
      <trkpt lat="48.26802" lon="3.18357">
        <ele>166.9</ele>
        <time>2019-03-30T09:12:21Z</time>
      </trkpt>
      <trkpt lat="48.26801" lon="3.18349">
        <ele>166.76</ele>
        <time>2019-03-30T09:12:26Z</time>
      </trkpt>
      <trkpt lat="48.26799" lon="3.18342">
        <ele>166.48</ele>
        <time>2019-03-30T09:12:31Z</time>
      </trkpt>
      <trkpt lat="48.26798" lon="3.18334">
        <ele>166.28</ele>
        <time>2019-03-30T09:12:36Z</time>
      </trkpt>
      <trkpt lat="48.26796" lon="3.18327">
        <ele>166.08</ele>
        <time>2019-03-30T09:12:41Z</time>
      </trkpt>
      <trkpt lat="48.26796" lon="3.18319">
        <ele>165.98</ele>
        <time>2019-03-30T09:12:46Z</time>
      </trkpt>
      <trkpt lat="48.26794" lon="3.18309">
        <ele>165.76</ele>
        <time>2019-03-30T09:12:51Z</time>
      </trkpt>
      <trkpt lat="48.26794" lon="3.18301">
        <ele>165.46</ele>
        <time>2019-03-30T09:12:56Z</time>
      </trkpt>
      <trkpt lat="48.26793" lon="3.18294">
        <ele>165.24</ele>
        <time>2019-03-30T09:13:01Z</time>
      </trkpt>
      <trkpt lat="48.26791" lon="3.18286">
        <ele>165.09</ele>
        <time>2019-03-30T09:13:06Z</time>
      </trkpt>
      <trkpt lat="48.2679" lon="3.18279">
        <ele>164.9</ele>
        <time>2019-03-30T09:13:11Z</time>
      </trkpt>
      <trkpt lat="48.2679" lon="3.18268">
        <ele>164.77</ele>
        <time>2019-03-30T09:13:16Z</time>
      </trkpt>
      <trkpt lat="48.2679" lon="3.1826">
        <ele>164.51</ele>
        <time>2019-03-30T09:13:21Z</time>
      </trkpt>
      <trkpt lat="48.26789" lon="3.18251">
        <ele>163.98</ele>
        <time>2019-03-30T09:13:26Z</time>
      </trkpt>
      <trkpt lat="48.26788" lon="3.18242">
        <ele>163.54</ele>
        <time>2019-03-30T09:13:31Z</time>
      </trkpt>
      <trkpt lat="48.26788" lon="3.18233">
        <ele>163.13</ele>
        <time>2019-03-30T09:13:36Z</time>
      </trkpt>
      <trkpt lat="48.26788" lon="3.18225">
        <ele>162.69</ele>
        <time>2019-03-30T09:13:41Z</time>
      </trkpt>
      <trkpt lat="48.26788" lon="3.18217">
        <ele>162.21</ele>
        <time>2019-03-30T09:13:46Z</time>
      </trkpt>
      <trkpt lat="48.26787" lon="3.18211">
        <ele>161.98</ele>
        <time>2019-03-30T09:13:51Z</time>
      </trkpt>
      <trkpt lat="48.26786" lon="3.18204">
        <ele>161.77</ele>
        <time>2019-03-30T09:13:56Z</time>
      </trkpt>
      <trkpt lat="48.26784" lon="3.18197">
        <ele>161.53</ele>
        <time>2019-03-30T09:14:01Z</time>
      </trkpt>
      <trkpt lat="48.26782" lon="3.18189">
        <ele>161.18</ele>
        <time>2019-03-30T09:14:06Z</time>
      </trkpt>
      <trkpt lat="48.26779" lon="3.1818">
        <ele>160.77</ele>
        <time>2019-03-30T09:14:11Z</time>
      </trkpt>
      <trkpt lat="48.26777" lon="3.18174">
        <ele>160.22</ele>
        <time>2019-03-30T09:14:16Z</time>
      </trkpt>
      <trkpt lat="48.26775" lon="3.18168">
        <ele>159.84</ele>
        <time>2019-03-30T09:14:21Z</time>
      </trkpt>
      <trkpt lat="48.26774" lon="3.18162">
        <ele>159.53</ele>
        <time>2019-03-30T09:14:26Z</time>
      </trkpt>
      <trkpt lat="48.26773" lon="3.18155">
        <ele>159.01</ele>
        <time>2019-03-30T09:14:31Z</time>
      </trkpt>
      <trkpt lat="48.2677" lon="3.18149">
        <ele>158.69</ele>
        <time>2019-03-30T09:14:36Z</time>
      </trkpt>
      <trkpt lat="48.26768" lon="3.18142">
        <ele>158.35</ele>
        <time>2019-03-30T09:14:41Z</time>
      </trkpt>
      <trkpt lat="48.26766" lon="3.18137">
        <ele>158.17</ele>
        <time>2019-03-30T09:14:46Z</time>
      </trkpt>
      <trkpt lat="48.26762" lon="3.18131">
        <ele>157.9</ele>
        <time>2019-03-30T09:14:51Z</time>
      </trkpt>
      <trkpt lat="48.26758" lon="3.18125">
        <ele>157.61</ele>
        <time>2019-03-30T09:14:56Z</time>
      </trkpt>
      <trkpt lat="48.26755" lon="3.18119">
        <ele>157.23</ele>
        <time>2019-03-30T09:15:01Z</time>
      </trkpt>
      <trkpt lat="48.26754" lon="3.18112">
        <ele>156.86</ele>
        <time>2019-03-30T09:15:06Z</time>
      </trkpt>
      <trkpt lat="48.26751" lon="3.18105">
        <ele>156.69</ele>
        <time>2019-03-30T09:15:11Z</time>
      </trkpt>
      <trkpt lat="48.26748" lon="3.18099">
        <ele>156.46</ele>
        <time>2019-03-30T09:15:16Z</time>
      </trkpt>
      <trkpt lat="48.26746" lon="3.18092">
        <ele>156</ele>
        <time>2019-03-30T09:15:21Z</time>
      </trkpt>
      <trkpt lat="48.26743" lon="3.18085">
        <ele>155.71</ele>
        <time>2019-03-30T09:15:26Z</time>
      </trkpt>
      <trkpt lat="48.26742" lon="3.18079">
        <ele>155.67</ele>
        <time>2019-03-30T09:15:31Z</time>
      </trkpt>
      <trkpt lat="48.26739" lon="3.18074">
        <ele>155.55</ele>
        <time>2019-03-30T09:15:36Z</time>
      </trkpt>
      <trkpt lat="48.26737" lon="3.18066">
        <ele>155.37</ele>
        <time>2019-03-30T09:15:41Z</time>
      </trkpt>
      <trkpt lat="48.26735" lon="3.18059">
        <ele>155.19</ele>
        <time>2019-03-30T09:15:46Z</time>
      </trkpt>
      <trkpt lat="48.26733" lon="3.18054">
        <ele>155.08</ele>
        <time>2019-03-30T09:15:51Z</time>
      </trkpt>
      <trkpt lat="48.26731" lon="3.18048">
        <ele>154.99</ele>
        <time>2019-03-30T09:15:56Z</time>
      </trkpt>
      <trkpt lat="48.26728" lon="3.18043">
        <ele>154.83</ele>
        <time>2019-03-30T09:16:01Z</time>
      </trkpt>
      <trkpt lat="48.26724" lon="3.18036">
        <ele>154.65</ele>
        <time>2019-03-30T09:16:06Z</time>
      </trkpt>
      <trkpt lat="48.26722" lon="3.18028">
        <ele>154.51</ele>
        <time>2019-03-30T09:16:11Z</time>
      </trkpt>
      <trkpt lat="48.2672" lon="3.18021">
        <ele>154.26</ele>
        <time>2019-03-30T09:16:16Z</time>
      </trkpt>
      <trkpt lat="48.26718" lon="3.18014">
        <ele>154.29</ele>
        <time>2019-03-30T09:16:21Z</time>
      </trkpt>
      <trkpt lat="48.26717" lon="3.18009">
        <ele>154.25</ele>
        <time>2019-03-30T09:16:26Z</time>
      </trkpt>
      <trkpt lat="48.26716" lon="3.18002">
        <ele>154.24</ele>
        <time>2019-03-30T09:16:31Z</time>
      </trkpt>
      <trkpt lat="48.26713" lon="3.17997">
        <ele>154.19</ele>
        <time>2019-03-30T09:16:36Z</time>
      </trkpt>
      <trkpt lat="48.26711" lon="3.17989">
        <ele>154.16</ele>
        <time>2019-03-30T09:16:41Z</time>
      </trkpt>
      <trkpt lat="48.26709" lon="3.17982">
        <ele>154.04</ele>
        <time>2019-03-30T09:16:46Z</time>
      </trkpt>
      <trkpt lat="48.26707" lon="3.17976">
        <ele>153.92</ele>
        <time>2019-03-30T09:16:51Z</time>
      </trkpt>
      <trkpt lat="48.26704" lon="3.1797">
        <ele>153.81</ele>
        <time>2019-03-30T09:16:56Z</time>
      </trkpt>
      <trkpt lat="48.26702" lon="3.17963">
        <ele>153.78</ele>
        <time>2019-03-30T09:17:01Z</time>
      </trkpt>
      <trkpt lat="48.26699" lon="3.17956">
        <ele>153.63</ele>
        <time>2019-03-30T09:17:06Z</time>
      </trkpt>
      <trkpt lat="48.26697" lon="3.1795">
        <ele>153.47</ele>
        <time>2019-03-30T09:17:11Z</time>
      </trkpt>
      <trkpt lat="48.26695" lon="3.17943">
        <ele>153.3</ele>
        <time>2019-03-30T09:17:16Z</time>
      </trkpt>
      <trkpt lat="48.26694" lon="3.17936">
        <ele>153.05</ele>
        <time>2019-03-30T09:17:21Z</time>
      </trkpt>
      <trkpt lat="48.26694" lon="3.1793">
        <ele>152.97</ele>
        <time>2019-03-30T09:17:26Z</time>
      </trkpt>
      <trkpt lat="48.26691" lon="3.17923">
        <ele>152.86</ele>
        <time>2019-03-30T09:17:31Z</time>
      </trkpt>
      <trkpt lat="48.26689" lon="3.17917">
        <ele>152.77</ele>
        <time>2019-03-30T09:17:36Z</time>
      </trkpt>
      <trkpt lat="48.26688" lon="3.17909">
        <ele>152.61</ele>
        <time>2019-03-30T09:17:41Z</time>
      </trkpt>
      <trkpt lat="48.26687" lon="3.17902">
        <ele>152.3</ele>
        <time>2019-03-30T09:17:46Z</time>
      </trkpt>
      <trkpt lat="48.26685" lon="3.17894">
        <ele>152.43</ele>
        <time>2019-03-30T09:17:51Z</time>
      </trkpt>
      <trkpt lat="48.26684" lon="3.17887">
        <ele>152.56</ele>
        <time>2019-03-30T09:17:56Z</time>
      </trkpt>
      <trkpt lat="48.26681" lon="3.17882">
        <ele>152.61</ele>
        <time>2019-03-30T09:18:01Z</time>
      </trkpt>
      <trkpt lat="48.26679" lon="3.17876">
        <ele>152.86</ele>
        <time>2019-03-30T09:18:06Z</time>
      </trkpt>
      <trkpt lat="48.26676" lon="3.17871">
        <ele>152.99</ele>
        <time>2019-03-30T09:18:11Z</time>
      </trkpt>
      <trkpt lat="48.26673" lon="3.17863">
        <ele>153</ele>
        <time>2019-03-30T09:18:16Z</time>
      </trkpt>
      <trkpt lat="48.26671" lon="3.17856">
        <ele>152.78</ele>
        <time>2019-03-30T09:18:21Z</time>
      </trkpt>
      <trkpt lat="48.26667" lon="3.1785">
        <ele>152.39</ele>
        <time>2019-03-30T09:18:26Z</time>
      </trkpt>
      <trkpt lat="48.26663" lon="3.17844">
        <ele>152.08</ele>
        <time>2019-03-30T09:18:31Z</time>
      </trkpt>
      <trkpt lat="48.26662" lon="3.17837">
        <ele>152.12</ele>
        <time>2019-03-30T09:18:36Z</time>
      </trkpt>
      <trkpt lat="48.2666" lon="3.17831">
        <ele>152.09</ele>
        <time>2019-03-30T09:18:41Z</time>
      </trkpt>
      <trkpt lat="48.26659" lon="3.17825">
        <ele>152.08</ele>
        <time>2019-03-30T09:18:46Z</time>
      </trkpt>
      <trkpt lat="48.26657" lon="3.17819">
        <ele>151.97</ele>
        <time>2019-03-30T09:18:51Z</time>
      </trkpt>
      <trkpt lat="48.26656" lon="3.17811">
        <ele>151.85</ele>
        <time>2019-03-30T09:18:56Z</time>
      </trkpt>
      <trkpt lat="48.26654" lon="3.17804">
        <ele>151.7</ele>
        <time>2019-03-30T09:19:01Z</time>
      </trkpt>
      <trkpt lat="48.26653" lon="3.17798">
        <ele>151.58</ele>
        <time>2019-03-30T09:19:06Z</time>
      </trkpt>
      <trkpt lat="48.26651" lon="3.17791">
        <ele>151.52</ele>
        <time>2019-03-30T09:19:11Z</time>
      </trkpt>
      <trkpt lat="48.2665" lon="3.17784">
        <ele>151.33</ele>
        <time>2019-03-30T09:19:16Z</time>
      </trkpt>
      <trkpt lat="48.26648" lon="3.17777">
        <ele>151.23</ele>
        <time>2019-03-30T09:19:21Z</time>
      </trkpt>
      <trkpt lat="48.26644" lon="3.1777">
        <ele>151.01</ele>
        <time>2019-03-30T09:19:26Z</time>
      </trkpt>
      <trkpt lat="48.26643" lon="3.17763">
        <ele>150.85</ele>
        <time>2019-03-30T09:19:31Z</time>
      </trkpt>
      <trkpt lat="48.26641" lon="3.17757">
        <ele>150.73</ele>
        <time>2019-03-30T09:19:36Z</time>
      </trkpt>
      <trkpt lat="48.26639" lon="3.17748">
        <ele>150.7</ele>
        <time>2019-03-30T09:19:41Z</time>
      </trkpt>
      <trkpt lat="48.26639" lon="3.1774">
        <ele>150.64</ele>
        <time>2019-03-30T09:19:46Z</time>
      </trkpt>
      <trkpt lat="48.2664" lon="3.1773">
        <ele>150.52</ele>
        <time>2019-03-30T09:19:51Z</time>
      </trkpt>
      <trkpt lat="48.26641" lon="3.17722">
        <ele>150.26</ele>
        <time>2019-03-30T09:19:56Z</time>
      </trkpt>
      <trkpt lat="48.26641" lon="3.17715">
        <ele>150.07</ele>
        <time>2019-03-30T09:20:01Z</time>
      </trkpt>
      <trkpt lat="48.26642" lon="3.17709">
        <ele>149.78</ele>
        <time>2019-03-30T09:20:06Z</time>
      </trkpt>
      <trkpt lat="48.26642" lon="3.17703">
        <ele>149.23</ele>
        <time>2019-03-30T09:20:11Z</time>
      </trkpt>
      <trkpt lat="48.26642" lon="3.17697">
        <ele>148.86</ele>
        <time>2019-03-30T09:20:16Z</time>
      </trkpt>
      <trkpt lat="48.26644" lon="3.17691">
        <ele>148.38</ele>
        <time>2019-03-30T09:20:21Z</time>
      </trkpt>
      <trkpt lat="48.26645" lon="3.17684">
        <ele>148.17</ele>
        <time>2019-03-30T09:20:26Z</time>
      </trkpt>
      <trkpt lat="48.26646" lon="3.17676">
        <ele>147.8</ele>
        <time>2019-03-30T09:20:31Z</time>
      </trkpt>
      <trkpt lat="48.26647" lon="3.17669">
        <ele>147.42</ele>
        <time>2019-03-30T09:20:36Z</time>
      </trkpt>
      <trkpt lat="48.26647" lon="3.17663">
        <ele>147.12</ele>
        <time>2019-03-30T09:20:41Z</time>
      </trkpt>
      <trkpt lat="48.26648" lon="3.17657">
        <ele>146.79</ele>
        <time>2019-03-30T09:20:46Z</time>
      </trkpt>
      <trkpt lat="48.26648" lon="3.1765">
        <ele>146.44</ele>
        <time>2019-03-30T09:20:51Z</time>
      </trkpt>
      <trkpt lat="48.26648" lon="3.17644">
        <ele>146.17</ele>
        <time>2019-03-30T09:20:56Z</time>
      </trkpt>
      <trkpt lat="48.26647" lon="3.17636">
        <ele>145.87</ele>
        <time>2019-03-30T09:21:01Z</time>
      </trkpt>
      <trkpt lat="48.26648" lon="3.17629">
        <ele>145.7</ele>
        <time>2019-03-30T09:21:06Z</time>
      </trkpt>
      <trkpt lat="48.26649" lon="3.17621">
        <ele>145.33</ele>
        <time>2019-03-30T09:21:11Z</time>
      </trkpt>
      <trkpt lat="48.26647" lon="3.17612">
        <ele>145.11</ele>
        <time>2019-03-30T09:21:16Z</time>
      </trkpt>
      <trkpt lat="48.26646" lon="3.17602">
        <ele>145.06</ele>
        <time>2019-03-30T09:21:21Z</time>
      </trkpt>
      <trkpt lat="48.26645" lon="3.17591">
        <ele>144.92</ele>
        <time>2019-03-30T09:21:26Z</time>
      </trkpt>
      <trkpt lat="48.26642" lon="3.17581">
        <ele>144.9</ele>
        <time>2019-03-30T09:21:31Z</time>
      </trkpt>
      <trkpt lat="48.26639" lon="3.17574">
        <ele>144.98</ele>
        <time>2019-03-30T09:21:36Z</time>
      </trkpt>
      <trkpt lat="48.26636" lon="3.17566">
        <ele>144.87</ele>
        <time>2019-03-30T09:21:41Z</time>
      </trkpt>
      <trkpt lat="48.26635" lon="3.17556">
        <ele>144.73</ele>
        <time>2019-03-30T09:21:46Z</time>
      </trkpt>
      <trkpt lat="48.26633" lon="3.17547">
        <ele>144.61</ele>
        <time>2019-03-30T09:21:51Z</time>
      </trkpt>
      <trkpt lat="48.26631" lon="3.17539">
        <ele>144.47</ele>
        <time>2019-03-30T09:21:56Z</time>
      </trkpt>
      <trkpt lat="48.26629" lon="3.17532">
        <ele>144.35</ele>
        <time>2019-03-30T09:22:01Z</time>
      </trkpt>
      <trkpt lat="48.26626" lon="3.17524">
        <ele>144.21</ele>
        <time>2019-03-30T09:22:06Z</time>
      </trkpt>
      <trkpt lat="48.26625" lon="3.17517">
        <ele>144.09</ele>
        <time>2019-03-30T09:22:11Z</time>
      </trkpt>
      <trkpt lat="48.26623" lon="3.17509">
        <ele>144.04</ele>
        <time>2019-03-30T09:22:16Z</time>
      </trkpt>
      <trkpt lat="48.26622" lon="3.17502">
        <ele>144.05</ele>
        <time>2019-03-30T09:22:21Z</time>
      </trkpt>
      <trkpt lat="48.2662" lon="3.17497">
        <ele>144.03</ele>
        <time>2019-03-30T09:22:26Z</time>
      </trkpt>
      <trkpt lat="48.26618" lon="3.17492">
        <ele>144.03</ele>
        <time>2019-03-30T09:22:31Z</time>
      </trkpt>
      <trkpt lat="48.26617" lon="3.17487">
        <ele>144.03</ele>
        <time>2019-03-30T09:22:36Z</time>
      </trkpt>
      <trkpt lat="48.26616" lon="3.17482">
        <ele>143.85</ele>
        <time>2019-03-30T09:22:41Z</time>
      </trkpt>
      <trkpt lat="48.26614" lon="3.17475">
        <ele>143.44</ele>
        <time>2019-03-30T09:22:46Z</time>
      </trkpt>
      <trkpt lat="48.26614" lon="3.17468">
        <ele>142.86</ele>
        <time>2019-03-30T09:22:51Z</time>
      </trkpt>
      <trkpt lat="48.26614" lon="3.17461">
        <ele>142.59</ele>
        <time>2019-03-30T09:22:56Z</time>
      </trkpt>
      <trkpt lat="48.26615" lon="3.17456">
        <ele>142.45</ele>
        <time>2019-03-30T09:23:01Z</time>
      </trkpt>
      <trkpt lat="48.26616" lon="3.1745">
        <ele>142.49</ele>
        <time>2019-03-30T09:23:06Z</time>
      </trkpt>
      <trkpt lat="48.26618" lon="3.17442">
        <ele>142.83</ele>
        <time>2019-03-30T09:23:11Z</time>
      </trkpt>
      <trkpt lat="48.26618" lon="3.17436">
        <ele>143.12</ele>
        <time>2019-03-30T09:23:16Z</time>
      </trkpt>
      <trkpt lat="48.26618" lon="3.1743">
        <ele>143.41</ele>
        <time>2019-03-30T09:23:21Z</time>
      </trkpt>
      <trkpt lat="48.26617" lon="3.17422">
        <ele>143.52</ele>
        <time>2019-03-30T09:23:26Z</time>
      </trkpt>
      <trkpt lat="48.26617" lon="3.17416">
        <ele>143.62</ele>
        <time>2019-03-30T09:23:31Z</time>
      </trkpt>
      <trkpt lat="48.26616" lon="3.17408">
        <ele>143.83</ele>
        <time>2019-03-30T09:23:36Z</time>
      </trkpt>
      <trkpt lat="48.26616" lon="3.17402">
        <ele>144.08</ele>
        <time>2019-03-30T09:23:41Z</time>
      </trkpt>
      <trkpt lat="48.26616" lon="3.17395">
        <ele>144.35</ele>
        <time>2019-03-30T09:23:46Z</time>
      </trkpt>
      <trkpt lat="48.26616" lon="3.1739">
        <ele>144.56</ele>
        <time>2019-03-30T09:23:51Z</time>
      </trkpt>
      <trkpt lat="48.26617" lon="3.17382">
        <ele>144.72</ele>
        <time>2019-03-30T09:23:56Z</time>
      </trkpt>
      <trkpt lat="48.26616" lon="3.17374">
        <ele>144.95</ele>
        <time>2019-03-30T09:24:01Z</time>
      </trkpt>
      <trkpt lat="48.26613" lon="3.17368">
        <ele>144.98</ele>
        <time>2019-03-30T09:24:06Z</time>
      </trkpt>
      <trkpt lat="48.26611" lon="3.17361">
        <ele>145.01</ele>
        <time>2019-03-30T09:24:11Z</time>
      </trkpt>
      <trkpt lat="48.2661" lon="3.17354">
        <ele>145.01</ele>
        <time>2019-03-30T09:24:16Z</time>
      </trkpt>
      <trkpt lat="48.26609" lon="3.17348">
        <ele>145.03</ele>
        <time>2019-03-30T09:24:21Z</time>
      </trkpt>
      <trkpt lat="48.26608" lon="3.1734">
        <ele>145.2</ele>
        <time>2019-03-30T09:24:26Z</time>
      </trkpt>
      <trkpt lat="48.26604" lon="3.17333">
        <ele>145.29</ele>
        <time>2019-03-30T09:24:31Z</time>
      </trkpt>
      <trkpt lat="48.26602" lon="3.17324">
        <ele>145.37</ele>
        <time>2019-03-30T09:24:36Z</time>
      </trkpt>
      <trkpt lat="48.26602" lon="3.17313">
        <ele>145.42</ele>
        <time>2019-03-30T09:24:41Z</time>
      </trkpt>
      <trkpt lat="48.266" lon="3.17305">
        <ele>145.58</ele>
        <time>2019-03-30T09:24:46Z</time>
      </trkpt>
      <trkpt lat="48.26597" lon="3.17297">
        <ele>145.82</ele>
        <time>2019-03-30T09:24:51Z</time>
      </trkpt>
      <trkpt lat="48.26596" lon="3.17289">
        <ele>145.88</ele>
        <time>2019-03-30T09:24:56Z</time>
      </trkpt>
      <trkpt lat="48.26595" lon="3.17282">
        <ele>146.04</ele>
        <time>2019-03-30T09:25:01Z</time>
      </trkpt>
      <trkpt lat="48.26595" lon="3.17273">
        <ele>146.06</ele>
        <time>2019-03-30T09:25:06Z</time>
      </trkpt>
      <trkpt lat="48.26596" lon="3.17265">
        <ele>146.09</ele>
        <time>2019-03-30T09:25:11Z</time>
      </trkpt>
      <trkpt lat="48.26595" lon="3.17258">
        <ele>146.22</ele>
        <time>2019-03-30T09:25:16Z</time>
      </trkpt>
      <trkpt lat="48.26595" lon="3.17252">
        <ele>146.38</ele>
        <time>2019-03-30T09:25:21Z</time>
      </trkpt>
      <trkpt lat="48.26594" lon="3.17245">
        <ele>146.52</ele>
        <time>2019-03-30T09:25:26Z</time>
      </trkpt>
      <trkpt lat="48.26594" lon="3.17239">
        <ele>146.71</ele>
        <time>2019-03-30T09:25:31Z</time>
      </trkpt>
      <trkpt lat="48.26593" lon="3.17231">
        <ele>146.93</ele>
        <time>2019-03-30T09:25:36Z</time>
      </trkpt>
      <trkpt lat="48.26592" lon="3.17224">
        <ele>147.08</ele>
        <time>2019-03-30T09:25:41Z</time>
      </trkpt>
      <trkpt lat="48.2659" lon="3.17217">
        <ele>147.19</ele>
        <time>2019-03-30T09:25:46Z</time>
      </trkpt>
      <trkpt lat="48.26589" lon="3.17209">
        <ele>147.37</ele>
        <time>2019-03-30T09:25:51Z</time>
      </trkpt>
      <trkpt lat="48.26588" lon="3.17201">
        <ele>147.44</ele>
        <time>2019-03-30T09:25:56Z</time>
      </trkpt>
      <trkpt lat="48.26586" lon="3.17193">
        <ele>147.52</ele>
        <time>2019-03-30T09:26:01Z</time>
      </trkpt>
      <trkpt lat="48.26586" lon="3.17187">
        <ele>147.81</ele>
        <time>2019-03-30T09:26:06Z</time>
      </trkpt>
      <trkpt lat="48.26585" lon="3.1718">
        <ele>148.04</ele>
        <time>2019-03-30T09:26:11Z</time>
      </trkpt>
      <trkpt lat="48.26585" lon="3.17172">
        <ele>148.09</ele>
        <time>2019-03-30T09:26:16Z</time>
      </trkpt>
      <trkpt lat="48.26585" lon="3.17166">
        <ele>148.14</ele>
        <time>2019-03-30T09:26:21Z</time>
      </trkpt>
      <trkpt lat="48.26584" lon="3.17159">
        <ele>148.2</ele>
        <time>2019-03-30T09:26:26Z</time>
      </trkpt>
      <trkpt lat="48.26583" lon="3.17154">
        <ele>148.32</ele>
        <time>2019-03-30T09:26:31Z</time>
      </trkpt>
      <trkpt lat="48.26583" lon="3.17147">
        <ele>148.69</ele>
        <time>2019-03-30T09:26:36Z</time>
      </trkpt>
      <trkpt lat="48.26581" lon="3.1714">
        <ele>148.88</ele>
        <time>2019-03-30T09:26:41Z</time>
      </trkpt>
      <trkpt lat="48.2658" lon="3.17134">
        <ele>149.03</ele>
        <time>2019-03-30T09:26:46Z</time>
      </trkpt>
      <trkpt lat="48.26578" lon="3.17127">
        <ele>149.15</ele>
        <time>2019-03-30T09:26:51Z</time>
      </trkpt>
      <trkpt lat="48.26576" lon="3.17118">
        <ele>149.35</ele>
        <time>2019-03-30T09:26:56Z</time>
      </trkpt>
      <trkpt lat="48.26575" lon="3.1711">
        <ele>149.48</ele>
        <time>2019-03-30T09:27:01Z</time>
      </trkpt>
      <trkpt lat="48.26574" lon="3.17101">
        <ele>149.48</ele>
        <time>2019-03-30T09:27:06Z</time>
      </trkpt>
      <trkpt lat="48.26574" lon="3.17093">
        <ele>149.63</ele>
        <time>2019-03-30T09:27:11Z</time>
      </trkpt>
      <trkpt lat="48.26574" lon="3.17086">
        <ele>149.58</ele>
        <time>2019-03-30T09:27:16Z</time>
      </trkpt>
      <trkpt lat="48.26573" lon="3.1708">
        <ele>149.72</ele>
        <time>2019-03-30T09:27:21Z</time>
      </trkpt>
      <trkpt lat="48.26573" lon="3.17073">
        <ele>149.92</ele>
        <time>2019-03-30T09:27:26Z</time>
      </trkpt>
      <trkpt lat="48.26571" lon="3.17067">
        <ele>150.03</ele>
        <time>2019-03-30T09:27:31Z</time>
      </trkpt>
      <trkpt lat="48.2657" lon="3.1706">
        <ele>150.63</ele>
        <time>2019-03-30T09:27:36Z</time>
      </trkpt>
      <trkpt lat="48.26567" lon="3.17052">
        <ele>151.04</ele>
        <time>2019-03-30T09:27:41Z</time>
      </trkpt>
      <trkpt lat="48.26564" lon="3.17046">
        <ele>151.27</ele>
        <time>2019-03-30T09:27:46Z</time>
      </trkpt>
      <trkpt lat="48.26561" lon="3.1704">
        <ele>151.63</ele>
        <time>2019-03-30T09:27:51Z</time>
      </trkpt>
      <trkpt lat="48.26559" lon="3.17034">
        <ele>151.93</ele>
        <time>2019-03-30T09:27:56Z</time>
      </trkpt>
      <trkpt lat="48.26557" lon="3.17028">
        <ele>152.18</ele>
        <time>2019-03-30T09:28:01Z</time>
      </trkpt>
      <trkpt lat="48.26554" lon="3.17023">
        <ele>152.42</ele>
        <time>2019-03-30T09:28:06Z</time>
      </trkpt>
      <trkpt lat="48.26551" lon="3.17017">
        <ele>152.68</ele>
        <time>2019-03-30T09:28:11Z</time>
      </trkpt>
      <trkpt lat="48.26548" lon="3.17012">
        <ele>152.93</ele>
        <time>2019-03-30T09:28:16Z</time>
      </trkpt>
      <trkpt lat="48.26545" lon="3.17007">
        <ele>153.18</ele>
        <time>2019-03-30T09:28:21Z</time>
      </trkpt>
      <trkpt lat="48.26542" lon="3.17001">
        <ele>153.44</ele>
        <time>2019-03-30T09:28:26Z</time>
      </trkpt>
      <trkpt lat="48.2654" lon="3.16995">
        <ele>153.61</ele>
        <time>2019-03-30T09:28:31Z</time>
      </trkpt>
      <trkpt lat="48.26535" lon="3.16988">
        <ele>153.72</ele>
        <time>2019-03-30T09:28:36Z</time>
      </trkpt>
      <trkpt lat="48.2653" lon="3.16982">
        <ele>153.74</ele>
        <time>2019-03-30T09:28:41Z</time>
      </trkpt>
      <trkpt lat="48.26526" lon="3.16976">
        <ele>153.76</ele>
        <time>2019-03-30T09:28:46Z</time>
      </trkpt>
      <trkpt lat="48.26522" lon="3.16972">
        <ele>153.84</ele>
        <time>2019-03-30T09:28:51Z</time>
      </trkpt>
      <trkpt lat="48.26517" lon="3.1697">
        <ele>153.9</ele>
        <time>2019-03-30T09:28:56Z</time>
      </trkpt>
      <trkpt lat="48.26513" lon="3.16968">
        <ele>154.02</ele>
        <time>2019-03-30T09:29:01Z</time>
      </trkpt>
      <trkpt lat="48.26508" lon="3.16963">
        <ele>154.03</ele>
        <time>2019-03-30T09:29:06Z</time>
      </trkpt>
      <trkpt lat="48.26504" lon="3.16959">
        <ele>154.23</ele>
        <time>2019-03-30T09:29:11Z</time>
      </trkpt>
      <trkpt lat="48.265" lon="3.16953">
        <ele>154.43</ele>
        <time>2019-03-30T09:29:16Z</time>
      </trkpt>
      <trkpt lat="48.26496" lon="3.16949">
        <ele>154.57</ele>
        <time>2019-03-30T09:29:21Z</time>
      </trkpt>
      <trkpt lat="48.26491" lon="3.16945">
        <ele>154.83</ele>
        <time>2019-03-30T09:29:26Z</time>
      </trkpt>
      <trkpt lat="48.26487" lon="3.1694">
        <ele>154.94</ele>
        <time>2019-03-30T09:29:31Z</time>
      </trkpt>
      <trkpt lat="48.26482" lon="3.16935">
        <ele>155.12</ele>
        <time>2019-03-30T09:29:36Z</time>
      </trkpt>
      <trkpt lat="48.26478" lon="3.1693">
        <ele>155.05</ele>
        <time>2019-03-30T09:29:41Z</time>
      </trkpt>
      <trkpt lat="48.26475" lon="3.16925">
        <ele>155.05</ele>
        <time>2019-03-30T09:29:46Z</time>
      </trkpt>
      <trkpt lat="48.26471" lon="3.16921">
        <ele>155.29</ele>
        <time>2019-03-30T09:29:51Z</time>
      </trkpt>
      <trkpt lat="48.26468" lon="3.16916">
        <ele>155.45</ele>
        <time>2019-03-30T09:29:56Z</time>
      </trkpt>
      <trkpt lat="48.26463" lon="3.16913">
        <ele>155.67</ele>
        <time>2019-03-30T09:30:01Z</time>
      </trkpt>
      <trkpt lat="48.26459" lon="3.16909">
        <ele>155.87</ele>
        <time>2019-03-30T09:30:06Z</time>
      </trkpt>
      <trkpt lat="48.26455" lon="3.16904">
        <ele>156.03</ele>
        <time>2019-03-30T09:30:11Z</time>
      </trkpt>
      <trkpt lat="48.26452" lon="3.16898">
        <ele>156.04</ele>
        <time>2019-03-30T09:30:16Z</time>
      </trkpt>
      <trkpt lat="48.26449" lon="3.16893">
        <ele>156.1</ele>
        <time>2019-03-30T09:30:21Z</time>
      </trkpt>
      <trkpt lat="48.26446" lon="3.16888">
        <ele>156.27</ele>
        <time>2019-03-30T09:30:26Z</time>
      </trkpt>
      <trkpt lat="48.26443" lon="3.16882">
        <ele>156.4</ele>
        <time>2019-03-30T09:30:31Z</time>
      </trkpt>
      <trkpt lat="48.26439" lon="3.16877">
        <ele>156.55</ele>
        <time>2019-03-30T09:30:36Z</time>
      </trkpt>
      <trkpt lat="48.26436" lon="3.16872">
        <ele>156.97</ele>
        <time>2019-03-30T09:30:41Z</time>
      </trkpt>
      <trkpt lat="48.26436" lon="3.16868">
        <ele>157.17</ele>
        <time>2019-03-30T09:30:46Z</time>
      </trkpt>
      <trkpt lat="48.26434" lon="3.16865">
        <ele>157.32</ele>
        <time>2019-03-30T09:30:51Z</time>
      </trkpt>
      <trkpt lat="48.2643" lon="3.16861">
        <ele>157.61</ele>
        <time>2019-03-30T09:30:56Z</time>
      </trkpt>
      <trkpt lat="48.26426" lon="3.16857">
        <ele>157.73</ele>
        <time>2019-03-30T09:31:01Z</time>
      </trkpt>
      <trkpt lat="48.26421" lon="3.16853">
        <ele>157.73</ele>
        <time>2019-03-30T09:31:06Z</time>
      </trkpt>
      <trkpt lat="48.26418" lon="3.16847">
        <ele>157.94</ele>
        <time>2019-03-30T09:31:11Z</time>
      </trkpt>
      <trkpt lat="48.26414" lon="3.16841">
        <ele>158.25</ele>
        <time>2019-03-30T09:31:16Z</time>
      </trkpt>
      <trkpt lat="48.26411" lon="3.16832">
        <ele>158.48</ele>
        <time>2019-03-30T09:31:21Z</time>
      </trkpt>
      <trkpt lat="48.26408" lon="3.16825">
        <ele>158.73</ele>
        <time>2019-03-30T09:31:26Z</time>
      </trkpt>
      <trkpt lat="48.26405" lon="3.16817">
        <ele>158.8</ele>
        <time>2019-03-30T09:31:31Z</time>
      </trkpt>
      <trkpt lat="48.26403" lon="3.1681">
        <ele>158.79</ele>
        <time>2019-03-30T09:31:36Z</time>
      </trkpt>
      <trkpt lat="48.264" lon="3.16803">
        <ele>158.78</ele>
        <time>2019-03-30T09:31:41Z</time>
      </trkpt>
      <trkpt lat="48.26398" lon="3.16797">
        <ele>158.85</ele>
        <time>2019-03-30T09:31:46Z</time>
      </trkpt>
      <trkpt lat="48.26396" lon="3.16791">
        <ele>159.15</ele>
        <time>2019-03-30T09:31:51Z</time>
      </trkpt>
      <trkpt lat="48.26394" lon="3.16784">
        <ele>159.43</ele>
        <time>2019-03-30T09:31:56Z</time>
      </trkpt>
      <trkpt lat="48.26392" lon="3.16777">
        <ele>159.48</ele>
        <time>2019-03-30T09:32:01Z</time>
      </trkpt>
      <trkpt lat="48.26391" lon="3.16771">
        <ele>159.67</ele>
        <time>2019-03-30T09:32:06Z</time>
      </trkpt>
      <trkpt lat="48.26389" lon="3.16765">
        <ele>159.73</ele>
        <time>2019-03-30T09:32:11Z</time>
      </trkpt>
      <trkpt lat="48.26388" lon="3.16761">
        <ele>159.8</ele>
        <time>2019-03-30T09:32:16Z</time>
      </trkpt>
      <trkpt lat="48.26388" lon="3.1676">
        <ele>159.56</ele>
        <time>2019-03-30T09:32:21Z</time>
      </trkpt>
      <trkpt lat="48.26388" lon="3.1676">
        <ele>159.64</ele>
        <time>2019-03-30T09:32:26Z</time>
      </trkpt>
      <trkpt lat="48.26387" lon="3.16761">
        <ele>159.76</ele>
        <time>2019-03-30T09:32:31Z</time>
      </trkpt>
      <trkpt lat="48.26387" lon="3.16761">
        <ele>159.84</ele>
        <time>2019-03-30T09:32:36Z</time>
      </trkpt>
      <trkpt lat="48.26387" lon="3.16761">
        <ele>159.81</ele>
        <time>2019-03-30T09:32:41Z</time>
      </trkpt>
      <trkpt lat="48.26387" lon="3.16761">
        <ele>159.73</ele>
        <time>2019-03-30T09:32:46Z</time>
      </trkpt>
      <trkpt lat="48.26387" lon="3.16761">
        <ele>159.49</ele>
        <time>2019-03-30T09:32:51Z</time>
      </trkpt>
      <trkpt lat="48.26387" lon="3.16761">
        <ele>159.63</ele>
        <time>2019-03-30T09:32:56Z</time>
      </trkpt>
      <trkpt lat="48.26387" lon="3.16761">
        <ele>159.64</ele>
        <time>2019-03-30T09:33:01Z</time>
      </trkpt>
      <trkpt lat="48.26387" lon="3.16761">
        <ele>159.79</ele>
        <time>2019-03-30T09:33:06Z</time>
      </trkpt>
      <trkpt lat="48.26387" lon="3.16761">
        <ele>159.73</ele>
        <time>2019-03-30T09:33:11Z</time>
      </trkpt>
      <trkpt lat="48.26387" lon="3.16762">
        <ele>159.78</ele>
        <time>2019-03-30T09:33:16Z</time>
      </trkpt>
      <trkpt lat="48.26387" lon="3.16762">
        <ele>159.98</ele>
        <time>2019-03-30T09:33:21Z</time>
      </trkpt>
      <trkpt lat="48.26387" lon="3.16762">
        <ele>159.94</ele>
        <time>2019-03-30T09:33:26Z</time>
      </trkpt>
      <trkpt lat="48.26387" lon="3.16762">
        <ele>159.9</ele>
        <time>2019-03-30T09:33:31Z</time>
      </trkpt>
      <trkpt lat="48.26387" lon="3.16762">
        <ele>159.9</ele>
        <time>2019-03-30T09:33:36Z</time>
      </trkpt>
      <trkpt lat="48.26387" lon="3.16762">
        <ele>159.65</ele>
        <time>2019-03-30T09:33:41Z</time>
      </trkpt>
      <trkpt lat="48.26386" lon="3.16761">
        <ele>159.69</ele>
        <time>2019-03-30T09:33:46Z</time>
      </trkpt>
      <trkpt lat="48.26386" lon="3.16761">
        <ele>159.76</ele>
        <time>2019-03-30T09:33:51Z</time>
      </trkpt>
      <trkpt lat="48.26386" lon="3.16761">
        <ele>159.81</ele>
        <time>2019-03-30T09:33:56Z</time>
      </trkpt>
      <trkpt lat="48.26386" lon="3.16761">
        <ele>159.84</ele>
        <time>2019-03-30T09:34:01Z</time>
      </trkpt>
      <trkpt lat="48.26386" lon="3.16761">
        <ele>159.89</ele>
        <time>2019-03-30T09:34:06Z</time>
      </trkpt>
      <trkpt lat="48.26386" lon="3.1676">
        <ele>159.93</ele>
        <time>2019-03-30T09:34:11Z</time>
      </trkpt>
      <trkpt lat="48.26387" lon="3.1676">
        <ele>159.91</ele>
        <time>2019-03-30T09:34:16Z</time>
      </trkpt>
      <trkpt lat="48.26387" lon="3.1676">
        <ele>159.85</ele>
        <time>2019-03-30T09:34:21Z</time>
      </trkpt>
      <trkpt lat="48.26387" lon="3.1676">
        <ele>159.85</ele>
        <time>2019-03-30T09:34:26Z</time>
      </trkpt>
      <trkpt lat="48.26387" lon="3.1676">
        <ele>159.85</ele>
        <time>2019-03-30T09:34:31Z</time>
      </trkpt>
      <trkpt lat="48.26387" lon="3.1676">
        <ele>159.85</ele>
        <time>2019-03-30T09:34:36Z</time>
      </trkpt>
      <trkpt lat="48.26387" lon="3.16761">
        <ele>159.85</ele>
        <time>2019-03-30T09:34:41Z</time>
      </trkpt>
      <trkpt lat="48.26387" lon="3.16761">
        <ele>159.85</ele>
        <time>2019-03-30T09:34:46Z</time>
      </trkpt>
      <trkpt lat="48.26387" lon="3.16761">
        <ele>159.85</ele>
        <time>2019-03-30T09:34:51Z</time>
      </trkpt>
      <trkpt lat="48.26387" lon="3.16761">
        <ele>159.85</ele>
        <time>2019-03-30T09:34:56Z</time>
      </trkpt>
      <trkpt lat="48.26387" lon="3.16761">
        <ele>159.85</ele>
        <time>2019-03-30T09:35:01Z</time>
      </trkpt>
      <trkpt lat="48.26387" lon="3.16761">
        <ele>159.85</ele>
        <time>2019-03-30T09:35:06Z</time>
      </trkpt>
      <trkpt lat="48.26387" lon="3.16761">
        <ele>159.85</ele>
        <time>2019-03-30T09:35:11Z</time>
      </trkpt>
      <trkpt lat="48.26387" lon="3.16759">
        <ele>159.85</ele>
        <time>2019-03-30T09:35:16Z</time>
      </trkpt>
      <trkpt lat="48.26386" lon="3.16755">
        <ele>159.85</ele>
        <time>2019-03-30T09:35:21Z</time>
      </trkpt>
      <trkpt lat="48.26386" lon="3.16751">
        <ele>159.85</ele>
        <time>2019-03-30T09:35:26Z</time>
      </trkpt>
      <trkpt lat="48.26386" lon="3.16747">
        <ele>159.85</ele>
        <time>2019-03-30T09:35:31Z</time>
      </trkpt>
      <trkpt lat="48.26386" lon="3.16747">
        <ele>159.85</ele>
        <time>2019-03-30T09:35:36Z</time>
      </trkpt>
      <trkpt lat="48.26386" lon="3.16747">
        <ele>159.85</ele>
        <time>2019-03-30T09:35:41Z</time>
      </trkpt>
      <trkpt lat="48.26386" lon="3.16747">
        <ele>159.85</ele>
        <time>2019-03-30T09:35:46Z</time>
      </trkpt>
      <trkpt lat="48.26387" lon="3.16747">
        <ele>159.85</ele>
        <time>2019-03-30T09:35:51Z</time>
      </trkpt>
      <trkpt lat="48.26387" lon="3.16746">
        <ele>159.85</ele>
        <time>2019-03-30T09:35:56Z</time>
      </trkpt>
      <trkpt lat="48.26387" lon="3.16747">
        <ele>159.85</ele>
        <time>2019-03-30T09:36:01Z</time>
      </trkpt>
      <trkpt lat="48.26387" lon="3.16747">
        <ele>159.85</ele>
        <time>2019-03-30T09:36:06Z</time>
      </trkpt>
      <trkpt lat="48.26387" lon="3.16747">
        <ele>159.85</ele>
        <time>2019-03-30T09:36:11Z</time>
      </trkpt>
      <trkpt lat="48.26387" lon="3.16746">
        <ele>159.85</ele>
        <time>2019-03-30T09:36:16Z</time>
      </trkpt>
      <trkpt lat="48.26387" lon="3.16746">
        <ele>159.85</ele>
        <time>2019-03-30T09:36:21Z</time>
      </trkpt>
      <trkpt lat="48.26387" lon="3.16746">
        <ele>159.85</ele>
        <time>2019-03-30T09:36:26Z</time>
      </trkpt>
      <trkpt lat="48.26387" lon="3.16746">
        <ele>159.85</ele>
        <time>2019-03-30T09:36:31Z</time>
      </trkpt>
      <trkpt lat="48.26387" lon="3.16746">
        <ele>159.85</ele>
        <time>2019-03-30T09:36:36Z</time>
      </trkpt>
      <trkpt lat="48.26387" lon="3.16746">
        <ele>159.85</ele>
        <time>2019-03-30T09:36:41Z</time>
      </trkpt>
      <trkpt lat="48.26387" lon="3.16746">
        <ele>159.85</ele>
        <time>2019-03-30T09:36:46Z</time>
      </trkpt>
      <trkpt lat="48.26387" lon="3.16747">
        <ele>159.85</ele>
        <time>2019-03-30T09:36:51Z</time>
      </trkpt>
      <trkpt lat="48.26387" lon="3.16747">
        <ele>159.85</ele>
        <time>2019-03-30T09:36:56Z</time>
      </trkpt>
      <trkpt lat="48.26387" lon="3.16747">
        <ele>159.85</ele>
        <time>2019-03-30T09:37:01Z</time>
      </trkpt>
      <trkpt lat="48.26386" lon="3.16747">
        <ele>159.85</ele>
        <time>2019-03-30T09:37:06Z</time>
      </trkpt>
      <trkpt lat="48.26386" lon="3.16747">
        <ele>159.85</ele>
        <time>2019-03-30T09:37:11Z</time>
      </trkpt>
      <trkpt lat="48.26386" lon="3.16748">
        <ele>159.85</ele>
        <time>2019-03-30T09:37:16Z</time>
      </trkpt>
      <trkpt lat="48.26386" lon="3.16747">
        <ele>159.85</ele>
        <time>2019-03-30T09:37:21Z</time>
      </trkpt>
      <trkpt lat="48.26385" lon="3.16747">
        <ele>159.85</ele>
        <time>2019-03-30T09:37:26Z</time>
      </trkpt>
      <trkpt lat="48.26385" lon="3.16747">
        <ele>159.85</ele>
        <time>2019-03-30T09:37:31Z</time>
      </trkpt>
      <trkpt lat="48.26385" lon="3.16746">
        <ele>159.85</ele>
        <time>2019-03-30T09:37:36Z</time>
      </trkpt>
      <trkpt lat="48.26385" lon="3.16746">
        <ele>159.85</ele>
        <time>2019-03-30T09:37:41Z</time>
      </trkpt>
      <trkpt lat="48.26384" lon="3.16746">
        <ele>159.85</ele>
        <time>2019-03-30T09:37:46Z</time>
      </trkpt>
      <trkpt lat="48.26384" lon="3.16745">
        <ele>159.85</ele>
        <time>2019-03-30T09:37:51Z</time>
      </trkpt>
      <trkpt lat="48.26384" lon="3.16745">
        <ele>159.85</ele>
        <time>2019-03-30T09:37:56Z</time>
      </trkpt>
      <trkpt lat="48.26384" lon="3.16745">
        <ele>159.85</ele>
        <time>2019-03-30T09:38:01Z</time>
      </trkpt>
      <trkpt lat="48.26384" lon="3.16745">
        <ele>159.85</ele>
        <time>2019-03-30T09:38:06Z</time>
      </trkpt>
      <trkpt lat="48.26384" lon="3.16746">
        <ele>159.85</ele>
        <time>2019-03-30T09:38:11Z</time>
      </trkpt>
      <trkpt lat="48.26384" lon="3.16746">
        <ele>159.85</ele>
        <time>2019-03-30T09:38:16Z</time>
      </trkpt>
      <trkpt lat="48.26385" lon="3.16746">
        <ele>159.85</ele>
        <time>2019-03-30T09:38:21Z</time>
      </trkpt>
      <trkpt lat="48.26385" lon="3.16746">
        <ele>159.85</ele>
        <time>2019-03-30T09:38:26Z</time>
      </trkpt>
      <trkpt lat="48.26385" lon="3.16746">
        <ele>159.85</ele>
        <time>2019-03-30T09:38:31Z</time>
      </trkpt>
      <trkpt lat="48.26385" lon="3.16747">
        <ele>159.85</ele>
        <time>2019-03-30T09:38:36Z</time>
      </trkpt>
      <trkpt lat="48.26386" lon="3.16746">
        <ele>159.85</ele>
        <time>2019-03-30T09:38:41Z</time>
      </trkpt>
      <trkpt lat="48.26386" lon="3.16746">
        <ele>159.85</ele>
        <time>2019-03-30T09:38:46Z</time>
      </trkpt>
      <trkpt lat="48.26386" lon="3.16746">
        <ele>159.85</ele>
        <time>2019-03-30T09:38:51Z</time>
      </trkpt>
      <trkpt lat="48.26386" lon="3.16746">
        <ele>159.85</ele>
        <time>2019-03-30T09:38:56Z</time>
      </trkpt>
      <trkpt lat="48.26386" lon="3.16747">
        <ele>159.85</ele>
        <time>2019-03-30T09:39:01Z</time>
      </trkpt>
      <trkpt lat="48.26387" lon="3.16747">
        <ele>159.85</ele>
        <time>2019-03-30T09:39:06Z</time>
      </trkpt>
      <trkpt lat="48.26387" lon="3.16747">
        <ele>159.85</ele>
        <time>2019-03-30T09:39:11Z</time>
      </trkpt>
      <trkpt lat="48.26387" lon="3.16747">
        <ele>159.85</ele>
        <time>2019-03-30T09:39:16Z</time>
      </trkpt>
      <trkpt lat="48.26387" lon="3.16747">
        <ele>159.85</ele>
        <time>2019-03-30T09:39:21Z</time>
      </trkpt>
      <trkpt lat="48.26387" lon="3.16747">
        <ele>159.85</ele>
        <time>2019-03-30T09:39:26Z</time>
      </trkpt>
      <trkpt lat="48.26387" lon="3.16747">
        <ele>159.85</ele>
        <time>2019-03-30T09:39:31Z</time>
      </trkpt>
      <trkpt lat="48.26387" lon="3.16747">
        <ele>159.85</ele>
        <time>2019-03-30T09:39:36Z</time>
      </trkpt>
      <trkpt lat="48.26387" lon="3.16747">
        <ele>159.85</ele>
        <time>2019-03-30T09:39:41Z</time>
      </trkpt>
      <trkpt lat="48.26387" lon="3.16747">
        <ele>159.85</ele>
        <time>2019-03-30T09:39:46Z</time>
      </trkpt>
      <trkpt lat="48.26386" lon="3.16747">
        <ele>159.85</ele>
        <time>2019-03-30T09:39:51Z</time>
      </trkpt>
      <trkpt lat="48.26386" lon="3.16747">
        <ele>159.85</ele>
        <time>2019-03-30T09:39:56Z</time>
      </trkpt>
      <trkpt lat="48.26386" lon="3.16747">
        <ele>159.85</ele>
        <time>2019-03-30T09:40:01Z</time>
      </trkpt>
      <trkpt lat="48.26386" lon="3.16747">
        <ele>159.85</ele>
        <time>2019-03-30T09:40:06Z</time>
      </trkpt>
      <trkpt lat="48.26386" lon="3.16746">
        <ele>159.85</ele>
        <time>2019-03-30T09:40:11Z</time>
      </trkpt>
      <trkpt lat="48.26386" lon="3.16746">
        <ele>159.85</ele>
        <time>2019-03-30T09:40:16Z</time>
      </trkpt>
      <trkpt lat="48.26386" lon="3.16746">
        <ele>159.85</ele>
        <time>2019-03-30T09:40:21Z</time>
      </trkpt>
      <trkpt lat="48.26386" lon="3.16746">
        <ele>159.85</ele>
        <time>2019-03-30T09:40:26Z</time>
      </trkpt>
      <trkpt lat="48.26386" lon="3.16747">
        <ele>159.85</ele>
        <time>2019-03-30T09:40:31Z</time>
      </trkpt>
      <trkpt lat="48.26386" lon="3.16746">
        <ele>159.85</ele>
        <time>2019-03-30T09:40:36Z</time>
      </trkpt>
      <trkpt lat="48.26386" lon="3.16745">
        <ele>159.85</ele>
        <time>2019-03-30T09:40:41Z</time>
      </trkpt>
      <trkpt lat="48.26386" lon="3.16745">
        <ele>159.85</ele>
        <time>2019-03-30T09:40:46Z</time>
      </trkpt>
      <trkpt lat="48.26387" lon="3.16745">
        <ele>159.85</ele>
        <time>2019-03-30T09:40:51Z</time>
      </trkpt>
      <trkpt lat="48.26387" lon="3.16745">
        <ele>159.85</ele>
        <time>2019-03-30T09:40:56Z</time>
      </trkpt>
      <trkpt lat="48.26387" lon="3.16745">
        <ele>159.85</ele>
        <time>2019-03-30T09:41:01Z</time>
      </trkpt>
      <trkpt lat="48.26387" lon="3.16745">
        <ele>159.85</ele>
        <time>2019-03-30T09:41:06Z</time>
      </trkpt>
      <trkpt lat="48.26386" lon="3.16742">
        <ele>159.85</ele>
        <time>2019-03-30T09:41:11Z</time>
      </trkpt>
      <trkpt lat="48.26383" lon="3.16737">
        <ele>159.97</ele>
        <time>2019-03-30T09:41:16Z</time>
      </trkpt>
      <trkpt lat="48.26379" lon="3.16734">
        <ele>160.9</ele>
        <time>2019-03-30T09:41:21Z</time>
      </trkpt>
      <trkpt lat="48.26374" lon="3.16731">
        <ele>160.92</ele>
        <time>2019-03-30T09:41:26Z</time>
      </trkpt>
      <trkpt lat="48.2637" lon="3.16727">
        <ele>161.08</ele>
        <time>2019-03-30T09:41:31Z</time>
      </trkpt>
      <trkpt lat="48.26365" lon="3.16723">
        <ele>161.29</ele>
        <time>2019-03-30T09:41:36Z</time>
      </trkpt>
      <trkpt lat="48.26362" lon="3.16718">
        <ele>161.43</ele>
        <time>2019-03-30T09:41:41Z</time>
      </trkpt>
      <trkpt lat="48.26358" lon="3.16714">
        <ele>161.41</ele>
        <time>2019-03-30T09:41:46Z</time>
      </trkpt>
      <trkpt lat="48.26353" lon="3.1671">
        <ele>161.32</ele>
        <time>2019-03-30T09:41:51Z</time>
      </trkpt>
      <trkpt lat="48.2635" lon="3.16706">
        <ele>161.35</ele>
        <time>2019-03-30T09:41:56Z</time>
      </trkpt>
      <trkpt lat="48.26345" lon="3.16702">
        <ele>161.33</ele>
        <time>2019-03-30T09:42:01Z</time>
      </trkpt>
      <trkpt lat="48.26341" lon="3.16697">
        <ele>161.33</ele>
        <time>2019-03-30T09:42:06Z</time>
      </trkpt>
      <trkpt lat="48.26336" lon="3.16693">
        <ele>161.38</ele>
        <time>2019-03-30T09:42:11Z</time>
      </trkpt>
      <trkpt lat="48.26332" lon="3.16688">
        <ele>161.43</ele>
        <time>2019-03-30T09:42:16Z</time>
      </trkpt>
      <trkpt lat="48.26327" lon="3.16684">
        <ele>161.63</ele>
        <time>2019-03-30T09:42:21Z</time>
      </trkpt>
      <trkpt lat="48.26322" lon="3.1668">
        <ele>161.67</ele>
        <time>2019-03-30T09:42:26Z</time>
      </trkpt>
      <trkpt lat="48.26318" lon="3.16675">
        <ele>161.67</ele>
        <time>2019-03-30T09:42:31Z</time>
      </trkpt>
      <trkpt lat="48.26314" lon="3.16671">
        <ele>161.68</ele>
        <time>2019-03-30T09:42:36Z</time>
      </trkpt>
      <trkpt lat="48.2631" lon="3.16666">
        <ele>161.75</ele>
        <time>2019-03-30T09:42:41Z</time>
      </trkpt>
      <trkpt lat="48.26306" lon="3.16662">
        <ele>161.81</ele>
        <time>2019-03-30T09:42:46Z</time>
      </trkpt>
      <trkpt lat="48.26301" lon="3.16658">
        <ele>161.82</ele>
        <time>2019-03-30T09:42:51Z</time>
      </trkpt>
      <trkpt lat="48.26297" lon="3.16654">
        <ele>161.91</ele>
        <time>2019-03-30T09:42:56Z</time>
      </trkpt>
      <trkpt lat="48.26293" lon="3.1665">
        <ele>161.97</ele>
        <time>2019-03-30T09:43:01Z</time>
      </trkpt>
      <trkpt lat="48.26288" lon="3.16645">
        <ele>162.13</ele>
        <time>2019-03-30T09:43:06Z</time>
      </trkpt>
      <trkpt lat="48.26284" lon="3.1664">
        <ele>162.23</ele>
        <time>2019-03-30T09:43:11Z</time>
      </trkpt>
      <trkpt lat="48.26279" lon="3.16635">
        <ele>162.18</ele>
        <time>2019-03-30T09:43:16Z</time>
      </trkpt>
      <trkpt lat="48.26275" lon="3.16632">
        <ele>162.12</ele>
        <time>2019-03-30T09:43:21Z</time>
      </trkpt>
      <trkpt lat="48.2627" lon="3.16627">
        <ele>162.17</ele>
        <time>2019-03-30T09:43:26Z</time>
      </trkpt>
      <trkpt lat="48.26266" lon="3.16623">
        <ele>162.19</ele>
        <time>2019-03-30T09:43:31Z</time>
      </trkpt>
      <trkpt lat="48.26261" lon="3.16617">
        <ele>162.33</ele>
        <time>2019-03-30T09:43:36Z</time>
      </trkpt>
      <trkpt lat="48.26256" lon="3.16613">
        <ele>162.41</ele>
        <time>2019-03-30T09:43:41Z</time>
      </trkpt>
      <trkpt lat="48.26252" lon="3.16608">
        <ele>162.52</ele>
        <time>2019-03-30T09:43:46Z</time>
      </trkpt>
      <trkpt lat="48.26247" lon="3.16604">
        <ele>162.67</ele>
        <time>2019-03-30T09:43:51Z</time>
      </trkpt>
      <trkpt lat="48.26243" lon="3.166">
        <ele>162.87</ele>
        <time>2019-03-30T09:43:56Z</time>
      </trkpt>
      <trkpt lat="48.26239" lon="3.16596">
        <ele>163.04</ele>
        <time>2019-03-30T09:44:01Z</time>
      </trkpt>
      <trkpt lat="48.26235" lon="3.16591">
        <ele>163.24</ele>
        <time>2019-03-30T09:44:06Z</time>
      </trkpt>
      <trkpt lat="48.2623" lon="3.16587">
        <ele>163.38</ele>
        <time>2019-03-30T09:44:11Z</time>
      </trkpt>
      <trkpt lat="48.26226" lon="3.16583">
        <ele>163.49</ele>
        <time>2019-03-30T09:44:16Z</time>
      </trkpt>
      <trkpt lat="48.26222" lon="3.16579">
        <ele>163.55</ele>
        <time>2019-03-30T09:44:21Z</time>
      </trkpt>
      <trkpt lat="48.26218" lon="3.16574">
        <ele>163.64</ele>
        <time>2019-03-30T09:44:26Z</time>
      </trkpt>
      <trkpt lat="48.26214" lon="3.16569">
        <ele>163.77</ele>
        <time>2019-03-30T09:44:31Z</time>
      </trkpt>
      <trkpt lat="48.26211" lon="3.16564">
        <ele>163.94</ele>
        <time>2019-03-30T09:44:36Z</time>
      </trkpt>
      <trkpt lat="48.26208" lon="3.16558">
        <ele>164.18</ele>
        <time>2019-03-30T09:44:41Z</time>
      </trkpt>
      <trkpt lat="48.26205" lon="3.16553">
        <ele>164.5</ele>
        <time>2019-03-30T09:44:46Z</time>
      </trkpt>
      <trkpt lat="48.26202" lon="3.16547">
        <ele>164.6</ele>
        <time>2019-03-30T09:44:51Z</time>
      </trkpt>
      <trkpt lat="48.26198" lon="3.1654">
        <ele>164.75</ele>
        <time>2019-03-30T09:44:56Z</time>
      </trkpt>
      <trkpt lat="48.26194" lon="3.16534">
        <ele>164.77</ele>
        <time>2019-03-30T09:45:01Z</time>
      </trkpt>
      <trkpt lat="48.26191" lon="3.16527">
        <ele>164.89</ele>
        <time>2019-03-30T09:45:06Z</time>
      </trkpt>
      <trkpt lat="48.26188" lon="3.16521">
        <ele>165.1</ele>
        <time>2019-03-30T09:45:11Z</time>
      </trkpt>
      <trkpt lat="48.26185" lon="3.16515">
        <ele>165.1</ele>
        <time>2019-03-30T09:45:16Z</time>
      </trkpt>
      <trkpt lat="48.26182" lon="3.16509">
        <ele>165.18</ele>
        <time>2019-03-30T09:45:21Z</time>
      </trkpt>
      <trkpt lat="48.26178" lon="3.16502">
        <ele>165.4</ele>
        <time>2019-03-30T09:45:26Z</time>
      </trkpt>
      <trkpt lat="48.26175" lon="3.16496">
        <ele>165.58</ele>
        <time>2019-03-30T09:45:31Z</time>
      </trkpt>
      <trkpt lat="48.26172" lon="3.1649">
        <ele>165.76</ele>
        <time>2019-03-30T09:45:36Z</time>
      </trkpt>
      <trkpt lat="48.26169" lon="3.16484">
        <ele>166.03</ele>
        <time>2019-03-30T09:45:41Z</time>
      </trkpt>
      <trkpt lat="48.26165" lon="3.16478">
        <ele>166.36</ele>
        <time>2019-03-30T09:45:46Z</time>
      </trkpt>
      <trkpt lat="48.26162" lon="3.16472">
        <ele>166.6</ele>
        <time>2019-03-30T09:45:51Z</time>
      </trkpt>
      <trkpt lat="48.26158" lon="3.16466">
        <ele>167</ele>
        <time>2019-03-30T09:45:56Z</time>
      </trkpt>
      <trkpt lat="48.26154" lon="3.1646">
        <ele>167.36</ele>
        <time>2019-03-30T09:46:01Z</time>
      </trkpt>
      <trkpt lat="48.2615" lon="3.16455">
        <ele>167.72</ele>
        <time>2019-03-30T09:46:06Z</time>
      </trkpt>
      <trkpt lat="48.26145" lon="3.16451">
        <ele>168.17</ele>
        <time>2019-03-30T09:46:11Z</time>
      </trkpt>
      <trkpt lat="48.2614" lon="3.16448">
        <ele>168.45</ele>
        <time>2019-03-30T09:46:16Z</time>
      </trkpt>
      <trkpt lat="48.26136" lon="3.16445">
        <ele>168.53</ele>
        <time>2019-03-30T09:46:21Z</time>
      </trkpt>
      <trkpt lat="48.26131" lon="3.16442">
        <ele>168.72</ele>
        <time>2019-03-30T09:46:26Z</time>
      </trkpt>
      <trkpt lat="48.26126" lon="3.1644">
        <ele>169.07</ele>
        <time>2019-03-30T09:46:31Z</time>
      </trkpt>
      <trkpt lat="48.26122" lon="3.16437">
        <ele>169.53</ele>
        <time>2019-03-30T09:46:36Z</time>
      </trkpt>
      <trkpt lat="48.26118" lon="3.16435">
        <ele>170.22</ele>
        <time>2019-03-30T09:46:41Z</time>
      </trkpt>
      <trkpt lat="48.26114" lon="3.16432">
        <ele>170.77</ele>
        <time>2019-03-30T09:46:46Z</time>
      </trkpt>
      <trkpt lat="48.26109" lon="3.1643">
        <ele>171.28</ele>
        <time>2019-03-30T09:46:51Z</time>
      </trkpt>
      <trkpt lat="48.26104" lon="3.16428">
        <ele>171.5</ele>
        <time>2019-03-30T09:46:56Z</time>
      </trkpt>
      <trkpt lat="48.26099" lon="3.16426">
        <ele>171.85</ele>
        <time>2019-03-30T09:47:01Z</time>
      </trkpt>
      <trkpt lat="48.26094" lon="3.16423">
        <ele>172.27</ele>
        <time>2019-03-30T09:47:06Z</time>
      </trkpt>
      <trkpt lat="48.2609" lon="3.1642">
        <ele>172.61</ele>
        <time>2019-03-30T09:47:11Z</time>
      </trkpt>
      <trkpt lat="48.26086" lon="3.16416">
        <ele>172.8</ele>
        <time>2019-03-30T09:47:16Z</time>
      </trkpt>
      <trkpt lat="48.26083" lon="3.16413">
        <ele>172.93</ele>
        <time>2019-03-30T09:47:21Z</time>
      </trkpt>
      <trkpt lat="48.26078" lon="3.16409">
        <ele>173.18</ele>
        <time>2019-03-30T09:47:26Z</time>
      </trkpt>
      <trkpt lat="48.26073" lon="3.16406">
        <ele>173.45</ele>
        <time>2019-03-30T09:47:31Z</time>
      </trkpt>
      <trkpt lat="48.26069" lon="3.16402">
        <ele>173.5</ele>
        <time>2019-03-30T09:47:36Z</time>
      </trkpt>
      <trkpt lat="48.26064" lon="3.16398">
        <ele>173.67</ele>
        <time>2019-03-30T09:47:41Z</time>
      </trkpt>
      <trkpt lat="48.26059" lon="3.16394">
        <ele>173.71</ele>
        <time>2019-03-30T09:47:46Z</time>
      </trkpt>
      <trkpt lat="48.26055" lon="3.1639">
        <ele>173.71</ele>
        <time>2019-03-30T09:47:51Z</time>
      </trkpt>
      <trkpt lat="48.26051" lon="3.16386">
        <ele>173.82</ele>
        <time>2019-03-30T09:47:56Z</time>
      </trkpt>
      <trkpt lat="48.26046" lon="3.16382">
        <ele>173.97</ele>
        <time>2019-03-30T09:48:01Z</time>
      </trkpt>
      <trkpt lat="48.26041" lon="3.16378">
        <ele>174.4</ele>
        <time>2019-03-30T09:48:06Z</time>
      </trkpt>
      <trkpt lat="48.26037" lon="3.16374">
        <ele>174.46</ele>
        <time>2019-03-30T09:48:11Z</time>
      </trkpt>
      <trkpt lat="48.26033" lon="3.1637">
        <ele>174.66</ele>
        <time>2019-03-30T09:48:16Z</time>
      </trkpt>
      <trkpt lat="48.26028" lon="3.16366">
        <ele>174.81</ele>
        <time>2019-03-30T09:48:21Z</time>
      </trkpt>
      <trkpt lat="48.26023" lon="3.1636">
        <ele>174.79</ele>
        <time>2019-03-30T09:48:26Z</time>
      </trkpt>
      <trkpt lat="48.26018" lon="3.16357">
        <ele>174.73</ele>
        <time>2019-03-30T09:48:31Z</time>
      </trkpt>
      <trkpt lat="48.26014" lon="3.16352">
        <ele>174.79</ele>
        <time>2019-03-30T09:48:36Z</time>
      </trkpt>
      <trkpt lat="48.2601" lon="3.16346">
        <ele>174.96</ele>
        <time>2019-03-30T09:48:41Z</time>
      </trkpt>
      <trkpt lat="48.26007" lon="3.16343">
        <ele>174.91</ele>
        <time>2019-03-30T09:48:46Z</time>
      </trkpt>
      <trkpt lat="48.26002" lon="3.16339">
        <ele>174.85</ele>
        <time>2019-03-30T09:48:51Z</time>
      </trkpt>
      <trkpt lat="48.25998" lon="3.16334">
        <ele>174.83</ele>
        <time>2019-03-30T09:48:56Z</time>
      </trkpt>
      <trkpt lat="48.25994" lon="3.16329">
        <ele>174.8</ele>
        <time>2019-03-30T09:49:01Z</time>
      </trkpt>
      <trkpt lat="48.25991" lon="3.16325">
        <ele>174.59</ele>
        <time>2019-03-30T09:49:06Z</time>
      </trkpt>
      <trkpt lat="48.25987" lon="3.16319">
        <ele>174.34</ele>
        <time>2019-03-30T09:49:11Z</time>
      </trkpt>
      <trkpt lat="48.25984" lon="3.16315">
        <ele>174.22</ele>
        <time>2019-03-30T09:49:16Z</time>
      </trkpt>
      <trkpt lat="48.25979" lon="3.16311">
        <ele>174.06</ele>
        <time>2019-03-30T09:49:21Z</time>
      </trkpt>
      <trkpt lat="48.25975" lon="3.16306">
        <ele>174.04</ele>
        <time>2019-03-30T09:49:26Z</time>
      </trkpt>
      <trkpt lat="48.25971" lon="3.163">
        <ele>173.99</ele>
        <time>2019-03-30T09:49:31Z</time>
      </trkpt>
      <trkpt lat="48.25968" lon="3.16294">
        <ele>173.67</ele>
        <time>2019-03-30T09:49:36Z</time>
      </trkpt>
      <trkpt lat="48.25964" lon="3.16289">
        <ele>173.46</ele>
        <time>2019-03-30T09:49:41Z</time>
      </trkpt>
      <trkpt lat="48.25963" lon="3.16285">
        <ele>173.26</ele>
        <time>2019-03-30T09:49:46Z</time>
      </trkpt>
      <trkpt lat="48.2596" lon="3.16283">
        <ele>173.06</ele>
        <time>2019-03-30T09:49:51Z</time>
      </trkpt>
      <trkpt lat="48.25958" lon="3.16279">
        <ele>173.09</ele>
        <time>2019-03-30T09:49:56Z</time>
      </trkpt>
      <trkpt lat="48.25956" lon="3.16274">
        <ele>173.13</ele>
        <time>2019-03-30T09:50:01Z</time>
      </trkpt>
      <trkpt lat="48.25955" lon="3.16269">
        <ele>173.05</ele>
        <time>2019-03-30T09:50:06Z</time>
      </trkpt>
      <trkpt lat="48.25955" lon="3.16263">
        <ele>172.86</ele>
        <time>2019-03-30T09:50:11Z</time>
      </trkpt>
      <trkpt lat="48.25953" lon="3.16257">
        <ele>172.73</ele>
        <time>2019-03-30T09:50:16Z</time>
      </trkpt>
      <trkpt lat="48.25953" lon="3.16252">
        <ele>172.65</ele>
        <time>2019-03-30T09:50:21Z</time>
      </trkpt>
      <trkpt lat="48.25951" lon="3.16245">
        <ele>172.58</ele>
        <time>2019-03-30T09:50:26Z</time>
      </trkpt>
      <trkpt lat="48.25951" lon="3.16238">
        <ele>172.48</ele>
        <time>2019-03-30T09:50:31Z</time>
      </trkpt>
      <trkpt lat="48.25951" lon="3.1623">
        <ele>172.35</ele>
        <time>2019-03-30T09:50:36Z</time>
      </trkpt>
      <trkpt lat="48.25952" lon="3.16222">
        <ele>172.32</ele>
        <time>2019-03-30T09:50:41Z</time>
      </trkpt>
      <trkpt lat="48.25951" lon="3.16214">
        <ele>172.27</ele>
        <time>2019-03-30T09:50:46Z</time>
      </trkpt>
      <trkpt lat="48.2595" lon="3.16209">
        <ele>171.91</ele>
        <time>2019-03-30T09:50:51Z</time>
      </trkpt>
      <trkpt lat="48.25951" lon="3.16203">
        <ele>171.87</ele>
        <time>2019-03-30T09:50:56Z</time>
      </trkpt>
      <trkpt lat="48.25952" lon="3.16196">
        <ele>171.95</ele>
        <time>2019-03-30T09:51:01Z</time>
      </trkpt>
      <trkpt lat="48.25952" lon="3.16188">
        <ele>171.71</ele>
        <time>2019-03-30T09:51:06Z</time>
      </trkpt>
      <trkpt lat="48.25953" lon="3.1618">
        <ele>171.7</ele>
        <time>2019-03-30T09:51:11Z</time>
      </trkpt>
      <trkpt lat="48.25954" lon="3.16171">
        <ele>171.53</ele>
        <time>2019-03-30T09:51:16Z</time>
      </trkpt>
      <trkpt lat="48.25954" lon="3.16163">
        <ele>171.34</ele>
        <time>2019-03-30T09:51:21Z</time>
      </trkpt>
      <trkpt lat="48.25957" lon="3.16159">
        <ele>171.24</ele>
        <time>2019-03-30T09:51:26Z</time>
      </trkpt>
      <trkpt lat="48.25956" lon="3.16153">
        <ele>171.3</ele>
        <time>2019-03-30T09:51:31Z</time>
      </trkpt>
      <trkpt lat="48.25957" lon="3.16144">
        <ele>171.24</ele>
        <time>2019-03-30T09:51:36Z</time>
      </trkpt>
      <trkpt lat="48.25958" lon="3.16136">
        <ele>171.17</ele>
        <time>2019-03-30T09:51:41Z</time>
      </trkpt>
      <trkpt lat="48.25959" lon="3.16131">
        <ele>171.15</ele>
        <time>2019-03-30T09:51:46Z</time>
      </trkpt>
      <trkpt lat="48.25958" lon="3.16128">
        <ele>170.98</ele>
        <time>2019-03-30T09:51:51Z</time>
      </trkpt>
      <trkpt lat="48.25958" lon="3.16123">
        <ele>170.91</ele>
        <time>2019-03-30T09:51:56Z</time>
      </trkpt>
      <trkpt lat="48.25958" lon="3.16119">
        <ele>170.75</ele>
        <time>2019-03-30T09:52:01Z</time>
      </trkpt>
      <trkpt lat="48.25958" lon="3.16113">
        <ele>170.7</ele>
        <time>2019-03-30T09:52:06Z</time>
      </trkpt>
      <trkpt lat="48.25957" lon="3.16107">
        <ele>170.61</ele>
        <time>2019-03-30T09:52:11Z</time>
      </trkpt>
      <trkpt lat="48.25956" lon="3.16099">
        <ele>170.39</ele>
        <time>2019-03-30T09:52:16Z</time>
      </trkpt>
      <trkpt lat="48.25956" lon="3.1609">
        <ele>170.1</ele>
        <time>2019-03-30T09:52:21Z</time>
      </trkpt>
      <trkpt lat="48.25955" lon="3.16081">
        <ele>169.98</ele>
        <time>2019-03-30T09:52:26Z</time>
      </trkpt>
      <trkpt lat="48.25955" lon="3.16073">
        <ele>169.96</ele>
        <time>2019-03-30T09:52:31Z</time>
      </trkpt>
      <trkpt lat="48.25955" lon="3.16064">
        <ele>169.84</ele>
        <time>2019-03-30T09:52:36Z</time>
      </trkpt>
      <trkpt lat="48.25955" lon="3.16056">
        <ele>169.68</ele>
        <time>2019-03-30T09:52:41Z</time>
      </trkpt>
      <trkpt lat="48.25955" lon="3.16047">
        <ele>169.58</ele>
        <time>2019-03-30T09:52:46Z</time>
      </trkpt>
      <trkpt lat="48.25955" lon="3.16039">
        <ele>169.45</ele>
        <time>2019-03-30T09:52:51Z</time>
      </trkpt>
      <trkpt lat="48.25956" lon="3.16032">
        <ele>169.43</ele>
        <time>2019-03-30T09:52:56Z</time>
      </trkpt>
      <trkpt lat="48.25955" lon="3.16024">
        <ele>169.46</ele>
        <time>2019-03-30T09:53:01Z</time>
      </trkpt>
      <trkpt lat="48.25955" lon="3.16015">
        <ele>169.48</ele>
        <time>2019-03-30T09:53:06Z</time>
      </trkpt>
      <trkpt lat="48.25955" lon="3.16005">
        <ele>169.41</ele>
        <time>2019-03-30T09:53:11Z</time>
      </trkpt>
      <trkpt lat="48.25956" lon="3.15995">
        <ele>169.32</ele>
        <time>2019-03-30T09:53:16Z</time>
      </trkpt>
      <trkpt lat="48.25956" lon="3.15986">
        <ele>169.31</ele>
        <time>2019-03-30T09:53:21Z</time>
      </trkpt>
      <trkpt lat="48.25956" lon="3.15976">
        <ele>169.34</ele>
        <time>2019-03-30T09:53:26Z</time>
      </trkpt>
      <trkpt lat="48.25956" lon="3.15967">
        <ele>169.38</ele>
        <time>2019-03-30T09:53:31Z</time>
      </trkpt>
      <trkpt lat="48.25956" lon="3.15961">
        <ele>169.26</ele>
        <time>2019-03-30T09:53:36Z</time>
      </trkpt>
      <trkpt lat="48.25956" lon="3.15955">
        <ele>169.06</ele>
        <time>2019-03-30T09:53:41Z</time>
      </trkpt>
      <trkpt lat="48.25956" lon="3.1595">
        <ele>168.74</ele>
        <time>2019-03-30T09:53:46Z</time>
      </trkpt>
      <trkpt lat="48.25957" lon="3.15949">
        <ele>168.82</ele>
        <time>2019-03-30T09:53:51Z</time>
      </trkpt>
      <trkpt lat="48.25957" lon="3.15949">
        <ele>168.98</ele>
        <time>2019-03-30T09:53:56Z</time>
      </trkpt>
      <trkpt lat="48.25957" lon="3.15948">
        <ele>168.9</ele>
        <time>2019-03-30T09:54:01Z</time>
      </trkpt>
      <trkpt lat="48.25957" lon="3.15948">
        <ele>168.95</ele>
        <time>2019-03-30T09:54:06Z</time>
      </trkpt>
      <trkpt lat="48.25958" lon="3.15948">
        <ele>169.09</ele>
        <time>2019-03-30T09:54:11Z</time>
      </trkpt>
      <trkpt lat="48.25958" lon="3.15948">
        <ele>169.22</ele>
        <time>2019-03-30T10:01:01Z</time>
      </trkpt>
      <trkpt lat="48.25959" lon="3.15943">
        <ele>169.22</ele>
        <time>2019-03-30T10:01:06Z</time>
      </trkpt>
      <trkpt lat="48.2596" lon="3.15941">
        <ele>169.22</ele>
        <time>2019-03-30T10:01:11Z</time>
      </trkpt>
      <trkpt lat="48.25961" lon="3.1594">
        <ele>169.22</ele>
        <time>2019-03-30T10:01:16Z</time>
      </trkpt>
      <trkpt lat="48.25961" lon="3.15941">
        <ele>169.22</ele>
        <time>2019-03-30T10:01:21Z</time>
      </trkpt>
      <trkpt lat="48.25961" lon="3.1594">
        <ele>169.22</ele>
        <time>2019-03-30T10:01:36Z</time>
      </trkpt>
      <trkpt lat="48.25961" lon="3.1594">
        <ele>169.22</ele>
        <time>2019-03-30T10:01:41Z</time>
      </trkpt>
      <trkpt lat="48.25961" lon="3.15939">
        <ele>169.22</ele>
        <time>2019-03-30T10:01:46Z</time>
      </trkpt>
      <trkpt lat="48.25963" lon="3.15936">
        <ele>169.22</ele>
        <time>2019-03-30T10:01:51Z</time>
      </trkpt>
      <trkpt lat="48.25968" lon="3.15934">
        <ele>169.22</ele>
        <time>2019-03-30T10:01:56Z</time>
      </trkpt>
      <trkpt lat="48.25973" lon="3.15933">
        <ele>169.83</ele>
        <time>2019-03-30T10:02:01Z</time>
      </trkpt>
      <trkpt lat="48.25976" lon="3.15931">
        <ele>170.31</ele>
        <time>2019-03-30T10:02:06Z</time>
      </trkpt>
      <trkpt lat="48.25981" lon="3.1593">
        <ele>170.48</ele>
        <time>2019-03-30T10:02:11Z</time>
      </trkpt>
      <trkpt lat="48.25986" lon="3.1593">
        <ele>170.73</ele>
        <time>2019-03-30T10:02:16Z</time>
      </trkpt>
      <trkpt lat="48.2599" lon="3.15928">
        <ele>170.88</ele>
        <time>2019-03-30T10:02:21Z</time>
      </trkpt>
      <trkpt lat="48.25995" lon="3.15928">
        <ele>171.02</ele>
        <time>2019-03-30T10:02:26Z</time>
      </trkpt>
      <trkpt lat="48.25999" lon="3.15927">
        <ele>171.34</ele>
        <time>2019-03-30T10:02:31Z</time>
      </trkpt>
      <trkpt lat="48.26003" lon="3.15927">
        <ele>171.5</ele>
        <time>2019-03-30T10:02:36Z</time>
      </trkpt>
      <trkpt lat="48.26007" lon="3.15925">
        <ele>171.61</ele>
        <time>2019-03-30T10:02:41Z</time>
      </trkpt>
      <trkpt lat="48.26013" lon="3.15922">
        <ele>171.74</ele>
        <time>2019-03-30T10:02:46Z</time>
      </trkpt>
      <trkpt lat="48.26019" lon="3.1592">
        <ele>171.91</ele>
        <time>2019-03-30T10:02:51Z</time>
      </trkpt>
      <trkpt lat="48.26025" lon="3.15919">
        <ele>172.07</ele>
        <time>2019-03-30T10:02:56Z</time>
      </trkpt>
      <trkpt lat="48.2603" lon="3.15918">
        <ele>172.4</ele>
        <time>2019-03-30T10:03:01Z</time>
      </trkpt>
      <trkpt lat="48.26035" lon="3.15915">
        <ele>172.67</ele>
        <time>2019-03-30T10:03:06Z</time>
      </trkpt>
      <trkpt lat="48.26039" lon="3.15913">
        <ele>172.87</ele>
        <time>2019-03-30T10:03:11Z</time>
      </trkpt>
      <trkpt lat="48.26043" lon="3.15911">
        <ele>173.06</ele>
        <time>2019-03-30T10:03:16Z</time>
      </trkpt>
      <trkpt lat="48.26048" lon="3.15909">
        <ele>173.28</ele>
        <time>2019-03-30T10:03:21Z</time>
      </trkpt>
      <trkpt lat="48.26053" lon="3.15906">
        <ele>173.56</ele>
        <time>2019-03-30T10:03:26Z</time>
      </trkpt>
      <trkpt lat="48.26057" lon="3.15905">
        <ele>173.74</ele>
        <time>2019-03-30T10:03:31Z</time>
      </trkpt>
      <trkpt lat="48.26062" lon="3.15903">
        <ele>173.98</ele>
        <time>2019-03-30T10:03:36Z</time>
      </trkpt>
      <trkpt lat="48.26066" lon="3.15901">
        <ele>174.2</ele>
        <time>2019-03-30T10:03:41Z</time>
      </trkpt>
      <trkpt lat="48.26069" lon="3.15898">
        <ele>174.43</ele>
        <time>2019-03-30T10:03:46Z</time>
      </trkpt>
      <trkpt lat="48.26073" lon="3.15896">
        <ele>174.68</ele>
        <time>2019-03-30T10:03:51Z</time>
      </trkpt>
      <trkpt lat="48.26078" lon="3.15896">
        <ele>174.99</ele>
        <time>2019-03-30T10:03:56Z</time>
      </trkpt>
      <trkpt lat="48.26083" lon="3.15894">
        <ele>175.25</ele>
        <time>2019-03-30T10:04:01Z</time>
      </trkpt>
      <trkpt lat="48.26087" lon="3.15893">
        <ele>175.49</ele>
        <time>2019-03-30T10:04:06Z</time>
      </trkpt>
      <trkpt lat="48.26092" lon="3.15892">
        <ele>175.9</ele>
        <time>2019-03-30T10:04:11Z</time>
      </trkpt>
      <trkpt lat="48.26096" lon="3.15893">
        <ele>176.04</ele>
        <time>2019-03-30T10:04:16Z</time>
      </trkpt>
      <trkpt lat="48.261" lon="3.15893">
        <ele>176.39</ele>
        <time>2019-03-30T10:04:21Z</time>
      </trkpt>
      <trkpt lat="48.26103" lon="3.15891">
        <ele>176.6</ele>
        <time>2019-03-30T10:04:26Z</time>
      </trkpt>
      <trkpt lat="48.26107" lon="3.15889">
        <ele>176.86</ele>
        <time>2019-03-30T10:04:31Z</time>
      </trkpt>
      <trkpt lat="48.26112" lon="3.15886">
        <ele>177.17</ele>
        <time>2019-03-30T10:04:36Z</time>
      </trkpt>
      <trkpt lat="48.26115" lon="3.15883">
        <ele>177.47</ele>
        <time>2019-03-30T10:04:41Z</time>
      </trkpt>
      <trkpt lat="48.26118" lon="3.15881">
        <ele>177.75</ele>
        <time>2019-03-30T10:04:46Z</time>
      </trkpt>
      <trkpt lat="48.2612" lon="3.1588">
        <ele>177.91</ele>
        <time>2019-03-30T10:04:51Z</time>
      </trkpt>
      <trkpt lat="48.26122" lon="3.1588">
        <ele>177.95</ele>
        <time>2019-03-30T10:04:56Z</time>
      </trkpt>
      <trkpt lat="48.2613" lon="3.15878">
        <ele>178.01</ele>
        <time>2019-03-30T10:05:01Z</time>
      </trkpt>
      <trkpt lat="48.26136" lon="3.15876">
        <ele>178.2</ele>
        <time>2019-03-30T10:05:06Z</time>
      </trkpt>
      <trkpt lat="48.26141" lon="3.15874">
        <ele>178.44</ele>
        <time>2019-03-30T10:05:11Z</time>
      </trkpt>
      <trkpt lat="48.26144" lon="3.15874">
        <ele>178.57</ele>
        <time>2019-03-30T10:05:16Z</time>
      </trkpt>
      <trkpt lat="48.26147" lon="3.15873">
        <ele>178.75</ele>
        <time>2019-03-30T10:05:21Z</time>
      </trkpt>
      <trkpt lat="48.26149" lon="3.15873">
        <ele>179</ele>
        <time>2019-03-30T10:05:26Z</time>
      </trkpt>
      <trkpt lat="48.26152" lon="3.15873">
        <ele>179.03</ele>
        <time>2019-03-30T10:05:31Z</time>
      </trkpt>
      <trkpt lat="48.26158" lon="3.15872">
        <ele>179.01</ele>
        <time>2019-03-30T10:05:36Z</time>
      </trkpt>
      <trkpt lat="48.26159" lon="3.15871">
        <ele>179.1</ele>
        <time>2019-03-30T10:05:41Z</time>
      </trkpt>
      <trkpt lat="48.26167" lon="3.15868">
        <ele>179.29</ele>
        <time>2019-03-30T10:05:46Z</time>
      </trkpt>
      <trkpt lat="48.26173" lon="3.15866">
        <ele>179.52</ele>
        <time>2019-03-30T10:05:51Z</time>
      </trkpt>
      <trkpt lat="48.26176" lon="3.15865">
        <ele>179.74</ele>
        <time>2019-03-30T10:05:56Z</time>
      </trkpt>
      <trkpt lat="48.26182" lon="3.15862">
        <ele>179.8</ele>
        <time>2019-03-30T10:06:01Z</time>
      </trkpt>
      <trkpt lat="48.26187" lon="3.15857">
        <ele>179.83</ele>
        <time>2019-03-30T10:06:06Z</time>
      </trkpt>
      <trkpt lat="48.26189" lon="3.15855">
        <ele>179.79</ele>
        <time>2019-03-30T10:06:11Z</time>
      </trkpt>
      <trkpt lat="48.26193" lon="3.15855">
        <ele>179.74</ele>
        <time>2019-03-30T10:06:16Z</time>
      </trkpt>
      <trkpt lat="48.26201" lon="3.15852">
        <ele>179.77</ele>
        <time>2019-03-30T10:06:21Z</time>
      </trkpt>
      <trkpt lat="48.26207" lon="3.15848">
        <ele>179.91</ele>
        <time>2019-03-30T10:06:26Z</time>
      </trkpt>
      <trkpt lat="48.2621" lon="3.15847">
        <ele>179.91</ele>
        <time>2019-03-30T10:06:31Z</time>
      </trkpt>
      <trkpt lat="48.26212" lon="3.15845">
        <ele>179.71</ele>
        <time>2019-03-30T10:06:36Z</time>
      </trkpt>
      <trkpt lat="48.2622" lon="3.15841">
        <ele>179.7</ele>
        <time>2019-03-30T10:06:41Z</time>
      </trkpt>
      <trkpt lat="48.26227" lon="3.15837">
        <ele>179.76</ele>
        <time>2019-03-30T10:06:46Z</time>
      </trkpt>
      <trkpt lat="48.26234" lon="3.15833">
        <ele>179.79</ele>
        <time>2019-03-30T10:06:51Z</time>
      </trkpt>
      <trkpt lat="48.2624" lon="3.15831">
        <ele>179.79</ele>
        <time>2019-03-30T10:06:56Z</time>
      </trkpt>
      <trkpt lat="48.26246" lon="3.15828">
        <ele>179.86</ele>
        <time>2019-03-30T10:07:01Z</time>
      </trkpt>
      <trkpt lat="48.26251" lon="3.15824">
        <ele>179.82</ele>
        <time>2019-03-30T10:07:06Z</time>
      </trkpt>
      <trkpt lat="48.26255" lon="3.1582">
        <ele>179.52</ele>
        <time>2019-03-30T10:07:11Z</time>
      </trkpt>
      <trkpt lat="48.2626" lon="3.15816">
        <ele>179.27</ele>
        <time>2019-03-30T10:07:16Z</time>
      </trkpt>
      <trkpt lat="48.26266" lon="3.15813">
        <ele>178.91</ele>
        <time>2019-03-30T10:07:21Z</time>
      </trkpt>
      <trkpt lat="48.2627" lon="3.15807">
        <ele>178.63</ele>
        <time>2019-03-30T10:07:26Z</time>
      </trkpt>
      <trkpt lat="48.26276" lon="3.15803">
        <ele>178.49</ele>
        <time>2019-03-30T10:07:31Z</time>
      </trkpt>
      <trkpt lat="48.26279" lon="3.15799">
        <ele>178.36</ele>
        <time>2019-03-30T10:07:36Z</time>
      </trkpt>
      <trkpt lat="48.26284" lon="3.15793">
        <ele>178.34</ele>
        <time>2019-03-30T10:07:41Z</time>
      </trkpt>
      <trkpt lat="48.2629" lon="3.1579">
        <ele>178.24</ele>
        <time>2019-03-30T10:07:46Z</time>
      </trkpt>
      <trkpt lat="48.26294" lon="3.15784">
        <ele>178.02</ele>
        <time>2019-03-30T10:07:51Z</time>
      </trkpt>
      <trkpt lat="48.26299" lon="3.15781">
        <ele>177.86</ele>
        <time>2019-03-30T10:07:56Z</time>
      </trkpt>
      <trkpt lat="48.26303" lon="3.15779">
        <ele>177.54</ele>
        <time>2019-03-30T10:08:01Z</time>
      </trkpt>
      <trkpt lat="48.26308" lon="3.15774">
        <ele>177.21</ele>
        <time>2019-03-30T10:08:06Z</time>
      </trkpt>
      <trkpt lat="48.26313" lon="3.1577">
        <ele>177</ele>
        <time>2019-03-30T10:08:11Z</time>
      </trkpt>
      <trkpt lat="48.26318" lon="3.15766">
        <ele>176.78</ele>
        <time>2019-03-30T10:08:16Z</time>
      </trkpt>
      <trkpt lat="48.26323" lon="3.15762">
        <ele>176.47</ele>
        <time>2019-03-30T10:08:21Z</time>
      </trkpt>
      <trkpt lat="48.26327" lon="3.15759">
        <ele>176.3</ele>
        <time>2019-03-30T10:08:26Z</time>
      </trkpt>
      <trkpt lat="48.26332" lon="3.15754">
        <ele>176.16</ele>
        <time>2019-03-30T10:08:31Z</time>
      </trkpt>
      <trkpt lat="48.26338" lon="3.1575">
        <ele>175.97</ele>
        <time>2019-03-30T10:08:36Z</time>
      </trkpt>
      <trkpt lat="48.26342" lon="3.15747">
        <ele>175.73</ele>
        <time>2019-03-30T10:08:41Z</time>
      </trkpt>
      <trkpt lat="48.26348" lon="3.15742">
        <ele>175.34</ele>
        <time>2019-03-30T10:08:46Z</time>
      </trkpt>
      <trkpt lat="48.26352" lon="3.15738">
        <ele>175.04</ele>
        <time>2019-03-30T10:08:51Z</time>
      </trkpt>
      <trkpt lat="48.26356" lon="3.15734">
        <ele>174.78</ele>
        <time>2019-03-30T10:08:56Z</time>
      </trkpt>
      <trkpt lat="48.2636" lon="3.15729">
        <ele>174.62</ele>
        <time>2019-03-30T10:09:01Z</time>
      </trkpt>
      <trkpt lat="48.26366" lon="3.15725">
        <ele>174.3</ele>
        <time>2019-03-30T10:09:06Z</time>
      </trkpt>
      <trkpt lat="48.26371" lon="3.15721">
        <ele>173.98</ele>
        <time>2019-03-30T10:09:11Z</time>
      </trkpt>
      <trkpt lat="48.26376" lon="3.15718">
        <ele>173.8</ele>
        <time>2019-03-30T10:09:16Z</time>
      </trkpt>
      <trkpt lat="48.26381" lon="3.15715">
        <ele>173.69</ele>
        <time>2019-03-30T10:09:21Z</time>
      </trkpt>
      <trkpt lat="48.26386" lon="3.15712">
        <ele>173.6</ele>
        <time>2019-03-30T10:09:26Z</time>
      </trkpt>
      <trkpt lat="48.26392" lon="3.15707">
        <ele>173.54</ele>
        <time>2019-03-30T10:09:31Z</time>
      </trkpt>
      <trkpt lat="48.26397" lon="3.15702">
        <ele>173.42</ele>
        <time>2019-03-30T10:09:36Z</time>
      </trkpt>
      <trkpt lat="48.26401" lon="3.15695">
        <ele>173.28</ele>
        <time>2019-03-30T10:09:41Z</time>
      </trkpt>
      <trkpt lat="48.26406" lon="3.15691">
        <ele>173.15</ele>
        <time>2019-03-30T10:09:46Z</time>
      </trkpt>
      <trkpt lat="48.2641" lon="3.1569">
        <ele>173.11</ele>
        <time>2019-03-30T10:09:51Z</time>
      </trkpt>
      <trkpt lat="48.26414" lon="3.15685">
        <ele>173.15</ele>
        <time>2019-03-30T10:09:56Z</time>
      </trkpt>
      <trkpt lat="48.26417" lon="3.15682">
        <ele>173</ele>
        <time>2019-03-30T10:10:01Z</time>
      </trkpt>
      <trkpt lat="48.26423" lon="3.15674">
        <ele>172.97</ele>
        <time>2019-03-30T10:10:06Z</time>
      </trkpt>
      <trkpt lat="48.26426" lon="3.1567">
        <ele>172.96</ele>
        <time>2019-03-30T10:10:11Z</time>
      </trkpt>
      <trkpt lat="48.26428" lon="3.15669">
        <ele>172.86</ele>
        <time>2019-03-30T10:10:16Z</time>
      </trkpt>
      <trkpt lat="48.26438" lon="3.15665">
        <ele>172.74</ele>
        <time>2019-03-30T10:10:21Z</time>
      </trkpt>
      <trkpt lat="48.26444" lon="3.15662">
        <ele>172.68</ele>
        <time>2019-03-30T10:10:26Z</time>
      </trkpt>
      <trkpt lat="48.26448" lon="3.15656">
        <ele>172.66</ele>
        <time>2019-03-30T10:10:31Z</time>
      </trkpt>
      <trkpt lat="48.26453" lon="3.15651">
        <ele>172.58</ele>
        <time>2019-03-30T10:10:36Z</time>
      </trkpt>
      <trkpt lat="48.2646" lon="3.15647">
        <ele>172.34</ele>
        <time>2019-03-30T10:10:41Z</time>
      </trkpt>
      <trkpt lat="48.26465" lon="3.15643">
        <ele>172.16</ele>
        <time>2019-03-30T10:10:46Z</time>
      </trkpt>
      <trkpt lat="48.26471" lon="3.15639">
        <ele>171.72</ele>
        <time>2019-03-30T10:10:51Z</time>
      </trkpt>
      <trkpt lat="48.26476" lon="3.15636">
        <ele>171.49</ele>
        <time>2019-03-30T10:10:56Z</time>
      </trkpt>
      <trkpt lat="48.26478" lon="3.1563">
        <ele>171.49</ele>
        <time>2019-03-30T10:11:01Z</time>
      </trkpt>
      <trkpt lat="48.26479" lon="3.15629">
        <ele>171.68</ele>
        <time>2019-03-30T10:11:06Z</time>
      </trkpt>
      <trkpt lat="48.2648" lon="3.15627">
        <ele>172.03</ele>
        <time>2019-03-30T10:11:46Z</time>
      </trkpt>
      <trkpt lat="48.26484" lon="3.15626">
        <ele>172.23</ele>
        <time>2019-03-30T10:12:06Z</time>
      </trkpt>
      <trkpt lat="48.26487" lon="3.15625">
        <ele>172.14</ele>
        <time>2019-03-30T10:12:21Z</time>
      </trkpt>
      <trkpt lat="48.26488" lon="3.15626">
        <ele>172.34</ele>
        <time>2019-03-30T10:12:41Z</time>
      </trkpt>
      <trkpt lat="48.2649" lon="3.15623">
        <ele>172.34</ele>
        <time>2019-03-30T10:13:11Z</time>
      </trkpt>
      <trkpt lat="48.26494" lon="3.1562">
        <ele>172.34</ele>
        <time>2019-03-30T10:13:16Z</time>
      </trkpt>
      <trkpt lat="48.26497" lon="3.15619">
        <ele>172.34</ele>
        <time>2019-03-30T10:13:21Z</time>
      </trkpt>
      <trkpt lat="48.265" lon="3.15619">
        <ele>172.34</ele>
        <time>2019-03-30T10:13:26Z</time>
      </trkpt>
      <trkpt lat="48.26503" lon="3.15621">
        <ele>172.34</ele>
        <time>2019-03-30T10:13:31Z</time>
      </trkpt>
      <trkpt lat="48.26507" lon="3.15623">
        <ele>172.34</ele>
        <time>2019-03-30T10:13:36Z</time>
      </trkpt>
      <trkpt lat="48.26512" lon="3.15627">
        <ele>172.77</ele>
        <time>2019-03-30T10:13:41Z</time>
      </trkpt>
      <trkpt lat="48.26516" lon="3.1563">
        <ele>172.91</ele>
        <time>2019-03-30T10:13:46Z</time>
      </trkpt>
      <trkpt lat="48.26521" lon="3.15634">
        <ele>173</ele>
        <time>2019-03-30T10:13:51Z</time>
      </trkpt>
      <trkpt lat="48.26526" lon="3.15638">
        <ele>173.12</ele>
        <time>2019-03-30T10:13:56Z</time>
      </trkpt>
      <trkpt lat="48.2653" lon="3.15645">
        <ele>173.28</ele>
        <time>2019-03-30T10:14:01Z</time>
      </trkpt>
      <trkpt lat="48.26536" lon="3.15652">
        <ele>173.42</ele>
        <time>2019-03-30T10:14:06Z</time>
      </trkpt>
      <trkpt lat="48.26541" lon="3.15659">
        <ele>173.52</ele>
        <time>2019-03-30T10:14:11Z</time>
      </trkpt>
      <trkpt lat="48.26547" lon="3.15665">
        <ele>173.56</ele>
        <time>2019-03-30T10:14:16Z</time>
      </trkpt>
      <trkpt lat="48.26551" lon="3.1567">
        <ele>173.62</ele>
        <time>2019-03-30T10:14:21Z</time>
      </trkpt>
      <trkpt lat="48.26556" lon="3.15676">
        <ele>173.7</ele>
        <time>2019-03-30T10:14:26Z</time>
      </trkpt>
      <trkpt lat="48.2656" lon="3.15681">
        <ele>173.76</ele>
        <time>2019-03-30T10:14:31Z</time>
      </trkpt>
      <trkpt lat="48.26565" lon="3.15686">
        <ele>173.84</ele>
        <time>2019-03-30T10:14:36Z</time>
      </trkpt>
      <trkpt lat="48.2657" lon="3.1569">
        <ele>173.93</ele>
        <time>2019-03-30T10:14:41Z</time>
      </trkpt>
      <trkpt lat="48.26575" lon="3.15694">
        <ele>174.07</ele>
        <time>2019-03-30T10:14:46Z</time>
      </trkpt>
      <trkpt lat="48.2658" lon="3.15697">
        <ele>174.15</ele>
        <time>2019-03-30T10:14:51Z</time>
      </trkpt>
      <trkpt lat="48.26585" lon="3.15701">
        <ele>174.26</ele>
        <time>2019-03-30T10:14:56Z</time>
      </trkpt>
      <trkpt lat="48.2659" lon="3.15705">
        <ele>174.32</ele>
        <time>2019-03-30T10:15:01Z</time>
      </trkpt>
      <trkpt lat="48.26595" lon="3.15708">
        <ele>174.43</ele>
        <time>2019-03-30T10:15:06Z</time>
      </trkpt>
      <trkpt lat="48.26599" lon="3.15712">
        <ele>174.47</ele>
        <time>2019-03-30T10:15:11Z</time>
      </trkpt>
      <trkpt lat="48.26604" lon="3.15716">
        <ele>174.6</ele>
        <time>2019-03-30T10:15:16Z</time>
      </trkpt>
      <trkpt lat="48.26608" lon="3.15719">
        <ele>174.76</ele>
        <time>2019-03-30T10:15:21Z</time>
      </trkpt>
      <trkpt lat="48.26613" lon="3.15723">
        <ele>174.85</ele>
        <time>2019-03-30T10:15:26Z</time>
      </trkpt>
      <trkpt lat="48.26617" lon="3.15726">
        <ele>174.88</ele>
        <time>2019-03-30T10:15:31Z</time>
      </trkpt>
      <trkpt lat="48.26621" lon="3.1573">
        <ele>174.89</ele>
        <time>2019-03-30T10:15:36Z</time>
      </trkpt>
      <trkpt lat="48.26626" lon="3.15733">
        <ele>174.95</ele>
        <time>2019-03-30T10:15:41Z</time>
      </trkpt>
      <trkpt lat="48.26629" lon="3.15736">
        <ele>175.02</ele>
        <time>2019-03-30T10:15:46Z</time>
      </trkpt>
      <trkpt lat="48.26633" lon="3.15739">
        <ele>174.95</ele>
        <time>2019-03-30T10:15:51Z</time>
      </trkpt>
      <trkpt lat="48.26636" lon="3.15741">
        <ele>175.13</ele>
        <time>2019-03-30T10:15:56Z</time>
      </trkpt>
      <trkpt lat="48.26641" lon="3.15744">
        <ele>175.21</ele>
        <time>2019-03-30T10:16:01Z</time>
      </trkpt>
      <trkpt lat="48.26646" lon="3.15747">
        <ele>175.26</ele>
        <time>2019-03-30T10:16:06Z</time>
      </trkpt>
      <trkpt lat="48.26651" lon="3.15751">
        <ele>175.2</ele>
        <time>2019-03-30T10:16:11Z</time>
      </trkpt>
      <trkpt lat="48.26656" lon="3.15754">
        <ele>175.25</ele>
        <time>2019-03-30T10:16:16Z</time>
      </trkpt>
      <trkpt lat="48.26661" lon="3.15758">
        <ele>175.29</ele>
        <time>2019-03-30T10:16:21Z</time>
      </trkpt>
      <trkpt lat="48.26666" lon="3.15761">
        <ele>175.44</ele>
        <time>2019-03-30T10:16:26Z</time>
      </trkpt>
      <trkpt lat="48.26672" lon="3.15765">
        <ele>175.47</ele>
        <time>2019-03-30T10:16:31Z</time>
      </trkpt>
      <trkpt lat="48.26677" lon="3.15768">
        <ele>175.48</ele>
        <time>2019-03-30T10:16:36Z</time>
      </trkpt>
      <trkpt lat="48.26682" lon="3.15771">
        <ele>175.5</ele>
        <time>2019-03-30T10:16:41Z</time>
      </trkpt>
      <trkpt lat="48.26687" lon="3.15776">
        <ele>175.38</ele>
        <time>2019-03-30T10:16:46Z</time>
      </trkpt>
      <trkpt lat="48.26691" lon="3.15779">
        <ele>175.37</ele>
        <time>2019-03-30T10:16:51Z</time>
      </trkpt>
      <trkpt lat="48.26696" lon="3.15782">
        <ele>175.37</ele>
        <time>2019-03-30T10:16:56Z</time>
      </trkpt>
      <trkpt lat="48.267" lon="3.15786">
        <ele>175.38</ele>
        <time>2019-03-30T10:17:01Z</time>
      </trkpt>
      <trkpt lat="48.26705" lon="3.1579">
        <ele>175.42</ele>
        <time>2019-03-30T10:17:06Z</time>
      </trkpt>
      <trkpt lat="48.2671" lon="3.15793">
        <ele>175.53</ele>
        <time>2019-03-30T10:17:11Z</time>
      </trkpt>
      <trkpt lat="48.26715" lon="3.15797">
        <ele>175.67</ele>
        <time>2019-03-30T10:17:16Z</time>
      </trkpt>
      <trkpt lat="48.26719" lon="3.15801">
        <ele>175.59</ele>
        <time>2019-03-30T10:17:21Z</time>
      </trkpt>
      <trkpt lat="48.26723" lon="3.15805">
        <ele>175.45</ele>
        <time>2019-03-30T10:17:26Z</time>
      </trkpt>
      <trkpt lat="48.26728" lon="3.15808">
        <ele>175.53</ele>
        <time>2019-03-30T10:17:31Z</time>
      </trkpt>
      <trkpt lat="48.26733" lon="3.15811">
        <ele>175.53</ele>
        <time>2019-03-30T10:17:36Z</time>
      </trkpt>
      <trkpt lat="48.26738" lon="3.15815">
        <ele>175.63</ele>
        <time>2019-03-30T10:17:41Z</time>
      </trkpt>
      <trkpt lat="48.26743" lon="3.15819">
        <ele>175.67</ele>
        <time>2019-03-30T10:17:46Z</time>
      </trkpt>
      <trkpt lat="48.26748" lon="3.15823">
        <ele>175.65</ele>
        <time>2019-03-30T10:17:51Z</time>
      </trkpt>
      <trkpt lat="48.26753" lon="3.15826">
        <ele>175.67</ele>
        <time>2019-03-30T10:17:56Z</time>
      </trkpt>
      <trkpt lat="48.26757" lon="3.15829">
        <ele>175.87</ele>
        <time>2019-03-30T10:18:01Z</time>
      </trkpt>
      <trkpt lat="48.26762" lon="3.15833">
        <ele>175.95</ele>
        <time>2019-03-30T10:18:06Z</time>
      </trkpt>
      <trkpt lat="48.26766" lon="3.15836">
        <ele>176.26</ele>
        <time>2019-03-30T10:18:11Z</time>
      </trkpt>
      <trkpt lat="48.26771" lon="3.1584">
        <ele>176.49</ele>
        <time>2019-03-30T10:18:16Z</time>
      </trkpt>
      <trkpt lat="48.26775" lon="3.15843">
        <ele>176.52</ele>
        <time>2019-03-30T10:18:21Z</time>
      </trkpt>
      <trkpt lat="48.2678" lon="3.15845">
        <ele>176.73</ele>
        <time>2019-03-30T10:18:26Z</time>
      </trkpt>
      <trkpt lat="48.26783" lon="3.15848">
        <ele>176.82</ele>
        <time>2019-03-30T10:18:31Z</time>
      </trkpt>
      <trkpt lat="48.26789" lon="3.15852">
        <ele>177.15</ele>
        <time>2019-03-30T10:18:36Z</time>
      </trkpt>
      <trkpt lat="48.26794" lon="3.15855">
        <ele>177.32</ele>
        <time>2019-03-30T10:18:41Z</time>
      </trkpt>
      <trkpt lat="48.26799" lon="3.15859">
        <ele>177.42</ele>
        <time>2019-03-30T10:18:46Z</time>
      </trkpt>
      <trkpt lat="48.26804" lon="3.15862">
        <ele>177.53</ele>
        <time>2019-03-30T10:18:51Z</time>
      </trkpt>
      <trkpt lat="48.2681" lon="3.15867">
        <ele>177.58</ele>
        <time>2019-03-30T10:18:56Z</time>
      </trkpt>
      <trkpt lat="48.26815" lon="3.15871">
        <ele>177.6</ele>
        <time>2019-03-30T10:19:01Z</time>
      </trkpt>
      <trkpt lat="48.2682" lon="3.15875">
        <ele>177.77</ele>
        <time>2019-03-30T10:19:06Z</time>
      </trkpt>
      <trkpt lat="48.26825" lon="3.15877">
        <ele>177.96</ele>
        <time>2019-03-30T10:19:11Z</time>
      </trkpt>
      <trkpt lat="48.2683" lon="3.1588">
        <ele>178.22</ele>
        <time>2019-03-30T10:19:16Z</time>
      </trkpt>
      <trkpt lat="48.26835" lon="3.15884">
        <ele>178.53</ele>
        <time>2019-03-30T10:19:21Z</time>
      </trkpt>
      <trkpt lat="48.2684" lon="3.15888">
        <ele>178.75</ele>
        <time>2019-03-30T10:19:26Z</time>
      </trkpt>
      <trkpt lat="48.26843" lon="3.15891">
        <ele>178.85</ele>
        <time>2019-03-30T10:19:31Z</time>
      </trkpt>
      <trkpt lat="48.26848" lon="3.15894">
        <ele>178.92</ele>
        <time>2019-03-30T10:19:36Z</time>
      </trkpt>
      <trkpt lat="48.26852" lon="3.15898">
        <ele>178.92</ele>
        <time>2019-03-30T10:19:41Z</time>
      </trkpt>
      <trkpt lat="48.26857" lon="3.15903">
        <ele>179.05</ele>
        <time>2019-03-30T10:19:46Z</time>
      </trkpt>
      <trkpt lat="48.26862" lon="3.15906">
        <ele>179.35</ele>
        <time>2019-03-30T10:19:51Z</time>
      </trkpt>
      <trkpt lat="48.26866" lon="3.15909">
        <ele>179.51</ele>
        <time>2019-03-30T10:19:56Z</time>
      </trkpt>
      <trkpt lat="48.26871" lon="3.15913">
        <ele>179.54</ele>
        <time>2019-03-30T10:20:01Z</time>
      </trkpt>
      <trkpt lat="48.26876" lon="3.15918">
        <ele>179.73</ele>
        <time>2019-03-30T10:20:06Z</time>
      </trkpt>
      <trkpt lat="48.2688" lon="3.15921">
        <ele>179.88</ele>
        <time>2019-03-30T10:20:11Z</time>
      </trkpt>
      <trkpt lat="48.26884" lon="3.15924">
        <ele>179.95</ele>
        <time>2019-03-30T10:20:16Z</time>
      </trkpt>
      <trkpt lat="48.26885" lon="3.15925">
        <ele>180.05</ele>
        <time>2019-03-30T10:20:21Z</time>
      </trkpt>
      <trkpt lat="48.26885" lon="3.15926">
        <ele>180.15</ele>
        <time>2019-03-30T10:20:26Z</time>
      </trkpt>
      <trkpt lat="48.26886" lon="3.15926">
        <ele>180.27</ele>
        <time>2019-03-30T10:20:36Z</time>
      </trkpt>
      <trkpt lat="48.26886" lon="3.15926">
        <ele>180.32</ele>
        <time>2019-03-30T10:20:41Z</time>
      </trkpt>
      <trkpt lat="48.26889" lon="3.15926">
        <ele>180.47</ele>
        <time>2019-03-30T10:21:06Z</time>
      </trkpt>
      <trkpt lat="48.2689" lon="3.15926">
        <ele>180.42</ele>
        <time>2019-03-30T10:21:11Z</time>
      </trkpt>
      <trkpt lat="48.26891" lon="3.15926">
        <ele>180.41</ele>
        <time>2019-03-30T10:21:16Z</time>
      </trkpt>
      <trkpt lat="48.26893" lon="3.1593">
        <ele>180.55</ele>
        <time>2019-03-30T10:21:21Z</time>
      </trkpt>
      <trkpt lat="48.26896" lon="3.1593">
        <ele>180.8</ele>
        <time>2019-03-30T10:21:26Z</time>
      </trkpt>
      <trkpt lat="48.269" lon="3.15927">
        <ele>180.98</ele>
        <time>2019-03-30T10:21:31Z</time>
      </trkpt>
      <trkpt lat="48.26904" lon="3.15923">
        <ele>181.07</ele>
        <time>2019-03-30T10:21:36Z</time>
      </trkpt>
      <trkpt lat="48.26908" lon="3.15921">
        <ele>181.23</ele>
        <time>2019-03-30T10:21:41Z</time>
      </trkpt>
      <trkpt lat="48.26912" lon="3.15919">
        <ele>181.3</ele>
        <time>2019-03-30T10:21:46Z</time>
      </trkpt>
      <trkpt lat="48.26917" lon="3.15919">
        <ele>181.36</ele>
        <time>2019-03-30T10:21:51Z</time>
      </trkpt>
      <trkpt lat="48.26922" lon="3.15917">
        <ele>181.42</ele>
        <time>2019-03-30T10:21:56Z</time>
      </trkpt>
      <trkpt lat="48.26926" lon="3.15914">
        <ele>181.52</ele>
        <time>2019-03-30T10:22:01Z</time>
      </trkpt>
      <trkpt lat="48.26929" lon="3.15914">
        <ele>181.59</ele>
        <time>2019-03-30T10:22:06Z</time>
      </trkpt>
      <trkpt lat="48.26934" lon="3.15914">
        <ele>181.78</ele>
        <time>2019-03-30T10:22:11Z</time>
      </trkpt>
      <trkpt lat="48.26938" lon="3.15912">
        <ele>181.97</ele>
        <time>2019-03-30T10:22:16Z</time>
      </trkpt>
      <trkpt lat="48.26943" lon="3.15911">
        <ele>182.06</ele>
        <time>2019-03-30T10:22:21Z</time>
      </trkpt>
      <trkpt lat="48.26947" lon="3.15909">
        <ele>182.15</ele>
        <time>2019-03-30T10:22:26Z</time>
      </trkpt>
      <trkpt lat="48.26951" lon="3.15906">
        <ele>182.39</ele>
        <time>2019-03-30T10:22:31Z</time>
      </trkpt>
      <trkpt lat="48.26956" lon="3.15902">
        <ele>182.39</ele>
        <time>2019-03-30T10:22:36Z</time>
      </trkpt>
      <trkpt lat="48.26961" lon="3.15899">
        <ele>182.36</ele>
        <time>2019-03-30T10:22:41Z</time>
      </trkpt>
      <trkpt lat="48.26963" lon="3.15895">
        <ele>182.33</ele>
        <time>2019-03-30T10:22:46Z</time>
      </trkpt>
      <trkpt lat="48.26966" lon="3.15892">
        <ele>182.21</ele>
        <time>2019-03-30T10:22:51Z</time>
      </trkpt>
      <trkpt lat="48.2697" lon="3.15891">
        <ele>182.22</ele>
        <time>2019-03-30T10:22:56Z</time>
      </trkpt>
      <trkpt lat="48.26975" lon="3.15887">
        <ele>182.23</ele>
        <time>2019-03-30T10:23:01Z</time>
      </trkpt>
      <trkpt lat="48.2698" lon="3.15884">
        <ele>182.27</ele>
        <time>2019-03-30T10:23:06Z</time>
      </trkpt>
      <trkpt lat="48.26984" lon="3.15881">
        <ele>182.2</ele>
        <time>2019-03-30T10:23:11Z</time>
      </trkpt>
      <trkpt lat="48.26987" lon="3.15878">
        <ele>182.22</ele>
        <time>2019-03-30T10:23:16Z</time>
      </trkpt>
      <trkpt lat="48.26987" lon="3.15873">
        <ele>182.38</ele>
        <time>2019-03-30T10:23:21Z</time>
      </trkpt>
      <trkpt lat="48.26987" lon="3.15873">
        <ele>182.35</ele>
        <time>2019-03-30T10:23:26Z</time>
      </trkpt>
      <trkpt lat="48.26988" lon="3.15873">
        <ele>182</ele>
        <time>2019-03-30T10:23:31Z</time>
      </trkpt>
      <trkpt lat="48.26992" lon="3.15859">
        <ele>182.24</ele>
        <time>2019-03-30T10:26:11Z</time>
      </trkpt>
      <trkpt lat="48.26997" lon="3.15856">
        <ele>181.95</ele>
        <time>2019-03-30T10:26:16Z</time>
      </trkpt>
      <trkpt lat="48.27003" lon="3.15852">
        <ele>181.98</ele>
        <time>2019-03-30T10:26:21Z</time>
      </trkpt>
      <trkpt lat="48.27005" lon="3.1585">
        <ele>181.85</ele>
        <time>2019-03-30T10:26:26Z</time>
      </trkpt>
      <trkpt lat="48.27009" lon="3.15848">
        <ele>181.7</ele>
        <time>2019-03-30T10:26:31Z</time>
      </trkpt>
      <trkpt lat="48.27016" lon="3.15848">
        <ele>181.33</ele>
        <time>2019-03-30T10:26:36Z</time>
      </trkpt>
      <trkpt lat="48.27021" lon="3.15847">
        <ele>181.1</ele>
        <time>2019-03-30T10:26:41Z</time>
      </trkpt>
      <trkpt lat="48.27028" lon="3.15845">
        <ele>181.04</ele>
        <time>2019-03-30T10:26:46Z</time>
      </trkpt>
      <trkpt lat="48.27034" lon="3.15841">
        <ele>180.77</ele>
        <time>2019-03-30T10:26:51Z</time>
      </trkpt>
      <trkpt lat="48.2704" lon="3.15835">
        <ele>180.63</ele>
        <time>2019-03-30T10:26:56Z</time>
      </trkpt>
      <trkpt lat="48.27046" lon="3.15831">
        <ele>180.53</ele>
        <time>2019-03-30T10:27:01Z</time>
      </trkpt>
      <trkpt lat="48.27053" lon="3.15829">
        <ele>180.53</ele>
        <time>2019-03-30T10:27:06Z</time>
      </trkpt>
      <trkpt lat="48.27062" lon="3.15827">
        <ele>180.57</ele>
        <time>2019-03-30T10:27:11Z</time>
      </trkpt>
      <trkpt lat="48.27068" lon="3.15823">
        <ele>180.56</ele>
        <time>2019-03-30T10:27:16Z</time>
      </trkpt>
      <trkpt lat="48.27074" lon="3.15818">
        <ele>180.12</ele>
        <time>2019-03-30T10:27:21Z</time>
      </trkpt>
      <trkpt lat="48.27079" lon="3.15813">
        <ele>179.85</ele>
        <time>2019-03-30T10:27:26Z</time>
      </trkpt>
      <trkpt lat="48.27084" lon="3.15807">
        <ele>179.74</ele>
        <time>2019-03-30T10:27:31Z</time>
      </trkpt>
      <trkpt lat="48.27089" lon="3.15803">
        <ele>179.57</ele>
        <time>2019-03-30T10:27:36Z</time>
      </trkpt>
      <trkpt lat="48.27094" lon="3.15796">
        <ele>179.29</ele>
        <time>2019-03-30T10:27:41Z</time>
      </trkpt>
      <trkpt lat="48.27099" lon="3.15791">
        <ele>179.3</ele>
        <time>2019-03-30T10:27:46Z</time>
      </trkpt>
      <trkpt lat="48.27103" lon="3.15785">
        <ele>179.26</ele>
        <time>2019-03-30T10:27:51Z</time>
      </trkpt>
      <trkpt lat="48.27107" lon="3.15777">
        <ele>179.23</ele>
        <time>2019-03-30T10:27:56Z</time>
      </trkpt>
      <trkpt lat="48.2711" lon="3.15772">
        <ele>179.23</ele>
        <time>2019-03-30T10:28:01Z</time>
      </trkpt>
      <trkpt lat="48.27114" lon="3.15766">
        <ele>179.07</ele>
        <time>2019-03-30T10:28:06Z</time>
      </trkpt>
      <trkpt lat="48.27119" lon="3.15758">
        <ele>178.92</ele>
        <time>2019-03-30T10:28:11Z</time>
      </trkpt>
      <trkpt lat="48.27122" lon="3.1575">
        <ele>178.77</ele>
        <time>2019-03-30T10:28:16Z</time>
      </trkpt>
      <trkpt lat="48.27126" lon="3.15744">
        <ele>178.48</ele>
        <time>2019-03-30T10:28:21Z</time>
      </trkpt>
      <trkpt lat="48.2713" lon="3.15738">
        <ele>178.29</ele>
        <time>2019-03-30T10:28:26Z</time>
      </trkpt>
      <trkpt lat="48.27134" lon="3.15735">
        <ele>178.25</ele>
        <time>2019-03-30T10:28:31Z</time>
      </trkpt>
      <trkpt lat="48.2714" lon="3.15732">
        <ele>178.2</ele>
        <time>2019-03-30T10:28:36Z</time>
      </trkpt>
      <trkpt lat="48.27145" lon="3.1573">
        <ele>178.18</ele>
        <time>2019-03-30T10:28:41Z</time>
      </trkpt>
      <trkpt lat="48.27149" lon="3.15729">
        <ele>178.21</ele>
        <time>2019-03-30T10:28:46Z</time>
      </trkpt>
      <trkpt lat="48.27154" lon="3.15728">
        <ele>178.12</ele>
        <time>2019-03-30T10:28:51Z</time>
      </trkpt>
      <trkpt lat="48.27157" lon="3.15727">
        <ele>178</ele>
        <time>2019-03-30T10:28:56Z</time>
      </trkpt>
      <trkpt lat="48.2716" lon="3.15725">
        <ele>178</ele>
        <time>2019-03-30T10:29:01Z</time>
      </trkpt>
      <trkpt lat="48.27165" lon="3.15724">
        <ele>177.89</ele>
        <time>2019-03-30T10:29:06Z</time>
      </trkpt>
      <trkpt lat="48.27168" lon="3.15724">
        <ele>177.72</ele>
        <time>2019-03-30T10:29:11Z</time>
      </trkpt>
      <trkpt lat="48.27174" lon="3.15721">
        <ele>177.76</ele>
        <time>2019-03-30T10:29:16Z</time>
      </trkpt>
      <trkpt lat="48.27178" lon="3.1572">
        <ele>177.89</ele>
        <time>2019-03-30T10:29:21Z</time>
      </trkpt>
      <trkpt lat="48.2718" lon="3.1572">
        <ele>177.83</ele>
        <time>2019-03-30T10:29:26Z</time>
      </trkpt>
      <trkpt lat="48.27184" lon="3.15722">
        <ele>177.94</ele>
        <time>2019-03-30T10:29:31Z</time>
      </trkpt>
      <trkpt lat="48.27185" lon="3.15723">
        <ele>178.04</ele>
        <time>2019-03-30T10:29:36Z</time>
      </trkpt>
      <trkpt lat="48.27189" lon="3.15726">
        <ele>178.11</ele>
        <time>2019-03-30T10:29:41Z</time>
      </trkpt>
      <trkpt lat="48.27192" lon="3.15729">
        <ele>178.1</ele>
        <time>2019-03-30T10:29:46Z</time>
      </trkpt>
      <trkpt lat="48.27199" lon="3.15733">
        <ele>178.2</ele>
        <time>2019-03-30T10:29:51Z</time>
      </trkpt>
      <trkpt lat="48.27207" lon="3.15739">
        <ele>178.34</ele>
        <time>2019-03-30T10:29:56Z</time>
      </trkpt>
      <trkpt lat="48.27211" lon="3.15743">
        <ele>178.44</ele>
        <time>2019-03-30T10:30:01Z</time>
      </trkpt>
      <trkpt lat="48.27216" lon="3.15745">
        <ele>178.58</ele>
        <time>2019-03-30T10:30:06Z</time>
      </trkpt>
      <trkpt lat="48.27218" lon="3.15748">
        <ele>178.61</ele>
        <time>2019-03-30T10:30:11Z</time>
      </trkpt>
      <trkpt lat="48.27223" lon="3.15751">
        <ele>178.68</ele>
        <time>2019-03-30T10:30:16Z</time>
      </trkpt>
      <trkpt lat="48.27228" lon="3.15754">
        <ele>178.77</ele>
        <time>2019-03-30T10:30:21Z</time>
      </trkpt>
      <trkpt lat="48.27232" lon="3.15757">
        <ele>178.97</ele>
        <time>2019-03-30T10:30:26Z</time>
      </trkpt>
      <trkpt lat="48.27238" lon="3.15759">
        <ele>179.21</ele>
        <time>2019-03-30T10:30:31Z</time>
      </trkpt>
      <trkpt lat="48.27241" lon="3.15761">
        <ele>179.43</ele>
        <time>2019-03-30T10:30:36Z</time>
      </trkpt>
      <trkpt lat="48.27242" lon="3.15762">
        <ele>179.49</ele>
        <time>2019-03-30T10:30:41Z</time>
      </trkpt>
      <trkpt lat="48.27242" lon="3.15763">
        <ele>179.41</ele>
        <time>2019-03-30T10:30:46Z</time>
      </trkpt>
      <trkpt lat="48.27243" lon="3.15763">
        <ele>179.45</ele>
        <time>2019-03-30T10:30:51Z</time>
      </trkpt>
      <trkpt lat="48.27244" lon="3.15765">
        <ele>179.44</ele>
        <time>2019-03-30T10:30:56Z</time>
      </trkpt>
      <trkpt lat="48.27244" lon="3.15765">
        <ele>179.43</ele>
        <time>2019-03-30T10:31:01Z</time>
      </trkpt>
      <trkpt lat="48.27245" lon="3.15766">
        <ele>179.5</ele>
        <time>2019-03-30T10:31:06Z</time>
      </trkpt>
      <trkpt lat="48.27246" lon="3.15766">
        <ele>179.49</ele>
        <time>2019-03-30T10:31:11Z</time>
      </trkpt>
      <trkpt lat="48.27247" lon="3.15766">
        <ele>179.47</ele>
        <time>2019-03-30T10:31:16Z</time>
      </trkpt>
      <trkpt lat="48.27249" lon="3.15765">
        <ele>179.5</ele>
        <time>2019-03-30T10:31:21Z</time>
      </trkpt>
      <trkpt lat="48.27251" lon="3.15764">
        <ele>179.5</ele>
        <time>2019-03-30T10:31:26Z</time>
      </trkpt>
      <trkpt lat="48.27254" lon="3.15763">
        <ele>179.52</ele>
        <time>2019-03-30T10:31:31Z</time>
      </trkpt>
      <trkpt lat="48.27256" lon="3.15763">
        <ele>179.47</ele>
        <time>2019-03-30T10:31:36Z</time>
      </trkpt>
      <trkpt lat="48.27258" lon="3.15762">
        <ele>179.55</ele>
        <time>2019-03-30T10:31:41Z</time>
      </trkpt>
      <trkpt lat="48.27261" lon="3.15762">
        <ele>179.56</ele>
        <time>2019-03-30T10:31:46Z</time>
      </trkpt>
      <trkpt lat="48.27264" lon="3.1576">
        <ele>179.5</ele>
        <time>2019-03-30T10:31:51Z</time>
      </trkpt>
      <trkpt lat="48.27267" lon="3.15756">
        <ele>179.31</ele>
        <time>2019-03-30T10:31:56Z</time>
      </trkpt>
      <trkpt lat="48.27269" lon="3.15751">
        <ele>179.22</ele>
        <time>2019-03-30T10:32:01Z</time>
      </trkpt>
      <trkpt lat="48.2727" lon="3.15746">
        <ele>179.02</ele>
        <time>2019-03-30T10:32:06Z</time>
      </trkpt>
      <trkpt lat="48.27271" lon="3.15741">
        <ele>178.74</ele>
        <time>2019-03-30T10:32:11Z</time>
      </trkpt>
      <trkpt lat="48.27271" lon="3.15736">
        <ele>178.56</ele>
        <time>2019-03-30T10:32:16Z</time>
      </trkpt>
      <trkpt lat="48.2727" lon="3.15729">
        <ele>178.44</ele>
        <time>2019-03-30T10:32:21Z</time>
      </trkpt>
      <trkpt lat="48.2727" lon="3.15723">
        <ele>178.43</ele>
        <time>2019-03-30T10:32:26Z</time>
      </trkpt>
      <trkpt lat="48.27269" lon="3.15716">
        <ele>178.33</ele>
        <time>2019-03-30T10:32:31Z</time>
      </trkpt>
      <trkpt lat="48.27269" lon="3.15711">
        <ele>178.05</ele>
        <time>2019-03-30T10:32:36Z</time>
      </trkpt>
      <trkpt lat="48.27269" lon="3.15704">
        <ele>177.74</ele>
        <time>2019-03-30T10:32:41Z</time>
      </trkpt>
      <trkpt lat="48.2727" lon="3.15696">
        <ele>177.35</ele>
        <time>2019-03-30T10:32:46Z</time>
      </trkpt>
      <trkpt lat="48.27271" lon="3.15688">
        <ele>177.12</ele>
        <time>2019-03-30T10:32:51Z</time>
      </trkpt>
      <trkpt lat="48.27272" lon="3.1568">
        <ele>176.91</ele>
        <time>2019-03-30T10:32:56Z</time>
      </trkpt>
      <trkpt lat="48.27273" lon="3.15673">
        <ele>176.75</ele>
        <time>2019-03-30T10:33:01Z</time>
      </trkpt>
      <trkpt lat="48.27274" lon="3.15668">
        <ele>176.69</ele>
        <time>2019-03-30T10:33:06Z</time>
      </trkpt>
      <trkpt lat="48.27276" lon="3.1566">
        <ele>176.73</ele>
        <time>2019-03-30T10:33:11Z</time>
      </trkpt>
      <trkpt lat="48.27277" lon="3.15653">
        <ele>176.61</ele>
        <time>2019-03-30T10:33:16Z</time>
      </trkpt>
      <trkpt lat="48.27277" lon="3.15652">
        <ele>176.49</ele>
        <time>2019-03-30T10:33:21Z</time>
      </trkpt>
      <trkpt lat="48.27278" lon="3.15647">
        <ele>176.43</ele>
        <time>2019-03-30T10:33:26Z</time>
      </trkpt>
      <trkpt lat="48.27277" lon="3.15639">
        <ele>176.32</ele>
        <time>2019-03-30T10:33:31Z</time>
      </trkpt>
      <trkpt lat="48.27277" lon="3.15631">
        <ele>176.23</ele>
        <time>2019-03-30T10:33:36Z</time>
      </trkpt>
      <trkpt lat="48.27277" lon="3.15625">
        <ele>176.07</ele>
        <time>2019-03-30T10:33:41Z</time>
      </trkpt>
      <trkpt lat="48.27277" lon="3.15618">
        <ele>176.06</ele>
        <time>2019-03-30T10:33:46Z</time>
      </trkpt>
      <trkpt lat="48.27277" lon="3.15612">
        <ele>175.97</ele>
        <time>2019-03-30T10:33:51Z</time>
      </trkpt>
      <trkpt lat="48.27278" lon="3.15607">
        <ele>175.92</ele>
        <time>2019-03-30T10:33:56Z</time>
      </trkpt>
      <trkpt lat="48.27279" lon="3.15601">
        <ele>175.93</ele>
        <time>2019-03-30T10:34:01Z</time>
      </trkpt>
      <trkpt lat="48.2728" lon="3.15597">
        <ele>175.83</ele>
        <time>2019-03-30T10:34:06Z</time>
      </trkpt>
      <trkpt lat="48.27282" lon="3.15592">
        <ele>175.83</ele>
        <time>2019-03-30T10:34:11Z</time>
      </trkpt>
      <trkpt lat="48.27286" lon="3.15587">
        <ele>175.83</ele>
        <time>2019-03-30T10:34:16Z</time>
      </trkpt>
      <trkpt lat="48.27289" lon="3.15579">
        <ele>175.83</ele>
        <time>2019-03-30T10:34:21Z</time>
      </trkpt>
      <trkpt lat="48.27291" lon="3.15574">
        <ele>175.83</ele>
        <time>2019-03-30T10:34:26Z</time>
      </trkpt>
      <trkpt lat="48.27294" lon="3.15569">
        <ele>175.83</ele>
        <time>2019-03-30T10:34:31Z</time>
      </trkpt>
      <trkpt lat="48.27297" lon="3.15561">
        <ele>175.83</ele>
        <time>2019-03-30T10:34:36Z</time>
      </trkpt>
      <trkpt lat="48.273" lon="3.15556">
        <ele>175.83</ele>
        <time>2019-03-30T10:34:41Z</time>
      </trkpt>
      <trkpt lat="48.27303" lon="3.1555">
        <ele>175.83</ele>
        <time>2019-03-30T10:34:46Z</time>
      </trkpt>
      <trkpt lat="48.27306" lon="3.15544">
        <ele>175.83</ele>
        <time>2019-03-30T10:34:51Z</time>
      </trkpt>
      <trkpt lat="48.2731" lon="3.1554">
        <ele>175.83</ele>
        <time>2019-03-30T10:34:56Z</time>
      </trkpt>
      <trkpt lat="48.27313" lon="3.15534">
        <ele>175.83</ele>
        <time>2019-03-30T10:35:01Z</time>
      </trkpt>
      <trkpt lat="48.27316" lon="3.1553">
        <ele>175.83</ele>
        <time>2019-03-30T10:35:06Z</time>
      </trkpt>
      <trkpt lat="48.27318" lon="3.15524">
        <ele>172.86</ele>
        <time>2019-03-30T10:35:11Z</time>
      </trkpt>
      <trkpt lat="48.27322" lon="3.15519">
        <ele>172.86</ele>
        <time>2019-03-30T10:35:16Z</time>
      </trkpt>
      <trkpt lat="48.27325" lon="3.15514">
        <ele>172.86</ele>
        <time>2019-03-30T10:35:21Z</time>
      </trkpt>
      <trkpt lat="48.27327" lon="3.15509">
        <ele>172.81</ele>
        <time>2019-03-30T10:35:26Z</time>
      </trkpt>
      <trkpt lat="48.2733" lon="3.15504">
        <ele>172.63</ele>
        <time>2019-03-30T10:35:31Z</time>
      </trkpt>
      <trkpt lat="48.27332" lon="3.15499">
        <ele>172.59</ele>
        <time>2019-03-30T10:35:36Z</time>
      </trkpt>
      <trkpt lat="48.27336" lon="3.15494">
        <ele>172.6</ele>
        <time>2019-03-30T10:35:41Z</time>
      </trkpt>
      <trkpt lat="48.27339" lon="3.15488">
        <ele>172.61</ele>
        <time>2019-03-30T10:35:46Z</time>
      </trkpt>
      <trkpt lat="48.27341" lon="3.15483">
        <ele>172.68</ele>
        <time>2019-03-30T10:35:51Z</time>
      </trkpt>
      <trkpt lat="48.27343" lon="3.15476">
        <ele>172.7</ele>
        <time>2019-03-30T10:35:56Z</time>
      </trkpt>
      <trkpt lat="48.27347" lon="3.15473">
        <ele>172.72</ele>
        <time>2019-03-30T10:36:01Z</time>
      </trkpt>
      <trkpt lat="48.27347" lon="3.1547">
        <ele>172.69</ele>
        <time>2019-03-30T10:36:06Z</time>
      </trkpt>
      <trkpt lat="48.27348" lon="3.1547">
        <ele>172.73</ele>
        <time>2019-03-30T10:36:11Z</time>
      </trkpt>
      <trkpt lat="48.27349" lon="3.15468">
        <ele>172.73</ele>
        <time>2019-03-30T10:36:16Z</time>
      </trkpt>
      <trkpt lat="48.2735" lon="3.15466">
        <ele>172.73</ele>
        <time>2019-03-30T10:36:21Z</time>
      </trkpt>
      <trkpt lat="48.27352" lon="3.15458">
        <ele>172.73</ele>
        <time>2019-03-30T10:36:26Z</time>
      </trkpt>
      <trkpt lat="48.27353" lon="3.15456">
        <ele>172.73</ele>
        <time>2019-03-30T10:36:31Z</time>
      </trkpt>
      <trkpt lat="48.27354" lon="3.15454">
        <ele>172.73</ele>
        <time>2019-03-30T10:36:36Z</time>
      </trkpt>
      <trkpt lat="48.27356" lon="3.15447">
        <ele>172.73</ele>
        <time>2019-03-30T10:36:41Z</time>
      </trkpt>
      <trkpt lat="48.2736" lon="3.15444">
        <ele>172.73</ele>
        <time>2019-03-30T10:36:46Z</time>
      </trkpt>
      <trkpt lat="48.27363" lon="3.1544">
        <ele>172.73</ele>
        <time>2019-03-30T10:36:51Z</time>
      </trkpt>
      <trkpt lat="48.27367" lon="3.15439">
        <ele>172.73</ele>
        <time>2019-03-30T10:36:56Z</time>
      </trkpt>
      <trkpt lat="48.27371" lon="3.15437">
        <ele>172.73</ele>
        <time>2019-03-30T10:37:01Z</time>
      </trkpt>
      <trkpt lat="48.27373" lon="3.15436">
        <ele>172.73</ele>
        <time>2019-03-30T10:37:06Z</time>
      </trkpt>
      <trkpt lat="48.27377" lon="3.15435">
        <ele>172.73</ele>
        <time>2019-03-30T10:37:11Z</time>
      </trkpt>
      <trkpt lat="48.2738" lon="3.15436">
        <ele>172.73</ele>
        <time>2019-03-30T10:37:16Z</time>
      </trkpt>
      <trkpt lat="48.27385" lon="3.15439">
        <ele>172.73</ele>
        <time>2019-03-30T10:37:21Z</time>
      </trkpt>
      <trkpt lat="48.27389" lon="3.15441">
        <ele>172.73</ele>
        <time>2019-03-30T10:37:26Z</time>
      </trkpt>
      <trkpt lat="48.27392" lon="3.15446">
        <ele>172.73</ele>
        <time>2019-03-30T10:37:31Z</time>
      </trkpt>
      <trkpt lat="48.27396" lon="3.1545">
        <ele>172.73</ele>
        <time>2019-03-30T10:37:36Z</time>
      </trkpt>
      <trkpt lat="48.27399" lon="3.15455">
        <ele>172.73</ele>
        <time>2019-03-30T10:37:41Z</time>
      </trkpt>
      <trkpt lat="48.27402" lon="3.15459">
        <ele>172.73</ele>
        <time>2019-03-30T10:37:46Z</time>
      </trkpt>
      <trkpt lat="48.27406" lon="3.15464">
        <ele>172.73</ele>
        <time>2019-03-30T10:37:51Z</time>
      </trkpt>
      <trkpt lat="48.2741" lon="3.15468">
        <ele>172.73</ele>
        <time>2019-03-30T10:37:56Z</time>
      </trkpt>
      <trkpt lat="48.27414" lon="3.1547">
        <ele>172.73</ele>
        <time>2019-03-30T10:38:01Z</time>
      </trkpt>
      <trkpt lat="48.27416" lon="3.15474">
        <ele>172.73</ele>
        <time>2019-03-30T10:38:06Z</time>
      </trkpt>
      <trkpt lat="48.2742" lon="3.15479">
        <ele>175.71</ele>
        <time>2019-03-30T10:38:11Z</time>
      </trkpt>
      <trkpt lat="48.27424" lon="3.15486">
        <ele>175.85</ele>
        <time>2019-03-30T10:38:16Z</time>
      </trkpt>
      <trkpt lat="48.27427" lon="3.15489">
        <ele>176.09</ele>
        <time>2019-03-30T10:38:21Z</time>
      </trkpt>
      <trkpt lat="48.27431" lon="3.1549">
        <ele>176.37</ele>
        <time>2019-03-30T10:38:26Z</time>
      </trkpt>
      <trkpt lat="48.27433" lon="3.15493">
        <ele>176.51</ele>
        <time>2019-03-30T10:38:31Z</time>
      </trkpt>
      <trkpt lat="48.27435" lon="3.15495">
        <ele>176.51</ele>
        <time>2019-03-30T10:38:36Z</time>
      </trkpt>
      <trkpt lat="48.27437" lon="3.15498">
        <ele>176.56</ele>
        <time>2019-03-30T10:38:41Z</time>
      </trkpt>
      <trkpt lat="48.27441" lon="3.155">
        <ele>176.73</ele>
        <time>2019-03-30T10:38:46Z</time>
      </trkpt>
      <trkpt lat="48.27443" lon="3.15503">
        <ele>176.88</ele>
        <time>2019-03-30T10:38:51Z</time>
      </trkpt>
      <trkpt lat="48.27447" lon="3.15507">
        <ele>177.02</ele>
        <time>2019-03-30T10:38:56Z</time>
      </trkpt>
      <trkpt lat="48.27453" lon="3.15513">
        <ele>177.26</ele>
        <time>2019-03-30T10:39:01Z</time>
      </trkpt>
      <trkpt lat="48.27455" lon="3.15515">
        <ele>177.36</ele>
        <time>2019-03-30T10:39:06Z</time>
      </trkpt>
      <trkpt lat="48.27459" lon="3.15519">
        <ele>177.45</ele>
        <time>2019-03-30T10:39:11Z</time>
      </trkpt>
      <trkpt lat="48.27462" lon="3.15521">
        <ele>177.7</ele>
        <time>2019-03-30T10:39:16Z</time>
      </trkpt>
      <trkpt lat="48.27465" lon="3.15524">
        <ele>177.91</ele>
        <time>2019-03-30T10:39:21Z</time>
      </trkpt>
      <trkpt lat="48.27468" lon="3.15526">
        <ele>178.15</ele>
        <time>2019-03-30T10:39:26Z</time>
      </trkpt>
      <trkpt lat="48.27478" lon="3.1553">
        <ele>178.32</ele>
        <time>2019-03-30T10:39:31Z</time>
      </trkpt>
      <trkpt lat="48.27483" lon="3.15533">
        <ele>178.28</ele>
        <time>2019-03-30T10:39:36Z</time>
      </trkpt>
      <trkpt lat="48.27487" lon="3.15538">
        <ele>178.3</ele>
        <time>2019-03-30T10:39:41Z</time>
      </trkpt>
      <trkpt lat="48.2749" lon="3.1554">
        <ele>178.28</ele>
        <time>2019-03-30T10:39:46Z</time>
      </trkpt>
      <trkpt lat="48.27493" lon="3.15544">
        <ele>178.21</ele>
        <time>2019-03-30T10:39:51Z</time>
      </trkpt>
      <trkpt lat="48.27497" lon="3.15549">
        <ele>178.23</ele>
        <time>2019-03-30T10:39:56Z</time>
      </trkpt>
      <trkpt lat="48.27502" lon="3.15552">
        <ele>178.33</ele>
        <time>2019-03-30T10:40:01Z</time>
      </trkpt>
      <trkpt lat="48.27506" lon="3.15556">
        <ele>178.32</ele>
        <time>2019-03-30T10:40:06Z</time>
      </trkpt>
      <trkpt lat="48.27509" lon="3.15558">
        <ele>178.51</ele>
        <time>2019-03-30T10:40:11Z</time>
      </trkpt>
      <trkpt lat="48.27511" lon="3.15562">
        <ele>178.61</ele>
        <time>2019-03-30T10:40:16Z</time>
      </trkpt>
      <trkpt lat="48.27514" lon="3.15565">
        <ele>178.65</ele>
        <time>2019-03-30T10:40:21Z</time>
      </trkpt>
      <trkpt lat="48.27519" lon="3.15569">
        <ele>178.6</ele>
        <time>2019-03-30T10:40:26Z</time>
      </trkpt>
      <trkpt lat="48.27523" lon="3.15573">
        <ele>178.77</ele>
        <time>2019-03-30T10:40:31Z</time>
      </trkpt>
      <trkpt lat="48.27525" lon="3.15575">
        <ele>178.93</ele>
        <time>2019-03-30T10:40:36Z</time>
      </trkpt>
      <trkpt lat="48.27533" lon="3.15578">
        <ele>179.13</ele>
        <time>2019-03-30T10:40:41Z</time>
      </trkpt>
      <trkpt lat="48.27536" lon="3.15582">
        <ele>179.27</ele>
        <time>2019-03-30T10:40:46Z</time>
      </trkpt>
      <trkpt lat="48.27538" lon="3.15582">
        <ele>179.29</ele>
        <time>2019-03-30T10:40:51Z</time>
      </trkpt>
      <trkpt lat="48.27541" lon="3.15581">
        <ele>179.12</ele>
        <time>2019-03-30T10:40:56Z</time>
      </trkpt>
      <trkpt lat="48.27544" lon="3.15579">
        <ele>179.04</ele>
        <time>2019-03-30T10:41:01Z</time>
      </trkpt>
      <trkpt lat="48.27549" lon="3.15577">
        <ele>178.91</ele>
        <time>2019-03-30T10:41:06Z</time>
      </trkpt>
      <trkpt lat="48.27555" lon="3.15575">
        <ele>178.93</ele>
        <time>2019-03-30T10:41:11Z</time>
      </trkpt>
      <trkpt lat="48.2756" lon="3.15571">
        <ele>178.88</ele>
        <time>2019-03-30T10:41:16Z</time>
      </trkpt>
      <trkpt lat="48.27565" lon="3.15569">
        <ele>178.81</ele>
        <time>2019-03-30T10:41:21Z</time>
      </trkpt>
      <trkpt lat="48.27569" lon="3.15567">
        <ele>178.81</ele>
        <time>2019-03-30T10:41:26Z</time>
      </trkpt>
      <trkpt lat="48.27574" lon="3.15569">
        <ele>178.81</ele>
        <time>2019-03-30T10:41:31Z</time>
      </trkpt>
      <trkpt lat="48.27577" lon="3.15573">
        <ele>178.89</ele>
        <time>2019-03-30T10:41:36Z</time>
      </trkpt>
      <trkpt lat="48.27582" lon="3.15578">
        <ele>178.95</ele>
        <time>2019-03-30T10:41:41Z</time>
      </trkpt>
      <trkpt lat="48.27586" lon="3.15583">
        <ele>179.01</ele>
        <time>2019-03-30T10:41:46Z</time>
      </trkpt>
      <trkpt lat="48.27591" lon="3.15586">
        <ele>179.13</ele>
        <time>2019-03-30T10:41:51Z</time>
      </trkpt>
      <trkpt lat="48.27597" lon="3.1559">
        <ele>179.36</ele>
        <time>2019-03-30T10:41:56Z</time>
      </trkpt>
      <trkpt lat="48.27602" lon="3.15592">
        <ele>179.29</ele>
        <time>2019-03-30T10:42:01Z</time>
      </trkpt>
      <trkpt lat="48.27607" lon="3.15593">
        <ele>179.32</ele>
        <time>2019-03-30T10:42:06Z</time>
      </trkpt>
      <trkpt lat="48.27612" lon="3.15594">
        <ele>179.38</ele>
        <time>2019-03-30T10:42:11Z</time>
      </trkpt>
      <trkpt lat="48.27616" lon="3.15597">
        <ele>179.36</ele>
        <time>2019-03-30T10:42:16Z</time>
      </trkpt>
      <trkpt lat="48.27622" lon="3.15598">
        <ele>179.29</ele>
        <time>2019-03-30T10:42:21Z</time>
      </trkpt>
      <trkpt lat="48.27627" lon="3.15598">
        <ele>179.22</ele>
        <time>2019-03-30T10:42:26Z</time>
      </trkpt>
      <trkpt lat="48.27632" lon="3.15598">
        <ele>179.28</ele>
        <time>2019-03-30T10:42:31Z</time>
      </trkpt>
      <trkpt lat="48.27637" lon="3.156">
        <ele>179.29</ele>
        <time>2019-03-30T10:42:36Z</time>
      </trkpt>
      <trkpt lat="48.27641" lon="3.15603">
        <ele>179.44</ele>
        <time>2019-03-30T10:42:41Z</time>
      </trkpt>
      <trkpt lat="48.27645" lon="3.15606">
        <ele>179.57</ele>
        <time>2019-03-30T10:42:46Z</time>
      </trkpt>
      <trkpt lat="48.27648" lon="3.1561">
        <ele>179.56</ele>
        <time>2019-03-30T10:42:51Z</time>
      </trkpt>
      <trkpt lat="48.27651" lon="3.15615">
        <ele>179.54</ele>
        <time>2019-03-30T10:42:56Z</time>
      </trkpt>
      <trkpt lat="48.27655" lon="3.15618">
        <ele>179.55</ele>
        <time>2019-03-30T10:43:01Z</time>
      </trkpt>
      <trkpt lat="48.27659" lon="3.15622">
        <ele>179.61</ele>
        <time>2019-03-30T10:43:06Z</time>
      </trkpt>
      <trkpt lat="48.27663" lon="3.15627">
        <ele>179.62</ele>
        <time>2019-03-30T10:43:11Z</time>
      </trkpt>
      <trkpt lat="48.27667" lon="3.15632">
        <ele>179.72</ele>
        <time>2019-03-30T10:43:16Z</time>
      </trkpt>
      <trkpt lat="48.27672" lon="3.15636">
        <ele>179.75</ele>
        <time>2019-03-30T10:43:21Z</time>
      </trkpt>
      <trkpt lat="48.27676" lon="3.15642">
        <ele>179.71</ele>
        <time>2019-03-30T10:43:26Z</time>
      </trkpt>
      <trkpt lat="48.2768" lon="3.15648">
        <ele>179.75</ele>
        <time>2019-03-30T10:43:31Z</time>
      </trkpt>
      <trkpt lat="48.27683" lon="3.15651">
        <ele>179.97</ele>
        <time>2019-03-30T10:43:36Z</time>
      </trkpt>
      <trkpt lat="48.27687" lon="3.15654">
        <ele>180.02</ele>
        <time>2019-03-30T10:43:41Z</time>
      </trkpt>
      <trkpt lat="48.2769" lon="3.15657">
        <ele>180.08</ele>
        <time>2019-03-30T10:43:46Z</time>
      </trkpt>
      <trkpt lat="48.27693" lon="3.15657">
        <ele>180.06</ele>
        <time>2019-03-30T10:43:51Z</time>
      </trkpt>
      <trkpt lat="48.27698" lon="3.1566">
        <ele>179.97</ele>
        <time>2019-03-30T10:43:56Z</time>
      </trkpt>
      <trkpt lat="48.27704" lon="3.15664">
        <ele>179.89</ele>
        <time>2019-03-30T10:44:01Z</time>
      </trkpt>
      <trkpt lat="48.27707" lon="3.15669">
        <ele>179.9</ele>
        <time>2019-03-30T10:44:06Z</time>
      </trkpt>
      <trkpt lat="48.27712" lon="3.15674">
        <ele>179.95</ele>
        <time>2019-03-30T10:44:11Z</time>
      </trkpt>
      <trkpt lat="48.27717" lon="3.15678">
        <ele>179.94</ele>
        <time>2019-03-30T10:44:16Z</time>
      </trkpt>
      <trkpt lat="48.2772" lon="3.15682">
        <ele>179.95</ele>
        <time>2019-03-30T10:44:21Z</time>
      </trkpt>
      <trkpt lat="48.27723" lon="3.15686">
        <ele>179.95</ele>
        <time>2019-03-30T10:44:26Z</time>
      </trkpt>
      <trkpt lat="48.27727" lon="3.15692">
        <ele>179.9</ele>
        <time>2019-03-30T10:44:31Z</time>
      </trkpt>
      <trkpt lat="48.27733" lon="3.15698">
        <ele>180.03</ele>
        <time>2019-03-30T10:44:36Z</time>
      </trkpt>
      <trkpt lat="48.27737" lon="3.15703">
        <ele>180.08</ele>
        <time>2019-03-30T10:44:41Z</time>
      </trkpt>
      <trkpt lat="48.27742" lon="3.1571">
        <ele>180.08</ele>
        <time>2019-03-30T10:44:46Z</time>
      </trkpt>
      <trkpt lat="48.27748" lon="3.15715">
        <ele>180.11</ele>
        <time>2019-03-30T10:44:51Z</time>
      </trkpt>
      <trkpt lat="48.27752" lon="3.15719">
        <ele>180.14</ele>
        <time>2019-03-30T10:44:56Z</time>
      </trkpt>
      <trkpt lat="48.27757" lon="3.15726">
        <ele>180.13</ele>
        <time>2019-03-30T10:45:01Z</time>
      </trkpt>
      <trkpt lat="48.27762" lon="3.15733">
        <ele>180.14</ele>
        <time>2019-03-30T10:45:06Z</time>
      </trkpt>
      <trkpt lat="48.27767" lon="3.1574">
        <ele>179.93</ele>
        <time>2019-03-30T10:45:11Z</time>
      </trkpt>
      <trkpt lat="48.27772" lon="3.15747">
        <ele>179.93</ele>
        <time>2019-03-30T10:45:16Z</time>
      </trkpt>
      <trkpt lat="48.27775" lon="3.15753">
        <ele>179.93</ele>
        <time>2019-03-30T10:45:21Z</time>
      </trkpt>
      <trkpt lat="48.27779" lon="3.15759">
        <ele>179.93</ele>
        <time>2019-03-30T10:45:26Z</time>
      </trkpt>
      <trkpt lat="48.27783" lon="3.15763">
        <ele>179.93</ele>
        <time>2019-03-30T10:45:31Z</time>
      </trkpt>
      <trkpt lat="48.27786" lon="3.15769">
        <ele>179.93</ele>
        <time>2019-03-30T10:45:36Z</time>
      </trkpt>
      <trkpt lat="48.27789" lon="3.15775">
        <ele>179.93</ele>
        <time>2019-03-30T10:45:41Z</time>
      </trkpt>
      <trkpt lat="48.27793" lon="3.15782">
        <ele>179.93</ele>
        <time>2019-03-30T10:45:46Z</time>
      </trkpt>
      <trkpt lat="48.27798" lon="3.15787">
        <ele>179.93</ele>
        <time>2019-03-30T10:45:51Z</time>
      </trkpt>
      <trkpt lat="48.27801" lon="3.15791">
        <ele>179.93</ele>
        <time>2019-03-30T10:45:56Z</time>
      </trkpt>
      <trkpt lat="48.27806" lon="3.15794">
        <ele>179.93</ele>
        <time>2019-03-30T10:46:01Z</time>
      </trkpt>
      <trkpt lat="48.27808" lon="3.15798">
        <ele>179.93</ele>
        <time>2019-03-30T10:46:06Z</time>
      </trkpt>
      <trkpt lat="48.2781" lon="3.15801">
        <ele>179.83</ele>
        <time>2019-03-30T10:46:11Z</time>
      </trkpt>
      <trkpt lat="48.27813" lon="3.15806">
        <ele>179.63</ele>
        <time>2019-03-30T10:46:16Z</time>
      </trkpt>
      <trkpt lat="48.27817" lon="3.15811">
        <ele>179.44</ele>
        <time>2019-03-30T10:46:21Z</time>
      </trkpt>
      <trkpt lat="48.27822" lon="3.15816">
        <ele>179.35</ele>
        <time>2019-03-30T10:46:26Z</time>
      </trkpt>
      <trkpt lat="48.27825" lon="3.15821">
        <ele>179.18</ele>
        <time>2019-03-30T10:46:31Z</time>
      </trkpt>
      <trkpt lat="48.27829" lon="3.15825">
        <ele>178.99</ele>
        <time>2019-03-30T10:46:36Z</time>
      </trkpt>
      <trkpt lat="48.27834" lon="3.1583">
        <ele>178.82</ele>
        <time>2019-03-30T10:46:41Z</time>
      </trkpt>
      <trkpt lat="48.27838" lon="3.15832">
        <ele>178.78</ele>
        <time>2019-03-30T10:46:46Z</time>
      </trkpt>
      <trkpt lat="48.27843" lon="3.15836">
        <ele>178.48</ele>
        <time>2019-03-30T10:46:51Z</time>
      </trkpt>
      <trkpt lat="48.27848" lon="3.15841">
        <ele>178.3</ele>
        <time>2019-03-30T10:46:56Z</time>
      </trkpt>
      <trkpt lat="48.27852" lon="3.15845">
        <ele>178.09</ele>
        <time>2019-03-30T10:47:01Z</time>
      </trkpt>
      <trkpt lat="48.27859" lon="3.15851">
        <ele>177.96</ele>
        <time>2019-03-30T10:47:06Z</time>
      </trkpt>
      <trkpt lat="48.27861" lon="3.15857">
        <ele>177.69</ele>
        <time>2019-03-30T10:47:11Z</time>
      </trkpt>
      <trkpt lat="48.27864" lon="3.15862">
        <ele>177.55</ele>
        <time>2019-03-30T10:47:16Z</time>
      </trkpt>
      <trkpt lat="48.27867" lon="3.15867">
        <ele>177.36</ele>
        <time>2019-03-30T10:47:21Z</time>
      </trkpt>
      <trkpt lat="48.2787" lon="3.15873">
        <ele>177.08</ele>
        <time>2019-03-30T10:47:26Z</time>
      </trkpt>
      <trkpt lat="48.27874" lon="3.15879">
        <ele>176.84</ele>
        <time>2019-03-30T10:47:31Z</time>
      </trkpt>
      <trkpt lat="48.27879" lon="3.15885">
        <ele>176.63</ele>
        <time>2019-03-30T10:47:36Z</time>
      </trkpt>
      <trkpt lat="48.27884" lon="3.15888">
        <ele>176.43</ele>
        <time>2019-03-30T10:47:41Z</time>
      </trkpt>
      <trkpt lat="48.27887" lon="3.15893">
        <ele>176.2</ele>
        <time>2019-03-30T10:47:46Z</time>
      </trkpt>
      <trkpt lat="48.27891" lon="3.15899">
        <ele>176.02</ele>
        <time>2019-03-30T10:47:51Z</time>
      </trkpt>
      <trkpt lat="48.27896" lon="3.15904">
        <ele>175.85</ele>
        <time>2019-03-30T10:47:56Z</time>
      </trkpt>
      <trkpt lat="48.279" lon="3.15907">
        <ele>175.74</ele>
        <time>2019-03-30T10:48:01Z</time>
      </trkpt>
      <trkpt lat="48.27905" lon="3.15915">
        <ele>175.56</ele>
        <time>2019-03-30T10:48:06Z</time>
      </trkpt>
      <trkpt lat="48.27909" lon="3.15921">
        <ele>175.28</ele>
        <time>2019-03-30T10:48:11Z</time>
      </trkpt>
      <trkpt lat="48.27912" lon="3.15926">
        <ele>175.11</ele>
        <time>2019-03-30T10:48:16Z</time>
      </trkpt>
      <trkpt lat="48.27915" lon="3.1593">
        <ele>175.01</ele>
        <time>2019-03-30T10:48:21Z</time>
      </trkpt>
      <trkpt lat="48.27919" lon="3.15935">
        <ele>174.96</ele>
        <time>2019-03-30T10:48:26Z</time>
      </trkpt>
      <trkpt lat="48.27921" lon="3.15941">
        <ele>174.6</ele>
        <time>2019-03-30T10:48:31Z</time>
      </trkpt>
      <trkpt lat="48.27923" lon="3.15945">
        <ele>174.33</ele>
        <time>2019-03-30T10:48:36Z</time>
      </trkpt>
      <trkpt lat="48.27929" lon="3.1595">
        <ele>174.28</ele>
        <time>2019-03-30T10:48:41Z</time>
      </trkpt>
      <trkpt lat="48.27934" lon="3.15955">
        <ele>174.17</ele>
        <time>2019-03-30T10:48:46Z</time>
      </trkpt>
      <trkpt lat="48.27938" lon="3.15958">
        <ele>174.16</ele>
        <time>2019-03-30T10:48:51Z</time>
      </trkpt>
      <trkpt lat="48.27941" lon="3.15964">
        <ele>174.09</ele>
        <time>2019-03-30T10:48:56Z</time>
      </trkpt>
      <trkpt lat="48.27943" lon="3.15968">
        <ele>173.89</ele>
        <time>2019-03-30T10:49:01Z</time>
      </trkpt>
      <trkpt lat="48.27943" lon="3.15969">
        <ele>173.81</ele>
        <time>2019-03-30T10:49:06Z</time>
      </trkpt>
      <trkpt lat="48.27943" lon="3.15971">
        <ele>173.79</ele>
        <time>2019-03-30T10:49:11Z</time>
      </trkpt>
      <trkpt lat="48.27943" lon="3.15971">
        <ele>173.57</ele>
        <time>2019-03-30T10:49:16Z</time>
      </trkpt>
      <trkpt lat="48.27944" lon="3.15972">
        <ele>173.54</ele>
        <time>2019-03-30T10:49:21Z</time>
      </trkpt>
      <trkpt lat="48.27943" lon="3.15972">
        <ele>173.67</ele>
        <time>2019-03-30T10:49:26Z</time>
      </trkpt>
      <trkpt lat="48.27944" lon="3.15972">
        <ele>173.7</ele>
        <time>2019-03-30T10:49:31Z</time>
      </trkpt>
      <trkpt lat="48.27944" lon="3.15971">
        <ele>173.77</ele>
        <time>2019-03-30T10:49:36Z</time>
      </trkpt>
      <trkpt lat="48.27945" lon="3.15972">
        <ele>173.92</ele>
        <time>2019-03-30T10:49:41Z</time>
      </trkpt>
      <trkpt lat="48.27945" lon="3.15972">
        <ele>173.85</ele>
        <time>2019-03-30T10:49:46Z</time>
      </trkpt>
      <trkpt lat="48.27946" lon="3.1597">
        <ele>173.89</ele>
        <time>2019-03-30T10:49:51Z</time>
      </trkpt>
      <trkpt lat="48.27945" lon="3.1597">
        <ele>173.91</ele>
        <time>2019-03-30T10:49:56Z</time>
      </trkpt>
      <trkpt lat="48.27944" lon="3.15968">
        <ele>173.98</ele>
        <time>2019-03-30T10:50:01Z</time>
      </trkpt>
      <trkpt lat="48.27944" lon="3.15967">
        <ele>173.98</ele>
        <time>2019-03-30T10:50:06Z</time>
      </trkpt>
      <trkpt lat="48.27944" lon="3.15968">
        <ele>173.81</ele>
        <time>2019-03-30T10:50:11Z</time>
      </trkpt>
      <trkpt lat="48.27946" lon="3.15967">
        <ele>173.69</ele>
        <time>2019-03-30T10:50:16Z</time>
      </trkpt>
      <trkpt lat="48.27948" lon="3.15968">
        <ele>173.56</ele>
        <time>2019-03-30T10:50:21Z</time>
      </trkpt>
      <trkpt lat="48.2795" lon="3.1597">
        <ele>173.56</ele>
        <time>2019-03-30T10:50:26Z</time>
      </trkpt>
      <trkpt lat="48.27951" lon="3.15972">
        <ele>173.56</ele>
        <time>2019-03-30T10:50:31Z</time>
      </trkpt>
      <trkpt lat="48.27949" lon="3.15973">
        <ele>173.56</ele>
        <time>2019-03-30T10:50:36Z</time>
      </trkpt>
      <trkpt lat="48.27947" lon="3.15977">
        <ele>173.56</ele>
        <time>2019-03-30T10:50:41Z</time>
      </trkpt>
      <trkpt lat="48.27946" lon="3.15977">
        <ele>173.56</ele>
        <time>2019-03-30T10:50:46Z</time>
      </trkpt>
      <trkpt lat="48.27946" lon="3.15977">
        <ele>173.56</ele>
        <time>2019-03-30T10:50:51Z</time>
      </trkpt>
      <trkpt lat="48.27948" lon="3.15983">
        <ele>173.56</ele>
        <time>2019-03-30T10:50:56Z</time>
      </trkpt>
      <trkpt lat="48.2795" lon="3.15984">
        <ele>173.56</ele>
        <time>2019-03-30T10:51:01Z</time>
      </trkpt>
      <trkpt lat="48.27953" lon="3.1598">
        <ele>173.56</ele>
        <time>2019-03-30T10:51:06Z</time>
      </trkpt>
      <trkpt lat="48.27956" lon="3.15975">
        <ele>173.56</ele>
        <time>2019-03-30T10:51:11Z</time>
      </trkpt>
      <trkpt lat="48.27958" lon="3.1597">
        <ele>173.56</ele>
        <time>2019-03-30T10:51:16Z</time>
      </trkpt>
      <trkpt lat="48.27959" lon="3.15969">
        <ele>173.56</ele>
        <time>2019-03-30T10:51:21Z</time>
      </trkpt>
      <trkpt lat="48.27961" lon="3.15964">
        <ele>173.56</ele>
        <time>2019-03-30T10:51:26Z</time>
      </trkpt>
      <trkpt lat="48.27965" lon="3.15959">
        <ele>173.56</ele>
        <time>2019-03-30T10:51:31Z</time>
      </trkpt>
      <trkpt lat="48.2797" lon="3.15955">
        <ele>173.56</ele>
        <time>2019-03-30T10:51:36Z</time>
      </trkpt>
      <trkpt lat="48.27972" lon="3.15951">
        <ele>173.56</ele>
        <time>2019-03-30T10:51:41Z</time>
      </trkpt>
      <trkpt lat="48.27977" lon="3.15946">
        <ele>173.56</ele>
        <time>2019-03-30T10:51:46Z</time>
      </trkpt>
      <trkpt lat="48.2798" lon="3.15942">
        <ele>173.56</ele>
        <time>2019-03-30T10:51:51Z</time>
      </trkpt>
      <trkpt lat="48.27984" lon="3.15937">
        <ele>173.76</ele>
        <time>2019-03-30T10:51:56Z</time>
      </trkpt>
      <trkpt lat="48.27988" lon="3.15933">
        <ele>175.29</ele>
        <time>2019-03-30T10:52:01Z</time>
      </trkpt>
      <trkpt lat="48.27991" lon="3.1593">
        <ele>175.39</ele>
        <time>2019-03-30T10:52:06Z</time>
      </trkpt>
      <trkpt lat="48.27994" lon="3.15926">
        <ele>175.42</ele>
        <time>2019-03-30T10:52:11Z</time>
      </trkpt>
      <trkpt lat="48.27997" lon="3.15923">
        <ele>175.34</ele>
        <time>2019-03-30T10:52:16Z</time>
      </trkpt>
      <trkpt lat="48.28002" lon="3.15918">
        <ele>175.61</ele>
        <time>2019-03-30T10:52:21Z</time>
      </trkpt>
      <trkpt lat="48.28006" lon="3.15915">
        <ele>175.79</ele>
        <time>2019-03-30T10:52:26Z</time>
      </trkpt>
      <trkpt lat="48.28008" lon="3.15911">
        <ele>176.02</ele>
        <time>2019-03-30T10:52:31Z</time>
      </trkpt>
      <trkpt lat="48.2801" lon="3.15909">
        <ele>176.36</ele>
        <time>2019-03-30T10:52:36Z</time>
      </trkpt>
      <trkpt lat="48.28014" lon="3.15902">
        <ele>176.6</ele>
        <time>2019-03-30T10:52:41Z</time>
      </trkpt>
      <trkpt lat="48.28017" lon="3.15896">
        <ele>176.73</ele>
        <time>2019-03-30T10:52:46Z</time>
      </trkpt>
      <trkpt lat="48.2802" lon="3.15892">
        <ele>176.88</ele>
        <time>2019-03-30T10:52:51Z</time>
      </trkpt>
      <trkpt lat="48.28023" lon="3.15891">
        <ele>177.09</ele>
        <time>2019-03-30T10:52:56Z</time>
      </trkpt>
      <trkpt lat="48.28025" lon="3.15889">
        <ele>177.33</ele>
        <time>2019-03-30T10:53:01Z</time>
      </trkpt>
      <trkpt lat="48.28027" lon="3.15885">
        <ele>177.47</ele>
        <time>2019-03-30T10:53:06Z</time>
      </trkpt>
      <trkpt lat="48.2803" lon="3.15882">
        <ele>177.85</ele>
        <time>2019-03-30T10:53:11Z</time>
      </trkpt>
      <trkpt lat="48.28032" lon="3.15877">
        <ele>178.07</ele>
        <time>2019-03-30T10:53:16Z</time>
      </trkpt>
      <trkpt lat="48.28035" lon="3.15871">
        <ele>178.3</ele>
        <time>2019-03-30T10:53:21Z</time>
      </trkpt>
      <trkpt lat="48.28038" lon="3.15865">
        <ele>178.59</ele>
        <time>2019-03-30T10:53:26Z</time>
      </trkpt>
      <trkpt lat="48.28042" lon="3.15862">
        <ele>178.67</ele>
        <time>2019-03-30T10:53:31Z</time>
      </trkpt>
      <trkpt lat="48.28044" lon="3.15858">
        <ele>178.4</ele>
        <time>2019-03-30T10:53:36Z</time>
      </trkpt>
      <trkpt lat="48.28048" lon="3.15853">
        <ele>178.2</ele>
        <time>2019-03-30T10:53:41Z</time>
      </trkpt>
      <trkpt lat="48.28051" lon="3.15849">
        <ele>178.26</ele>
        <time>2019-03-30T10:53:46Z</time>
      </trkpt>
      <trkpt lat="48.28056" lon="3.15844">
        <ele>178.55</ele>
        <time>2019-03-30T10:53:51Z</time>
      </trkpt>
      <trkpt lat="48.28059" lon="3.1584">
        <ele>178.86</ele>
        <time>2019-03-30T10:53:56Z</time>
      </trkpt>
      <trkpt lat="48.28061" lon="3.15835">
        <ele>179.13</ele>
        <time>2019-03-30T10:54:01Z</time>
      </trkpt>
      <trkpt lat="48.28065" lon="3.1583">
        <ele>179.24</ele>
        <time>2019-03-30T10:54:06Z</time>
      </trkpt>
      <trkpt lat="48.28068" lon="3.15826">
        <ele>179.52</ele>
        <time>2019-03-30T10:54:11Z</time>
      </trkpt>
      <trkpt lat="48.28072" lon="3.15823">
        <ele>179.6</ele>
        <time>2019-03-30T10:54:16Z</time>
      </trkpt>
      <trkpt lat="48.28074" lon="3.1582">
        <ele>179.65</ele>
        <time>2019-03-30T10:54:21Z</time>
      </trkpt>
      <trkpt lat="48.28079" lon="3.15815">
        <ele>179.71</ele>
        <time>2019-03-30T10:54:26Z</time>
      </trkpt>
      <trkpt lat="48.28083" lon="3.15811">
        <ele>179.63</ele>
        <time>2019-03-30T10:54:31Z</time>
      </trkpt>
      <trkpt lat="48.28085" lon="3.15807">
        <ele>179.49</ele>
        <time>2019-03-30T10:54:36Z</time>
      </trkpt>
      <trkpt lat="48.2809" lon="3.15802">
        <ele>179.41</ele>
        <time>2019-03-30T10:54:41Z</time>
      </trkpt>
      <trkpt lat="48.28093" lon="3.15797">
        <ele>179.44</ele>
        <time>2019-03-30T10:54:46Z</time>
      </trkpt>
      <trkpt lat="48.28095" lon="3.15795">
        <ele>179.39</ele>
        <time>2019-03-30T10:54:51Z</time>
      </trkpt>
      <trkpt lat="48.28102" lon="3.15788">
        <ele>179.53</ele>
        <time>2019-03-30T10:54:56Z</time>
      </trkpt>
      <trkpt lat="48.28108" lon="3.15782">
        <ele>179.58</ele>
        <time>2019-03-30T10:55:01Z</time>
      </trkpt>
      <trkpt lat="48.28111" lon="3.15779">
        <ele>179.73</ele>
        <time>2019-03-30T10:55:06Z</time>
      </trkpt>
      <trkpt lat="48.28114" lon="3.15776">
        <ele>179.83</ele>
        <time>2019-03-30T10:55:11Z</time>
      </trkpt>
      <trkpt lat="48.28118" lon="3.1577">
        <ele>179.97</ele>
        <time>2019-03-30T10:55:16Z</time>
      </trkpt>
      <trkpt lat="48.28123" lon="3.15763">
        <ele>180.02</ele>
        <time>2019-03-30T10:55:21Z</time>
      </trkpt>
      <trkpt lat="48.28127" lon="3.15758">
        <ele>179.73</ele>
        <time>2019-03-30T10:55:26Z</time>
      </trkpt>
      <trkpt lat="48.28131" lon="3.15753">
        <ele>179.37</ele>
        <time>2019-03-30T10:55:31Z</time>
      </trkpt>
      <trkpt lat="48.28135" lon="3.15749">
        <ele>179.41</ele>
        <time>2019-03-30T10:55:36Z</time>
      </trkpt>
      <trkpt lat="48.2814" lon="3.15745">
        <ele>179.35</ele>
        <time>2019-03-30T10:55:41Z</time>
      </trkpt>
      <trkpt lat="48.28145" lon="3.1574">
        <ele>179.05</ele>
        <time>2019-03-30T10:55:46Z</time>
      </trkpt>
      <trkpt lat="48.28149" lon="3.15736">
        <ele>178.99</ele>
        <time>2019-03-30T10:55:51Z</time>
      </trkpt>
      <trkpt lat="48.28152" lon="3.15732">
        <ele>178.8</ele>
        <time>2019-03-30T10:55:56Z</time>
      </trkpt>
      <trkpt lat="48.28156" lon="3.15728">
        <ele>178.54</ele>
        <time>2019-03-30T10:56:01Z</time>
      </trkpt>
      <trkpt lat="48.28161" lon="3.1572">
        <ele>178.51</ele>
        <time>2019-03-30T10:56:06Z</time>
      </trkpt>
      <trkpt lat="48.28165" lon="3.15717">
        <ele>178.26</ele>
        <time>2019-03-30T10:56:11Z</time>
      </trkpt>
      <trkpt lat="48.28166" lon="3.15716">
        <ele>178.14</ele>
        <time>2019-03-30T10:56:16Z</time>
      </trkpt>
      <trkpt lat="48.2817" lon="3.15711">
        <ele>177.9</ele>
        <time>2019-03-30T10:56:21Z</time>
      </trkpt>
      <trkpt lat="48.28176" lon="3.15703">
        <ele>177.79</ele>
        <time>2019-03-30T10:56:26Z</time>
      </trkpt>
      <trkpt lat="48.2818" lon="3.15698">
        <ele>177.59</ele>
        <time>2019-03-30T10:56:31Z</time>
      </trkpt>
      <trkpt lat="48.28186" lon="3.15693">
        <ele>177.37</ele>
        <time>2019-03-30T10:56:36Z</time>
      </trkpt>
      <trkpt lat="48.28191" lon="3.15685">
        <ele>177.31</ele>
        <time>2019-03-30T10:56:41Z</time>
      </trkpt>
      <trkpt lat="48.28195" lon="3.15679">
        <ele>177.19</ele>
        <time>2019-03-30T10:56:46Z</time>
      </trkpt>
      <trkpt lat="48.28199" lon="3.15674">
        <ele>176.98</ele>
        <time>2019-03-30T10:56:51Z</time>
      </trkpt>
      <trkpt lat="48.28201" lon="3.15668">
        <ele>176.89</ele>
        <time>2019-03-30T10:56:56Z</time>
      </trkpt>
      <trkpt lat="48.282" lon="3.15664">
        <ele>176.86</ele>
        <time>2019-03-30T10:57:01Z</time>
      </trkpt>
      <trkpt lat="48.28197" lon="3.15662">
        <ele>177.24</ele>
        <time>2019-03-30T10:57:06Z</time>
      </trkpt>
      <trkpt lat="48.28194" lon="3.15659">
        <ele>177.29</ele>
        <time>2019-03-30T10:57:11Z</time>
      </trkpt>
      <trkpt lat="48.2819" lon="3.15657">
        <ele>177.18</ele>
        <time>2019-03-30T10:57:16Z</time>
      </trkpt>
      <trkpt lat="48.28188" lon="3.15657">
        <ele>177.16</ele>
        <time>2019-03-30T10:57:21Z</time>
      </trkpt>
      <trkpt lat="48.28181" lon="3.15658">
        <ele>177.18</ele>
        <time>2019-03-30T10:57:26Z</time>
      </trkpt>
      <trkpt lat="48.28174" lon="3.15658">
        <ele>177.13</ele>
        <time>2019-03-30T10:57:31Z</time>
      </trkpt>
      <trkpt lat="48.28168" lon="3.15657">
        <ele>177.13</ele>
        <time>2019-03-30T10:57:36Z</time>
      </trkpt>
      <trkpt lat="48.28163" lon="3.15654">
        <ele>177.12</ele>
        <time>2019-03-30T10:57:41Z</time>
      </trkpt>
      <trkpt lat="48.28157" lon="3.15651">
        <ele>177.04</ele>
        <time>2019-03-30T10:57:46Z</time>
      </trkpt>
      <trkpt lat="48.28153" lon="3.15649">
        <ele>177.04</ele>
        <time>2019-03-30T10:57:51Z</time>
      </trkpt>
      <trkpt lat="48.2815" lon="3.15643">
        <ele>177.07</ele>
        <time>2019-03-30T10:57:56Z</time>
      </trkpt>
      <trkpt lat="48.28147" lon="3.15637">
        <ele>177.23</ele>
        <time>2019-03-30T10:58:01Z</time>
      </trkpt>
      <trkpt lat="48.28144" lon="3.15635">
        <ele>177.29</ele>
        <time>2019-03-30T10:58:06Z</time>
      </trkpt>
      <trkpt lat="48.28141" lon="3.15631">
        <ele>177.08</ele>
        <time>2019-03-30T10:58:11Z</time>
      </trkpt>
      <trkpt lat="48.28137" lon="3.15629">
        <ele>177.21</ele>
        <time>2019-03-30T10:58:16Z</time>
      </trkpt>
      <trkpt lat="48.28134" lon="3.15625">
        <ele>177.32</ele>
        <time>2019-03-30T10:58:21Z</time>
      </trkpt>
      <trkpt lat="48.2813" lon="3.15619">
        <ele>177.44</ele>
        <time>2019-03-30T10:58:26Z</time>
      </trkpt>
      <trkpt lat="48.28126" lon="3.15617">
        <ele>177.49</ele>
        <time>2019-03-30T10:58:31Z</time>
      </trkpt>
      <trkpt lat="48.28122" lon="3.15614">
        <ele>177.46</ele>
        <time>2019-03-30T10:58:36Z</time>
      </trkpt>
      <trkpt lat="48.28118" lon="3.1561">
        <ele>177.53</ele>
        <time>2019-03-30T10:58:41Z</time>
      </trkpt>
      <trkpt lat="48.28113" lon="3.15606">
        <ele>177.6</ele>
        <time>2019-03-30T10:58:46Z</time>
      </trkpt>
      <trkpt lat="48.28108" lon="3.15601">
        <ele>177.59</ele>
        <time>2019-03-30T10:58:51Z</time>
      </trkpt>
      <trkpt lat="48.28104" lon="3.15598">
        <ele>177.52</ele>
        <time>2019-03-30T10:58:56Z</time>
      </trkpt>
      <trkpt lat="48.28099" lon="3.15597">
        <ele>177.52</ele>
        <time>2019-03-30T10:59:01Z</time>
      </trkpt>
      <trkpt lat="48.28094" lon="3.15593">
        <ele>177.43</ele>
        <time>2019-03-30T10:59:06Z</time>
      </trkpt>
      <trkpt lat="48.28088" lon="3.15587">
        <ele>177.42</ele>
        <time>2019-03-30T10:59:11Z</time>
      </trkpt>
      <trkpt lat="48.28083" lon="3.15583">
        <ele>177.49</ele>
        <time>2019-03-30T10:59:16Z</time>
      </trkpt>
      <trkpt lat="48.28079" lon="3.15579">
        <ele>177.68</ele>
        <time>2019-03-30T10:59:21Z</time>
      </trkpt>
      <trkpt lat="48.28076" lon="3.15575">
        <ele>177.72</ele>
        <time>2019-03-30T10:59:26Z</time>
      </trkpt>
      <trkpt lat="48.28073" lon="3.15571">
        <ele>177.72</ele>
        <time>2019-03-30T10:59:31Z</time>
      </trkpt>
      <trkpt lat="48.28069" lon="3.15565">
        <ele>177.72</ele>
        <time>2019-03-30T10:59:36Z</time>
      </trkpt>
      <trkpt lat="48.28065" lon="3.15562">
        <ele>177.72</ele>
        <time>2019-03-30T10:59:41Z</time>
      </trkpt>
      <trkpt lat="48.28061" lon="3.15559">
        <ele>177.72</ele>
        <time>2019-03-30T10:59:46Z</time>
      </trkpt>
      <trkpt lat="48.28058" lon="3.15556">
        <ele>177.72</ele>
        <time>2019-03-30T10:59:51Z</time>
      </trkpt>
      <trkpt lat="48.28053" lon="3.15551">
        <ele>177.72</ele>
        <time>2019-03-30T10:59:56Z</time>
      </trkpt>
      <trkpt lat="48.28049" lon="3.15547">
        <ele>177.72</ele>
        <time>2019-03-30T11:00:01Z</time>
      </trkpt>
      <trkpt lat="48.28045" lon="3.15545">
        <ele>177.72</ele>
        <time>2019-03-30T11:00:06Z</time>
      </trkpt>
      <trkpt lat="48.28045" lon="3.15545">
        <ele>177.72</ele>
        <time>2019-03-30T11:00:11Z</time>
      </trkpt>
      <trkpt lat="48.28045" lon="3.15543">
        <ele>177.72</ele>
        <time>2019-03-30T11:00:16Z</time>
      </trkpt>
      <trkpt lat="48.28045" lon="3.1554">
        <ele>177.72</ele>
        <time>2019-03-30T11:00:21Z</time>
      </trkpt>
      <trkpt lat="48.28044" lon="3.15536">
        <ele>177.72</ele>
        <time>2019-03-30T11:00:26Z</time>
      </trkpt>
      <trkpt lat="48.28044" lon="3.15532">
        <ele>177.72</ele>
        <time>2019-03-30T11:00:31Z</time>
      </trkpt>
      <trkpt lat="48.28043" lon="3.15521">
        <ele>177.72</ele>
        <time>2019-03-30T11:00:36Z</time>
      </trkpt>
      <trkpt lat="48.28046" lon="3.15512">
        <ele>177.72</ele>
        <time>2019-03-30T11:00:41Z</time>
      </trkpt>
      <trkpt lat="48.28049" lon="3.15505">
        <ele>177.72</ele>
        <time>2019-03-30T11:00:46Z</time>
      </trkpt>
      <trkpt lat="48.2805" lon="3.155">
        <ele>177.72</ele>
        <time>2019-03-30T11:00:51Z</time>
      </trkpt>
      <trkpt lat="48.28051" lon="3.15492">
        <ele>177.72</ele>
        <time>2019-03-30T11:00:56Z</time>
      </trkpt>
      <trkpt lat="48.28053" lon="3.15484">
        <ele>177.72</ele>
        <time>2019-03-30T11:01:01Z</time>
      </trkpt>
      <trkpt lat="48.28055" lon="3.15479">
        <ele>177.72</ele>
        <time>2019-03-30T11:01:06Z</time>
      </trkpt>
      <trkpt lat="48.28056" lon="3.15473">
        <ele>177.72</ele>
        <time>2019-03-30T11:01:11Z</time>
      </trkpt>
      <trkpt lat="48.28058" lon="3.15467">
        <ele>177.72</ele>
        <time>2019-03-30T11:01:16Z</time>
      </trkpt>
      <trkpt lat="48.2806" lon="3.15463">
        <ele>176.23</ele>
        <time>2019-03-30T11:01:21Z</time>
      </trkpt>
      <trkpt lat="48.28062" lon="3.15459">
        <ele>175.89</ele>
        <time>2019-03-30T11:01:26Z</time>
      </trkpt>
      <trkpt lat="48.28063" lon="3.15457">
        <ele>175.78</ele>
        <time>2019-03-30T11:01:31Z</time>
      </trkpt>
      <trkpt lat="48.28063" lon="3.15454">
        <ele>175.74</ele>
        <time>2019-03-30T11:01:36Z</time>
      </trkpt>
      <trkpt lat="48.28066" lon="3.15451">
        <ele>175.71</ele>
        <time>2019-03-30T11:01:41Z</time>
      </trkpt>
      <trkpt lat="48.28068" lon="3.15446">
        <ele>175.61</ele>
        <time>2019-03-30T11:01:46Z</time>
      </trkpt>
      <trkpt lat="48.28069" lon="3.15441">
        <ele>175.2</ele>
        <time>2019-03-30T11:01:51Z</time>
      </trkpt>
      <trkpt lat="48.28071" lon="3.15433">
        <ele>174.97</ele>
        <time>2019-03-30T11:01:56Z</time>
      </trkpt>
      <trkpt lat="48.28074" lon="3.15427">
        <ele>174.56</ele>
        <time>2019-03-30T11:02:01Z</time>
      </trkpt>
      <trkpt lat="48.28077" lon="3.15421">
        <ele>174.38</ele>
        <time>2019-03-30T11:02:06Z</time>
      </trkpt>
      <trkpt lat="48.28078" lon="3.15418">
        <ele>174.08</ele>
        <time>2019-03-30T11:02:11Z</time>
      </trkpt>
      <trkpt lat="48.28079" lon="3.15413">
        <ele>173.9</ele>
        <time>2019-03-30T11:02:16Z</time>
      </trkpt>
      <trkpt lat="48.28082" lon="3.15405">
        <ele>173.63</ele>
        <time>2019-03-30T11:02:21Z</time>
      </trkpt>
      <trkpt lat="48.28085" lon="3.15397">
        <ele>173.16</ele>
        <time>2019-03-30T11:02:26Z</time>
      </trkpt>
      <trkpt lat="48.28088" lon="3.1539">
        <ele>172.97</ele>
        <time>2019-03-30T11:02:31Z</time>
      </trkpt>
      <trkpt lat="48.28091" lon="3.15384">
        <ele>172.66</ele>
        <time>2019-03-30T11:02:36Z</time>
      </trkpt>
      <trkpt lat="48.28093" lon="3.15379">
        <ele>172.58</ele>
        <time>2019-03-30T11:02:41Z</time>
      </trkpt>
      <trkpt lat="48.28094" lon="3.15376">
        <ele>172.34</ele>
        <time>2019-03-30T11:02:46Z</time>
      </trkpt>
      <trkpt lat="48.28097" lon="3.15369">
        <ele>172.11</ele>
        <time>2019-03-30T11:02:51Z</time>
      </trkpt>
      <trkpt lat="48.281" lon="3.15362">
        <ele>171.87</ele>
        <time>2019-03-30T11:02:56Z</time>
      </trkpt>
      <trkpt lat="48.28103" lon="3.15355">
        <ele>171.33</ele>
        <time>2019-03-30T11:03:01Z</time>
      </trkpt>
      <trkpt lat="48.28107" lon="3.15349">
        <ele>171.09</ele>
        <time>2019-03-30T11:03:06Z</time>
      </trkpt>
      <trkpt lat="48.2811" lon="3.15344">
        <ele>170.95</ele>
        <time>2019-03-30T11:03:11Z</time>
      </trkpt>
      <trkpt lat="48.28112" lon="3.15337">
        <ele>171.03</ele>
        <time>2019-03-30T11:03:16Z</time>
      </trkpt>
      <trkpt lat="48.28114" lon="3.1533">
        <ele>170.77</ele>
        <time>2019-03-30T11:03:21Z</time>
      </trkpt>
      <trkpt lat="48.28116" lon="3.15323">
        <ele>170.31</ele>
        <time>2019-03-30T11:03:26Z</time>
      </trkpt>
      <trkpt lat="48.28118" lon="3.15318">
        <ele>169.86</ele>
        <time>2019-03-30T11:03:31Z</time>
      </trkpt>
      <trkpt lat="48.2812" lon="3.15312">
        <ele>169.64</ele>
        <time>2019-03-30T11:03:36Z</time>
      </trkpt>
      <trkpt lat="48.28122" lon="3.15306">
        <ele>169.41</ele>
        <time>2019-03-30T11:03:41Z</time>
      </trkpt>
      <trkpt lat="48.28125" lon="3.15301">
        <ele>169.24</ele>
        <time>2019-03-30T11:03:46Z</time>
      </trkpt>
      <trkpt lat="48.28128" lon="3.15294">
        <ele>169.02</ele>
        <time>2019-03-30T11:03:51Z</time>
      </trkpt>
      <trkpt lat="48.28132" lon="3.15286">
        <ele>168.88</ele>
        <time>2019-03-30T11:03:56Z</time>
      </trkpt>
      <trkpt lat="48.28135" lon="3.15279">
        <ele>168.71</ele>
        <time>2019-03-30T11:04:01Z</time>
      </trkpt>
      <trkpt lat="48.28138" lon="3.15271">
        <ele>168.19</ele>
        <time>2019-03-30T11:04:06Z</time>
      </trkpt>
      <trkpt lat="48.2814" lon="3.15265">
        <ele>167.9</ele>
        <time>2019-03-30T11:04:11Z</time>
      </trkpt>
      <trkpt lat="48.28143" lon="3.15258">
        <ele>167.75</ele>
        <time>2019-03-30T11:04:16Z</time>
      </trkpt>
      <trkpt lat="48.28146" lon="3.15251">
        <ele>167.48</ele>
        <time>2019-03-30T11:04:21Z</time>
      </trkpt>
      <trkpt lat="48.28149" lon="3.15243">
        <ele>167.23</ele>
        <time>2019-03-30T11:04:26Z</time>
      </trkpt>
      <trkpt lat="48.28151" lon="3.15236">
        <ele>166.77</ele>
        <time>2019-03-30T11:04:31Z</time>
      </trkpt>
      <trkpt lat="48.28152" lon="3.1523">
        <ele>166.7</ele>
        <time>2019-03-30T11:04:36Z</time>
      </trkpt>
      <trkpt lat="48.28153" lon="3.15225">
        <ele>166.31</ele>
        <time>2019-03-30T11:04:41Z</time>
      </trkpt>
      <trkpt lat="48.28156" lon="3.15218">
        <ele>166.09</ele>
        <time>2019-03-30T11:04:46Z</time>
      </trkpt>
      <trkpt lat="48.28158" lon="3.15211">
        <ele>165.81</ele>
        <time>2019-03-30T11:04:51Z</time>
      </trkpt>
      <trkpt lat="48.28159" lon="3.15205">
        <ele>165.64</ele>
        <time>2019-03-30T11:04:56Z</time>
      </trkpt>
      <trkpt lat="48.28162" lon="3.15198">
        <ele>165.32</ele>
        <time>2019-03-30T11:05:01Z</time>
      </trkpt>
      <trkpt lat="48.28167" lon="3.15191">
        <ele>165.05</ele>
        <time>2019-03-30T11:05:06Z</time>
      </trkpt>
      <trkpt lat="48.28169" lon="3.15183">
        <ele>164.84</ele>
        <time>2019-03-30T11:05:11Z</time>
      </trkpt>
      <trkpt lat="48.28172" lon="3.15176">
        <ele>164.5</ele>
        <time>2019-03-30T11:05:16Z</time>
      </trkpt>
      <trkpt lat="48.28174" lon="3.15168">
        <ele>164.36</ele>
        <time>2019-03-30T11:05:21Z</time>
      </trkpt>
      <trkpt lat="48.28176" lon="3.1516">
        <ele>164.17</ele>
        <time>2019-03-30T11:05:26Z</time>
      </trkpt>
      <trkpt lat="48.28178" lon="3.15152">
        <ele>163.91</ele>
        <time>2019-03-30T11:05:31Z</time>
      </trkpt>
      <trkpt lat="48.28181" lon="3.15145">
        <ele>163.95</ele>
        <time>2019-03-30T11:05:36Z</time>
      </trkpt>
      <trkpt lat="48.28183" lon="3.15137">
        <ele>163.98</ele>
        <time>2019-03-30T11:05:41Z</time>
      </trkpt>
      <trkpt lat="48.28186" lon="3.15132">
        <ele>164.02</ele>
        <time>2019-03-30T11:05:46Z</time>
      </trkpt>
      <trkpt lat="48.28188" lon="3.15127">
        <ele>164.14</ele>
        <time>2019-03-30T11:05:51Z</time>
      </trkpt>
      <trkpt lat="48.28189" lon="3.15119">
        <ele>164.26</ele>
        <time>2019-03-30T11:05:56Z</time>
      </trkpt>
      <trkpt lat="48.2819" lon="3.15113">
        <ele>164.38</ele>
        <time>2019-03-30T11:06:01Z</time>
      </trkpt>
      <trkpt lat="48.28192" lon="3.15108">
        <ele>164.39</ele>
        <time>2019-03-30T11:06:06Z</time>
      </trkpt>
      <trkpt lat="48.28195" lon="3.15103">
        <ele>164.42</ele>
        <time>2019-03-30T11:06:11Z</time>
      </trkpt>
      <trkpt lat="48.28198" lon="3.15095">
        <ele>164.52</ele>
        <time>2019-03-30T11:06:16Z</time>
      </trkpt>
      <trkpt lat="48.28199" lon="3.15087">
        <ele>164.54</ele>
        <time>2019-03-30T11:06:21Z</time>
      </trkpt>
      <trkpt lat="48.28201" lon="3.15083">
        <ele>164.37</ele>
        <time>2019-03-30T11:06:26Z</time>
      </trkpt>
      <trkpt lat="48.28201" lon="3.15082">
        <ele>164.25</ele>
        <time>2019-03-30T11:06:31Z</time>
      </trkpt>
      <trkpt lat="48.282" lon="3.15079">
        <ele>164.25</ele>
        <time>2019-03-30T11:06:36Z</time>
      </trkpt>
      <trkpt lat="48.28202" lon="3.15074">
        <ele>164.31</ele>
        <time>2019-03-30T11:06:41Z</time>
      </trkpt>
      <trkpt lat="48.28208" lon="3.15066">
        <ele>164.33</ele>
        <time>2019-03-30T11:06:46Z</time>
      </trkpt>
      <trkpt lat="48.28211" lon="3.15059">
        <ele>164.5</ele>
        <time>2019-03-30T11:06:51Z</time>
      </trkpt>
      <trkpt lat="48.28215" lon="3.15054">
        <ele>164.52</ele>
        <time>2019-03-30T11:06:56Z</time>
      </trkpt>
      <trkpt lat="48.28218" lon="3.15049">
        <ele>164.41</ele>
        <time>2019-03-30T11:07:01Z</time>
      </trkpt>
      <trkpt lat="48.2822" lon="3.15044">
        <ele>164.4</ele>
        <time>2019-03-30T11:07:06Z</time>
      </trkpt>
      <trkpt lat="48.28223" lon="3.15038">
        <ele>164.46</ele>
        <time>2019-03-30T11:07:11Z</time>
      </trkpt>
      <trkpt lat="48.28224" lon="3.15031">
        <ele>164.61</ele>
        <time>2019-03-30T11:07:16Z</time>
      </trkpt>
      <trkpt lat="48.28226" lon="3.15025">
        <ele>164.64</ele>
        <time>2019-03-30T11:07:21Z</time>
      </trkpt>
      <trkpt lat="48.28228" lon="3.15019">
        <ele>164.56</ele>
        <time>2019-03-30T11:07:26Z</time>
      </trkpt>
      <trkpt lat="48.2823" lon="3.15012">
        <ele>164.36</ele>
        <time>2019-03-30T11:07:31Z</time>
      </trkpt>
      <trkpt lat="48.28232" lon="3.15005">
        <ele>164.23</ele>
        <time>2019-03-30T11:07:36Z</time>
      </trkpt>
      <trkpt lat="48.28234" lon="3.15001">
        <ele>164.16</ele>
        <time>2019-03-30T11:07:41Z</time>
      </trkpt>
      <trkpt lat="48.28236" lon="3.14994">
        <ele>163.98</ele>
        <time>2019-03-30T11:07:46Z</time>
      </trkpt>
      <trkpt lat="48.28237" lon="3.14988">
        <ele>163.81</ele>
        <time>2019-03-30T11:07:51Z</time>
      </trkpt>
      <trkpt lat="48.28238" lon="3.14982">
        <ele>163.68</ele>
        <time>2019-03-30T11:07:56Z</time>
      </trkpt>
      <trkpt lat="48.28239" lon="3.14977">
        <ele>163.56</ele>
        <time>2019-03-30T11:08:01Z</time>
      </trkpt>
      <trkpt lat="48.2824" lon="3.1497">
        <ele>163.52</ele>
        <time>2019-03-30T11:08:06Z</time>
      </trkpt>
      <trkpt lat="48.28243" lon="3.14965">
        <ele>163.44</ele>
        <time>2019-03-30T11:08:11Z</time>
      </trkpt>
      <trkpt lat="48.28246" lon="3.14959">
        <ele>162.93</ele>
        <time>2019-03-30T11:08:16Z</time>
      </trkpt>
      <trkpt lat="48.28249" lon="3.14954">
        <ele>162.64</ele>
        <time>2019-03-30T11:08:21Z</time>
      </trkpt>
      <trkpt lat="48.28251" lon="3.14947">
        <ele>162.5</ele>
        <time>2019-03-30T11:08:26Z</time>
      </trkpt>
      <trkpt lat="48.28254" lon="3.1494">
        <ele>162.34</ele>
        <time>2019-03-30T11:08:31Z</time>
      </trkpt>
      <trkpt lat="48.28257" lon="3.14933">
        <ele>161.85</ele>
        <time>2019-03-30T11:08:36Z</time>
      </trkpt>
      <trkpt lat="48.2826" lon="3.14928">
        <ele>161.57</ele>
        <time>2019-03-30T11:08:41Z</time>
      </trkpt>
      <trkpt lat="48.28262" lon="3.14921">
        <ele>161.51</ele>
        <time>2019-03-30T11:08:46Z</time>
      </trkpt>
      <trkpt lat="48.28266" lon="3.14917">
        <ele>161.46</ele>
        <time>2019-03-30T11:08:51Z</time>
      </trkpt>
      <trkpt lat="48.28271" lon="3.14918">
        <ele>161.73</ele>
        <time>2019-03-30T11:08:56Z</time>
      </trkpt>
      <trkpt lat="48.28277" lon="3.14917">
        <ele>161.78</ele>
        <time>2019-03-30T11:09:01Z</time>
      </trkpt>
      <trkpt lat="48.28281" lon="3.14919">
        <ele>161.92</ele>
        <time>2019-03-30T11:09:06Z</time>
      </trkpt>
      <trkpt lat="48.28285" lon="3.14921">
        <ele>162.08</ele>
        <time>2019-03-30T11:09:11Z</time>
      </trkpt>
      <trkpt lat="48.28291" lon="3.14924">
        <ele>162.23</ele>
        <time>2019-03-30T11:09:16Z</time>
      </trkpt>
      <trkpt lat="48.28296" lon="3.14926">
        <ele>162.31</ele>
        <time>2019-03-30T11:09:21Z</time>
      </trkpt>
      <trkpt lat="48.28301" lon="3.14928">
        <ele>162.54</ele>
        <time>2019-03-30T11:09:26Z</time>
      </trkpt>
      <trkpt lat="48.28305" lon="3.14929">
        <ele>162.6</ele>
        <time>2019-03-30T11:09:31Z</time>
      </trkpt>
      <trkpt lat="48.28311" lon="3.14933">
        <ele>162.81</ele>
        <time>2019-03-30T11:09:36Z</time>
      </trkpt>
      <trkpt lat="48.28317" lon="3.14938">
        <ele>162.94</ele>
        <time>2019-03-30T11:09:41Z</time>
      </trkpt>
      <trkpt lat="48.28324" lon="3.14942">
        <ele>162.99</ele>
        <time>2019-03-30T11:09:46Z</time>
      </trkpt>
      <trkpt lat="48.28329" lon="3.14945">
        <ele>163.21</ele>
        <time>2019-03-30T11:09:51Z</time>
      </trkpt>
      <trkpt lat="48.28336" lon="3.14948">
        <ele>163.42</ele>
        <time>2019-03-30T11:09:56Z</time>
      </trkpt>
      <trkpt lat="48.2834" lon="3.14955">
        <ele>163.75</ele>
        <time>2019-03-30T11:10:01Z</time>
      </trkpt>
      <trkpt lat="48.28345" lon="3.14956">
        <ele>163.87</ele>
        <time>2019-03-30T11:10:06Z</time>
      </trkpt>
      <trkpt lat="48.28351" lon="3.14959">
        <ele>164.05</ele>
        <time>2019-03-30T11:10:11Z</time>
      </trkpt>
      <trkpt lat="48.28353" lon="3.14961">
        <ele>164.21</ele>
        <time>2019-03-30T11:10:16Z</time>
      </trkpt>
      <trkpt lat="48.28358" lon="3.14961">
        <ele>164.33</ele>
        <time>2019-03-30T11:10:21Z</time>
      </trkpt>
      <trkpt lat="48.28362" lon="3.14964">
        <ele>164.29</ele>
        <time>2019-03-30T11:10:26Z</time>
      </trkpt>
      <trkpt lat="48.28367" lon="3.14966">
        <ele>164.19</ele>
        <time>2019-03-30T11:10:31Z</time>
      </trkpt>
      <trkpt lat="48.28372" lon="3.1497">
        <ele>164.22</ele>
        <time>2019-03-30T11:10:36Z</time>
      </trkpt>
      <trkpt lat="48.28375" lon="3.14971">
        <ele>164.12</ele>
        <time>2019-03-30T11:10:41Z</time>
      </trkpt>
      <trkpt lat="48.28379" lon="3.14976">
        <ele>164.08</ele>
        <time>2019-03-30T11:10:46Z</time>
      </trkpt>
      <trkpt lat="48.28384" lon="3.1498">
        <ele>164.22</ele>
        <time>2019-03-30T11:10:51Z</time>
      </trkpt>
      <trkpt lat="48.28384" lon="3.14983">
        <ele>164.21</ele>
        <time>2019-03-30T11:10:56Z</time>
      </trkpt>
      <trkpt lat="48.28389" lon="3.14989">
        <ele>163.66</ele>
        <time>2019-03-30T12:11:56Z</time>
      </trkpt>
      <trkpt lat="48.28388" lon="3.14989">
        <ele>163.66</ele>
        <time>2019-03-30T12:12:01Z</time>
      </trkpt>
      <trkpt lat="48.28391" lon="3.14989">
        <ele>163.66</ele>
        <time>2019-03-30T12:12:06Z</time>
      </trkpt>
      <trkpt lat="48.28393" lon="3.14991">
        <ele>163.66</ele>
        <time>2019-03-30T12:12:11Z</time>
      </trkpt>
      <trkpt lat="48.28394" lon="3.14993">
        <ele>163.66</ele>
        <time>2019-03-30T12:12:16Z</time>
      </trkpt>
      <trkpt lat="48.28395" lon="3.14994">
        <ele>163.66</ele>
        <time>2019-03-30T12:12:21Z</time>
      </trkpt>
      <trkpt lat="48.28396" lon="3.14995">
        <ele>163.66</ele>
        <time>2019-03-30T12:12:26Z</time>
      </trkpt>
      <trkpt lat="48.28397" lon="3.14994">
        <ele>163.66</ele>
        <time>2019-03-30T12:12:31Z</time>
      </trkpt>
      <trkpt lat="48.28398" lon="3.14992">
        <ele>163.66</ele>
        <time>2019-03-30T12:12:36Z</time>
      </trkpt>
      <trkpt lat="48.28397" lon="3.14991">
        <ele>163.66</ele>
        <time>2019-03-30T12:12:41Z</time>
      </trkpt>
      <trkpt lat="48.28397" lon="3.14992">
        <ele>163.66</ele>
        <time>2019-03-30T12:12:46Z</time>
      </trkpt>
      <trkpt lat="48.28398" lon="3.1499">
        <ele>163.66</ele>
        <time>2019-03-30T12:12:51Z</time>
      </trkpt>
      <trkpt lat="48.28399" lon="3.14987">
        <ele>163.66</ele>
        <time>2019-03-30T12:12:56Z</time>
      </trkpt>
      <trkpt lat="48.28401" lon="3.14985">
        <ele>163.66</ele>
        <time>2019-03-30T12:13:01Z</time>
      </trkpt>
      <trkpt lat="48.28403" lon="3.14983">
        <ele>163.66</ele>
        <time>2019-03-30T12:14:46Z</time>
      </trkpt>
      <trkpt lat="48.28402" lon="3.14984">
        <ele>163.66</ele>
        <time>2019-03-30T12:14:51Z</time>
      </trkpt>
      <trkpt lat="48.28401" lon="3.14985">
        <ele>163.66</ele>
        <time>2019-03-30T12:14:56Z</time>
      </trkpt>
      <trkpt lat="48.28401" lon="3.14985">
        <ele>163.66</ele>
        <time>2019-03-30T12:15:01Z</time>
      </trkpt>
      <trkpt lat="48.28402" lon="3.14984">
        <ele>163.66</ele>
        <time>2019-03-30T12:15:06Z</time>
      </trkpt>
      <trkpt lat="48.28403" lon="3.14984">
        <ele>163.66</ele>
        <time>2019-03-30T12:15:11Z</time>
      </trkpt>
      <trkpt lat="48.28404" lon="3.14982">
        <ele>163.66</ele>
        <time>2019-03-30T12:15:21Z</time>
      </trkpt>
      <trkpt lat="48.28404" lon="3.14982">
        <ele>163.66</ele>
        <time>2019-03-30T12:15:26Z</time>
      </trkpt>
      <trkpt lat="48.28408" lon="3.14978">
        <ele>163.66</ele>
        <time>2019-03-30T12:15:41Z</time>
      </trkpt>
      <trkpt lat="48.2841" lon="3.14975">
        <ele>163.66</ele>
        <time>2019-03-30T12:15:46Z</time>
      </trkpt>
      <trkpt lat="48.28413" lon="3.14974">
        <ele>163.66</ele>
        <time>2019-03-30T12:15:51Z</time>
      </trkpt>
      <trkpt lat="48.28416" lon="3.14971">
        <ele>163.66</ele>
        <time>2019-03-30T12:15:56Z</time>
      </trkpt>
      <trkpt lat="48.2842" lon="3.14969">
        <ele>163.66</ele>
        <time>2019-03-30T12:16:01Z</time>
      </trkpt>
      <trkpt lat="48.28426" lon="3.14966">
        <ele>163.66</ele>
        <time>2019-03-30T12:16:06Z</time>
      </trkpt>
      <trkpt lat="48.28431" lon="3.14965">
        <ele>163.66</ele>
        <time>2019-03-30T12:16:11Z</time>
      </trkpt>
      <trkpt lat="48.28434" lon="3.14964">
        <ele>163.66</ele>
        <time>2019-03-30T12:16:16Z</time>
      </trkpt>
      <trkpt lat="48.28437" lon="3.1496">
        <ele>163.66</ele>
        <time>2019-03-30T12:16:21Z</time>
      </trkpt>
      <trkpt lat="48.28439" lon="3.14958">
        <ele>163.66</ele>
        <time>2019-03-30T12:16:26Z</time>
      </trkpt>
      <trkpt lat="48.28446" lon="3.14954">
        <ele>163.66</ele>
        <time>2019-03-30T12:16:31Z</time>
      </trkpt>
      <trkpt lat="48.28452" lon="3.14952">
        <ele>165.37</ele>
        <time>2019-03-30T12:16:36Z</time>
      </trkpt>
      <trkpt lat="48.28458" lon="3.14949">
        <ele>167.52</ele>
        <time>2019-03-30T12:16:41Z</time>
      </trkpt>
      <trkpt lat="48.28463" lon="3.14945">
        <ele>167.37</ele>
        <time>2019-03-30T12:16:46Z</time>
      </trkpt>
      <trkpt lat="48.28468" lon="3.14941">
        <ele>167.07</ele>
        <time>2019-03-30T12:16:51Z</time>
      </trkpt>
      <trkpt lat="48.28473" lon="3.14939">
        <ele>166.82</ele>
        <time>2019-03-30T12:16:56Z</time>
      </trkpt>
      <trkpt lat="48.28479" lon="3.14937">
        <ele>166.57</ele>
        <time>2019-03-30T12:17:01Z</time>
      </trkpt>
      <trkpt lat="48.28485" lon="3.14934">
        <ele>166.39</ele>
        <time>2019-03-30T12:17:06Z</time>
      </trkpt>
      <trkpt lat="48.2849" lon="3.14932">
        <ele>166.19</ele>
        <time>2019-03-30T12:17:11Z</time>
      </trkpt>
      <trkpt lat="48.28494" lon="3.14932">
        <ele>166.01</ele>
        <time>2019-03-30T12:17:16Z</time>
      </trkpt>
      <trkpt lat="48.28497" lon="3.14933">
        <ele>165.82</ele>
        <time>2019-03-30T12:17:21Z</time>
      </trkpt>
      <trkpt lat="48.28499" lon="3.14934">
        <ele>165.58</ele>
        <time>2019-03-30T12:17:26Z</time>
      </trkpt>
      <trkpt lat="48.28503" lon="3.14935">
        <ele>165.39</ele>
        <time>2019-03-30T12:17:31Z</time>
      </trkpt>
      <trkpt lat="48.28509" lon="3.14937">
        <ele>165.23</ele>
        <time>2019-03-30T12:17:36Z</time>
      </trkpt>
      <trkpt lat="48.28514" lon="3.14937">
        <ele>165.1</ele>
        <time>2019-03-30T12:17:41Z</time>
      </trkpt>
      <trkpt lat="48.28519" lon="3.14936">
        <ele>164.94</ele>
        <time>2019-03-30T12:17:46Z</time>
      </trkpt>
      <trkpt lat="48.28524" lon="3.14937">
        <ele>164.75</ele>
        <time>2019-03-30T12:17:51Z</time>
      </trkpt>
      <trkpt lat="48.28528" lon="3.14936">
        <ele>164.57</ele>
        <time>2019-03-30T12:17:56Z</time>
      </trkpt>
      <trkpt lat="48.28531" lon="3.14937">
        <ele>164.42</ele>
        <time>2019-03-30T12:18:01Z</time>
      </trkpt>
      <trkpt lat="48.28535" lon="3.14936">
        <ele>164.38</ele>
        <time>2019-03-30T12:18:06Z</time>
      </trkpt>
      <trkpt lat="48.28541" lon="3.14936">
        <ele>164.22</ele>
        <time>2019-03-30T12:18:11Z</time>
      </trkpt>
      <trkpt lat="48.28546" lon="3.14935">
        <ele>163.9</ele>
        <time>2019-03-30T12:18:16Z</time>
      </trkpt>
      <trkpt lat="48.2855" lon="3.14935">
        <ele>163.61</ele>
        <time>2019-03-30T12:18:21Z</time>
      </trkpt>
      <trkpt lat="48.28554" lon="3.14934">
        <ele>163.46</ele>
        <time>2019-03-30T12:18:26Z</time>
      </trkpt>
      <trkpt lat="48.28559" lon="3.14935">
        <ele>163.11</ele>
        <time>2019-03-30T12:18:31Z</time>
      </trkpt>
      <trkpt lat="48.28562" lon="3.14937">
        <ele>162.83</ele>
        <time>2019-03-30T12:18:36Z</time>
      </trkpt>
      <trkpt lat="48.28565" lon="3.14937">
        <ele>162.56</ele>
        <time>2019-03-30T12:18:41Z</time>
      </trkpt>
      <trkpt lat="48.28571" lon="3.14938">
        <ele>162.36</ele>
        <time>2019-03-30T12:18:46Z</time>
      </trkpt>
      <trkpt lat="48.28576" lon="3.1494">
        <ele>162.12</ele>
        <time>2019-03-30T12:18:51Z</time>
      </trkpt>
      <trkpt lat="48.28581" lon="3.14941">
        <ele>161.77</ele>
        <time>2019-03-30T12:18:56Z</time>
      </trkpt>
      <trkpt lat="48.28585" lon="3.14936">
        <ele>161.56</ele>
        <time>2019-03-30T12:19:01Z</time>
      </trkpt>
      <trkpt lat="48.28587" lon="3.14932">
        <ele>161.26</ele>
        <time>2019-03-30T12:19:06Z</time>
      </trkpt>
      <trkpt lat="48.28592" lon="3.14931">
        <ele>161.16</ele>
        <time>2019-03-30T12:19:11Z</time>
      </trkpt>
      <trkpt lat="48.28596" lon="3.14927">
        <ele>160.98</ele>
        <time>2019-03-30T12:19:16Z</time>
      </trkpt>
      <trkpt lat="48.28601" lon="3.14926">
        <ele>160.76</ele>
        <time>2019-03-30T12:19:21Z</time>
      </trkpt>
      <trkpt lat="48.28606" lon="3.14923">
        <ele>160.6</ele>
        <time>2019-03-30T12:19:26Z</time>
      </trkpt>
      <trkpt lat="48.28613" lon="3.1492">
        <ele>160.41</ele>
        <time>2019-03-30T12:19:31Z</time>
      </trkpt>
      <trkpt lat="48.28618" lon="3.14918">
        <ele>160.1</ele>
        <time>2019-03-30T12:19:36Z</time>
      </trkpt>
      <trkpt lat="48.2862" lon="3.14916">
        <ele>159.53</ele>
        <time>2019-03-30T12:19:41Z</time>
      </trkpt>
      <trkpt lat="48.28625" lon="3.14914">
        <ele>159.15</ele>
        <time>2019-03-30T12:19:46Z</time>
      </trkpt>
      <trkpt lat="48.28629" lon="3.14913">
        <ele>158.99</ele>
        <time>2019-03-30T12:19:51Z</time>
      </trkpt>
      <trkpt lat="48.28632" lon="3.14911">
        <ele>158.92</ele>
        <time>2019-03-30T12:19:56Z</time>
      </trkpt>
      <trkpt lat="48.28637" lon="3.14907">
        <ele>158.06</ele>
        <time>2019-03-30T12:20:01Z</time>
      </trkpt>
      <trkpt lat="48.28642" lon="3.14905">
        <ele>157.53</ele>
        <time>2019-03-30T12:20:06Z</time>
      </trkpt>
      <trkpt lat="48.28648" lon="3.14904">
        <ele>157.27</ele>
        <time>2019-03-30T12:20:11Z</time>
      </trkpt>
      <trkpt lat="48.28653" lon="3.149">
        <ele>156.88</ele>
        <time>2019-03-30T12:20:16Z</time>
      </trkpt>
      <trkpt lat="48.28658" lon="3.14897">
        <ele>156.62</ele>
        <time>2019-03-30T12:20:21Z</time>
      </trkpt>
      <trkpt lat="48.28662" lon="3.14892">
        <ele>156.26</ele>
        <time>2019-03-30T12:20:26Z</time>
      </trkpt>
      <trkpt lat="48.28668" lon="3.14889">
        <ele>155.9</ele>
        <time>2019-03-30T12:20:31Z</time>
      </trkpt>
      <trkpt lat="48.28673" lon="3.14886">
        <ele>155.65</ele>
        <time>2019-03-30T12:20:36Z</time>
      </trkpt>
      <trkpt lat="48.28679" lon="3.14883">
        <ele>155.39</ele>
        <time>2019-03-30T12:20:41Z</time>
      </trkpt>
      <trkpt lat="48.28683" lon="3.14879">
        <ele>154.88</ele>
        <time>2019-03-30T12:20:46Z</time>
      </trkpt>
      <trkpt lat="48.28687" lon="3.14874">
        <ele>154.37</ele>
        <time>2019-03-30T12:20:51Z</time>
      </trkpt>
      <trkpt lat="48.28692" lon="3.14871">
        <ele>153.99</ele>
        <time>2019-03-30T12:20:56Z</time>
      </trkpt>
      <trkpt lat="48.28696" lon="3.14868">
        <ele>153.62</ele>
        <time>2019-03-30T12:21:01Z</time>
      </trkpt>
      <trkpt lat="48.28701" lon="3.14865">
        <ele>153.16</ele>
        <time>2019-03-30T12:21:06Z</time>
      </trkpt>
      <trkpt lat="48.28705" lon="3.14864">
        <ele>152.9</ele>
        <time>2019-03-30T12:21:11Z</time>
      </trkpt>
      <trkpt lat="48.28709" lon="3.14862">
        <ele>152.61</ele>
        <time>2019-03-30T12:21:16Z</time>
      </trkpt>
      <trkpt lat="48.28714" lon="3.14862">
        <ele>152.15</ele>
        <time>2019-03-30T12:21:21Z</time>
      </trkpt>
      <trkpt lat="48.28718" lon="3.14861">
        <ele>151.72</ele>
        <time>2019-03-30T12:21:26Z</time>
      </trkpt>
      <trkpt lat="48.28724" lon="3.1486">
        <ele>151.25</ele>
        <time>2019-03-30T12:21:31Z</time>
      </trkpt>
      <trkpt lat="48.2873" lon="3.14858">
        <ele>150.64</ele>
        <time>2019-03-30T12:21:36Z</time>
      </trkpt>
      <trkpt lat="48.28735" lon="3.14855">
        <ele>150.32</ele>
        <time>2019-03-30T12:21:41Z</time>
      </trkpt>
      <trkpt lat="48.28739" lon="3.14853">
        <ele>149.83</ele>
        <time>2019-03-30T12:21:46Z</time>
      </trkpt>
      <trkpt lat="48.2874" lon="3.14852">
        <ele>149.52</ele>
        <time>2019-03-30T12:21:51Z</time>
      </trkpt>
      <trkpt lat="48.28743" lon="3.14851">
        <ele>149.09</ele>
        <time>2019-03-30T12:21:56Z</time>
      </trkpt>
      <trkpt lat="48.28745" lon="3.14848">
        <ele>148.69</ele>
        <time>2019-03-30T12:22:01Z</time>
      </trkpt>
      <trkpt lat="48.28747" lon="3.14847">
        <ele>148.56</ele>
        <time>2019-03-30T12:22:06Z</time>
      </trkpt>
      <trkpt lat="48.28746" lon="3.14846">
        <ele>148.5</ele>
        <time>2019-03-30T12:22:11Z</time>
      </trkpt>
      <trkpt lat="48.28748" lon="3.14846">
        <ele>148.33</ele>
        <time>2019-03-30T12:22:16Z</time>
      </trkpt>
      <trkpt lat="48.28752" lon="3.14846">
        <ele>148.17</ele>
        <time>2019-03-30T12:22:21Z</time>
      </trkpt>
      <trkpt lat="48.28758" lon="3.14844">
        <ele>147.48</ele>
        <time>2019-03-30T12:22:26Z</time>
      </trkpt>
      <trkpt lat="48.28763" lon="3.14841">
        <ele>146.82</ele>
        <time>2019-03-30T12:22:31Z</time>
      </trkpt>
      <trkpt lat="48.28769" lon="3.14842">
        <ele>146.29</ele>
        <time>2019-03-30T12:22:36Z</time>
      </trkpt>
      <trkpt lat="48.28776" lon="3.1484">
        <ele>145.99</ele>
        <time>2019-03-30T12:22:41Z</time>
      </trkpt>
      <trkpt lat="48.28782" lon="3.14837">
        <ele>145.64</ele>
        <time>2019-03-30T12:22:46Z</time>
      </trkpt>
      <trkpt lat="48.28787" lon="3.14835">
        <ele>145.44</ele>
        <time>2019-03-30T12:22:51Z</time>
      </trkpt>
      <trkpt lat="48.28791" lon="3.14833">
        <ele>145.22</ele>
        <time>2019-03-30T12:22:56Z</time>
      </trkpt>
      <trkpt lat="48.28795" lon="3.14832">
        <ele>144.84</ele>
        <time>2019-03-30T12:23:01Z</time>
      </trkpt>
      <trkpt lat="48.28798" lon="3.14828">
        <ele>144.72</ele>
        <time>2019-03-30T12:23:06Z</time>
      </trkpt>
      <trkpt lat="48.28802" lon="3.14825">
        <ele>144.61</ele>
        <time>2019-03-30T12:23:11Z</time>
      </trkpt>
      <trkpt lat="48.28807" lon="3.14824">
        <ele>144.43</ele>
        <time>2019-03-30T12:23:16Z</time>
      </trkpt>
      <trkpt lat="48.28812" lon="3.14823">
        <ele>144.41</ele>
        <time>2019-03-30T12:23:21Z</time>
      </trkpt>
      <trkpt lat="48.28816" lon="3.14821">
        <ele>144.17</ele>
        <time>2019-03-30T12:23:26Z</time>
      </trkpt>
      <trkpt lat="48.2882" lon="3.14823">
        <ele>143.74</ele>
        <time>2019-03-30T12:23:31Z</time>
      </trkpt>
      <trkpt lat="48.28823" lon="3.14829">
        <ele>143.61</ele>
        <time>2019-03-30T12:23:36Z</time>
      </trkpt>
      <trkpt lat="48.28827" lon="3.14833">
        <ele>143.55</ele>
        <time>2019-03-30T12:23:41Z</time>
      </trkpt>
      <trkpt lat="48.2883" lon="3.14838">
        <ele>143.5</ele>
        <time>2019-03-30T12:23:46Z</time>
      </trkpt>
      <trkpt lat="48.28834" lon="3.14844">
        <ele>143.35</ele>
        <time>2019-03-30T12:23:51Z</time>
      </trkpt>
      <trkpt lat="48.28839" lon="3.14849">
        <ele>143.22</ele>
        <time>2019-03-30T12:23:56Z</time>
      </trkpt>
      <trkpt lat="48.28843" lon="3.14856">
        <ele>143.11</ele>
        <time>2019-03-30T12:24:01Z</time>
      </trkpt>
      <trkpt lat="48.28848" lon="3.1486">
        <ele>143.08</ele>
        <time>2019-03-30T12:24:06Z</time>
      </trkpt>
      <trkpt lat="48.28851" lon="3.14866">
        <ele>143.09</ele>
        <time>2019-03-30T12:24:11Z</time>
      </trkpt>
      <trkpt lat="48.28855" lon="3.14871">
        <ele>143.02</ele>
        <time>2019-03-30T12:24:16Z</time>
      </trkpt>
      <trkpt lat="48.28857" lon="3.14878">
        <ele>142.8</ele>
        <time>2019-03-30T12:24:21Z</time>
      </trkpt>
      <trkpt lat="48.2886" lon="3.14884">
        <ele>142.84</ele>
        <time>2019-03-30T12:24:26Z</time>
      </trkpt>
      <trkpt lat="48.28862" lon="3.14889">
        <ele>142.9</ele>
        <time>2019-03-30T12:24:31Z</time>
      </trkpt>
      <trkpt lat="48.28867" lon="3.14895">
        <ele>142.87</ele>
        <time>2019-03-30T12:24:36Z</time>
      </trkpt>
      <trkpt lat="48.2887" lon="3.14898">
        <ele>142.84</ele>
        <time>2019-03-30T12:24:41Z</time>
      </trkpt>
      <trkpt lat="48.28874" lon="3.14901">
        <ele>142.8</ele>
        <time>2019-03-30T12:24:46Z</time>
      </trkpt>
      <trkpt lat="48.28877" lon="3.14908">
        <ele>142.72</ele>
        <time>2019-03-30T12:24:51Z</time>
      </trkpt>
      <trkpt lat="48.28881" lon="3.14915">
        <ele>142.57</ele>
        <time>2019-03-30T12:24:56Z</time>
      </trkpt>
      <trkpt lat="48.28884" lon="3.1492">
        <ele>142.54</ele>
        <time>2019-03-30T12:25:01Z</time>
      </trkpt>
      <trkpt lat="48.28887" lon="3.14927">
        <ele>142.54</ele>
        <time>2019-03-30T12:25:06Z</time>
      </trkpt>
      <trkpt lat="48.2889" lon="3.14933">
        <ele>142.54</ele>
        <time>2019-03-30T12:25:11Z</time>
      </trkpt>
      <trkpt lat="48.28892" lon="3.14938">
        <ele>142.58</ele>
        <time>2019-03-30T12:25:16Z</time>
      </trkpt>
      <trkpt lat="48.28894" lon="3.14944">
        <ele>142.46</ele>
        <time>2019-03-30T12:25:21Z</time>
      </trkpt>
      <trkpt lat="48.28896" lon="3.14953">
        <ele>142.35</ele>
        <time>2019-03-30T12:25:26Z</time>
      </trkpt>
      <trkpt lat="48.28898" lon="3.1496">
        <ele>142.3</ele>
        <time>2019-03-30T12:25:31Z</time>
      </trkpt>
      <trkpt lat="48.28899" lon="3.14967">
        <ele>142.3</ele>
        <time>2019-03-30T12:25:36Z</time>
      </trkpt>
      <trkpt lat="48.289" lon="3.14974">
        <ele>142.27</ele>
        <time>2019-03-30T12:25:41Z</time>
      </trkpt>
      <trkpt lat="48.28902" lon="3.14981">
        <ele>142.21</ele>
        <time>2019-03-30T12:25:46Z</time>
      </trkpt>
      <trkpt lat="48.28906" lon="3.14985">
        <ele>142.03</ele>
        <time>2019-03-30T12:25:51Z</time>
      </trkpt>
      <trkpt lat="48.28908" lon="3.14991">
        <ele>141.91</ele>
        <time>2019-03-30T12:25:56Z</time>
      </trkpt>
      <trkpt lat="48.28913" lon="3.14997">
        <ele>141.85</ele>
        <time>2019-03-30T12:26:01Z</time>
      </trkpt>
      <trkpt lat="48.28915" lon="3.15003">
        <ele>141.73</ele>
        <time>2019-03-30T12:26:06Z</time>
      </trkpt>
      <trkpt lat="48.28916" lon="3.15008">
        <ele>141.73</ele>
        <time>2019-03-30T12:26:11Z</time>
      </trkpt>
      <trkpt lat="48.28918" lon="3.15015">
        <ele>141.74</ele>
        <time>2019-03-30T12:26:16Z</time>
      </trkpt>
      <trkpt lat="48.2892" lon="3.1502">
        <ele>141.69</ele>
        <time>2019-03-30T12:26:21Z</time>
      </trkpt>
      <trkpt lat="48.28924" lon="3.15025">
        <ele>141.65</ele>
        <time>2019-03-30T12:26:26Z</time>
      </trkpt>
      <trkpt lat="48.28929" lon="3.1503">
        <ele>141.62</ele>
        <time>2019-03-30T12:26:31Z</time>
      </trkpt>
      <trkpt lat="48.28934" lon="3.15035">
        <ele>141.63</ele>
        <time>2019-03-30T12:26:36Z</time>
      </trkpt>
      <trkpt lat="48.28935" lon="3.1504">
        <ele>141.58</ele>
        <time>2019-03-30T12:26:41Z</time>
      </trkpt>
      <trkpt lat="48.28938" lon="3.15046">
        <ele>141.62</ele>
        <time>2019-03-30T12:26:46Z</time>
      </trkpt>
      <trkpt lat="48.28943" lon="3.15051">
        <ele>141.62</ele>
        <time>2019-03-30T12:26:51Z</time>
      </trkpt>
      <trkpt lat="48.28947" lon="3.15056">
        <ele>141.58</ele>
        <time>2019-03-30T12:26:56Z</time>
      </trkpt>
      <trkpt lat="48.28952" lon="3.15062">
        <ele>141.63</ele>
        <time>2019-03-30T12:27:01Z</time>
      </trkpt>
      <trkpt lat="48.28954" lon="3.15066">
        <ele>141.6</ele>
        <time>2019-03-30T12:27:06Z</time>
      </trkpt>
      <trkpt lat="48.28957" lon="3.15071">
        <ele>141.52</ele>
        <time>2019-03-30T12:27:11Z</time>
      </trkpt>
      <trkpt lat="48.28959" lon="3.15073">
        <ele>141.65</ele>
        <time>2019-03-30T12:27:16Z</time>
      </trkpt>
      <trkpt lat="48.28959" lon="3.15073">
        <ele>141.56</ele>
        <time>2019-03-30T12:27:21Z</time>
      </trkpt>
      <trkpt lat="48.28959" lon="3.15075">
        <ele>141.56</ele>
        <time>2019-03-30T12:27:26Z</time>
      </trkpt>
      <trkpt lat="48.28959" lon="3.15076">
        <ele>141.56</ele>
        <time>2019-03-30T12:27:31Z</time>
      </trkpt>
      <trkpt lat="48.2896" lon="3.15076">
        <ele>141.56</ele>
        <time>2019-03-30T12:27:36Z</time>
      </trkpt>
      <trkpt lat="48.2896" lon="3.15077">
        <ele>141.56</ele>
        <time>2019-03-30T12:27:41Z</time>
      </trkpt>
      <trkpt lat="48.2896" lon="3.15078">
        <ele>141.56</ele>
        <time>2019-03-30T12:27:46Z</time>
      </trkpt>
      <trkpt lat="48.28959" lon="3.15077">
        <ele>141.56</ele>
        <time>2019-03-30T12:27:51Z</time>
      </trkpt>
      <trkpt lat="48.28962" lon="3.15075">
        <ele>141.56</ele>
        <time>2019-03-30T12:27:56Z</time>
      </trkpt>
      <trkpt lat="48.28963" lon="3.15075">
        <ele>141.72</ele>
        <time>2019-03-30T12:28:01Z</time>
      </trkpt>
      <trkpt lat="48.28964" lon="3.15074">
        <ele>141.91</ele>
        <time>2019-03-30T12:28:06Z</time>
      </trkpt>
      <trkpt lat="48.28963" lon="3.15076">
        <ele>141.96</ele>
        <time>2019-03-30T12:28:11Z</time>
      </trkpt>
      <trkpt lat="48.28963" lon="3.15076">
        <ele>141.73</ele>
        <time>2019-03-30T12:28:16Z</time>
      </trkpt>
      <trkpt lat="48.28964" lon="3.15075">
        <ele>141.6</ele>
        <time>2019-03-30T12:28:21Z</time>
      </trkpt>
      <trkpt lat="48.28964" lon="3.15074">
        <ele>141.62</ele>
        <time>2019-03-30T12:28:26Z</time>
      </trkpt>
      <trkpt lat="48.28963" lon="3.15076">
        <ele>141.63</ele>
        <time>2019-03-30T12:28:31Z</time>
      </trkpt>
      <trkpt lat="48.28959" lon="3.15083">
        <ele>141.61</ele>
        <time>2019-03-30T12:28:36Z</time>
      </trkpt>
      <trkpt lat="48.28962" lon="3.15086">
        <ele>141.49</ele>
        <time>2019-03-30T12:28:41Z</time>
      </trkpt>
      <trkpt lat="48.28963" lon="3.15089">
        <ele>141.22</ele>
        <time>2019-03-30T12:28:46Z</time>
      </trkpt>
      <trkpt lat="48.28964" lon="3.15089">
        <ele>141.18</ele>
        <time>2019-03-30T12:28:51Z</time>
      </trkpt>
      <trkpt lat="48.28965" lon="3.15089">
        <ele>141.31</ele>
        <time>2019-03-30T12:28:56Z</time>
      </trkpt>
      <trkpt lat="48.28969" lon="3.15091">
        <ele>141.24</ele>
        <time>2019-03-30T12:29:01Z</time>
      </trkpt>
      <trkpt lat="48.2897" lon="3.15089">
        <ele>141.18</ele>
        <time>2019-03-30T12:29:06Z</time>
      </trkpt>
      <trkpt lat="48.2897" lon="3.1509">
        <ele>141.17</ele>
        <time>2019-03-30T12:29:11Z</time>
      </trkpt>
      <trkpt lat="48.28969" lon="3.15091">
        <ele>141.15</ele>
        <time>2019-03-30T12:29:16Z</time>
      </trkpt>
      <trkpt lat="48.28968" lon="3.15091">
        <ele>141.14</ele>
        <time>2019-03-30T12:29:21Z</time>
      </trkpt>
      <trkpt lat="48.28968" lon="3.15089">
        <ele>141.02</ele>
        <time>2019-03-30T12:29:26Z</time>
      </trkpt>
      <trkpt lat="48.28968" lon="3.15089">
        <ele>140.94</ele>
        <time>2019-03-30T12:29:31Z</time>
      </trkpt>
      <trkpt lat="48.28969" lon="3.15091">
        <ele>140.96</ele>
        <time>2019-03-30T12:29:36Z</time>
      </trkpt>
      <trkpt lat="48.2897" lon="3.15092">
        <ele>140.9</ele>
        <time>2019-03-30T12:29:41Z</time>
      </trkpt>
      <trkpt lat="48.28971" lon="3.15091">
        <ele>140.9</ele>
        <time>2019-03-30T12:29:46Z</time>
      </trkpt>
      <trkpt lat="48.2897" lon="3.15092">
        <ele>140.84</ele>
        <time>2019-03-30T12:29:51Z</time>
      </trkpt>
      <trkpt lat="48.28969" lon="3.15097">
        <ele>140.89</ele>
        <time>2019-03-30T12:29:56Z</time>
      </trkpt>
      <trkpt lat="48.28969" lon="3.15102">
        <ele>141.56</ele>
        <time>2019-03-30T12:30:01Z</time>
      </trkpt>
      <trkpt lat="48.28969" lon="3.15101">
        <ele>141.85</ele>
        <time>2019-03-30T12:30:06Z</time>
      </trkpt>
      <trkpt lat="48.28968" lon="3.15099">
        <ele>141.78</ele>
        <time>2019-03-30T12:30:11Z</time>
      </trkpt>
      <trkpt lat="48.28968" lon="3.15098">
        <ele>141.31</ele>
        <time>2019-03-30T12:30:16Z</time>
      </trkpt>
      <trkpt lat="48.28968" lon="3.15098">
        <ele>141.22</ele>
        <time>2019-03-30T12:30:21Z</time>
      </trkpt>
      <trkpt lat="48.28968" lon="3.15097">
        <ele>141.36</ele>
        <time>2019-03-30T12:30:26Z</time>
      </trkpt>
      <trkpt lat="48.28969" lon="3.15096">
        <ele>141.35</ele>
        <time>2019-03-30T12:30:31Z</time>
      </trkpt>
      <trkpt lat="48.2897" lon="3.15098">
        <ele>141.35</ele>
        <time>2019-03-30T12:30:36Z</time>
      </trkpt>
      <trkpt lat="48.28972" lon="3.15096">
        <ele>141.32</ele>
        <time>2019-03-30T12:30:41Z</time>
      </trkpt>
      <trkpt lat="48.28973" lon="3.15096">
        <ele>141.33</ele>
        <time>2019-03-30T12:30:46Z</time>
      </trkpt>
      <trkpt lat="48.28974" lon="3.15097">
        <ele>141.16</ele>
        <time>2019-03-30T12:30:51Z</time>
      </trkpt>
      <trkpt lat="48.28975" lon="3.15098">
        <ele>141.49</ele>
        <time>2019-03-30T12:30:56Z</time>
      </trkpt>
      <trkpt lat="48.28977" lon="3.15099">
        <ele>141.21</ele>
        <time>2019-03-30T12:31:01Z</time>
      </trkpt>
      <trkpt lat="48.28978" lon="3.15097">
        <ele>141.21</ele>
        <time>2019-03-30T12:31:06Z</time>
      </trkpt>
      <trkpt lat="48.28978" lon="3.15097">
        <ele>141.25</ele>
        <time>2019-03-30T12:31:11Z</time>
      </trkpt>
      <trkpt lat="48.28978" lon="3.15097">
        <ele>141.23</ele>
        <time>2019-03-30T12:31:16Z</time>
      </trkpt>
      <trkpt lat="48.28979" lon="3.15097">
        <ele>141.28</ele>
        <time>2019-03-30T12:31:21Z</time>
      </trkpt>
      <trkpt lat="48.28979" lon="3.15097">
        <ele>141.27</ele>
        <time>2019-03-30T12:31:26Z</time>
      </trkpt>
      <trkpt lat="48.28979" lon="3.15096">
        <ele>141.26</ele>
        <time>2019-03-30T12:31:31Z</time>
      </trkpt>
      <trkpt lat="48.2898" lon="3.15096">
        <ele>141.3</ele>
        <time>2019-03-30T12:31:36Z</time>
      </trkpt>
      <trkpt lat="48.28979" lon="3.15097">
        <ele>141.32</ele>
        <time>2019-03-30T12:31:41Z</time>
      </trkpt>
      <trkpt lat="48.28977" lon="3.15098">
        <ele>141.27</ele>
        <time>2019-03-30T12:31:46Z</time>
      </trkpt>
      <trkpt lat="48.28976" lon="3.15101">
        <ele>141.47</ele>
        <time>2019-03-30T12:31:51Z</time>
      </trkpt>
      <trkpt lat="48.28973" lon="3.15102">
        <ele>141.39</ele>
        <time>2019-03-30T12:31:56Z</time>
      </trkpt>
      <trkpt lat="48.28972" lon="3.15103">
        <ele>141.46</ele>
        <time>2019-03-30T12:32:01Z</time>
      </trkpt>
      <trkpt lat="48.28971" lon="3.15103">
        <ele>141.48</ele>
        <time>2019-03-30T12:32:06Z</time>
      </trkpt>
      <trkpt lat="48.28971" lon="3.15102">
        <ele>141.6</ele>
        <time>2019-03-30T12:32:11Z</time>
      </trkpt>
      <trkpt lat="48.28973" lon="3.15102">
        <ele>141.8</ele>
        <time>2019-03-30T12:32:16Z</time>
      </trkpt>
      <trkpt lat="48.28974" lon="3.15103">
        <ele>141.83</ele>
        <time>2019-03-30T12:32:21Z</time>
      </trkpt>
      <trkpt lat="48.28976" lon="3.15103">
        <ele>141.79</ele>
        <time>2019-03-30T12:32:26Z</time>
      </trkpt>
      <trkpt lat="48.28977" lon="3.15103">
        <ele>141.77</ele>
        <time>2019-03-30T12:32:31Z</time>
      </trkpt>
      <trkpt lat="48.28978" lon="3.15104">
        <ele>141.81</ele>
        <time>2019-03-30T12:32:36Z</time>
      </trkpt>
      <trkpt lat="48.28977" lon="3.15103">
        <ele>141.83</ele>
        <time>2019-03-30T12:32:41Z</time>
      </trkpt>
      <trkpt lat="48.28978" lon="3.15104">
        <ele>141.81</ele>
        <time>2019-03-30T12:32:46Z</time>
      </trkpt>
      <trkpt lat="48.28979" lon="3.15104">
        <ele>141.84</ele>
        <time>2019-03-30T12:32:51Z</time>
      </trkpt>
      <trkpt lat="48.28978" lon="3.15103">
        <ele>141.88</ele>
        <time>2019-03-30T12:32:56Z</time>
      </trkpt>
      <trkpt lat="48.28979" lon="3.15103">
        <ele>142.01</ele>
        <time>2019-03-30T12:33:01Z</time>
      </trkpt>
      <trkpt lat="48.2898" lon="3.15103">
        <ele>141.99</ele>
        <time>2019-03-30T12:33:06Z</time>
      </trkpt>
      <trkpt lat="48.28982" lon="3.15103">
        <ele>141.88</ele>
        <time>2019-03-30T12:33:11Z</time>
      </trkpt>
      <trkpt lat="48.28983" lon="3.15104">
        <ele>141.88</ele>
        <time>2019-03-30T12:33:16Z</time>
      </trkpt>
      <trkpt lat="48.28985" lon="3.15105">
        <ele>141.88</ele>
        <time>2019-03-30T12:33:21Z</time>
      </trkpt>
      <trkpt lat="48.28986" lon="3.15107">
        <ele>141.88</ele>
        <time>2019-03-30T12:33:26Z</time>
      </trkpt>
      <trkpt lat="48.28987" lon="3.15109">
        <ele>141.88</ele>
        <time>2019-03-30T12:33:31Z</time>
      </trkpt>
      <trkpt lat="48.28987" lon="3.1511">
        <ele>141.88</ele>
        <time>2019-03-30T12:33:36Z</time>
      </trkpt>
      <trkpt lat="48.28989" lon="3.15115">
        <ele>141.88</ele>
        <time>2019-03-30T12:33:41Z</time>
      </trkpt>
      <trkpt lat="48.28993" lon="3.15117">
        <ele>141.88</ele>
        <time>2019-03-30T12:33:46Z</time>
      </trkpt>
      <trkpt lat="48.28994" lon="3.1512">
        <ele>141.88</ele>
        <time>2019-03-30T12:33:51Z</time>
      </trkpt>
      <trkpt lat="48.28997" lon="3.15124">
        <ele>141.88</ele>
        <time>2019-03-30T12:33:56Z</time>
      </trkpt>
      <trkpt lat="48.29003" lon="3.15129">
        <ele>141.88</ele>
        <time>2019-03-30T12:34:01Z</time>
      </trkpt>
      <trkpt lat="48.29007" lon="3.15132">
        <ele>141.88</ele>
        <time>2019-03-30T12:34:06Z</time>
      </trkpt>
      <trkpt lat="48.29011" lon="3.15137">
        <ele>141.43</ele>
        <time>2019-03-30T12:34:11Z</time>
      </trkpt>
      <trkpt lat="48.29015" lon="3.15143">
        <ele>141.27</ele>
        <time>2019-03-30T12:34:16Z</time>
      </trkpt>
      <trkpt lat="48.29018" lon="3.1515">
        <ele>141.25</ele>
        <time>2019-03-30T12:34:21Z</time>
      </trkpt>
      <trkpt lat="48.29019" lon="3.15155">
        <ele>141.08</ele>
        <time>2019-03-30T12:34:26Z</time>
      </trkpt>
      <trkpt lat="48.29021" lon="3.15159">
        <ele>141.07</ele>
        <time>2019-03-30T12:34:31Z</time>
      </trkpt>
      <trkpt lat="48.29024" lon="3.15164">
        <ele>140.99</ele>
        <time>2019-03-30T12:34:36Z</time>
      </trkpt>
      <trkpt lat="48.29026" lon="3.15169">
        <ele>140.98</ele>
        <time>2019-03-30T12:34:41Z</time>
      </trkpt>
      <trkpt lat="48.29028" lon="3.15174">
        <ele>141.02</ele>
        <time>2019-03-30T12:34:46Z</time>
      </trkpt>
      <trkpt lat="48.29032" lon="3.15179">
        <ele>140.99</ele>
        <time>2019-03-30T12:34:51Z</time>
      </trkpt>
      <trkpt lat="48.29037" lon="3.15181">
        <ele>140.98</ele>
        <time>2019-03-30T12:34:56Z</time>
      </trkpt>
      <trkpt lat="48.2904" lon="3.15185">
        <ele>140.97</ele>
        <time>2019-03-30T12:35:01Z</time>
      </trkpt>
      <trkpt lat="48.29043" lon="3.15191">
        <ele>140.98</ele>
        <time>2019-03-30T12:35:06Z</time>
      </trkpt>
      <trkpt lat="48.29046" lon="3.15197">
        <ele>141</ele>
        <time>2019-03-30T12:35:11Z</time>
      </trkpt>
      <trkpt lat="48.2905" lon="3.15201">
        <ele>141</ele>
        <time>2019-03-30T12:35:16Z</time>
      </trkpt>
      <trkpt lat="48.29053" lon="3.15206">
        <ele>140.93</ele>
        <time>2019-03-30T12:35:21Z</time>
      </trkpt>
      <trkpt lat="48.29056" lon="3.15211">
        <ele>140.84</ele>
        <time>2019-03-30T12:35:26Z</time>
      </trkpt>
      <trkpt lat="48.2906" lon="3.15217">
        <ele>140.77</ele>
        <time>2019-03-30T12:35:31Z</time>
      </trkpt>
      <trkpt lat="48.29067" lon="3.15221">
        <ele>140.73</ele>
        <time>2019-03-30T12:35:36Z</time>
      </trkpt>
      <trkpt lat="48.29071" lon="3.15225">
        <ele>140.71</ele>
        <time>2019-03-30T12:35:41Z</time>
      </trkpt>
      <trkpt lat="48.29074" lon="3.1523">
        <ele>140.66</ele>
        <time>2019-03-30T12:35:46Z</time>
      </trkpt>
      <trkpt lat="48.29077" lon="3.15238">
        <ele>140.59</ele>
        <time>2019-03-30T12:35:51Z</time>
      </trkpt>
      <trkpt lat="48.2908" lon="3.15244">
        <ele>140.53</ele>
        <time>2019-03-30T12:35:56Z</time>
      </trkpt>
      <trkpt lat="48.29078" lon="3.15252">
        <ele>140.53</ele>
        <time>2019-03-30T12:36:01Z</time>
      </trkpt>
      <trkpt lat="48.29078" lon="3.15262">
        <ele>140.47</ele>
        <time>2019-03-30T12:36:06Z</time>
      </trkpt>
      <trkpt lat="48.2908" lon="3.1527">
        <ele>140.46</ele>
        <time>2019-03-30T12:36:11Z</time>
      </trkpt>
      <trkpt lat="48.29083" lon="3.15276">
        <ele>140.49</ele>
        <time>2019-03-30T12:36:16Z</time>
      </trkpt>
      <trkpt lat="48.29085" lon="3.15282">
        <ele>140.52</ele>
        <time>2019-03-30T12:36:21Z</time>
      </trkpt>
      <trkpt lat="48.29085" lon="3.15292">
        <ele>140.36</ele>
        <time>2019-03-30T12:36:26Z</time>
      </trkpt>
      <trkpt lat="48.29085" lon="3.153">
        <ele>140.25</ele>
        <time>2019-03-30T12:36:31Z</time>
      </trkpt>
      <trkpt lat="48.29084" lon="3.15306">
        <ele>140.22</ele>
        <time>2019-03-30T12:36:36Z</time>
      </trkpt>
      <trkpt lat="48.29086" lon="3.15312">
        <ele>140.1</ele>
        <time>2019-03-30T12:36:41Z</time>
      </trkpt>
      <trkpt lat="48.29088" lon="3.15319">
        <ele>139.99</ele>
        <time>2019-03-30T12:36:46Z</time>
      </trkpt>
      <trkpt lat="48.29091" lon="3.15324">
        <ele>139.93</ele>
        <time>2019-03-30T12:36:51Z</time>
      </trkpt>
      <trkpt lat="48.29093" lon="3.15332">
        <ele>139.82</ele>
        <time>2019-03-30T12:36:56Z</time>
      </trkpt>
      <trkpt lat="48.29095" lon="3.15339">
        <ele>139.74</ele>
        <time>2019-03-30T12:37:01Z</time>
      </trkpt>
      <trkpt lat="48.29097" lon="3.15345">
        <ele>139.58</ele>
        <time>2019-03-30T12:37:06Z</time>
      </trkpt>
      <trkpt lat="48.29097" lon="3.15352">
        <ele>139.41</ele>
        <time>2019-03-30T12:37:11Z</time>
      </trkpt>
      <trkpt lat="48.291" lon="3.15359">
        <ele>139.06</ele>
        <time>2019-03-30T12:37:16Z</time>
      </trkpt>
      <trkpt lat="48.29101" lon="3.15366">
        <ele>138.89</ele>
        <time>2019-03-30T12:37:21Z</time>
      </trkpt>
      <trkpt lat="48.29102" lon="3.15373">
        <ele>138.7</ele>
        <time>2019-03-30T12:37:26Z</time>
      </trkpt>
      <trkpt lat="48.29103" lon="3.15378">
        <ele>138.5</ele>
        <time>2019-03-30T12:37:31Z</time>
      </trkpt>
      <trkpt lat="48.29103" lon="3.15385">
        <ele>138.36</ele>
        <time>2019-03-30T12:37:36Z</time>
      </trkpt>
      <trkpt lat="48.29104" lon="3.15391">
        <ele>138.14</ele>
        <time>2019-03-30T12:37:41Z</time>
      </trkpt>
      <trkpt lat="48.29107" lon="3.15399">
        <ele>137.96</ele>
        <time>2019-03-30T12:37:46Z</time>
      </trkpt>
      <trkpt lat="48.29109" lon="3.15405">
        <ele>137.75</ele>
        <time>2019-03-30T12:37:51Z</time>
      </trkpt>
      <trkpt lat="48.2911" lon="3.15414">
        <ele>137.56</ele>
        <time>2019-03-30T12:37:56Z</time>
      </trkpt>
      <trkpt lat="48.29111" lon="3.15422">
        <ele>137.38</ele>
        <time>2019-03-30T12:38:01Z</time>
      </trkpt>
      <trkpt lat="48.29112" lon="3.15431">
        <ele>137.28</ele>
        <time>2019-03-30T12:38:06Z</time>
      </trkpt>
      <trkpt lat="48.29114" lon="3.15437">
        <ele>137.17</ele>
        <time>2019-03-30T12:38:11Z</time>
      </trkpt>
      <trkpt lat="48.29114" lon="3.15445">
        <ele>136.94</ele>
        <time>2019-03-30T12:38:16Z</time>
      </trkpt>
      <trkpt lat="48.29114" lon="3.15448">
        <ele>136.89</ele>
        <time>2019-03-30T12:38:21Z</time>
      </trkpt>
      <trkpt lat="48.29114" lon="3.15449">
        <ele>137.03</ele>
        <time>2019-03-30T12:38:26Z</time>
      </trkpt>
      <trkpt lat="48.29113" lon="3.15455">
        <ele>137.04</ele>
        <time>2019-03-30T12:38:31Z</time>
      </trkpt>
      <trkpt lat="48.29117" lon="3.15457">
        <ele>136.93</ele>
        <time>2019-03-30T12:38:36Z</time>
      </trkpt>
      <trkpt lat="48.29121" lon="3.15459">
        <ele>136.85</ele>
        <time>2019-03-30T12:38:41Z</time>
      </trkpt>
      <trkpt lat="48.29125" lon="3.15458">
        <ele>136.88</ele>
        <time>2019-03-30T12:38:46Z</time>
      </trkpt>
      <trkpt lat="48.29129" lon="3.15456">
        <ele>136.91</ele>
        <time>2019-03-30T12:38:51Z</time>
      </trkpt>
      <trkpt lat="48.29132" lon="3.15454">
        <ele>137.12</ele>
        <time>2019-03-30T12:38:56Z</time>
      </trkpt>
      <trkpt lat="48.29136" lon="3.15454">
        <ele>137.22</ele>
        <time>2019-03-30T12:39:01Z</time>
      </trkpt>
      <trkpt lat="48.29141" lon="3.15453">
        <ele>137.27</ele>
        <time>2019-03-30T12:39:06Z</time>
      </trkpt>
      <trkpt lat="48.29146" lon="3.15453">
        <ele>137.54</ele>
        <time>2019-03-30T12:39:11Z</time>
      </trkpt>
      <trkpt lat="48.29149" lon="3.15453">
        <ele>137.82</ele>
        <time>2019-03-30T12:39:16Z</time>
      </trkpt>
      <trkpt lat="48.29152" lon="3.15452">
        <ele>138.14</ele>
        <time>2019-03-30T12:39:21Z</time>
      </trkpt>
      <trkpt lat="48.29154" lon="3.1545">
        <ele>138.35</ele>
        <time>2019-03-30T12:39:26Z</time>
      </trkpt>
      <trkpt lat="48.29155" lon="3.15451">
        <ele>138.6</ele>
        <time>2019-03-30T12:39:31Z</time>
      </trkpt>
      <trkpt lat="48.29156" lon="3.15451">
        <ele>139.14</ele>
        <time>2019-03-30T12:39:36Z</time>
      </trkpt>
      <trkpt lat="48.29159" lon="3.15451">
        <ele>139.82</ele>
        <time>2019-03-30T12:39:41Z</time>
      </trkpt>
      <trkpt lat="48.29168" lon="3.15455">
        <ele>140.46</ele>
        <time>2019-03-30T12:39:46Z</time>
      </trkpt>
      <trkpt lat="48.29173" lon="3.15456">
        <ele>141.07</ele>
        <time>2019-03-30T12:39:51Z</time>
      </trkpt>
      <trkpt lat="48.29177" lon="3.15456">
        <ele>141.91</ele>
        <time>2019-03-30T12:39:56Z</time>
      </trkpt>
      <trkpt lat="48.2918" lon="3.15457">
        <ele>142.55</ele>
        <time>2019-03-30T12:40:01Z</time>
      </trkpt>
      <trkpt lat="48.29182" lon="3.15459">
        <ele>143.31</ele>
        <time>2019-03-30T12:40:06Z</time>
      </trkpt>
      <trkpt lat="48.29187" lon="3.1546">
        <ele>143.72</ele>
        <time>2019-03-30T12:40:11Z</time>
      </trkpt>
      <trkpt lat="48.29195" lon="3.15462">
        <ele>144.26</ele>
        <time>2019-03-30T12:40:16Z</time>
      </trkpt>
      <trkpt lat="48.29201" lon="3.15461">
        <ele>144.89</ele>
        <time>2019-03-30T12:40:21Z</time>
      </trkpt>
      <trkpt lat="48.29205" lon="3.1546">
        <ele>145.5</ele>
        <time>2019-03-30T12:40:26Z</time>
      </trkpt>
      <trkpt lat="48.29209" lon="3.1546">
        <ele>145.99</ele>
        <time>2019-03-30T12:40:31Z</time>
      </trkpt>
      <trkpt lat="48.29214" lon="3.15459">
        <ele>146.42</ele>
        <time>2019-03-30T12:40:36Z</time>
      </trkpt>
      <trkpt lat="48.29218" lon="3.15461">
        <ele>146.86</ele>
        <time>2019-03-30T12:40:41Z</time>
      </trkpt>
      <trkpt lat="48.29223" lon="3.15461">
        <ele>147.26</ele>
        <time>2019-03-30T12:40:46Z</time>
      </trkpt>
      <trkpt lat="48.29227" lon="3.15462">
        <ele>147.8</ele>
        <time>2019-03-30T12:40:51Z</time>
      </trkpt>
      <trkpt lat="48.29231" lon="3.15461">
        <ele>148.27</ele>
        <time>2019-03-30T12:40:56Z</time>
      </trkpt>
      <trkpt lat="48.29234" lon="3.15458">
        <ele>148.59</ele>
        <time>2019-03-30T12:41:01Z</time>
      </trkpt>
      <trkpt lat="48.29237" lon="3.15454">
        <ele>149.02</ele>
        <time>2019-03-30T12:41:06Z</time>
      </trkpt>
      <trkpt lat="48.2924" lon="3.15451">
        <ele>149.41</ele>
        <time>2019-03-30T12:41:11Z</time>
      </trkpt>
      <trkpt lat="48.29244" lon="3.15448">
        <ele>149.78</ele>
        <time>2019-03-30T12:41:16Z</time>
      </trkpt>
      <trkpt lat="48.2925" lon="3.15447">
        <ele>150.18</ele>
        <time>2019-03-30T12:41:21Z</time>
      </trkpt>
      <trkpt lat="48.29255" lon="3.15447">
        <ele>150.47</ele>
        <time>2019-03-30T12:41:26Z</time>
      </trkpt>
      <trkpt lat="48.2926" lon="3.15449">
        <ele>150.97</ele>
        <time>2019-03-30T12:41:31Z</time>
      </trkpt>
      <trkpt lat="48.29264" lon="3.15449">
        <ele>151.31</ele>
        <time>2019-03-30T12:41:36Z</time>
      </trkpt>
      <trkpt lat="48.29269" lon="3.1545">
        <ele>152.11</ele>
        <time>2019-03-30T12:41:41Z</time>
      </trkpt>
      <trkpt lat="48.29273" lon="3.15448">
        <ele>152.38</ele>
        <time>2019-03-30T12:41:46Z</time>
      </trkpt>
      <trkpt lat="48.29276" lon="3.15446">
        <ele>152.79</ele>
        <time>2019-03-30T12:41:51Z</time>
      </trkpt>
      <trkpt lat="48.2928" lon="3.15445">
        <ele>153.29</ele>
        <time>2019-03-30T12:41:56Z</time>
      </trkpt>
      <trkpt lat="48.29282" lon="3.15446">
        <ele>153.62</ele>
        <time>2019-03-30T12:42:01Z</time>
      </trkpt>
      <trkpt lat="48.29287" lon="3.15445">
        <ele>154.12</ele>
        <time>2019-03-30T12:42:06Z</time>
      </trkpt>
      <trkpt lat="48.29291" lon="3.15443">
        <ele>154.59</ele>
        <time>2019-03-30T12:42:11Z</time>
      </trkpt>
      <trkpt lat="48.29296" lon="3.15442">
        <ele>155.01</ele>
        <time>2019-03-30T12:42:16Z</time>
      </trkpt>
      <trkpt lat="48.29297" lon="3.15441">
        <ele>155.11</ele>
        <time>2019-03-30T12:42:21Z</time>
      </trkpt>
      <trkpt lat="48.29297" lon="3.15441">
        <ele>155.21</ele>
        <time>2019-03-30T12:42:26Z</time>
      </trkpt>
      <trkpt lat="48.29299" lon="3.15441">
        <ele>155.28</ele>
        <time>2019-03-30T12:42:31Z</time>
      </trkpt>
      <trkpt lat="48.29302" lon="3.1544">
        <ele>155.36</ele>
        <time>2019-03-30T12:42:36Z</time>
      </trkpt>
      <trkpt lat="48.29302" lon="3.15438">
        <ele>155.42</ele>
        <time>2019-03-30T12:42:41Z</time>
      </trkpt>
      <trkpt lat="48.29302" lon="3.15438">
        <ele>155.43</ele>
        <time>2019-03-30T12:42:46Z</time>
      </trkpt>
      <trkpt lat="48.29303" lon="3.1544">
        <ele>155.48</ele>
        <time>2019-03-30T12:42:51Z</time>
      </trkpt>
      <trkpt lat="48.29305" lon="3.1544">
        <ele>155.49</ele>
        <time>2019-03-30T12:42:56Z</time>
      </trkpt>
      <trkpt lat="48.29303" lon="3.15442">
        <ele>155.53</ele>
        <time>2019-03-30T12:43:01Z</time>
      </trkpt>
      <trkpt lat="48.29303" lon="3.15442">
        <ele>155.53</ele>
        <time>2019-03-30T12:43:06Z</time>
      </trkpt>
      <trkpt lat="48.29302" lon="3.15443">
        <ele>155.57</ele>
        <time>2019-03-30T12:43:11Z</time>
      </trkpt>
      <trkpt lat="48.29299" lon="3.15444">
        <ele>155.66</ele>
        <time>2019-03-30T12:43:16Z</time>
      </trkpt>
      <trkpt lat="48.29298" lon="3.15443">
        <ele>155.75</ele>
        <time>2019-03-30T12:43:21Z</time>
      </trkpt>
      <trkpt lat="48.29297" lon="3.15444">
        <ele>155.77</ele>
        <time>2019-03-30T12:43:26Z</time>
      </trkpt>
      <trkpt lat="48.29298" lon="3.15446">
        <ele>155.79</ele>
        <time>2019-03-30T12:43:31Z</time>
      </trkpt>
      <trkpt lat="48.29297" lon="3.15448">
        <ele>155.78</ele>
        <time>2019-03-30T12:43:36Z</time>
      </trkpt>
      <trkpt lat="48.29298" lon="3.15449">
        <ele>155.66</ele>
        <time>2019-03-30T12:43:41Z</time>
      </trkpt>
      <trkpt lat="48.29299" lon="3.1545">
        <ele>155.55</ele>
        <time>2019-03-30T12:43:46Z</time>
      </trkpt>
      <trkpt lat="48.293" lon="3.1545">
        <ele>155.37</ele>
        <time>2019-03-30T12:43:51Z</time>
      </trkpt>
      <trkpt lat="48.29299" lon="3.15451">
        <ele>155.37</ele>
        <time>2019-03-30T12:43:56Z</time>
      </trkpt>
      <trkpt lat="48.293" lon="3.15451">
        <ele>155.37</ele>
        <time>2019-03-30T12:44:01Z</time>
      </trkpt>
      <trkpt lat="48.293" lon="3.1545">
        <ele>155.37</ele>
        <time>2019-03-30T12:44:06Z</time>
      </trkpt>
      <trkpt lat="48.293" lon="3.15449">
        <ele>155.37</ele>
        <time>2019-03-30T12:44:11Z</time>
      </trkpt>
      <trkpt lat="48.29298" lon="3.15447">
        <ele>155.37</ele>
        <time>2019-03-30T12:44:16Z</time>
      </trkpt>
      <trkpt lat="48.29296" lon="3.15445">
        <ele>155.37</ele>
        <time>2019-03-30T12:44:21Z</time>
      </trkpt>
      <trkpt lat="48.29293" lon="3.15443">
        <ele>155.37</ele>
        <time>2019-03-30T12:44:26Z</time>
      </trkpt>
      <trkpt lat="48.2929" lon="3.15442">
        <ele>155.37</ele>
        <time>2019-03-30T12:44:31Z</time>
      </trkpt>
      <trkpt lat="48.2929" lon="3.15442">
        <ele>155.37</ele>
        <time>2019-03-30T12:44:36Z</time>
      </trkpt>
      <trkpt lat="48.29288" lon="3.15443">
        <ele>155.37</ele>
        <time>2019-03-30T12:44:41Z</time>
      </trkpt>
      <trkpt lat="48.29287" lon="3.15444">
        <ele>155.37</ele>
        <time>2019-03-30T12:44:46Z</time>
      </trkpt>
      <trkpt lat="48.29285" lon="3.15447">
        <ele>155.37</ele>
        <time>2019-03-30T12:44:51Z</time>
      </trkpt>
      <trkpt lat="48.29286" lon="3.15448">
        <ele>155.37</ele>
        <time>2019-03-30T12:44:56Z</time>
      </trkpt>
      <trkpt lat="48.29288" lon="3.15449">
        <ele>155.37</ele>
        <time>2019-03-30T12:45:01Z</time>
      </trkpt>
      <trkpt lat="48.29289" lon="3.15451">
        <ele>155.37</ele>
        <time>2019-03-30T12:45:06Z</time>
      </trkpt>
      <trkpt lat="48.29289" lon="3.15451">
        <ele>155.37</ele>
        <time>2019-03-30T12:45:11Z</time>
      </trkpt>
      <trkpt lat="48.2929" lon="3.15451">
        <ele>155.37</ele>
        <time>2019-03-30T12:45:16Z</time>
      </trkpt>
      <trkpt lat="48.29291" lon="3.15451">
        <ele>155.37</ele>
        <time>2019-03-30T12:45:21Z</time>
      </trkpt>
      <trkpt lat="48.29292" lon="3.15451">
        <ele>155.37</ele>
        <time>2019-03-30T12:45:26Z</time>
      </trkpt>
      <trkpt lat="48.29292" lon="3.15448">
        <ele>155.37</ele>
        <time>2019-03-30T12:45:31Z</time>
      </trkpt>
      <trkpt lat="48.29293" lon="3.15443">
        <ele>155.37</ele>
        <time>2019-03-30T12:45:36Z</time>
      </trkpt>
      <trkpt lat="48.29298" lon="3.15432">
        <ele>155.37</ele>
        <time>2019-03-30T12:45:41Z</time>
      </trkpt>
      <trkpt lat="48.293" lon="3.15429">
        <ele>155.37</ele>
        <time>2019-03-30T12:45:46Z</time>
      </trkpt>
      <trkpt lat="48.293" lon="3.15425">
        <ele>155.37</ele>
        <time>2019-03-30T12:45:51Z</time>
      </trkpt>
      <trkpt lat="48.29299" lon="3.15421">
        <ele>155.37</ele>
        <time>2019-03-30T12:45:56Z</time>
      </trkpt>
      <trkpt lat="48.29299" lon="3.15418">
        <ele>155.37</ele>
        <time>2019-03-30T12:46:01Z</time>
      </trkpt>
      <trkpt lat="48.29296" lon="3.15412">
        <ele>155.37</ele>
        <time>2019-03-30T12:46:06Z</time>
      </trkpt>
      <trkpt lat="48.29295" lon="3.15406">
        <ele>155.84</ele>
        <time>2019-03-30T12:46:11Z</time>
      </trkpt>
      <trkpt lat="48.29294" lon="3.15402">
        <ele>156.08</ele>
        <time>2019-03-30T12:46:16Z</time>
      </trkpt>
      <trkpt lat="48.29294" lon="3.15396">
        <ele>156.27</ele>
        <time>2019-03-30T12:46:21Z</time>
      </trkpt>
      <trkpt lat="48.29295" lon="3.1539">
        <ele>156.38</ele>
        <time>2019-03-30T12:46:26Z</time>
      </trkpt>
      <trkpt lat="48.29297" lon="3.15384">
        <ele>156.44</ele>
        <time>2019-03-30T12:46:31Z</time>
      </trkpt>
      <trkpt lat="48.29298" lon="3.1538">
        <ele>156.55</ele>
        <time>2019-03-30T12:46:36Z</time>
      </trkpt>
      <trkpt lat="48.29299" lon="3.15377">
        <ele>156.68</ele>
        <time>2019-03-30T12:46:41Z</time>
      </trkpt>
      <trkpt lat="48.29298" lon="3.15369">
        <ele>156.9</ele>
        <time>2019-03-30T12:46:46Z</time>
      </trkpt>
      <trkpt lat="48.29298" lon="3.15363">
        <ele>157.02</ele>
        <time>2019-03-30T12:46:51Z</time>
      </trkpt>
      <trkpt lat="48.29297" lon="3.15356">
        <ele>157.09</ele>
        <time>2019-03-30T12:46:56Z</time>
      </trkpt>
      <trkpt lat="48.29298" lon="3.15351">
        <ele>157.06</ele>
        <time>2019-03-30T12:47:01Z</time>
      </trkpt>
      <trkpt lat="48.29297" lon="3.15346">
        <ele>157.11</ele>
        <time>2019-03-30T12:47:06Z</time>
      </trkpt>
      <trkpt lat="48.29297" lon="3.15338">
        <ele>157.36</ele>
        <time>2019-03-30T12:47:11Z</time>
      </trkpt>
      <trkpt lat="48.29297" lon="3.15331">
        <ele>157.55</ele>
        <time>2019-03-30T12:47:16Z</time>
      </trkpt>
      <trkpt lat="48.29297" lon="3.15324">
        <ele>157.87</ele>
        <time>2019-03-30T12:47:21Z</time>
      </trkpt>
      <trkpt lat="48.29296" lon="3.1532">
        <ele>158.06</ele>
        <time>2019-03-30T12:47:26Z</time>
      </trkpt>
      <trkpt lat="48.29297" lon="3.15313">
        <ele>158.19</ele>
        <time>2019-03-30T12:47:31Z</time>
      </trkpt>
      <trkpt lat="48.29296" lon="3.15304">
        <ele>158.2</ele>
        <time>2019-03-30T12:47:36Z</time>
      </trkpt>
      <trkpt lat="48.29294" lon="3.15296">
        <ele>158.15</ele>
        <time>2019-03-30T12:47:41Z</time>
      </trkpt>
      <trkpt lat="48.29292" lon="3.15289">
        <ele>158.13</ele>
        <time>2019-03-30T12:47:46Z</time>
      </trkpt>
      <trkpt lat="48.2929" lon="3.15281">
        <ele>158.19</ele>
        <time>2019-03-30T12:47:51Z</time>
      </trkpt>
      <trkpt lat="48.29289" lon="3.15273">
        <ele>158.36</ele>
        <time>2019-03-30T12:47:56Z</time>
      </trkpt>
      <trkpt lat="48.29289" lon="3.15266">
        <ele>158.49</ele>
        <time>2019-03-30T12:48:01Z</time>
      </trkpt>
      <trkpt lat="48.29288" lon="3.15258">
        <ele>158.57</ele>
        <time>2019-03-30T12:48:06Z</time>
      </trkpt>
      <trkpt lat="48.29287" lon="3.1525">
        <ele>158.67</ele>
        <time>2019-03-30T12:48:11Z</time>
      </trkpt>
      <trkpt lat="48.29287" lon="3.15241">
        <ele>158.89</ele>
        <time>2019-03-30T12:48:16Z</time>
      </trkpt>
      <trkpt lat="48.29287" lon="3.15232">
        <ele>159.2</ele>
        <time>2019-03-30T12:48:21Z</time>
      </trkpt>
      <trkpt lat="48.29287" lon="3.15225">
        <ele>159.48</ele>
        <time>2019-03-30T12:48:26Z</time>
      </trkpt>
      <trkpt lat="48.29286" lon="3.15217">
        <ele>160.01</ele>
        <time>2019-03-30T12:48:31Z</time>
      </trkpt>
      <trkpt lat="48.29285" lon="3.15211">
        <ele>160.43</ele>
        <time>2019-03-30T12:48:36Z</time>
      </trkpt>
      <trkpt lat="48.29284" lon="3.15206">
        <ele>160.62</ele>
        <time>2019-03-30T12:48:41Z</time>
      </trkpt>
      <trkpt lat="48.29282" lon="3.15198">
        <ele>160.81</ele>
        <time>2019-03-30T12:48:46Z</time>
      </trkpt>
      <trkpt lat="48.29281" lon="3.1519">
        <ele>161.07</ele>
        <time>2019-03-30T12:48:51Z</time>
      </trkpt>
      <trkpt lat="48.29279" lon="3.15183">
        <ele>161.31</ele>
        <time>2019-03-30T12:48:56Z</time>
      </trkpt>
      <trkpt lat="48.29279" lon="3.15177">
        <ele>161.56</ele>
        <time>2019-03-30T12:49:01Z</time>
      </trkpt>
      <trkpt lat="48.29277" lon="3.1517">
        <ele>161.91</ele>
        <time>2019-03-30T12:49:06Z</time>
      </trkpt>
      <trkpt lat="48.29276" lon="3.15163">
        <ele>162.15</ele>
        <time>2019-03-30T12:49:11Z</time>
      </trkpt>
      <trkpt lat="48.29276" lon="3.15158">
        <ele>162.5</ele>
        <time>2019-03-30T12:49:16Z</time>
      </trkpt>
      <trkpt lat="48.29275" lon="3.15152">
        <ele>163.01</ele>
        <time>2019-03-30T12:49:21Z</time>
      </trkpt>
      <trkpt lat="48.29275" lon="3.15146">
        <ele>163.54</ele>
        <time>2019-03-30T12:49:26Z</time>
      </trkpt>
      <trkpt lat="48.29276" lon="3.15139">
        <ele>164.02</ele>
        <time>2019-03-30T12:49:31Z</time>
      </trkpt>
      <trkpt lat="48.29275" lon="3.15133">
        <ele>164.55</ele>
        <time>2019-03-30T12:49:36Z</time>
      </trkpt>
      <trkpt lat="48.29275" lon="3.15125">
        <ele>165.02</ele>
        <time>2019-03-30T12:49:41Z</time>
      </trkpt>
      <trkpt lat="48.29277" lon="3.15119">
        <ele>165.47</ele>
        <time>2019-03-30T12:49:46Z</time>
      </trkpt>
      <trkpt lat="48.29278" lon="3.15112">
        <ele>166</ele>
        <time>2019-03-30T12:49:51Z</time>
      </trkpt>
      <trkpt lat="48.29277" lon="3.15105">
        <ele>166.47</ele>
        <time>2019-03-30T12:49:56Z</time>
      </trkpt>
      <trkpt lat="48.29277" lon="3.15098">
        <ele>166.88</ele>
        <time>2019-03-30T12:50:01Z</time>
      </trkpt>
      <trkpt lat="48.29278" lon="3.15092">
        <ele>167.28</ele>
        <time>2019-03-30T12:50:06Z</time>
      </trkpt>
      <trkpt lat="48.29278" lon="3.15087">
        <ele>167.64</ele>
        <time>2019-03-30T12:50:11Z</time>
      </trkpt>
      <trkpt lat="48.29279" lon="3.15081">
        <ele>167.98</ele>
        <time>2019-03-30T12:50:16Z</time>
      </trkpt>
      <trkpt lat="48.29281" lon="3.15075">
        <ele>168.4</ele>
        <time>2019-03-30T12:50:21Z</time>
      </trkpt>
      <trkpt lat="48.29285" lon="3.1507">
        <ele>168.93</ele>
        <time>2019-03-30T12:50:26Z</time>
      </trkpt>
      <trkpt lat="48.29288" lon="3.15065">
        <ele>169.29</ele>
        <time>2019-03-30T12:50:31Z</time>
      </trkpt>
      <trkpt lat="48.29294" lon="3.15061">
        <ele>169.82</ele>
        <time>2019-03-30T12:50:36Z</time>
      </trkpt>
      <trkpt lat="48.29297" lon="3.15058">
        <ele>170.29</ele>
        <time>2019-03-30T12:50:41Z</time>
      </trkpt>
      <trkpt lat="48.29298" lon="3.15053">
        <ele>170.74</ele>
        <time>2019-03-30T12:50:46Z</time>
      </trkpt>
      <trkpt lat="48.293" lon="3.15048">
        <ele>171.3</ele>
        <time>2019-03-30T12:50:51Z</time>
      </trkpt>
      <trkpt lat="48.29304" lon="3.15042">
        <ele>171.66</ele>
        <time>2019-03-30T12:50:56Z</time>
      </trkpt>
      <trkpt lat="48.29308" lon="3.15035">
        <ele>172.1</ele>
        <time>2019-03-30T12:51:01Z</time>
      </trkpt>
      <trkpt lat="48.2931" lon="3.15032">
        <ele>172.48</ele>
        <time>2019-03-30T12:51:06Z</time>
      </trkpt>
      <trkpt lat="48.29311" lon="3.1503">
        <ele>172.69</ele>
        <time>2019-03-30T12:51:11Z</time>
      </trkpt>
      <trkpt lat="48.29315" lon="3.15028">
        <ele>172.95</ele>
        <time>2019-03-30T12:51:16Z</time>
      </trkpt>
      <trkpt lat="48.29319" lon="3.15028">
        <ele>173.27</ele>
        <time>2019-03-30T12:51:21Z</time>
      </trkpt>
      <trkpt lat="48.29326" lon="3.15027">
        <ele>173.65</ele>
        <time>2019-03-30T12:51:26Z</time>
      </trkpt>
      <trkpt lat="48.2933" lon="3.15028">
        <ele>173.84</ele>
        <time>2019-03-30T12:51:31Z</time>
      </trkpt>
      <trkpt lat="48.29335" lon="3.15028">
        <ele>173.94</ele>
        <time>2019-03-30T12:51:36Z</time>
      </trkpt>
      <trkpt lat="48.2934" lon="3.15028">
        <ele>174.04</ele>
        <time>2019-03-30T12:51:41Z</time>
      </trkpt>
      <trkpt lat="48.29346" lon="3.1503">
        <ele>174.08</ele>
        <time>2019-03-30T12:51:46Z</time>
      </trkpt>
      <trkpt lat="48.29352" lon="3.15031">
        <ele>174.29</ele>
        <time>2019-03-30T12:51:51Z</time>
      </trkpt>
      <trkpt lat="48.29355" lon="3.15033">
        <ele>174.81</ele>
        <time>2019-03-30T12:51:56Z</time>
      </trkpt>
      <trkpt lat="48.29361" lon="3.15036">
        <ele>175.23</ele>
        <time>2019-03-30T12:52:01Z</time>
      </trkpt>
      <trkpt lat="48.29367" lon="3.1504">
        <ele>175.5</ele>
        <time>2019-03-30T12:52:06Z</time>
      </trkpt>
      <trkpt lat="48.2937" lon="3.15045">
        <ele>175.87</ele>
        <time>2019-03-30T12:52:11Z</time>
      </trkpt>
      <trkpt lat="48.29376" lon="3.15048">
        <ele>176.02</ele>
        <time>2019-03-30T12:52:16Z</time>
      </trkpt>
      <trkpt lat="48.29381" lon="3.15052">
        <ele>175.97</ele>
        <time>2019-03-30T12:52:21Z</time>
      </trkpt>
      <trkpt lat="48.29386" lon="3.15056">
        <ele>175.97</ele>
        <time>2019-03-30T12:52:26Z</time>
      </trkpt>
      <trkpt lat="48.2939" lon="3.1506">
        <ele>176.08</ele>
        <time>2019-03-30T12:52:31Z</time>
      </trkpt>
      <trkpt lat="48.29393" lon="3.15064">
        <ele>176.15</ele>
        <time>2019-03-30T12:52:36Z</time>
      </trkpt>
      <trkpt lat="48.29395" lon="3.15065">
        <ele>176.41</ele>
        <time>2019-03-30T12:52:41Z</time>
      </trkpt>
      <trkpt lat="48.29399" lon="3.15068">
        <ele>176.62</ele>
        <time>2019-03-30T12:52:46Z</time>
      </trkpt>
      <trkpt lat="48.29404" lon="3.15071">
        <ele>176.76</ele>
        <time>2019-03-30T12:52:51Z</time>
      </trkpt>
      <trkpt lat="48.29407" lon="3.15072">
        <ele>176.79</ele>
        <time>2019-03-30T12:52:56Z</time>
      </trkpt>
      <trkpt lat="48.29411" lon="3.15072">
        <ele>176.82</ele>
        <time>2019-03-30T12:53:01Z</time>
      </trkpt>
      <trkpt lat="48.29414" lon="3.15074">
        <ele>176.82</ele>
        <time>2019-03-30T12:53:06Z</time>
      </trkpt>
      <trkpt lat="48.29417" lon="3.15076">
        <ele>176.84</ele>
        <time>2019-03-30T12:53:11Z</time>
      </trkpt>
      <trkpt lat="48.29419" lon="3.15077">
        <ele>176.9</ele>
        <time>2019-03-30T12:53:16Z</time>
      </trkpt>
      <trkpt lat="48.29425" lon="3.15081">
        <ele>176.97</ele>
        <time>2019-03-30T12:53:21Z</time>
      </trkpt>
      <trkpt lat="48.2943" lon="3.15084">
        <ele>177.08</ele>
        <time>2019-03-30T12:53:26Z</time>
      </trkpt>
      <trkpt lat="48.29435" lon="3.15087">
        <ele>177.11</ele>
        <time>2019-03-30T12:53:31Z</time>
      </trkpt>
      <trkpt lat="48.29439" lon="3.15089">
        <ele>177.18</ele>
        <time>2019-03-30T12:53:36Z</time>
      </trkpt>
      <trkpt lat="48.29442" lon="3.1509">
        <ele>177.34</ele>
        <time>2019-03-30T12:53:41Z</time>
      </trkpt>
      <trkpt lat="48.29448" lon="3.15094">
        <ele>177.5</ele>
        <time>2019-03-30T12:53:46Z</time>
      </trkpt>
      <trkpt lat="48.29453" lon="3.15095">
        <ele>178</ele>
        <time>2019-03-30T12:53:51Z</time>
      </trkpt>
      <trkpt lat="48.29458" lon="3.15097">
        <ele>178.02</ele>
        <time>2019-03-30T12:53:56Z</time>
      </trkpt>
      <trkpt lat="48.29462" lon="3.15098">
        <ele>178.12</ele>
        <time>2019-03-30T12:54:01Z</time>
      </trkpt>
      <trkpt lat="48.29464" lon="3.15098">
        <ele>178.53</ele>
        <time>2019-03-30T12:54:06Z</time>
      </trkpt>
      <trkpt lat="48.29466" lon="3.15099">
        <ele>178.77</ele>
        <time>2019-03-30T12:54:11Z</time>
      </trkpt>
      <trkpt lat="48.29468" lon="3.15099">
        <ele>179.12</ele>
        <time>2019-03-30T12:54:16Z</time>
      </trkpt>
      <trkpt lat="48.29472" lon="3.15099">
        <ele>179.2</ele>
        <time>2019-03-30T12:54:21Z</time>
      </trkpt>
      <trkpt lat="48.29473" lon="3.15099">
        <ele>179.4</ele>
        <time>2019-03-30T12:54:26Z</time>
      </trkpt>
      <trkpt lat="48.2948" lon="3.151">
        <ele>179.68</ele>
        <time>2019-03-30T12:54:31Z</time>
      </trkpt>
      <trkpt lat="48.29485" lon="3.15102">
        <ele>179.99</ele>
        <time>2019-03-30T12:54:36Z</time>
      </trkpt>
      <trkpt lat="48.29491" lon="3.15104">
        <ele>180.09</ele>
        <time>2019-03-30T12:54:41Z</time>
      </trkpt>
      <trkpt lat="48.29496" lon="3.15105">
        <ele>180.24</ele>
        <time>2019-03-30T12:54:46Z</time>
      </trkpt>
      <trkpt lat="48.29499" lon="3.15106">
        <ele>180.51</ele>
        <time>2019-03-30T12:54:51Z</time>
      </trkpt>
      <trkpt lat="48.29502" lon="3.15107">
        <ele>180.54</ele>
        <time>2019-03-30T12:54:56Z</time>
      </trkpt>
      <trkpt lat="48.2951" lon="3.15111">
        <ele>180.72</ele>
        <time>2019-03-30T12:55:01Z</time>
      </trkpt>
      <trkpt lat="48.2951" lon="3.15112">
        <ele>180.79</ele>
        <time>2019-03-30T12:55:06Z</time>
      </trkpt>
      <trkpt lat="48.2951" lon="3.15113">
        <ele>180.67</ele>
        <time>2019-03-30T12:55:11Z</time>
      </trkpt>
      <trkpt lat="48.2951" lon="3.15114">
        <ele>180.34</ele>
        <time>2019-03-30T12:55:16Z</time>
      </trkpt>
      <trkpt lat="48.2951" lon="3.15113">
        <ele>180.25</ele>
        <time>2019-03-30T12:55:21Z</time>
      </trkpt>
      <trkpt lat="48.29511" lon="3.15113">
        <ele>180.67</ele>
        <time>2019-03-30T12:55:26Z</time>
      </trkpt>
      <trkpt lat="48.2951" lon="3.15112">
        <ele>180.64</ele>
        <time>2019-03-30T12:55:31Z</time>
      </trkpt>
      <trkpt lat="48.2951" lon="3.15112">
        <ele>180.62</ele>
        <time>2019-03-30T12:55:36Z</time>
      </trkpt>
      <trkpt lat="48.2951" lon="3.15111">
        <ele>180.63</ele>
        <time>2019-03-30T12:55:41Z</time>
      </trkpt>
      <trkpt lat="48.29509" lon="3.15111">
        <ele>180.56</ele>
        <time>2019-03-30T12:55:46Z</time>
      </trkpt>
      <trkpt lat="48.29509" lon="3.1511">
        <ele>180.45</ele>
        <time>2019-03-30T12:55:51Z</time>
      </trkpt>
      <trkpt lat="48.29508" lon="3.1511">
        <ele>180.49</ele>
        <time>2019-03-30T12:55:56Z</time>
      </trkpt>
      <trkpt lat="48.29507" lon="3.1511">
        <ele>180.63</ele>
        <time>2019-03-30T12:56:01Z</time>
      </trkpt>
      <trkpt lat="48.29509" lon="3.1511">
        <ele>180.7</ele>
        <time>2019-03-30T12:56:06Z</time>
      </trkpt>
      <trkpt lat="48.29509" lon="3.1511">
        <ele>180.68</ele>
        <time>2019-03-30T12:56:11Z</time>
      </trkpt>
      <trkpt lat="48.2951" lon="3.15111">
        <ele>180.68</ele>
        <time>2019-03-30T12:56:16Z</time>
      </trkpt>
      <trkpt lat="48.2951" lon="3.15112">
        <ele>180.68</ele>
        <time>2019-03-30T12:56:21Z</time>
      </trkpt>
      <trkpt lat="48.29511" lon="3.15112">
        <ele>180.68</ele>
        <time>2019-03-30T12:56:26Z</time>
      </trkpt>
      <trkpt lat="48.29511" lon="3.15112">
        <ele>180.68</ele>
        <time>2019-03-30T12:56:31Z</time>
      </trkpt>
      <trkpt lat="48.29514" lon="3.15114">
        <ele>180.68</ele>
        <time>2019-03-30T12:56:36Z</time>
      </trkpt>
      <trkpt lat="48.29514" lon="3.15114">
        <ele>180.68</ele>
        <time>2019-03-30T12:56:41Z</time>
      </trkpt>
      <trkpt lat="48.29514" lon="3.15113">
        <ele>180.68</ele>
        <time>2019-03-30T12:56:46Z</time>
      </trkpt>
      <trkpt lat="48.29514" lon="3.15113">
        <ele>180.68</ele>
        <time>2019-03-30T12:56:51Z</time>
      </trkpt>
      <trkpt lat="48.29513" lon="3.15113">
        <ele>180.68</ele>
        <time>2019-03-30T12:56:56Z</time>
      </trkpt>
      <trkpt lat="48.29514" lon="3.15113">
        <ele>180.68</ele>
        <time>2019-03-30T12:57:01Z</time>
      </trkpt>
      <trkpt lat="48.29516" lon="3.15114">
        <ele>180.68</ele>
        <time>2019-03-30T12:57:06Z</time>
      </trkpt>
      <trkpt lat="48.29516" lon="3.15115">
        <ele>180.68</ele>
        <time>2019-03-30T12:57:11Z</time>
      </trkpt>
      <trkpt lat="48.29518" lon="3.15117">
        <ele>180.68</ele>
        <time>2019-03-30T12:57:16Z</time>
      </trkpt>
      <trkpt lat="48.2952" lon="3.15117">
        <ele>180.68</ele>
        <time>2019-03-30T12:57:21Z</time>
      </trkpt>
      <trkpt lat="48.2952" lon="3.15118">
        <ele>180.68</ele>
        <time>2019-03-30T12:57:26Z</time>
      </trkpt>
      <trkpt lat="48.29521" lon="3.15118">
        <ele>180.68</ele>
        <time>2019-03-30T12:57:31Z</time>
      </trkpt>
      <trkpt lat="48.29521" lon="3.15118">
        <ele>180.68</ele>
        <time>2019-03-30T12:57:36Z</time>
      </trkpt>
      <trkpt lat="48.2952" lon="3.15118">
        <ele>180.68</ele>
        <time>2019-03-30T12:57:41Z</time>
      </trkpt>
      <trkpt lat="48.2952" lon="3.15118">
        <ele>180.68</ele>
        <time>2019-03-30T12:57:46Z</time>
      </trkpt>
      <trkpt lat="48.29521" lon="3.15119">
        <ele>180.68</ele>
        <time>2019-03-30T12:57:51Z</time>
      </trkpt>
      <trkpt lat="48.29521" lon="3.15118">
        <ele>180.68</ele>
        <time>2019-03-30T12:57:56Z</time>
      </trkpt>
      <trkpt lat="48.29522" lon="3.15118">
        <ele>180.68</ele>
        <time>2019-03-30T12:58:01Z</time>
      </trkpt>
      <trkpt lat="48.29522" lon="3.15118">
        <ele>180.68</ele>
        <time>2019-03-30T12:58:06Z</time>
      </trkpt>
      <trkpt lat="48.29521" lon="3.15118">
        <ele>180.68</ele>
        <time>2019-03-30T12:58:11Z</time>
      </trkpt>
      <trkpt lat="48.29522" lon="3.15118">
        <ele>180.68</ele>
        <time>2019-03-30T12:58:16Z</time>
      </trkpt>
      <trkpt lat="48.29522" lon="3.15118">
        <ele>180.68</ele>
        <time>2019-03-30T12:58:21Z</time>
      </trkpt>
      <trkpt lat="48.29523" lon="3.1512">
        <ele>180.68</ele>
        <time>2019-03-30T12:58:26Z</time>
      </trkpt>
      <trkpt lat="48.29523" lon="3.15121">
        <ele>180.68</ele>
        <time>2019-03-30T12:58:31Z</time>
      </trkpt>
      <trkpt lat="48.29522" lon="3.15119">
        <ele>180.68</ele>
        <time>2019-03-30T12:58:36Z</time>
      </trkpt>
      <trkpt lat="48.29521" lon="3.15119">
        <ele>180.68</ele>
        <time>2019-03-30T12:58:41Z</time>
      </trkpt>
      <trkpt lat="48.29521" lon="3.15119">
        <ele>180.68</ele>
        <time>2019-03-30T12:58:46Z</time>
      </trkpt>
      <trkpt lat="48.2952" lon="3.15119">
        <ele>180.68</ele>
        <time>2019-03-30T12:58:51Z</time>
      </trkpt>
      <trkpt lat="48.29519" lon="3.15119">
        <ele>180.68</ele>
        <time>2019-03-30T12:58:56Z</time>
      </trkpt>
      <trkpt lat="48.2952" lon="3.1512">
        <ele>180.68</ele>
        <time>2019-03-30T12:59:01Z</time>
      </trkpt>
      <trkpt lat="48.2952" lon="3.1512">
        <ele>180.68</ele>
        <time>2019-03-30T12:59:06Z</time>
      </trkpt>
      <trkpt lat="48.29523" lon="3.15124">
        <ele>180.68</ele>
        <time>2019-03-30T12:59:11Z</time>
      </trkpt>
      <trkpt lat="48.29523" lon="3.15129">
        <ele>180.68</ele>
        <time>2019-03-30T12:59:16Z</time>
      </trkpt>
      <trkpt lat="48.29523" lon="3.15136">
        <ele>180.68</ele>
        <time>2019-03-30T12:59:21Z</time>
      </trkpt>
      <trkpt lat="48.29525" lon="3.15142">
        <ele>180.68</ele>
        <time>2019-03-30T12:59:26Z</time>
      </trkpt>
      <trkpt lat="48.29526" lon="3.15148">
        <ele>180.68</ele>
        <time>2019-03-30T12:59:31Z</time>
      </trkpt>
      <trkpt lat="48.29527" lon="3.15155">
        <ele>180.68</ele>
        <time>2019-03-30T12:59:36Z</time>
      </trkpt>
      <trkpt lat="48.29528" lon="3.15162">
        <ele>180.68</ele>
        <time>2019-03-30T12:59:41Z</time>
      </trkpt>
      <trkpt lat="48.2953" lon="3.15168">
        <ele>180.68</ele>
        <time>2019-03-30T12:59:46Z</time>
      </trkpt>
      <trkpt lat="48.29531" lon="3.15174">
        <ele>180.68</ele>
        <time>2019-03-30T12:59:51Z</time>
      </trkpt>
      <trkpt lat="48.29531" lon="3.1518">
        <ele>180.68</ele>
        <time>2019-03-30T12:59:56Z</time>
      </trkpt>
      <trkpt lat="48.29531" lon="3.15187">
        <ele>180.68</ele>
        <time>2019-03-30T13:00:01Z</time>
      </trkpt>
      <trkpt lat="48.2953" lon="3.15195">
        <ele>181.25</ele>
        <time>2019-03-30T13:00:06Z</time>
      </trkpt>
      <trkpt lat="48.29532" lon="3.15203">
        <ele>181.36</ele>
        <time>2019-03-30T13:00:11Z</time>
      </trkpt>
      <trkpt lat="48.29533" lon="3.15211">
        <ele>181.4</ele>
        <time>2019-03-30T13:00:16Z</time>
      </trkpt>
      <trkpt lat="48.29535" lon="3.15218">
        <ele>181.41</ele>
        <time>2019-03-30T13:00:21Z</time>
      </trkpt>
      <trkpt lat="48.29537" lon="3.15225">
        <ele>181.38</ele>
        <time>2019-03-30T13:00:26Z</time>
      </trkpt>
      <trkpt lat="48.29538" lon="3.15233">
        <ele>181.23</ele>
        <time>2019-03-30T13:00:31Z</time>
      </trkpt>
      <trkpt lat="48.29539" lon="3.15241">
        <ele>180.95</ele>
        <time>2019-03-30T13:00:36Z</time>
      </trkpt>
      <trkpt lat="48.29538" lon="3.15251">
        <ele>180.81</ele>
        <time>2019-03-30T13:00:41Z</time>
      </trkpt>
      <trkpt lat="48.29537" lon="3.15262">
        <ele>180.71</ele>
        <time>2019-03-30T13:00:46Z</time>
      </trkpt>
      <trkpt lat="48.29537" lon="3.15273">
        <ele>180.42</ele>
        <time>2019-03-30T13:00:51Z</time>
      </trkpt>
      <trkpt lat="48.29535" lon="3.1528">
        <ele>180.07</ele>
        <time>2019-03-30T13:00:56Z</time>
      </trkpt>
      <trkpt lat="48.29532" lon="3.15289">
        <ele>179.81</ele>
        <time>2019-03-30T13:01:01Z</time>
      </trkpt>
      <trkpt lat="48.29528" lon="3.15298">
        <ele>179.39</ele>
        <time>2019-03-30T13:01:06Z</time>
      </trkpt>
      <trkpt lat="48.29526" lon="3.15304">
        <ele>179.12</ele>
        <time>2019-03-30T13:01:11Z</time>
      </trkpt>
      <trkpt lat="48.29524" lon="3.15308">
        <ele>178.95</ele>
        <time>2019-03-30T13:01:16Z</time>
      </trkpt>
      <trkpt lat="48.29521" lon="3.15317">
        <ele>178.69</ele>
        <time>2019-03-30T13:01:21Z</time>
      </trkpt>
      <trkpt lat="48.29519" lon="3.15325">
        <ele>178.44</ele>
        <time>2019-03-30T13:01:26Z</time>
      </trkpt>
      <trkpt lat="48.2952" lon="3.15335">
        <ele>178.14</ele>
        <time>2019-03-30T13:01:31Z</time>
      </trkpt>
      <trkpt lat="48.29519" lon="3.15344">
        <ele>177.94</ele>
        <time>2019-03-30T13:01:36Z</time>
      </trkpt>
      <trkpt lat="48.2952" lon="3.15351">
        <ele>177.75</ele>
        <time>2019-03-30T13:01:41Z</time>
      </trkpt>
      <trkpt lat="48.29521" lon="3.15356">
        <ele>177.47</ele>
        <time>2019-03-30T13:01:46Z</time>
      </trkpt>
      <trkpt lat="48.2952" lon="3.15359">
        <ele>177.18</ele>
        <time>2019-03-30T13:01:51Z</time>
      </trkpt>
      <trkpt lat="48.29519" lon="3.15365">
        <ele>176.93</ele>
        <time>2019-03-30T13:01:56Z</time>
      </trkpt>
      <trkpt lat="48.29518" lon="3.15376">
        <ele>176.68</ele>
        <time>2019-03-30T13:02:01Z</time>
      </trkpt>
      <trkpt lat="48.29517" lon="3.15386">
        <ele>176.59</ele>
        <time>2019-03-30T13:02:06Z</time>
      </trkpt>
      <trkpt lat="48.29517" lon="3.15397">
        <ele>176.59</ele>
        <time>2019-03-30T13:02:11Z</time>
      </trkpt>
      <trkpt lat="48.29518" lon="3.15407">
        <ele>176.52</ele>
        <time>2019-03-30T13:02:16Z</time>
      </trkpt>
      <trkpt lat="48.29521" lon="3.15415">
        <ele>176.44</ele>
        <time>2019-03-30T13:02:21Z</time>
      </trkpt>
      <trkpt lat="48.29523" lon="3.15419">
        <ele>176.46</ele>
        <time>2019-03-30T13:02:26Z</time>
      </trkpt>
      <trkpt lat="48.29525" lon="3.15424">
        <ele>176.38</ele>
        <time>2019-03-30T13:02:31Z</time>
      </trkpt>
      <trkpt lat="48.29526" lon="3.15429">
        <ele>176.31</ele>
        <time>2019-03-30T13:02:36Z</time>
      </trkpt>
      <trkpt lat="48.29526" lon="3.15433">
        <ele>176.1</ele>
        <time>2019-03-30T13:02:41Z</time>
      </trkpt>
      <trkpt lat="48.29526" lon="3.15439">
        <ele>176.08</ele>
        <time>2019-03-30T13:02:46Z</time>
      </trkpt>
      <trkpt lat="48.29526" lon="3.15445">
        <ele>176</ele>
        <time>2019-03-30T13:02:51Z</time>
      </trkpt>
      <trkpt lat="48.29526" lon="3.15453">
        <ele>175.8</ele>
        <time>2019-03-30T13:02:56Z</time>
      </trkpt>
      <trkpt lat="48.29526" lon="3.15462">
        <ele>175.65</ele>
        <time>2019-03-30T13:03:01Z</time>
      </trkpt>
      <trkpt lat="48.29527" lon="3.15472">
        <ele>175.43</ele>
        <time>2019-03-30T13:03:06Z</time>
      </trkpt>
      <trkpt lat="48.29527" lon="3.1548">
        <ele>175.11</ele>
        <time>2019-03-30T13:03:11Z</time>
      </trkpt>
      <trkpt lat="48.29525" lon="3.15488">
        <ele>174.84</ele>
        <time>2019-03-30T13:03:16Z</time>
      </trkpt>
      <trkpt lat="48.29523" lon="3.15495">
        <ele>174.5</ele>
        <time>2019-03-30T13:03:21Z</time>
      </trkpt>
      <trkpt lat="48.29523" lon="3.15502">
        <ele>174.18</ele>
        <time>2019-03-30T13:03:26Z</time>
      </trkpt>
      <trkpt lat="48.29523" lon="3.15511">
        <ele>174.04</ele>
        <time>2019-03-30T13:03:31Z</time>
      </trkpt>
      <trkpt lat="48.29524" lon="3.15521">
        <ele>173.84</ele>
        <time>2019-03-30T13:03:36Z</time>
      </trkpt>
      <trkpt lat="48.29524" lon="3.1553">
        <ele>173.63</ele>
        <time>2019-03-30T13:03:41Z</time>
      </trkpt>
      <trkpt lat="48.29526" lon="3.15539">
        <ele>173.41</ele>
        <time>2019-03-30T13:03:46Z</time>
      </trkpt>
      <trkpt lat="48.29526" lon="3.15549">
        <ele>173.31</ele>
        <time>2019-03-30T13:03:51Z</time>
      </trkpt>
      <trkpt lat="48.29527" lon="3.15557">
        <ele>173.06</ele>
        <time>2019-03-30T13:03:56Z</time>
      </trkpt>
      <trkpt lat="48.29529" lon="3.15564">
        <ele>172.73</ele>
        <time>2019-03-30T13:04:01Z</time>
      </trkpt>
      <trkpt lat="48.2953" lon="3.15573">
        <ele>172.6</ele>
        <time>2019-03-30T13:04:06Z</time>
      </trkpt>
      <trkpt lat="48.29529" lon="3.15581">
        <ele>172.34</ele>
        <time>2019-03-30T13:04:11Z</time>
      </trkpt>
      <trkpt lat="48.29529" lon="3.15589">
        <ele>172.08</ele>
        <time>2019-03-30T13:04:16Z</time>
      </trkpt>
      <trkpt lat="48.29527" lon="3.15597">
        <ele>171.81</ele>
        <time>2019-03-30T13:04:21Z</time>
      </trkpt>
      <trkpt lat="48.29526" lon="3.15604">
        <ele>171.63</ele>
        <time>2019-03-30T13:04:26Z</time>
      </trkpt>
      <trkpt lat="48.29527" lon="3.15611">
        <ele>171.41</ele>
        <time>2019-03-30T13:04:31Z</time>
      </trkpt>
      <trkpt lat="48.29527" lon="3.15618">
        <ele>171.21</ele>
        <time>2019-03-30T13:04:36Z</time>
      </trkpt>
      <trkpt lat="48.29528" lon="3.15627">
        <ele>171.03</ele>
        <time>2019-03-30T13:04:41Z</time>
      </trkpt>
      <trkpt lat="48.29528" lon="3.15636">
        <ele>170.89</ele>
        <time>2019-03-30T13:04:46Z</time>
      </trkpt>
      <trkpt lat="48.29528" lon="3.15644">
        <ele>170.71</ele>
        <time>2019-03-30T13:04:51Z</time>
      </trkpt>
      <trkpt lat="48.29529" lon="3.15653">
        <ele>170.59</ele>
        <time>2019-03-30T13:04:56Z</time>
      </trkpt>
      <trkpt lat="48.2953" lon="3.15659">
        <ele>170.48</ele>
        <time>2019-03-30T13:05:01Z</time>
      </trkpt>
      <trkpt lat="48.29531" lon="3.15667">
        <ele>170.36</ele>
        <time>2019-03-30T13:05:06Z</time>
      </trkpt>
      <trkpt lat="48.29531" lon="3.15671">
        <ele>170.29</ele>
        <time>2019-03-30T13:05:11Z</time>
      </trkpt>
      <trkpt lat="48.29532" lon="3.15674">
        <ele>170.27</ele>
        <time>2019-03-30T13:05:16Z</time>
      </trkpt>
      <trkpt lat="48.29533" lon="3.15678">
        <ele>170.14</ele>
        <time>2019-03-30T13:05:21Z</time>
      </trkpt>
      <trkpt lat="48.29534" lon="3.15686">
        <ele>170.1</ele>
        <time>2019-03-30T13:05:26Z</time>
      </trkpt>
      <trkpt lat="48.29536" lon="3.15693">
        <ele>170.21</ele>
        <time>2019-03-30T13:05:31Z</time>
      </trkpt>
      <trkpt lat="48.29538" lon="3.15698">
        <ele>170.29</ele>
        <time>2019-03-30T13:05:36Z</time>
      </trkpt>
      <trkpt lat="48.29541" lon="3.15704">
        <ele>170.53</ele>
        <time>2019-03-30T13:05:41Z</time>
      </trkpt>
      <trkpt lat="48.29544" lon="3.15708">
        <ele>170.63</ele>
        <time>2019-03-30T13:05:46Z</time>
      </trkpt>
      <trkpt lat="48.29546" lon="3.15709">
        <ele>170.79</ele>
        <time>2019-03-30T13:05:51Z</time>
      </trkpt>
      <trkpt lat="48.29549" lon="3.15713">
        <ele>171.19</ele>
        <time>2019-03-30T13:05:56Z</time>
      </trkpt>
      <trkpt lat="48.29552" lon="3.15716">
        <ele>171.39</ele>
        <time>2019-03-30T13:06:01Z</time>
      </trkpt>
      <trkpt lat="48.29556" lon="3.15722">
        <ele>171.47</ele>
        <time>2019-03-30T13:06:06Z</time>
      </trkpt>
      <trkpt lat="48.2956" lon="3.15726">
        <ele>171.68</ele>
        <time>2019-03-30T13:06:11Z</time>
      </trkpt>
      <trkpt lat="48.29563" lon="3.15731">
        <ele>171.81</ele>
        <time>2019-03-30T13:06:16Z</time>
      </trkpt>
      <trkpt lat="48.29567" lon="3.15736">
        <ele>172.05</ele>
        <time>2019-03-30T13:06:21Z</time>
      </trkpt>
      <trkpt lat="48.29572" lon="3.15741">
        <ele>172.25</ele>
        <time>2019-03-30T13:06:26Z</time>
      </trkpt>
      <trkpt lat="48.29576" lon="3.15746">
        <ele>172.38</ele>
        <time>2019-03-30T13:06:31Z</time>
      </trkpt>
      <trkpt lat="48.29581" lon="3.15753">
        <ele>172.48</ele>
        <time>2019-03-30T13:06:36Z</time>
      </trkpt>
      <trkpt lat="48.29585" lon="3.15759">
        <ele>172.66</ele>
        <time>2019-03-30T13:06:41Z</time>
      </trkpt>
      <trkpt lat="48.29589" lon="3.15766">
        <ele>172.93</ele>
        <time>2019-03-30T13:06:46Z</time>
      </trkpt>
      <trkpt lat="48.29592" lon="3.15775">
        <ele>173.12</ele>
        <time>2019-03-30T13:06:51Z</time>
      </trkpt>
      <trkpt lat="48.29597" lon="3.15783">
        <ele>173.19</ele>
        <time>2019-03-30T13:06:56Z</time>
      </trkpt>
      <trkpt lat="48.29601" lon="3.15791">
        <ele>173.2</ele>
        <time>2019-03-30T13:07:01Z</time>
      </trkpt>
      <trkpt lat="48.29602" lon="3.15798">
        <ele>173.17</ele>
        <time>2019-03-30T13:07:06Z</time>
      </trkpt>
      <trkpt lat="48.29605" lon="3.15806">
        <ele>172.98</ele>
        <time>2019-03-30T13:07:11Z</time>
      </trkpt>
      <trkpt lat="48.29605" lon="3.15812">
        <ele>172.67</ele>
        <time>2019-03-30T13:07:16Z</time>
      </trkpt>
      <trkpt lat="48.29607" lon="3.15819">
        <ele>172.4</ele>
        <time>2019-03-30T13:07:21Z</time>
      </trkpt>
      <trkpt lat="48.29608" lon="3.1583">
        <ele>171.98</ele>
        <time>2019-03-30T13:07:26Z</time>
      </trkpt>
      <trkpt lat="48.29609" lon="3.15841">
        <ele>171.37</ele>
        <time>2019-03-30T13:07:31Z</time>
      </trkpt>
      <trkpt lat="48.2961" lon="3.15848">
        <ele>170.8</ele>
        <time>2019-03-30T13:07:36Z</time>
      </trkpt>
      <trkpt lat="48.2961" lon="3.15855">
        <ele>170.35</ele>
        <time>2019-03-30T13:07:41Z</time>
      </trkpt>
      <trkpt lat="48.29613" lon="3.15867">
        <ele>170.07</ele>
        <time>2019-03-30T13:07:46Z</time>
      </trkpt>
      <trkpt lat="48.29614" lon="3.15878">
        <ele>169.79</ele>
        <time>2019-03-30T13:07:51Z</time>
      </trkpt>
      <trkpt lat="48.29618" lon="3.1589">
        <ele>169.57</ele>
        <time>2019-03-30T13:07:56Z</time>
      </trkpt>
      <trkpt lat="48.29622" lon="3.15899">
        <ele>169.23</ele>
        <time>2019-03-30T13:08:01Z</time>
      </trkpt>
      <trkpt lat="48.29624" lon="3.15907">
        <ele>168.97</ele>
        <time>2019-03-30T13:08:06Z</time>
      </trkpt>
      <trkpt lat="48.29629" lon="3.15915">
        <ele>168.71</ele>
        <time>2019-03-30T13:08:11Z</time>
      </trkpt>
      <trkpt lat="48.29631" lon="3.15922">
        <ele>168.54</ele>
        <time>2019-03-30T13:08:16Z</time>
      </trkpt>
      <trkpt lat="48.29632" lon="3.15929">
        <ele>168.35</ele>
        <time>2019-03-30T13:08:21Z</time>
      </trkpt>
      <trkpt lat="48.29633" lon="3.15936">
        <ele>168.22</ele>
        <time>2019-03-30T13:08:26Z</time>
      </trkpt>
      <trkpt lat="48.29635" lon="3.15944">
        <ele>168.09</ele>
        <time>2019-03-30T13:08:31Z</time>
      </trkpt>
      <trkpt lat="48.29639" lon="3.15951">
        <ele>168.01</ele>
        <time>2019-03-30T13:08:36Z</time>
      </trkpt>
      <trkpt lat="48.29641" lon="3.15954">
        <ele>167.95</ele>
        <time>2019-03-30T13:08:41Z</time>
      </trkpt>
      <trkpt lat="48.29645" lon="3.15958">
        <ele>167.98</ele>
        <time>2019-03-30T13:08:46Z</time>
      </trkpt>
      <trkpt lat="48.29649" lon="3.15966">
        <ele>167.98</ele>
        <time>2019-03-30T13:08:51Z</time>
      </trkpt>
      <trkpt lat="48.29652" lon="3.15974">
        <ele>167.94</ele>
        <time>2019-03-30T13:08:56Z</time>
      </trkpt>
      <trkpt lat="48.29655" lon="3.15982">
        <ele>167.87</ele>
        <time>2019-03-30T13:09:01Z</time>
      </trkpt>
      <trkpt lat="48.29657" lon="3.15989">
        <ele>167.84</ele>
        <time>2019-03-30T13:09:06Z</time>
      </trkpt>
      <trkpt lat="48.2966" lon="3.15995">
        <ele>167.86</ele>
        <time>2019-03-30T13:09:11Z</time>
      </trkpt>
      <trkpt lat="48.29662" lon="3.16001">
        <ele>167.95</ele>
        <time>2019-03-30T13:09:16Z</time>
      </trkpt>
      <trkpt lat="48.29663" lon="3.16007">
        <ele>167.94</ele>
        <time>2019-03-30T13:09:21Z</time>
      </trkpt>
      <trkpt lat="48.29664" lon="3.16013">
        <ele>167.88</ele>
        <time>2019-03-30T13:09:26Z</time>
      </trkpt>
      <trkpt lat="48.29667" lon="3.16019">
        <ele>167.77</ele>
        <time>2019-03-30T13:09:31Z</time>
      </trkpt>
      <trkpt lat="48.2967" lon="3.16024">
        <ele>167.77</ele>
        <time>2019-03-30T13:09:36Z</time>
      </trkpt>
      <trkpt lat="48.29673" lon="3.16031">
        <ele>167.83</ele>
        <time>2019-03-30T13:09:41Z</time>
      </trkpt>
      <trkpt lat="48.29676" lon="3.16035">
        <ele>167.93</ele>
        <time>2019-03-30T13:09:46Z</time>
      </trkpt>
      <trkpt lat="48.29678" lon="3.1604">
        <ele>168.12</ele>
        <time>2019-03-30T13:09:51Z</time>
      </trkpt>
      <trkpt lat="48.29683" lon="3.16044">
        <ele>168.12</ele>
        <time>2019-03-30T13:09:56Z</time>
      </trkpt>
      <trkpt lat="48.29685" lon="3.1605">
        <ele>168.01</ele>
        <time>2019-03-30T13:10:01Z</time>
      </trkpt>
      <trkpt lat="48.29688" lon="3.16056">
        <ele>167.89</ele>
        <time>2019-03-30T13:10:06Z</time>
      </trkpt>
      <trkpt lat="48.29688" lon="3.16062">
        <ele>167.74</ele>
        <time>2019-03-30T13:10:11Z</time>
      </trkpt>
      <trkpt lat="48.29689" lon="3.16067">
        <ele>167.77</ele>
        <time>2019-03-30T13:10:16Z</time>
      </trkpt>
      <trkpt lat="48.2969" lon="3.16073">
        <ele>167.92</ele>
        <time>2019-03-30T13:10:21Z</time>
      </trkpt>
      <trkpt lat="48.2969" lon="3.16079">
        <ele>167.97</ele>
        <time>2019-03-30T13:10:26Z</time>
      </trkpt>
      <trkpt lat="48.29694" lon="3.16084">
        <ele>167.98</ele>
        <time>2019-03-30T13:10:31Z</time>
      </trkpt>
      <trkpt lat="48.29696" lon="3.16091">
        <ele>167.91</ele>
        <time>2019-03-30T13:10:36Z</time>
      </trkpt>
      <trkpt lat="48.29699" lon="3.16099">
        <ele>167.97</ele>
        <time>2019-03-30T13:10:41Z</time>
      </trkpt>
      <trkpt lat="48.29701" lon="3.16107">
        <ele>168.13</ele>
        <time>2019-03-30T13:10:46Z</time>
      </trkpt>
      <trkpt lat="48.29704" lon="3.16112">
        <ele>168.33</ele>
        <time>2019-03-30T13:10:51Z</time>
      </trkpt>
      <trkpt lat="48.29705" lon="3.16119">
        <ele>168.43</ele>
        <time>2019-03-30T13:10:56Z</time>
      </trkpt>
      <trkpt lat="48.29705" lon="3.16127">
        <ele>168.6</ele>
        <time>2019-03-30T13:11:01Z</time>
      </trkpt>
      <trkpt lat="48.29706" lon="3.16133">
        <ele>168.7</ele>
        <time>2019-03-30T13:11:06Z</time>
      </trkpt>
      <trkpt lat="48.29708" lon="3.16137">
        <ele>168.88</ele>
        <time>2019-03-30T13:11:11Z</time>
      </trkpt>
      <trkpt lat="48.29708" lon="3.16144">
        <ele>169.07</ele>
        <time>2019-03-30T13:11:16Z</time>
      </trkpt>
      <trkpt lat="48.29711" lon="3.1615">
        <ele>169.13</ele>
        <time>2019-03-30T13:11:21Z</time>
      </trkpt>
      <trkpt lat="48.29712" lon="3.16158">
        <ele>169.24</ele>
        <time>2019-03-30T13:11:26Z</time>
      </trkpt>
      <trkpt lat="48.29714" lon="3.16163">
        <ele>169.36</ele>
        <time>2019-03-30T13:11:31Z</time>
      </trkpt>
      <trkpt lat="48.29717" lon="3.1617">
        <ele>169.44</ele>
        <time>2019-03-30T13:11:36Z</time>
      </trkpt>
      <trkpt lat="48.2972" lon="3.16177">
        <ele>169.68</ele>
        <time>2019-03-30T13:11:41Z</time>
      </trkpt>
      <trkpt lat="48.2972" lon="3.16185">
        <ele>169.73</ele>
        <time>2019-03-30T13:11:46Z</time>
      </trkpt>
      <trkpt lat="48.2972" lon="3.16192">
        <ele>169.72</ele>
        <time>2019-03-30T13:11:51Z</time>
      </trkpt>
      <trkpt lat="48.29721" lon="3.16199">
        <ele>169.61</ele>
        <time>2019-03-30T13:11:56Z</time>
      </trkpt>
      <trkpt lat="48.29723" lon="3.16206">
        <ele>169.51</ele>
        <time>2019-03-30T13:12:01Z</time>
      </trkpt>
      <trkpt lat="48.29724" lon="3.16212">
        <ele>169.46</ele>
        <time>2019-03-30T13:12:06Z</time>
      </trkpt>
      <trkpt lat="48.29723" lon="3.16219">
        <ele>169.53</ele>
        <time>2019-03-30T13:12:11Z</time>
      </trkpt>
      <trkpt lat="48.29724" lon="3.16229">
        <ele>169.69</ele>
        <time>2019-03-30T13:12:16Z</time>
      </trkpt>
      <trkpt lat="48.29724" lon="3.16238">
        <ele>169.92</ele>
        <time>2019-03-30T13:12:21Z</time>
      </trkpt>
      <trkpt lat="48.29724" lon="3.16248">
        <ele>170.13</ele>
        <time>2019-03-30T13:12:26Z</time>
      </trkpt>
      <trkpt lat="48.29722" lon="3.16257">
        <ele>170.22</ele>
        <time>2019-03-30T13:12:31Z</time>
      </trkpt>
      <trkpt lat="48.29721" lon="3.16262">
        <ele>170.22</ele>
        <time>2019-03-30T13:12:36Z</time>
      </trkpt>
      <trkpt lat="48.29722" lon="3.16266">
        <ele>170.31</ele>
        <time>2019-03-30T13:12:41Z</time>
      </trkpt>
      <trkpt lat="48.29722" lon="3.16271">
        <ele>170.47</ele>
        <time>2019-03-30T13:12:46Z</time>
      </trkpt>
      <trkpt lat="48.29724" lon="3.16278">
        <ele>170.64</ele>
        <time>2019-03-30T13:12:51Z</time>
      </trkpt>
      <trkpt lat="48.29725" lon="3.16285">
        <ele>170.66</ele>
        <time>2019-03-30T13:12:56Z</time>
      </trkpt>
      <trkpt lat="48.29724" lon="3.16292">
        <ele>170.63</ele>
        <time>2019-03-30T13:13:01Z</time>
      </trkpt>
      <trkpt lat="48.29724" lon="3.16298">
        <ele>170.72</ele>
        <time>2019-03-30T13:13:06Z</time>
      </trkpt>
      <trkpt lat="48.29725" lon="3.16303">
        <ele>170.84</ele>
        <time>2019-03-30T13:13:11Z</time>
      </trkpt>
      <trkpt lat="48.29723" lon="3.16307">
        <ele>170.93</ele>
        <time>2019-03-30T13:13:16Z</time>
      </trkpt>
      <trkpt lat="48.29721" lon="3.16315">
        <ele>171.01</ele>
        <time>2019-03-30T13:13:21Z</time>
      </trkpt>
      <trkpt lat="48.2972" lon="3.16323">
        <ele>171.24</ele>
        <time>2019-03-30T13:13:26Z</time>
      </trkpt>
      <trkpt lat="48.29725" lon="3.16332">
        <ele>171.67</ele>
        <time>2019-03-30T13:13:31Z</time>
      </trkpt>
      <trkpt lat="48.29729" lon="3.16341">
        <ele>171.9</ele>
        <time>2019-03-30T13:13:36Z</time>
      </trkpt>
      <trkpt lat="48.29728" lon="3.16344">
        <ele>171.93</ele>
        <time>2019-03-30T13:13:41Z</time>
      </trkpt>
      <trkpt lat="48.29728" lon="3.1635">
        <ele>172.13</ele>
        <time>2019-03-30T13:13:46Z</time>
      </trkpt>
      <trkpt lat="48.2973" lon="3.16358">
        <ele>172.35</ele>
        <time>2019-03-30T13:13:51Z</time>
      </trkpt>
      <trkpt lat="48.29731" lon="3.16367">
        <ele>172.28</ele>
        <time>2019-03-30T13:13:56Z</time>
      </trkpt>
      <trkpt lat="48.29734" lon="3.16375">
        <ele>172.03</ele>
        <time>2019-03-30T13:14:01Z</time>
      </trkpt>
      <trkpt lat="48.29733" lon="3.16383">
        <ele>171.67</ele>
        <time>2019-03-30T13:14:06Z</time>
      </trkpt>
      <trkpt lat="48.29734" lon="3.16392">
        <ele>171.22</ele>
        <time>2019-03-30T13:14:11Z</time>
      </trkpt>
      <trkpt lat="48.29738" lon="3.16403">
        <ele>170.86</ele>
        <time>2019-03-30T13:14:16Z</time>
      </trkpt>
      <trkpt lat="48.2974" lon="3.1641">
        <ele>170.49</ele>
        <time>2019-03-30T13:14:21Z</time>
      </trkpt>
      <trkpt lat="48.29741" lon="3.16417">
        <ele>170.07</ele>
        <time>2019-03-30T13:14:26Z</time>
      </trkpt>
      <trkpt lat="48.29742" lon="3.16425">
        <ele>169.87</ele>
        <time>2019-03-30T13:14:31Z</time>
      </trkpt>
      <trkpt lat="48.29742" lon="3.16434">
        <ele>169.65</ele>
        <time>2019-03-30T13:14:36Z</time>
      </trkpt>
      <trkpt lat="48.29742" lon="3.16443">
        <ele>169.54</ele>
        <time>2019-03-30T13:14:41Z</time>
      </trkpt>
      <trkpt lat="48.29743" lon="3.16452">
        <ele>169.54</ele>
        <time>2019-03-30T13:14:46Z</time>
      </trkpt>
      <trkpt lat="48.29743" lon="3.16462">
        <ele>169.37</ele>
        <time>2019-03-30T13:14:51Z</time>
      </trkpt>
      <trkpt lat="48.29745" lon="3.16472">
        <ele>169.06</ele>
        <time>2019-03-30T13:14:56Z</time>
      </trkpt>
      <trkpt lat="48.29746" lon="3.16483">
        <ele>168.74</ele>
        <time>2019-03-30T13:15:01Z</time>
      </trkpt>
      <trkpt lat="48.29747" lon="3.16492">
        <ele>168.53</ele>
        <time>2019-03-30T13:15:06Z</time>
      </trkpt>
      <trkpt lat="48.29748" lon="3.16502">
        <ele>167.99</ele>
        <time>2019-03-30T13:15:11Z</time>
      </trkpt>
      <trkpt lat="48.29747" lon="3.16511">
        <ele>167.15</ele>
        <time>2019-03-30T13:15:16Z</time>
      </trkpt>
      <trkpt lat="48.29748" lon="3.16517">
        <ele>166.74</ele>
        <time>2019-03-30T13:15:21Z</time>
      </trkpt>
      <trkpt lat="48.29751" lon="3.16522">
        <ele>166.03</ele>
        <time>2019-03-30T13:15:26Z</time>
      </trkpt>
      <trkpt lat="48.29752" lon="3.1653">
        <ele>165.45</ele>
        <time>2019-03-30T13:15:31Z</time>
      </trkpt>
      <trkpt lat="48.29752" lon="3.16536">
        <ele>165.17</ele>
        <time>2019-03-30T13:15:36Z</time>
      </trkpt>
      <trkpt lat="48.29753" lon="3.16542">
        <ele>164.65</ele>
        <time>2019-03-30T13:15:41Z</time>
      </trkpt>
      <trkpt lat="48.29755" lon="3.16551">
        <ele>164.26</ele>
        <time>2019-03-30T13:15:46Z</time>
      </trkpt>
      <trkpt lat="48.29755" lon="3.16563">
        <ele>163.85</ele>
        <time>2019-03-30T13:15:51Z</time>
      </trkpt>
      <trkpt lat="48.29756" lon="3.16571">
        <ele>163.28</ele>
        <time>2019-03-30T13:15:56Z</time>
      </trkpt>
      <trkpt lat="48.29756" lon="3.16579">
        <ele>162.67</ele>
        <time>2019-03-30T13:16:01Z</time>
      </trkpt>
      <trkpt lat="48.29756" lon="3.16591">
        <ele>162.4</ele>
        <time>2019-03-30T13:16:06Z</time>
      </trkpt>
      <trkpt lat="48.29756" lon="3.16599">
        <ele>162.1</ele>
        <time>2019-03-30T13:16:11Z</time>
      </trkpt>
      <trkpt lat="48.29756" lon="3.16607">
        <ele>161.71</ele>
        <time>2019-03-30T13:16:16Z</time>
      </trkpt>
      <trkpt lat="48.29758" lon="3.16616">
        <ele>161.34</ele>
        <time>2019-03-30T13:16:21Z</time>
      </trkpt>
      <trkpt lat="48.29758" lon="3.16624">
        <ele>160.71</ele>
        <time>2019-03-30T13:16:26Z</time>
      </trkpt>
      <trkpt lat="48.29758" lon="3.16631">
        <ele>160.06</ele>
        <time>2019-03-30T13:16:31Z</time>
      </trkpt>
      <trkpt lat="48.29759" lon="3.16639">
        <ele>159.81</ele>
        <time>2019-03-30T13:16:36Z</time>
      </trkpt>
      <trkpt lat="48.29759" lon="3.16645">
        <ele>159.53</ele>
        <time>2019-03-30T13:16:41Z</time>
      </trkpt>
      <trkpt lat="48.29758" lon="3.16652">
        <ele>159.2</ele>
        <time>2019-03-30T13:16:46Z</time>
      </trkpt>
      <trkpt lat="48.29758" lon="3.16662">
        <ele>158.82</ele>
        <time>2019-03-30T13:16:51Z</time>
      </trkpt>
      <trkpt lat="48.29758" lon="3.16671">
        <ele>158.55</ele>
        <time>2019-03-30T13:16:56Z</time>
      </trkpt>
      <trkpt lat="48.29757" lon="3.1668">
        <ele>158.44</ele>
        <time>2019-03-30T13:17:01Z</time>
      </trkpt>
      <trkpt lat="48.29756" lon="3.16688">
        <ele>158.06</ele>
        <time>2019-03-30T13:17:06Z</time>
      </trkpt>
      <trkpt lat="48.29755" lon="3.16697">
        <ele>157.67</ele>
        <time>2019-03-30T13:17:11Z</time>
      </trkpt>
      <trkpt lat="48.29752" lon="3.16705">
        <ele>157.45</ele>
        <time>2019-03-30T13:17:16Z</time>
      </trkpt>
      <trkpt lat="48.29751" lon="3.16713">
        <ele>157.32</ele>
        <time>2019-03-30T13:17:21Z</time>
      </trkpt>
      <trkpt lat="48.2975" lon="3.16721">
        <ele>157.11</ele>
        <time>2019-03-30T13:17:26Z</time>
      </trkpt>
      <trkpt lat="48.29747" lon="3.16727">
        <ele>156.78</ele>
        <time>2019-03-30T13:17:31Z</time>
      </trkpt>
      <trkpt lat="48.29745" lon="3.16735">
        <ele>156.46</ele>
        <time>2019-03-30T13:17:36Z</time>
      </trkpt>
      <trkpt lat="48.29745" lon="3.16741">
        <ele>156.27</ele>
        <time>2019-03-30T13:17:41Z</time>
      </trkpt>
      <trkpt lat="48.29743" lon="3.16747">
        <ele>156.05</ele>
        <time>2019-03-30T13:17:46Z</time>
      </trkpt>
      <trkpt lat="48.2974" lon="3.16752">
        <ele>155.89</ele>
        <time>2019-03-30T13:17:51Z</time>
      </trkpt>
      <trkpt lat="48.29738" lon="3.16757">
        <ele>155.39</ele>
        <time>2019-03-30T13:17:56Z</time>
      </trkpt>
      <trkpt lat="48.29735" lon="3.16762">
        <ele>155.05</ele>
        <time>2019-03-30T13:18:01Z</time>
      </trkpt>
      <trkpt lat="48.29733" lon="3.16767">
        <ele>154.41</ele>
        <time>2019-03-30T13:18:06Z</time>
      </trkpt>
      <trkpt lat="48.29729" lon="3.16774">
        <ele>154.07</ele>
        <time>2019-03-30T13:18:11Z</time>
      </trkpt>
      <trkpt lat="48.29726" lon="3.1678">
        <ele>153.49</ele>
        <time>2019-03-30T13:18:16Z</time>
      </trkpt>
      <trkpt lat="48.29722" lon="3.16784">
        <ele>153.03</ele>
        <time>2019-03-30T13:18:21Z</time>
      </trkpt>
      <trkpt lat="48.29719" lon="3.16789">
        <ele>152.42</ele>
        <time>2019-03-30T13:18:26Z</time>
      </trkpt>
      <trkpt lat="48.29716" lon="3.16795">
        <ele>151.74</ele>
        <time>2019-03-30T13:18:31Z</time>
      </trkpt>
      <trkpt lat="48.29713" lon="3.168">
        <ele>150.83</ele>
        <time>2019-03-30T13:18:36Z</time>
      </trkpt>
      <trkpt lat="48.29709" lon="3.16804">
        <ele>150.08</ele>
        <time>2019-03-30T13:18:41Z</time>
      </trkpt>
      <trkpt lat="48.29706" lon="3.16809">
        <ele>149.38</ele>
        <time>2019-03-30T13:18:46Z</time>
      </trkpt>
      <trkpt lat="48.29704" lon="3.16815">
        <ele>148.55</ele>
        <time>2019-03-30T13:18:51Z</time>
      </trkpt>
      <trkpt lat="48.29701" lon="3.16823">
        <ele>147.89</ele>
        <time>2019-03-30T13:18:56Z</time>
      </trkpt>
      <trkpt lat="48.29697" lon="3.16832">
        <ele>147.21</ele>
        <time>2019-03-30T13:19:01Z</time>
      </trkpt>
      <trkpt lat="48.29694" lon="3.16843">
        <ele>146.4</ele>
        <time>2019-03-30T13:19:06Z</time>
      </trkpt>
      <trkpt lat="48.2969" lon="3.16852">
        <ele>145.63</ele>
        <time>2019-03-30T13:19:11Z</time>
      </trkpt>
      <trkpt lat="48.29688" lon="3.16858">
        <ele>144.42</ele>
        <time>2019-03-30T13:19:16Z</time>
      </trkpt>
      <trkpt lat="48.29685" lon="3.16863">
        <ele>143.9</ele>
        <time>2019-03-30T13:19:21Z</time>
      </trkpt>
      <trkpt lat="48.29682" lon="3.16869">
        <ele>143.06</ele>
        <time>2019-03-30T13:19:26Z</time>
      </trkpt>
      <trkpt lat="48.29677" lon="3.16875">
        <ele>142.36</ele>
        <time>2019-03-30T13:19:31Z</time>
      </trkpt>
      <trkpt lat="48.29674" lon="3.16882">
        <ele>141.75</ele>
        <time>2019-03-30T13:19:36Z</time>
      </trkpt>
      <trkpt lat="48.29673" lon="3.16886">
        <ele>141.3</ele>
        <time>2019-03-30T13:19:41Z</time>
      </trkpt>
      <trkpt lat="48.29669" lon="3.16892">
        <ele>140.54</ele>
        <time>2019-03-30T13:19:46Z</time>
      </trkpt>
      <trkpt lat="48.29665" lon="3.16899">
        <ele>139.82</ele>
        <time>2019-03-30T13:19:51Z</time>
      </trkpt>
      <trkpt lat="48.29664" lon="3.169">
        <ele>139.13</ele>
        <time>2019-03-30T13:19:56Z</time>
      </trkpt>
      <trkpt lat="48.29663" lon="3.169">
        <ele>138.99</ele>
        <time>2019-03-30T13:20:01Z</time>
      </trkpt>
      <trkpt lat="48.29663" lon="3.16901">
        <ele>138.89</ele>
        <time>2019-03-30T13:20:06Z</time>
      </trkpt>
      <trkpt lat="48.29661" lon="3.16902">
        <ele>138.85</ele>
        <time>2019-03-30T13:20:11Z</time>
      </trkpt>
      <trkpt lat="48.29659" lon="3.16906">
        <ele>138.62</ele>
        <time>2019-03-30T13:20:16Z</time>
      </trkpt>
      <trkpt lat="48.29655" lon="3.16911">
        <ele>138.12</ele>
        <time>2019-03-30T13:20:21Z</time>
      </trkpt>
      <trkpt lat="48.29651" lon="3.16917">
        <ele>137.52</ele>
        <time>2019-03-30T13:20:26Z</time>
      </trkpt>
      <trkpt lat="48.29649" lon="3.16922">
        <ele>137.28</ele>
        <time>2019-03-30T13:20:31Z</time>
      </trkpt>
      <trkpt lat="48.29649" lon="3.16929">
        <ele>137.24</ele>
        <time>2019-03-30T13:20:36Z</time>
      </trkpt>
      <trkpt lat="48.29651" lon="3.16935">
        <ele>136.59</ele>
        <time>2019-03-30T13:20:41Z</time>
      </trkpt>
      <trkpt lat="48.29654" lon="3.16942">
        <ele>136.29</ele>
        <time>2019-03-30T13:20:46Z</time>
      </trkpt>
      <trkpt lat="48.29658" lon="3.16948">
        <ele>136.05</ele>
        <time>2019-03-30T13:20:51Z</time>
      </trkpt>
      <trkpt lat="48.29661" lon="3.16953">
        <ele>135.94</ele>
        <time>2019-03-30T13:20:56Z</time>
      </trkpt>
      <trkpt lat="48.29662" lon="3.16953">
        <ele>135.78</ele>
        <time>2019-03-30T13:21:01Z</time>
      </trkpt>
      <trkpt lat="48.29661" lon="3.16951">
        <ele>135.54</ele>
        <time>2019-03-30T13:21:06Z</time>
      </trkpt>
      <trkpt lat="48.29661" lon="3.16951">
        <ele>135.15</ele>
        <time>2019-03-30T13:21:11Z</time>
      </trkpt>
      <trkpt lat="48.29661" lon="3.16949">
        <ele>135.39</ele>
        <time>2019-03-30T13:21:16Z</time>
      </trkpt>
      <trkpt lat="48.29661" lon="3.16947">
        <ele>135.56</ele>
        <time>2019-03-30T13:21:21Z</time>
      </trkpt>
      <trkpt lat="48.2966" lon="3.16944">
        <ele>135.59</ele>
        <time>2019-03-30T13:21:26Z</time>
      </trkpt>
      <trkpt lat="48.29659" lon="3.16944">
        <ele>136.02</ele>
        <time>2019-03-30T13:21:31Z</time>
      </trkpt>
      <trkpt lat="48.29657" lon="3.16945">
        <ele>136.14</ele>
        <time>2019-03-30T13:21:36Z</time>
      </trkpt>
      <trkpt lat="48.29657" lon="3.16945">
        <ele>135.94</ele>
        <time>2019-03-30T13:21:41Z</time>
      </trkpt>
      <trkpt lat="48.29656" lon="3.16945">
        <ele>135.94</ele>
        <time>2019-03-30T13:21:46Z</time>
      </trkpt>
      <trkpt lat="48.29655" lon="3.16944">
        <ele>135.95</ele>
        <time>2019-03-30T13:21:51Z</time>
      </trkpt>
      <trkpt lat="48.29656" lon="3.16944">
        <ele>135.91</ele>
        <time>2019-03-30T13:21:56Z</time>
      </trkpt>
      <trkpt lat="48.29656" lon="3.16943">
        <ele>135.99</ele>
        <time>2019-03-30T13:22:01Z</time>
      </trkpt>
      <trkpt lat="48.29655" lon="3.16943">
        <ele>135.99</ele>
        <time>2019-03-30T13:22:06Z</time>
      </trkpt>
      <trkpt lat="48.29656" lon="3.16945">
        <ele>135.99</ele>
        <time>2019-03-30T13:22:11Z</time>
      </trkpt>
      <trkpt lat="48.29657" lon="3.16946">
        <ele>135.99</ele>
        <time>2019-03-30T13:22:16Z</time>
      </trkpt>
      <trkpt lat="48.29657" lon="3.16947">
        <ele>135.99</ele>
        <time>2019-03-30T13:22:21Z</time>
      </trkpt>
      <trkpt lat="48.29658" lon="3.16946">
        <ele>135.99</ele>
        <time>2019-03-30T13:22:26Z</time>
      </trkpt>
      <trkpt lat="48.29659" lon="3.16947">
        <ele>135.99</ele>
        <time>2019-03-30T13:22:31Z</time>
      </trkpt>
      <trkpt lat="48.29658" lon="3.16948">
        <ele>135.99</ele>
        <time>2019-03-30T13:22:36Z</time>
      </trkpt>
      <trkpt lat="48.29658" lon="3.16948">
        <ele>135.99</ele>
        <time>2019-03-30T13:22:41Z</time>
      </trkpt>
      <trkpt lat="48.29658" lon="3.16949">
        <ele>135.99</ele>
        <time>2019-03-30T13:22:46Z</time>
      </trkpt>
      <trkpt lat="48.29658" lon="3.16949">
        <ele>135.99</ele>
        <time>2019-03-30T13:22:51Z</time>
      </trkpt>
      <trkpt lat="48.29658" lon="3.16949">
        <ele>135.99</ele>
        <time>2019-03-30T13:22:56Z</time>
      </trkpt>
      <trkpt lat="48.29659" lon="3.16949">
        <ele>135.99</ele>
        <time>2019-03-30T13:23:01Z</time>
      </trkpt>
      <trkpt lat="48.29659" lon="3.16949">
        <ele>135.99</ele>
        <time>2019-03-30T13:23:06Z</time>
      </trkpt>
      <trkpt lat="48.29659" lon="3.16949">
        <ele>135.99</ele>
        <time>2019-03-30T13:23:11Z</time>
      </trkpt>
      <trkpt lat="48.29659" lon="3.1695">
        <ele>135.99</ele>
        <time>2019-03-30T13:23:16Z</time>
      </trkpt>
      <trkpt lat="48.29659" lon="3.1695">
        <ele>135.99</ele>
        <time>2019-03-30T13:23:21Z</time>
      </trkpt>
      <trkpt lat="48.29659" lon="3.1695">
        <ele>135.99</ele>
        <time>2019-03-30T13:23:26Z</time>
      </trkpt>
      <trkpt lat="48.29659" lon="3.1695">
        <ele>135.99</ele>
        <time>2019-03-30T13:23:31Z</time>
      </trkpt>
      <trkpt lat="48.29659" lon="3.1695">
        <ele>135.99</ele>
        <time>2019-03-30T13:23:36Z</time>
      </trkpt>
      <trkpt lat="48.29659" lon="3.1695">
        <ele>135.99</ele>
        <time>2019-03-30T13:23:41Z</time>
      </trkpt>
      <trkpt lat="48.2966" lon="3.1695">
        <ele>135.99</ele>
        <time>2019-03-30T13:23:46Z</time>
      </trkpt>
      <trkpt lat="48.2966" lon="3.1695">
        <ele>135.99</ele>
        <time>2019-03-30T13:23:51Z</time>
      </trkpt>
      <trkpt lat="48.2966" lon="3.1695">
        <ele>135.99</ele>
        <time>2019-03-30T13:23:56Z</time>
      </trkpt>
      <trkpt lat="48.2966" lon="3.1695">
        <ele>135.99</ele>
        <time>2019-03-30T13:24:01Z</time>
      </trkpt>
      <trkpt lat="48.2966" lon="3.1695">
        <ele>135.99</ele>
        <time>2019-03-30T13:24:06Z</time>
      </trkpt>
      <trkpt lat="48.2966" lon="3.1695">
        <ele>135.99</ele>
        <time>2019-03-30T13:24:11Z</time>
      </trkpt>
      <trkpt lat="48.2966" lon="3.1695">
        <ele>135.99</ele>
        <time>2019-03-30T13:24:16Z</time>
      </trkpt>
      <trkpt lat="48.2966" lon="3.1695">
        <ele>135.99</ele>
        <time>2019-03-30T13:24:21Z</time>
      </trkpt>
      <trkpt lat="48.2966" lon="3.1695">
        <ele>135.99</ele>
        <time>2019-03-30T13:24:26Z</time>
      </trkpt>
      <trkpt lat="48.2966" lon="3.1695">
        <ele>135.99</ele>
        <time>2019-03-30T13:24:31Z</time>
      </trkpt>
      <trkpt lat="48.2966" lon="3.16949">
        <ele>135.99</ele>
        <time>2019-03-30T13:24:36Z</time>
      </trkpt>
      <trkpt lat="48.29659" lon="3.16949">
        <ele>135.99</ele>
        <time>2019-03-30T13:24:41Z</time>
      </trkpt>
      <trkpt lat="48.29659" lon="3.16948">
        <ele>135.99</ele>
        <time>2019-03-30T13:24:46Z</time>
      </trkpt>
      <trkpt lat="48.2966" lon="3.16949">
        <ele>135.99</ele>
        <time>2019-03-30T13:24:51Z</time>
      </trkpt>
      <trkpt lat="48.2966" lon="3.16948">
        <ele>135.99</ele>
        <time>2019-03-30T13:24:56Z</time>
      </trkpt>
      <trkpt lat="48.2966" lon="3.16948">
        <ele>135.99</ele>
        <time>2019-03-30T13:25:01Z</time>
      </trkpt>
      <trkpt lat="48.2966" lon="3.16948">
        <ele>135.99</ele>
        <time>2019-03-30T13:25:06Z</time>
      </trkpt>
      <trkpt lat="48.29661" lon="3.16949">
        <ele>135.99</ele>
        <time>2019-03-30T13:25:11Z</time>
      </trkpt>
      <trkpt lat="48.29661" lon="3.16948">
        <ele>135.99</ele>
        <time>2019-03-30T13:25:16Z</time>
      </trkpt>
      <trkpt lat="48.29661" lon="3.16947">
        <ele>135.99</ele>
        <time>2019-03-30T13:25:21Z</time>
      </trkpt>
      <trkpt lat="48.29661" lon="3.16945">
        <ele>135.99</ele>
        <time>2019-03-30T13:25:26Z</time>
      </trkpt>
      <trkpt lat="48.29662" lon="3.16947">
        <ele>135.99</ele>
        <time>2019-03-30T13:25:31Z</time>
      </trkpt>
      <trkpt lat="48.29663" lon="3.16948">
        <ele>135.99</ele>
        <time>2019-03-30T13:25:36Z</time>
      </trkpt>
      <trkpt lat="48.29664" lon="3.16949">
        <ele>135.99</ele>
        <time>2019-03-30T13:25:41Z</time>
      </trkpt>
      <trkpt lat="48.29665" lon="3.16948">
        <ele>135.99</ele>
        <time>2019-03-30T13:25:46Z</time>
      </trkpt>
      <trkpt lat="48.29664" lon="3.1695">
        <ele>135.99</ele>
        <time>2019-03-30T13:25:51Z</time>
      </trkpt>
      <trkpt lat="48.29663" lon="3.16949">
        <ele>135.99</ele>
        <time>2019-03-30T13:25:56Z</time>
      </trkpt>
      <trkpt lat="48.29663" lon="3.16949">
        <ele>135.99</ele>
        <time>2019-03-30T13:26:01Z</time>
      </trkpt>
      <trkpt lat="48.29662" lon="3.16948">
        <ele>135.99</ele>
        <time>2019-03-30T13:26:06Z</time>
      </trkpt>
      <trkpt lat="48.29662" lon="3.16948">
        <ele>135.99</ele>
        <time>2019-03-30T13:26:11Z</time>
      </trkpt>
      <trkpt lat="48.29662" lon="3.16948">
        <ele>135.99</ele>
        <time>2019-03-30T13:26:16Z</time>
      </trkpt>
      <trkpt lat="48.29662" lon="3.16948">
        <ele>135.99</ele>
        <time>2019-03-30T13:26:21Z</time>
      </trkpt>
      <trkpt lat="48.29662" lon="3.16947">
        <ele>135.99</ele>
        <time>2019-03-30T13:26:26Z</time>
      </trkpt>
      <trkpt lat="48.29662" lon="3.16948">
        <ele>135.99</ele>
        <time>2019-03-30T13:26:31Z</time>
      </trkpt>
      <trkpt lat="48.29662" lon="3.16947">
        <ele>135.99</ele>
        <time>2019-03-30T13:26:36Z</time>
      </trkpt>
      <trkpt lat="48.29661" lon="3.16948">
        <ele>135.99</ele>
        <time>2019-03-30T13:26:41Z</time>
      </trkpt>
      <trkpt lat="48.29661" lon="3.16948">
        <ele>135.99</ele>
        <time>2019-03-30T13:26:46Z</time>
      </trkpt>
      <trkpt lat="48.29661" lon="3.16949">
        <ele>135.99</ele>
        <time>2019-03-30T13:26:51Z</time>
      </trkpt>
      <trkpt lat="48.29661" lon="3.16949">
        <ele>135.99</ele>
        <time>2019-03-30T13:26:56Z</time>
      </trkpt>
      <trkpt lat="48.29661" lon="3.16949">
        <ele>135.99</ele>
        <time>2019-03-30T13:27:01Z</time>
      </trkpt>
      <trkpt lat="48.29661" lon="3.16949">
        <ele>135.99</ele>
        <time>2019-03-30T13:27:06Z</time>
      </trkpt>
      <trkpt lat="48.2966" lon="3.1695">
        <ele>135.99</ele>
        <time>2019-03-30T13:27:11Z</time>
      </trkpt>
      <trkpt lat="48.2966" lon="3.1695">
        <ele>135.99</ele>
        <time>2019-03-30T13:27:16Z</time>
      </trkpt>
      <trkpt lat="48.29659" lon="3.1695">
        <ele>135.99</ele>
        <time>2019-03-30T13:27:21Z</time>
      </trkpt>
      <trkpt lat="48.29659" lon="3.16951">
        <ele>135.99</ele>
        <time>2019-03-30T13:27:26Z</time>
      </trkpt>
      <trkpt lat="48.29658" lon="3.16952">
        <ele>135.99</ele>
        <time>2019-03-30T13:27:31Z</time>
      </trkpt>
      <trkpt lat="48.29659" lon="3.16952">
        <ele>135.99</ele>
        <time>2019-03-30T13:27:36Z</time>
      </trkpt>
      <trkpt lat="48.29659" lon="3.16951">
        <ele>135.99</ele>
        <time>2019-03-30T13:27:41Z</time>
      </trkpt>
      <trkpt lat="48.29658" lon="3.1695">
        <ele>135.99</ele>
        <time>2019-03-30T13:27:46Z</time>
      </trkpt>
      <trkpt lat="48.29658" lon="3.16951">
        <ele>135.99</ele>
        <time>2019-03-30T13:27:51Z</time>
      </trkpt>
      <trkpt lat="48.29658" lon="3.1695">
        <ele>135.99</ele>
        <time>2019-03-30T13:27:56Z</time>
      </trkpt>
      <trkpt lat="48.29658" lon="3.1695">
        <ele>135.99</ele>
        <time>2019-03-30T13:28:01Z</time>
      </trkpt>
      <trkpt lat="48.29659" lon="3.16951">
        <ele>135.99</ele>
        <time>2019-03-30T13:28:06Z</time>
      </trkpt>
      <trkpt lat="48.2966" lon="3.1695">
        <ele>135.99</ele>
        <time>2019-03-30T13:28:11Z</time>
      </trkpt>
      <trkpt lat="48.29659" lon="3.16946">
        <ele>135.99</ele>
        <time>2019-03-30T13:28:16Z</time>
      </trkpt>
      <trkpt lat="48.2966" lon="3.16946">
        <ele>135.99</ele>
        <time>2019-03-30T13:28:21Z</time>
      </trkpt>
      <trkpt lat="48.29661" lon="3.16946">
        <ele>135.99</ele>
        <time>2019-03-30T13:28:26Z</time>
      </trkpt>
      <trkpt lat="48.29661" lon="3.16947">
        <ele>135.99</ele>
        <time>2019-03-30T13:28:31Z</time>
      </trkpt>
      <trkpt lat="48.29661" lon="3.16948">
        <ele>135.99</ele>
        <time>2019-03-30T13:28:36Z</time>
      </trkpt>
      <trkpt lat="48.29661" lon="3.16949">
        <ele>135.99</ele>
        <time>2019-03-30T13:28:41Z</time>
      </trkpt>
      <trkpt lat="48.29661" lon="3.16948">
        <ele>135.99</ele>
        <time>2019-03-30T13:28:46Z</time>
      </trkpt>
      <trkpt lat="48.2966" lon="3.16948">
        <ele>135.99</ele>
        <time>2019-03-30T13:28:51Z</time>
      </trkpt>
      <trkpt lat="48.29659" lon="3.16948">
        <ele>135.99</ele>
        <time>2019-03-30T13:28:56Z</time>
      </trkpt>
      <trkpt lat="48.29659" lon="3.16948">
        <ele>135.99</ele>
        <time>2019-03-30T13:29:01Z</time>
      </trkpt>
      <trkpt lat="48.29658" lon="3.16948">
        <ele>135.99</ele>
        <time>2019-03-30T13:29:06Z</time>
      </trkpt>
      <trkpt lat="48.29658" lon="3.16949">
        <ele>135.99</ele>
        <time>2019-03-30T13:29:11Z</time>
      </trkpt>
      <trkpt lat="48.29658" lon="3.16948">
        <ele>135.99</ele>
        <time>2019-03-30T13:29:16Z</time>
      </trkpt>
      <trkpt lat="48.29658" lon="3.16948">
        <ele>135.99</ele>
        <time>2019-03-30T13:29:21Z</time>
      </trkpt>
      <trkpt lat="48.29658" lon="3.16948">
        <ele>135.99</ele>
        <time>2019-03-30T13:29:26Z</time>
      </trkpt>
      <trkpt lat="48.29659" lon="3.16947">
        <ele>135.99</ele>
        <time>2019-03-30T13:29:31Z</time>
      </trkpt>
      <trkpt lat="48.29659" lon="3.16947">
        <ele>135.99</ele>
        <time>2019-03-30T13:29:36Z</time>
      </trkpt>
      <trkpt lat="48.29659" lon="3.16947">
        <ele>135.99</ele>
        <time>2019-03-30T13:29:41Z</time>
      </trkpt>
      <trkpt lat="48.29659" lon="3.16946">
        <ele>135.99</ele>
        <time>2019-03-30T13:29:46Z</time>
      </trkpt>
      <trkpt lat="48.29658" lon="3.16946">
        <ele>135.99</ele>
        <time>2019-03-30T13:29:51Z</time>
      </trkpt>
      <trkpt lat="48.29658" lon="3.16947">
        <ele>135.99</ele>
        <time>2019-03-30T13:29:56Z</time>
      </trkpt>
      <trkpt lat="48.29658" lon="3.16947">
        <ele>135.99</ele>
        <time>2019-03-30T13:30:01Z</time>
      </trkpt>
      <trkpt lat="48.29658" lon="3.16948">
        <ele>135.99</ele>
        <time>2019-03-30T13:30:06Z</time>
      </trkpt>
      <trkpt lat="48.29658" lon="3.16948">
        <ele>135.99</ele>
        <time>2019-03-30T13:30:11Z</time>
      </trkpt>
      <trkpt lat="48.29658" lon="3.16948">
        <ele>135.99</ele>
        <time>2019-03-30T13:30:16Z</time>
      </trkpt>
      <trkpt lat="48.29658" lon="3.16949">
        <ele>135.99</ele>
        <time>2019-03-30T13:30:21Z</time>
      </trkpt>
      <trkpt lat="48.29657" lon="3.16949">
        <ele>135.99</ele>
        <time>2019-03-30T13:30:26Z</time>
      </trkpt>
      <trkpt lat="48.29656" lon="3.16948">
        <ele>135.99</ele>
        <time>2019-03-30T13:30:31Z</time>
      </trkpt>
      <trkpt lat="48.29655" lon="3.16948">
        <ele>135.99</ele>
        <time>2019-03-30T13:30:36Z</time>
      </trkpt>
      <trkpt lat="48.29654" lon="3.16948">
        <ele>135.99</ele>
        <time>2019-03-30T13:30:41Z</time>
      </trkpt>
      <trkpt lat="48.29655" lon="3.16947">
        <ele>135.99</ele>
        <time>2019-03-30T13:30:46Z</time>
      </trkpt>
      <trkpt lat="48.29656" lon="3.16947">
        <ele>135.99</ele>
        <time>2019-03-30T13:30:51Z</time>
      </trkpt>
      <trkpt lat="48.29656" lon="3.16947">
        <ele>135.99</ele>
        <time>2019-03-30T13:30:56Z</time>
      </trkpt>
      <trkpt lat="48.29657" lon="3.16947">
        <ele>135.99</ele>
        <time>2019-03-30T13:31:01Z</time>
      </trkpt>
      <trkpt lat="48.29656" lon="3.16946">
        <ele>135.99</ele>
        <time>2019-03-30T13:31:06Z</time>
      </trkpt>
      <trkpt lat="48.29655" lon="3.16947">
        <ele>135.99</ele>
        <time>2019-03-30T13:31:11Z</time>
      </trkpt>
      <trkpt lat="48.29656" lon="3.16947">
        <ele>135.99</ele>
        <time>2019-03-30T13:31:16Z</time>
      </trkpt>
      <trkpt lat="48.29657" lon="3.16949">
        <ele>135.99</ele>
        <time>2019-03-30T13:31:21Z</time>
      </trkpt>
      <trkpt lat="48.29656" lon="3.16948">
        <ele>135.99</ele>
        <time>2019-03-30T13:31:26Z</time>
      </trkpt>
      <trkpt lat="48.29657" lon="3.1695">
        <ele>135.99</ele>
        <time>2019-03-30T13:31:31Z</time>
      </trkpt>
      <trkpt lat="48.29661" lon="3.16955">
        <ele>135.99</ele>
        <time>2019-03-30T13:31:36Z</time>
      </trkpt>
      <trkpt lat="48.29664" lon="3.16961">
        <ele>136.57</ele>
        <time>2019-03-30T13:31:41Z</time>
      </trkpt>
      <trkpt lat="48.29668" lon="3.16966">
        <ele>136.7</ele>
        <time>2019-03-30T13:31:46Z</time>
      </trkpt>
      <trkpt lat="48.29672" lon="3.16973">
        <ele>136.56</ele>
        <time>2019-03-30T13:31:51Z</time>
      </trkpt>
      <trkpt lat="48.29675" lon="3.16978">
        <ele>136.55</ele>
        <time>2019-03-30T13:31:56Z</time>
      </trkpt>
      <trkpt lat="48.29678" lon="3.16983">
        <ele>136.32</ele>
        <time>2019-03-30T13:32:01Z</time>
      </trkpt>
      <trkpt lat="48.29681" lon="3.16988">
        <ele>136.25</ele>
        <time>2019-03-30T13:32:06Z</time>
      </trkpt>
      <trkpt lat="48.29684" lon="3.16993">
        <ele>136.17</ele>
        <time>2019-03-30T13:32:11Z</time>
      </trkpt>
      <trkpt lat="48.29686" lon="3.16999">
        <ele>136.04</ele>
        <time>2019-03-30T13:32:16Z</time>
      </trkpt>
      <trkpt lat="48.2969" lon="3.17005">
        <ele>135.92</ele>
        <time>2019-03-30T13:32:21Z</time>
      </trkpt>
      <trkpt lat="48.29693" lon="3.1701">
        <ele>135.69</ele>
        <time>2019-03-30T13:32:26Z</time>
      </trkpt>
      <trkpt lat="48.29697" lon="3.17014">
        <ele>135.49</ele>
        <time>2019-03-30T13:32:31Z</time>
      </trkpt>
      <trkpt lat="48.29701" lon="3.1702">
        <ele>135.28</ele>
        <time>2019-03-30T13:32:36Z</time>
      </trkpt>
      <trkpt lat="48.29705" lon="3.17025">
        <ele>135.01</ele>
        <time>2019-03-30T13:32:41Z</time>
      </trkpt>
      <trkpt lat="48.29709" lon="3.17031">
        <ele>134.8</ele>
        <time>2019-03-30T13:32:46Z</time>
      </trkpt>
      <trkpt lat="48.29712" lon="3.17034">
        <ele>134.54</ele>
        <time>2019-03-30T13:32:51Z</time>
      </trkpt>
      <trkpt lat="48.29714" lon="3.17037">
        <ele>134.42</ele>
        <time>2019-03-30T13:32:56Z</time>
      </trkpt>
      <trkpt lat="48.29717" lon="3.17041">
        <ele>134.25</ele>
        <time>2019-03-30T13:33:01Z</time>
      </trkpt>
      <trkpt lat="48.2972" lon="3.17048">
        <ele>133.97</ele>
        <time>2019-03-30T13:33:06Z</time>
      </trkpt>
      <trkpt lat="48.29723" lon="3.17054">
        <ele>133.53</ele>
        <time>2019-03-30T13:33:11Z</time>
      </trkpt>
      <trkpt lat="48.29726" lon="3.17059">
        <ele>133.4</ele>
        <time>2019-03-30T13:33:16Z</time>
      </trkpt>
      <trkpt lat="48.2973" lon="3.17065">
        <ele>133.22</ele>
        <time>2019-03-30T13:33:21Z</time>
      </trkpt>
      <trkpt lat="48.29733" lon="3.17072">
        <ele>132.96</ele>
        <time>2019-03-30T13:33:26Z</time>
      </trkpt>
      <trkpt lat="48.29736" lon="3.17077">
        <ele>132.85</ele>
        <time>2019-03-30T13:33:31Z</time>
      </trkpt>
      <trkpt lat="48.2974" lon="3.17084">
        <ele>132.7</ele>
        <time>2019-03-30T13:33:36Z</time>
      </trkpt>
      <trkpt lat="48.29745" lon="3.17089">
        <ele>132.54</ele>
        <time>2019-03-30T13:33:41Z</time>
      </trkpt>
      <trkpt lat="48.29749" lon="3.17094">
        <ele>132.41</ele>
        <time>2019-03-30T13:33:46Z</time>
      </trkpt>
      <trkpt lat="48.29753" lon="3.171">
        <ele>132.26</ele>
        <time>2019-03-30T13:33:51Z</time>
      </trkpt>
      <trkpt lat="48.29757" lon="3.17106">
        <ele>132.21</ele>
        <time>2019-03-30T13:33:56Z</time>
      </trkpt>
      <trkpt lat="48.2976" lon="3.17112">
        <ele>132.08</ele>
        <time>2019-03-30T13:34:01Z</time>
      </trkpt>
      <trkpt lat="48.29764" lon="3.17117">
        <ele>131.8</ele>
        <time>2019-03-30T13:34:06Z</time>
      </trkpt>
      <trkpt lat="48.29766" lon="3.17123">
        <ele>131.61</ele>
        <time>2019-03-30T13:34:11Z</time>
      </trkpt>
      <trkpt lat="48.29765" lon="3.1713">
        <ele>131.03</ele>
        <time>2019-03-30T13:34:16Z</time>
      </trkpt>
      <trkpt lat="48.29761" lon="3.17135">
        <ele>130.56</ele>
        <time>2019-03-30T13:34:21Z</time>
      </trkpt>
      <trkpt lat="48.29756" lon="3.1714">
        <ele>129.93</ele>
        <time>2019-03-30T13:34:26Z</time>
      </trkpt>
      <trkpt lat="48.29752" lon="3.17145">
        <ele>129.34</ele>
        <time>2019-03-30T13:34:31Z</time>
      </trkpt>
      <trkpt lat="48.29749" lon="3.17151">
        <ele>128.97</ele>
        <time>2019-03-30T13:34:36Z</time>
      </trkpt>
      <trkpt lat="48.29746" lon="3.17157">
        <ele>128.45</ele>
        <time>2019-03-30T13:34:41Z</time>
      </trkpt>
      <trkpt lat="48.29742" lon="3.17164">
        <ele>128.04</ele>
        <time>2019-03-30T13:34:46Z</time>
      </trkpt>
      <trkpt lat="48.29738" lon="3.1717">
        <ele>127.7</ele>
        <time>2019-03-30T13:34:51Z</time>
      </trkpt>
      <trkpt lat="48.29735" lon="3.17176">
        <ele>127.31</ele>
        <time>2019-03-30T13:34:56Z</time>
      </trkpt>
      <trkpt lat="48.29733" lon="3.17182">
        <ele>126.97</ele>
        <time>2019-03-30T13:35:01Z</time>
      </trkpt>
      <trkpt lat="48.29731" lon="3.17188">
        <ele>126.54</ele>
        <time>2019-03-30T13:35:06Z</time>
      </trkpt>
      <trkpt lat="48.29728" lon="3.17194">
        <ele>126.17</ele>
        <time>2019-03-30T13:35:11Z</time>
      </trkpt>
      <trkpt lat="48.29725" lon="3.17199">
        <ele>125.63</ele>
        <time>2019-03-30T13:35:16Z</time>
      </trkpt>
      <trkpt lat="48.29721" lon="3.17206">
        <ele>125.23</ele>
        <time>2019-03-30T13:35:21Z</time>
      </trkpt>
      <trkpt lat="48.29718" lon="3.17213">
        <ele>124.75</ele>
        <time>2019-03-30T13:35:26Z</time>
      </trkpt>
      <trkpt lat="48.29714" lon="3.17218">
        <ele>123.96</ele>
        <time>2019-03-30T13:35:31Z</time>
      </trkpt>
      <trkpt lat="48.29712" lon="3.17223">
        <ele>123.35</ele>
        <time>2019-03-30T13:35:36Z</time>
      </trkpt>
      <trkpt lat="48.29709" lon="3.17229">
        <ele>122.9</ele>
        <time>2019-03-30T13:35:41Z</time>
      </trkpt>
      <trkpt lat="48.29704" lon="3.17234">
        <ele>122.44</ele>
        <time>2019-03-30T13:35:46Z</time>
      </trkpt>
      <trkpt lat="48.29701" lon="3.17241">
        <ele>121.95</ele>
        <time>2019-03-30T13:35:51Z</time>
      </trkpt>
      <trkpt lat="48.29697" lon="3.17247">
        <ele>121.46</ele>
        <time>2019-03-30T13:35:56Z</time>
      </trkpt>
      <trkpt lat="48.29694" lon="3.17254">
        <ele>120.53</ele>
        <time>2019-03-30T13:36:01Z</time>
      </trkpt>
      <trkpt lat="48.2969" lon="3.1726">
        <ele>120</ele>
        <time>2019-03-30T13:36:06Z</time>
      </trkpt>
      <trkpt lat="48.29686" lon="3.17266">
        <ele>119.43</ele>
        <time>2019-03-30T13:36:11Z</time>
      </trkpt>
      <trkpt lat="48.29682" lon="3.17272">
        <ele>118.87</ele>
        <time>2019-03-30T13:36:16Z</time>
      </trkpt>
      <trkpt lat="48.29677" lon="3.17278">
        <ele>118.4</ele>
        <time>2019-03-30T13:36:21Z</time>
      </trkpt>
      <trkpt lat="48.29673" lon="3.17285">
        <ele>117.94</ele>
        <time>2019-03-30T13:36:26Z</time>
      </trkpt>
      <trkpt lat="48.2967" lon="3.17292">
        <ele>117.48</ele>
        <time>2019-03-30T13:36:31Z</time>
      </trkpt>
      <trkpt lat="48.29666" lon="3.17298">
        <ele>116.83</ele>
        <time>2019-03-30T13:36:36Z</time>
      </trkpt>
      <trkpt lat="48.29664" lon="3.17304">
        <ele>116.14</ele>
        <time>2019-03-30T13:36:41Z</time>
      </trkpt>
      <trkpt lat="48.29661" lon="3.1731">
        <ele>115.65</ele>
        <time>2019-03-30T13:36:46Z</time>
      </trkpt>
      <trkpt lat="48.29656" lon="3.17317">
        <ele>115.13</ele>
        <time>2019-03-30T13:36:51Z</time>
      </trkpt>
      <trkpt lat="48.29652" lon="3.17322">
        <ele>114.6</ele>
        <time>2019-03-30T13:36:56Z</time>
      </trkpt>
      <trkpt lat="48.29648" lon="3.17328">
        <ele>114.09</ele>
        <time>2019-03-30T13:37:01Z</time>
      </trkpt>
      <trkpt lat="48.29643" lon="3.17335">
        <ele>113.38</ele>
        <time>2019-03-30T13:37:06Z</time>
      </trkpt>
      <trkpt lat="48.2964" lon="3.17341">
        <ele>112.99</ele>
        <time>2019-03-30T13:37:11Z</time>
      </trkpt>
      <trkpt lat="48.29637" lon="3.17347">
        <ele>112.51</ele>
        <time>2019-03-30T13:37:16Z</time>
      </trkpt>
      <trkpt lat="48.29633" lon="3.17355">
        <ele>111.95</ele>
        <time>2019-03-30T13:37:21Z</time>
      </trkpt>
      <trkpt lat="48.29631" lon="3.17364">
        <ele>111.59</ele>
        <time>2019-03-30T13:37:26Z</time>
      </trkpt>
      <trkpt lat="48.29631" lon="3.17372">
        <ele>111.24</ele>
        <time>2019-03-30T13:37:31Z</time>
      </trkpt>
      <trkpt lat="48.29632" lon="3.1738">
        <ele>110.86</ele>
        <time>2019-03-30T13:37:36Z</time>
      </trkpt>
      <trkpt lat="48.29634" lon="3.17388">
        <ele>110.69</ele>
        <time>2019-03-30T13:37:41Z</time>
      </trkpt>
      <trkpt lat="48.29634" lon="3.17397">
        <ele>110.48</ele>
        <time>2019-03-30T13:37:46Z</time>
      </trkpt>
      <trkpt lat="48.29636" lon="3.17406">
        <ele>110.14</ele>
        <time>2019-03-30T13:37:51Z</time>
      </trkpt>
      <trkpt lat="48.29636" lon="3.17413">
        <ele>109.73</ele>
        <time>2019-03-30T13:37:56Z</time>
      </trkpt>
      <trkpt lat="48.29636" lon="3.17421">
        <ele>109.43</ele>
        <time>2019-03-30T13:38:01Z</time>
      </trkpt>
      <trkpt lat="48.29637" lon="3.17429">
        <ele>109.07</ele>
        <time>2019-03-30T13:38:06Z</time>
      </trkpt>
      <trkpt lat="48.29637" lon="3.17436">
        <ele>108.79</ele>
        <time>2019-03-30T13:38:11Z</time>
      </trkpt>
      <trkpt lat="48.29636" lon="3.17443">
        <ele>108.55</ele>
        <time>2019-03-30T13:38:16Z</time>
      </trkpt>
      <trkpt lat="48.29636" lon="3.17451">
        <ele>108.13</ele>
        <time>2019-03-30T13:38:21Z</time>
      </trkpt>
      <trkpt lat="48.2964" lon="3.17457">
        <ele>108.01</ele>
        <time>2019-03-30T13:38:26Z</time>
      </trkpt>
      <trkpt lat="48.29644" lon="3.17462">
        <ele>107.98</ele>
        <time>2019-03-30T13:38:31Z</time>
      </trkpt>
      <trkpt lat="48.29648" lon="3.17466">
        <ele>107.87</ele>
        <time>2019-03-30T13:38:36Z</time>
      </trkpt>
      <trkpt lat="48.29652" lon="3.17472">
        <ele>107.82</ele>
        <time>2019-03-30T13:38:41Z</time>
      </trkpt>
      <trkpt lat="48.29657" lon="3.17477">
        <ele>107.75</ele>
        <time>2019-03-30T13:38:46Z</time>
      </trkpt>
      <trkpt lat="48.29662" lon="3.17481">
        <ele>107.56</ele>
        <time>2019-03-30T13:38:51Z</time>
      </trkpt>
      <trkpt lat="48.29665" lon="3.17486">
        <ele>107.38</ele>
        <time>2019-03-30T13:38:56Z</time>
      </trkpt>
      <trkpt lat="48.2967" lon="3.17491">
        <ele>107.24</ele>
        <time>2019-03-30T13:39:01Z</time>
      </trkpt>
      <trkpt lat="48.29672" lon="3.17496">
        <ele>107.06</ele>
        <time>2019-03-30T13:39:06Z</time>
      </trkpt>
      <trkpt lat="48.29673" lon="3.175">
        <ele>107.09</ele>
        <time>2019-03-30T13:39:11Z</time>
      </trkpt>
      <trkpt lat="48.29673" lon="3.17503">
        <ele>108.27</ele>
        <time>2019-03-30T13:39:16Z</time>
      </trkpt>
      <trkpt lat="48.2967" lon="3.1751">
        <ele>108.71</ele>
        <time>2019-03-30T13:39:21Z</time>
      </trkpt>
      <trkpt lat="48.29669" lon="3.17513">
        <ele>108.73</ele>
        <time>2019-03-30T13:39:26Z</time>
      </trkpt>
      <trkpt lat="48.29668" lon="3.17518">
        <ele>108.62</ele>
        <time>2019-03-30T13:39:31Z</time>
      </trkpt>
      <trkpt lat="48.29666" lon="3.17523">
        <ele>108.46</ele>
        <time>2019-03-30T13:39:36Z</time>
      </trkpt>
      <trkpt lat="48.29663" lon="3.17529">
        <ele>108.2</ele>
        <time>2019-03-30T13:39:41Z</time>
      </trkpt>
      <trkpt lat="48.2966" lon="3.17534">
        <ele>107.78</ele>
        <time>2019-03-30T13:39:46Z</time>
      </trkpt>
      <trkpt lat="48.29657" lon="3.17539">
        <ele>107.45</ele>
        <time>2019-03-30T13:39:51Z</time>
      </trkpt>
      <trkpt lat="48.29656" lon="3.17544">
        <ele>107.03</ele>
        <time>2019-03-30T13:39:56Z</time>
      </trkpt>
      <trkpt lat="48.29653" lon="3.17549">
        <ele>106.69</ele>
        <time>2019-03-30T13:40:01Z</time>
      </trkpt>
      <trkpt lat="48.2965" lon="3.17554">
        <ele>106.2</ele>
        <time>2019-03-30T13:40:06Z</time>
      </trkpt>
      <trkpt lat="48.29646" lon="3.17559">
        <ele>105.69</ele>
        <time>2019-03-30T13:40:11Z</time>
      </trkpt>
      <trkpt lat="48.29643" lon="3.17564">
        <ele>105.04</ele>
        <time>2019-03-30T13:40:16Z</time>
      </trkpt>
      <trkpt lat="48.2964" lon="3.17569">
        <ele>104.39</ele>
        <time>2019-03-30T13:40:21Z</time>
      </trkpt>
      <trkpt lat="48.29637" lon="3.17574">
        <ele>103.8</ele>
        <time>2019-03-30T13:40:26Z</time>
      </trkpt>
      <trkpt lat="48.29634" lon="3.17578">
        <ele>103.39</ele>
        <time>2019-03-30T13:40:31Z</time>
      </trkpt>
      <trkpt lat="48.29631" lon="3.17583">
        <ele>102.69</ele>
        <time>2019-03-30T13:40:36Z</time>
      </trkpt>
      <trkpt lat="48.29628" lon="3.17588">
        <ele>102.06</ele>
        <time>2019-03-30T13:40:41Z</time>
      </trkpt>
      <trkpt lat="48.29625" lon="3.17593">
        <ele>101.15</ele>
        <time>2019-03-30T13:40:46Z</time>
      </trkpt>
      <trkpt lat="48.29622" lon="3.17598">
        <ele>100.47</ele>
        <time>2019-03-30T13:40:51Z</time>
      </trkpt>
      <trkpt lat="48.29619" lon="3.17604">
        <ele>99.82</ele>
        <time>2019-03-30T13:40:56Z</time>
      </trkpt>
      <trkpt lat="48.29617" lon="3.17609">
        <ele>99.08</ele>
        <time>2019-03-30T13:41:01Z</time>
      </trkpt>
      <trkpt lat="48.29614" lon="3.17614">
        <ele>98.13</ele>
        <time>2019-03-30T13:41:06Z</time>
      </trkpt>
      <trkpt lat="48.2961" lon="3.17618">
        <ele>97.51</ele>
        <time>2019-03-30T13:41:11Z</time>
      </trkpt>
      <trkpt lat="48.29606" lon="3.17622">
        <ele>96.83</ele>
        <time>2019-03-30T13:41:16Z</time>
      </trkpt>
      <trkpt lat="48.29603" lon="3.17628">
        <ele>96.09</ele>
        <time>2019-03-30T13:41:21Z</time>
      </trkpt>
      <trkpt lat="48.29599" lon="3.17633">
        <ele>95.37</ele>
        <time>2019-03-30T13:41:26Z</time>
      </trkpt>
      <trkpt lat="48.29596" lon="3.17638">
        <ele>94.58</ele>
        <time>2019-03-30T13:41:31Z</time>
      </trkpt>
      <trkpt lat="48.29593" lon="3.17643">
        <ele>93.88</ele>
        <time>2019-03-30T13:41:36Z</time>
      </trkpt>
      <trkpt lat="48.2959" lon="3.17649">
        <ele>93.07</ele>
        <time>2019-03-30T13:41:41Z</time>
      </trkpt>
      <trkpt lat="48.29586" lon="3.17652">
        <ele>92.55</ele>
        <time>2019-03-30T13:41:46Z</time>
      </trkpt>
      <trkpt lat="48.29583" lon="3.17657">
        <ele>92.07</ele>
        <time>2019-03-30T13:41:51Z</time>
      </trkpt>
      <trkpt lat="48.2958" lon="3.17662">
        <ele>91.23</ele>
        <time>2019-03-30T13:41:56Z</time>
      </trkpt>
      <trkpt lat="48.29577" lon="3.17666">
        <ele>90.52</ele>
        <time>2019-03-30T13:42:01Z</time>
      </trkpt>
      <trkpt lat="48.29573" lon="3.1767">
        <ele>89.93</ele>
        <time>2019-03-30T13:42:06Z</time>
      </trkpt>
      <trkpt lat="48.2957" lon="3.17673">
        <ele>89.08</ele>
        <time>2019-03-30T13:42:11Z</time>
      </trkpt>
      <trkpt lat="48.29569" lon="3.17677">
        <ele>88.1</ele>
        <time>2019-03-30T13:42:16Z</time>
      </trkpt>
      <trkpt lat="48.29566" lon="3.17681">
        <ele>87.01</ele>
        <time>2019-03-30T13:42:21Z</time>
      </trkpt>
      <trkpt lat="48.29563" lon="3.17687">
        <ele>86.25</ele>
        <time>2019-03-30T13:42:26Z</time>
      </trkpt>
      <trkpt lat="48.29559" lon="3.17693">
        <ele>85.48</ele>
        <time>2019-03-30T13:42:31Z</time>
      </trkpt>
      <trkpt lat="48.29556" lon="3.17698">
        <ele>84.5</ele>
        <time>2019-03-30T13:42:36Z</time>
      </trkpt>
      <trkpt lat="48.29553" lon="3.17704">
        <ele>84</ele>
        <time>2019-03-30T13:42:41Z</time>
      </trkpt>
      <trkpt lat="48.2955" lon="3.17708">
        <ele>83.78</ele>
        <time>2019-03-30T13:42:46Z</time>
      </trkpt>
      <trkpt lat="48.29547" lon="3.17713">
        <ele>83.57</ele>
        <time>2019-03-30T13:42:51Z</time>
      </trkpt>
      <trkpt lat="48.29544" lon="3.17719">
        <ele>83.5</ele>
        <time>2019-03-30T13:42:56Z</time>
      </trkpt>
      <trkpt lat="48.29542" lon="3.17724">
        <ele>82.99</ele>
        <time>2019-03-30T13:43:01Z</time>
      </trkpt>
      <trkpt lat="48.29538" lon="3.1773">
        <ele>82.89</ele>
        <time>2019-03-30T13:43:06Z</time>
      </trkpt>
      <trkpt lat="48.29535" lon="3.17734">
        <ele>82.88</ele>
        <time>2019-03-30T13:43:11Z</time>
      </trkpt>
      <trkpt lat="48.29531" lon="3.17737">
        <ele>82.8</ele>
        <time>2019-03-30T13:43:16Z</time>
      </trkpt>
      <trkpt lat="48.2953" lon="3.17737">
        <ele>82.83</ele>
        <time>2019-03-30T13:43:21Z</time>
      </trkpt>
      <trkpt lat="48.2953" lon="3.17737">
        <ele>82.97</ele>
        <time>2019-03-30T13:43:26Z</time>
      </trkpt>
      <trkpt lat="48.29529" lon="3.17736">
        <ele>82.86</ele>
        <time>2019-03-30T13:43:31Z</time>
      </trkpt>
      <trkpt lat="48.2953" lon="3.17737">
        <ele>82.77</ele>
        <time>2019-03-30T13:43:36Z</time>
      </trkpt>
      <trkpt lat="48.29531" lon="3.17737">
        <ele>82.72</ele>
        <time>2019-03-30T13:43:41Z</time>
      </trkpt>
      <trkpt lat="48.2953" lon="3.17737">
        <ele>82.71</ele>
        <time>2019-03-30T13:43:46Z</time>
      </trkpt>
      <trkpt lat="48.2953" lon="3.17738">
        <ele>82.82</ele>
        <time>2019-03-30T13:43:51Z</time>
      </trkpt>
      <trkpt lat="48.2953" lon="3.17741">
        <ele>83.03</ele>
        <time>2019-03-30T13:43:56Z</time>
      </trkpt>
      <trkpt lat="48.29529" lon="3.17744">
        <ele>83.08</ele>
        <time>2019-03-30T13:44:01Z</time>
      </trkpt>
      <trkpt lat="48.29527" lon="3.17748">
        <ele>82.6</ele>
        <time>2019-03-30T13:44:06Z</time>
      </trkpt>
      <trkpt lat="48.29524" lon="3.17751">
        <ele>81.75</ele>
        <time>2019-03-30T13:44:11Z</time>
      </trkpt>
      <trkpt lat="48.29522" lon="3.17754">
        <ele>82.36</ele>
        <time>2019-03-30T13:44:16Z</time>
      </trkpt>
      <trkpt lat="48.29518" lon="3.17757">
        <ele>83.16</ele>
        <time>2019-03-30T13:44:21Z</time>
      </trkpt>
      <trkpt lat="48.29516" lon="3.17761">
        <ele>83.23</ele>
        <time>2019-03-30T13:44:26Z</time>
      </trkpt>
      <trkpt lat="48.29513" lon="3.17765">
        <ele>83.38</ele>
        <time>2019-03-30T13:44:31Z</time>
      </trkpt>
      <trkpt lat="48.29508" lon="3.17767">
        <ele>83.31</ele>
        <time>2019-03-30T13:44:36Z</time>
      </trkpt>
      <trkpt lat="48.29503" lon="3.17768">
        <ele>83.16</ele>
        <time>2019-03-30T13:44:41Z</time>
      </trkpt>
      <trkpt lat="48.29498" lon="3.1777">
        <ele>83.2</ele>
        <time>2019-03-30T13:44:46Z</time>
      </trkpt>
      <trkpt lat="48.29494" lon="3.17772">
        <ele>83.34</ele>
        <time>2019-03-30T13:44:51Z</time>
      </trkpt>
      <trkpt lat="48.29491" lon="3.17777">
        <ele>83.69</ele>
        <time>2019-03-30T13:44:56Z</time>
      </trkpt>
      <trkpt lat="48.29487" lon="3.17782">
        <ele>84.31</ele>
        <time>2019-03-30T13:45:01Z</time>
      </trkpt>
      <trkpt lat="48.29483" lon="3.17787">
        <ele>84.84</ele>
        <time>2019-03-30T13:45:06Z</time>
      </trkpt>
      <trkpt lat="48.29481" lon="3.17794">
        <ele>85.06</ele>
        <time>2019-03-30T13:45:11Z</time>
      </trkpt>
      <trkpt lat="48.29478" lon="3.178">
        <ele>85.12</ele>
        <time>2019-03-30T13:45:16Z</time>
      </trkpt>
      <trkpt lat="48.29475" lon="3.17804">
        <ele>85.4</ele>
        <time>2019-03-30T13:45:21Z</time>
      </trkpt>
      <trkpt lat="48.29472" lon="3.1781">
        <ele>85.54</ele>
        <time>2019-03-30T13:45:26Z</time>
      </trkpt>
      <trkpt lat="48.2947" lon="3.17815">
        <ele>86.1</ele>
        <time>2019-03-30T13:45:31Z</time>
      </trkpt>
      <trkpt lat="48.29466" lon="3.17819">
        <ele>86.53</ele>
        <time>2019-03-30T13:45:36Z</time>
      </trkpt>
      <trkpt lat="48.29462" lon="3.17825">
        <ele>87.12</ele>
        <time>2019-03-30T13:45:41Z</time>
      </trkpt>
      <trkpt lat="48.29458" lon="3.17829">
        <ele>87.92</ele>
        <time>2019-03-30T13:45:46Z</time>
      </trkpt>
      <trkpt lat="48.29456" lon="3.17835">
        <ele>88.2</ele>
        <time>2019-03-30T13:45:51Z</time>
      </trkpt>
      <trkpt lat="48.29453" lon="3.1784">
        <ele>88.74</ele>
        <time>2019-03-30T13:45:56Z</time>
      </trkpt>
      <trkpt lat="48.29449" lon="3.17845">
        <ele>89.2</ele>
        <time>2019-03-30T13:46:01Z</time>
      </trkpt>
      <trkpt lat="48.29445" lon="3.1785">
        <ele>89.69</ele>
        <time>2019-03-30T13:46:06Z</time>
      </trkpt>
      <trkpt lat="48.29441" lon="3.17855">
        <ele>90.07</ele>
        <time>2019-03-30T13:46:11Z</time>
      </trkpt>
      <trkpt lat="48.29438" lon="3.17861">
        <ele>90.26</ele>
        <time>2019-03-30T13:46:16Z</time>
      </trkpt>
      <trkpt lat="48.29434" lon="3.17865">
        <ele>90.44</ele>
        <time>2019-03-30T13:46:21Z</time>
      </trkpt>
      <trkpt lat="48.29432" lon="3.1787">
        <ele>91.07</ele>
        <time>2019-03-30T13:46:26Z</time>
      </trkpt>
      <trkpt lat="48.29429" lon="3.17875">
        <ele>91.7</ele>
        <time>2019-03-30T13:46:31Z</time>
      </trkpt>
      <trkpt lat="48.29426" lon="3.17881">
        <ele>92.85</ele>
        <time>2019-03-30T13:46:36Z</time>
      </trkpt>
      <trkpt lat="48.29424" lon="3.17886">
        <ele>93.55</ele>
        <time>2019-03-30T13:46:41Z</time>
      </trkpt>
      <trkpt lat="48.2942" lon="3.17891">
        <ele>93.54</ele>
        <time>2019-03-30T13:46:46Z</time>
      </trkpt>
      <trkpt lat="48.29418" lon="3.17895">
        <ele>93.75</ele>
        <time>2019-03-30T13:46:51Z</time>
      </trkpt>
      <trkpt lat="48.29416" lon="3.17899">
        <ele>94.52</ele>
        <time>2019-03-30T13:46:56Z</time>
      </trkpt>
      <trkpt lat="48.29414" lon="3.17905">
        <ele>95.29</ele>
        <time>2019-03-30T13:47:01Z</time>
      </trkpt>
      <trkpt lat="48.2941" lon="3.1791">
        <ele>95.9</ele>
        <time>2019-03-30T13:47:06Z</time>
      </trkpt>
      <trkpt lat="48.29408" lon="3.17915">
        <ele>96.47</ele>
        <time>2019-03-30T13:47:11Z</time>
      </trkpt>
      <trkpt lat="48.29406" lon="3.1792">
        <ele>96.76</ele>
        <time>2019-03-30T13:47:16Z</time>
      </trkpt>
      <trkpt lat="48.29404" lon="3.17928">
        <ele>97.04</ele>
        <time>2019-03-30T13:47:21Z</time>
      </trkpt>
      <trkpt lat="48.29402" lon="3.17931">
        <ele>97.38</ele>
        <time>2019-03-30T13:47:26Z</time>
      </trkpt>
      <trkpt lat="48.294" lon="3.17935">
        <ele>97.76</ele>
        <time>2019-03-30T13:47:31Z</time>
      </trkpt>
      <trkpt lat="48.29396" lon="3.17939">
        <ele>98.83</ele>
        <time>2019-03-30T13:47:36Z</time>
      </trkpt>
      <trkpt lat="48.29393" lon="3.17942">
        <ele>99.46</ele>
        <time>2019-03-30T13:47:41Z</time>
      </trkpt>
      <trkpt lat="48.29389" lon="3.17947">
        <ele>99.94</ele>
        <time>2019-03-30T13:47:46Z</time>
      </trkpt>
      <trkpt lat="48.29385" lon="3.17951">
        <ele>100.55</ele>
        <time>2019-03-30T13:47:51Z</time>
      </trkpt>
      <trkpt lat="48.2938" lon="3.17956">
        <ele>101.09</ele>
        <time>2019-03-30T13:47:56Z</time>
      </trkpt>
      <trkpt lat="48.29375" lon="3.17961">
        <ele>101.95</ele>
        <time>2019-03-30T13:48:01Z</time>
      </trkpt>
      <trkpt lat="48.29371" lon="3.17967">
        <ele>102.44</ele>
        <time>2019-03-30T13:48:06Z</time>
      </trkpt>
      <trkpt lat="48.29368" lon="3.17971">
        <ele>102.63</ele>
        <time>2019-03-30T13:48:11Z</time>
      </trkpt>
      <trkpt lat="48.29366" lon="3.17977">
        <ele>102.91</ele>
        <time>2019-03-30T13:48:16Z</time>
      </trkpt>
      <trkpt lat="48.29364" lon="3.17981">
        <ele>103.36</ele>
        <time>2019-03-30T13:48:21Z</time>
      </trkpt>
      <trkpt lat="48.2936" lon="3.17986">
        <ele>104.26</ele>
        <time>2019-03-30T13:48:26Z</time>
      </trkpt>
      <trkpt lat="48.29356" lon="3.17991">
        <ele>104.68</ele>
        <time>2019-03-30T13:48:31Z</time>
      </trkpt>
      <trkpt lat="48.29352" lon="3.17996">
        <ele>105.28</ele>
        <time>2019-03-30T13:48:36Z</time>
      </trkpt>
      <trkpt lat="48.29348" lon="3.18001">
        <ele>105.88</ele>
        <time>2019-03-30T13:48:41Z</time>
      </trkpt>
      <trkpt lat="48.29345" lon="3.18006">
        <ele>106.57</ele>
        <time>2019-03-30T13:48:46Z</time>
      </trkpt>
      <trkpt lat="48.2934" lon="3.1801">
        <ele>106.95</ele>
        <time>2019-03-30T13:48:51Z</time>
      </trkpt>
      <trkpt lat="48.29336" lon="3.18017">
        <ele>108.1</ele>
        <time>2019-03-30T13:48:56Z</time>
      </trkpt>
      <trkpt lat="48.29333" lon="3.18021">
        <ele>108.9</ele>
        <time>2019-03-30T13:49:01Z</time>
      </trkpt>
      <trkpt lat="48.29329" lon="3.18024">
        <ele>109.71</ele>
        <time>2019-03-30T13:49:06Z</time>
      </trkpt>
      <trkpt lat="48.29325" lon="3.18028">
        <ele>110.37</ele>
        <time>2019-03-30T13:49:11Z</time>
      </trkpt>
      <trkpt lat="48.29322" lon="3.18033">
        <ele>110.95</ele>
        <time>2019-03-30T13:49:16Z</time>
      </trkpt>
      <trkpt lat="48.29319" lon="3.18037">
        <ele>111.85</ele>
        <time>2019-03-30T13:49:21Z</time>
      </trkpt>
      <trkpt lat="48.29316" lon="3.18041">
        <ele>112.72</ele>
        <time>2019-03-30T13:49:26Z</time>
      </trkpt>
      <trkpt lat="48.29313" lon="3.18046">
        <ele>113.3</ele>
        <time>2019-03-30T13:49:31Z</time>
      </trkpt>
      <trkpt lat="48.29314" lon="3.18051">
        <ele>113.62</ele>
        <time>2019-03-30T13:49:36Z</time>
      </trkpt>
      <trkpt lat="48.29315" lon="3.18056">
        <ele>114.18</ele>
        <time>2019-03-30T13:49:41Z</time>
      </trkpt>
      <trkpt lat="48.29316" lon="3.1806">
        <ele>114.47</ele>
        <time>2019-03-30T13:49:46Z</time>
      </trkpt>
      <trkpt lat="48.29315" lon="3.18062">
        <ele>114.92</ele>
        <time>2019-03-30T13:49:51Z</time>
      </trkpt>
      <trkpt lat="48.29314" lon="3.18062">
        <ele>114.97</ele>
        <time>2019-03-30T13:49:56Z</time>
      </trkpt>
      <trkpt lat="48.29313" lon="3.18063">
        <ele>115.09</ele>
        <time>2019-03-30T13:50:01Z</time>
      </trkpt>
      <trkpt lat="48.29312" lon="3.18064">
        <ele>115.13</ele>
        <time>2019-03-30T13:50:06Z</time>
      </trkpt>
      <trkpt lat="48.29311" lon="3.18064">
        <ele>115.26</ele>
        <time>2019-03-30T13:50:11Z</time>
      </trkpt>
      <trkpt lat="48.2931" lon="3.18065">
        <ele>115.22</ele>
        <time>2019-03-30T13:50:16Z</time>
      </trkpt>
      <trkpt lat="48.2931" lon="3.18067">
        <ele>115.15</ele>
        <time>2019-03-30T13:50:21Z</time>
      </trkpt>
      <trkpt lat="48.2931" lon="3.18067">
        <ele>115.05</ele>
        <time>2019-03-30T13:50:26Z</time>
      </trkpt>
      <trkpt lat="48.29309" lon="3.18067">
        <ele>114.8</ele>
        <time>2019-03-30T13:50:31Z</time>
      </trkpt>
      <trkpt lat="48.29308" lon="3.18066">
        <ele>114.76</ele>
        <time>2019-03-30T13:50:36Z</time>
      </trkpt>
      <trkpt lat="48.29307" lon="3.18065">
        <ele>114.73</ele>
        <time>2019-03-30T13:50:41Z</time>
      </trkpt>
      <trkpt lat="48.29308" lon="3.18064">
        <ele>114.75</ele>
        <time>2019-03-30T13:50:46Z</time>
      </trkpt>
      <trkpt lat="48.29308" lon="3.18064">
        <ele>114.8</ele>
        <time>2019-03-30T13:50:51Z</time>
      </trkpt>
      <trkpt lat="48.29308" lon="3.18063">
        <ele>114.86</ele>
        <time>2019-03-30T13:50:56Z</time>
      </trkpt>
      <trkpt lat="48.29308" lon="3.18062">
        <ele>114.86</ele>
        <time>2019-03-30T13:51:01Z</time>
      </trkpt>
      <trkpt lat="48.29308" lon="3.18062">
        <ele>114.86</ele>
        <time>2019-03-30T13:51:06Z</time>
      </trkpt>
      <trkpt lat="48.29307" lon="3.18061">
        <ele>114.86</ele>
        <time>2019-03-30T13:51:11Z</time>
      </trkpt>
      <trkpt lat="48.29307" lon="3.18061">
        <ele>114.86</ele>
        <time>2019-03-30T13:51:16Z</time>
      </trkpt>
      <trkpt lat="48.29307" lon="3.18062">
        <ele>114.86</ele>
        <time>2019-03-30T13:51:21Z</time>
      </trkpt>
      <trkpt lat="48.29307" lon="3.18062">
        <ele>114.86</ele>
        <time>2019-03-30T13:51:26Z</time>
      </trkpt>
      <trkpt lat="48.29307" lon="3.18063">
        <ele>114.86</ele>
        <time>2019-03-30T13:51:31Z</time>
      </trkpt>
      <trkpt lat="48.29308" lon="3.18064">
        <ele>114.86</ele>
        <time>2019-03-30T13:51:36Z</time>
      </trkpt>
      <trkpt lat="48.29308" lon="3.18065">
        <ele>114.86</ele>
        <time>2019-03-30T13:51:41Z</time>
      </trkpt>
      <trkpt lat="48.29309" lon="3.18066">
        <ele>114.86</ele>
        <time>2019-03-30T13:51:46Z</time>
      </trkpt>
      <trkpt lat="48.2931" lon="3.18066">
        <ele>114.86</ele>
        <time>2019-03-30T13:51:51Z</time>
      </trkpt>
      <trkpt lat="48.2931" lon="3.18066">
        <ele>114.86</ele>
        <time>2019-03-30T13:51:56Z</time>
      </trkpt>
      <trkpt lat="48.29309" lon="3.18066">
        <ele>114.86</ele>
        <time>2019-03-30T13:52:01Z</time>
      </trkpt>
      <trkpt lat="48.29309" lon="3.18065">
        <ele>114.86</ele>
        <time>2019-03-30T13:52:06Z</time>
      </trkpt>
      <trkpt lat="48.29308" lon="3.18065">
        <ele>114.86</ele>
        <time>2019-03-30T13:52:11Z</time>
      </trkpt>
      <trkpt lat="48.29307" lon="3.18065">
        <ele>114.86</ele>
        <time>2019-03-30T13:52:16Z</time>
      </trkpt>
      <trkpt lat="48.29307" lon="3.18065">
        <ele>114.86</ele>
        <time>2019-03-30T13:52:21Z</time>
      </trkpt>
      <trkpt lat="48.29307" lon="3.18065">
        <ele>114.86</ele>
        <time>2019-03-30T13:52:26Z</time>
      </trkpt>
      <trkpt lat="48.29306" lon="3.18065">
        <ele>114.86</ele>
        <time>2019-03-30T13:52:31Z</time>
      </trkpt>
      <trkpt lat="48.29306" lon="3.18065">
        <ele>114.86</ele>
        <time>2019-03-30T13:52:36Z</time>
      </trkpt>
      <trkpt lat="48.29305" lon="3.18065">
        <ele>114.86</ele>
        <time>2019-03-30T13:52:41Z</time>
      </trkpt>
      <trkpt lat="48.29304" lon="3.18066">
        <ele>114.86</ele>
        <time>2019-03-30T13:52:46Z</time>
      </trkpt>
      <trkpt lat="48.29304" lon="3.18066">
        <ele>114.86</ele>
        <time>2019-03-30T13:52:51Z</time>
      </trkpt>
      <trkpt lat="48.29304" lon="3.18065">
        <ele>114.86</ele>
        <time>2019-03-30T13:52:56Z</time>
      </trkpt>
      <trkpt lat="48.29304" lon="3.18065">
        <ele>114.86</ele>
        <time>2019-03-30T13:53:01Z</time>
      </trkpt>
      <trkpt lat="48.29304" lon="3.18065">
        <ele>114.86</ele>
        <time>2019-03-30T13:53:06Z</time>
      </trkpt>
      <trkpt lat="48.29305" lon="3.18065">
        <ele>114.86</ele>
        <time>2019-03-30T13:53:11Z</time>
      </trkpt>
      <trkpt lat="48.29304" lon="3.18066">
        <ele>114.86</ele>
        <time>2019-03-30T13:53:16Z</time>
      </trkpt>
      <trkpt lat="48.29304" lon="3.18066">
        <ele>114.86</ele>
        <time>2019-03-30T13:53:21Z</time>
      </trkpt>
      <trkpt lat="48.29304" lon="3.18066">
        <ele>114.86</ele>
        <time>2019-03-30T13:53:26Z</time>
      </trkpt>
      <trkpt lat="48.29304" lon="3.18065">
        <ele>114.86</ele>
        <time>2019-03-30T13:53:31Z</time>
      </trkpt>
      <trkpt lat="48.29304" lon="3.18065">
        <ele>114.86</ele>
        <time>2019-03-30T13:53:36Z</time>
      </trkpt>
      <trkpt lat="48.29304" lon="3.18065">
        <ele>114.86</ele>
        <time>2019-03-30T13:53:41Z</time>
      </trkpt>
      <trkpt lat="48.29304" lon="3.18066">
        <ele>114.86</ele>
        <time>2019-03-30T13:53:46Z</time>
      </trkpt>
      <trkpt lat="48.29304" lon="3.18066">
        <ele>114.86</ele>
        <time>2019-03-30T13:53:51Z</time>
      </trkpt>
      <trkpt lat="48.29305" lon="3.18065">
        <ele>114.86</ele>
        <time>2019-03-30T13:53:56Z</time>
      </trkpt>
      <trkpt lat="48.29305" lon="3.18065">
        <ele>114.86</ele>
        <time>2019-03-30T13:54:01Z</time>
      </trkpt>
      <trkpt lat="48.29305" lon="3.18065">
        <ele>114.86</ele>
        <time>2019-03-30T13:54:06Z</time>
      </trkpt>
      <trkpt lat="48.29304" lon="3.18066">
        <ele>114.86</ele>
        <time>2019-03-30T13:54:11Z</time>
      </trkpt>
      <trkpt lat="48.29304" lon="3.18066">
        <ele>114.86</ele>
        <time>2019-03-30T13:54:16Z</time>
      </trkpt>
      <trkpt lat="48.29305" lon="3.18066">
        <ele>114.86</ele>
        <time>2019-03-30T13:54:21Z</time>
      </trkpt>
      <trkpt lat="48.29305" lon="3.18066">
        <ele>114.86</ele>
        <time>2019-03-30T13:54:26Z</time>
      </trkpt>
      <trkpt lat="48.29305" lon="3.18066">
        <ele>114.86</ele>
        <time>2019-03-30T13:54:31Z</time>
      </trkpt>
      <trkpt lat="48.29305" lon="3.18066">
        <ele>114.86</ele>
        <time>2019-03-30T13:54:36Z</time>
      </trkpt>
      <trkpt lat="48.29305" lon="3.18066">
        <ele>114.86</ele>
        <time>2019-03-30T13:54:41Z</time>
      </trkpt>
      <trkpt lat="48.29306" lon="3.18066">
        <ele>114.86</ele>
        <time>2019-03-30T13:54:46Z</time>
      </trkpt>
      <trkpt lat="48.29306" lon="3.18067">
        <ele>114.86</ele>
        <time>2019-03-30T13:54:51Z</time>
      </trkpt>
      <trkpt lat="48.29306" lon="3.18066">
        <ele>114.86</ele>
        <time>2019-03-30T13:54:56Z</time>
      </trkpt>
      <trkpt lat="48.29305" lon="3.18066">
        <ele>114.86</ele>
        <time>2019-03-30T13:55:01Z</time>
      </trkpt>
      <trkpt lat="48.29305" lon="3.18066">
        <ele>114.86</ele>
        <time>2019-03-30T13:55:06Z</time>
      </trkpt>
      <trkpt lat="48.29305" lon="3.18065">
        <ele>114.86</ele>
        <time>2019-03-30T13:55:11Z</time>
      </trkpt>
      <trkpt lat="48.29304" lon="3.18066">
        <ele>114.86</ele>
        <time>2019-03-30T13:55:16Z</time>
      </trkpt>
      <trkpt lat="48.29304" lon="3.18066">
        <ele>114.86</ele>
        <time>2019-03-30T13:55:21Z</time>
      </trkpt>
      <trkpt lat="48.29302" lon="3.18068">
        <ele>114.86</ele>
        <time>2019-03-30T13:55:26Z</time>
      </trkpt>
      <trkpt lat="48.293" lon="3.18068">
        <ele>114.86</ele>
        <time>2019-03-30T13:55:31Z</time>
      </trkpt>
      <trkpt lat="48.29297" lon="3.18073">
        <ele>114.86</ele>
        <time>2019-03-30T13:55:36Z</time>
      </trkpt>
      <trkpt lat="48.29294" lon="3.18076">
        <ele>114.86</ele>
        <time>2019-03-30T13:55:41Z</time>
      </trkpt>
      <trkpt lat="48.29291" lon="3.1808">
        <ele>118.84</ele>
        <time>2019-03-30T13:55:46Z</time>
      </trkpt>
      <trkpt lat="48.29287" lon="3.18083">
        <ele>119.73</ele>
        <time>2019-03-30T13:55:51Z</time>
      </trkpt>
      <trkpt lat="48.29285" lon="3.18086">
        <ele>120.51</ele>
        <time>2019-03-30T13:55:56Z</time>
      </trkpt>
      <trkpt lat="48.29282" lon="3.18089">
        <ele>121.14</ele>
        <time>2019-03-30T13:56:01Z</time>
      </trkpt>
      <trkpt lat="48.29278" lon="3.1809">
        <ele>121.95</ele>
        <time>2019-03-30T13:56:06Z</time>
      </trkpt>
      <trkpt lat="48.29276" lon="3.18092">
        <ele>122.22</ele>
        <time>2019-03-30T13:56:11Z</time>
      </trkpt>
      <trkpt lat="48.29273" lon="3.18095">
        <ele>122.79</ele>
        <time>2019-03-30T13:56:16Z</time>
      </trkpt>
      <trkpt lat="48.29271" lon="3.18098">
        <ele>123.66</ele>
        <time>2019-03-30T13:56:21Z</time>
      </trkpt>
      <trkpt lat="48.29268" lon="3.18102">
        <ele>124.18</ele>
        <time>2019-03-30T13:56:26Z</time>
      </trkpt>
      <trkpt lat="48.29265" lon="3.18104">
        <ele>124.93</ele>
        <time>2019-03-30T13:56:31Z</time>
      </trkpt>
      <trkpt lat="48.2926" lon="3.18109">
        <ele>125.47</ele>
        <time>2019-03-30T13:56:36Z</time>
      </trkpt>
      <trkpt lat="48.29258" lon="3.18113">
        <ele>126.15</ele>
        <time>2019-03-30T13:56:41Z</time>
      </trkpt>
      <trkpt lat="48.29256" lon="3.18115">
        <ele>126.93</ele>
        <time>2019-03-30T13:56:46Z</time>
      </trkpt>
      <trkpt lat="48.29255" lon="3.18118">
        <ele>127.98</ele>
        <time>2019-03-30T13:56:51Z</time>
      </trkpt>
      <trkpt lat="48.29253" lon="3.18121">
        <ele>129.05</ele>
        <time>2019-03-30T13:56:56Z</time>
      </trkpt>
      <trkpt lat="48.29251" lon="3.18123">
        <ele>130.11</ele>
        <time>2019-03-30T13:57:01Z</time>
      </trkpt>
      <trkpt lat="48.29248" lon="3.18125">
        <ele>130.81</ele>
        <time>2019-03-30T13:57:06Z</time>
      </trkpt>
      <trkpt lat="48.29244" lon="3.18128">
        <ele>131.58</ele>
        <time>2019-03-30T13:57:11Z</time>
      </trkpt>
      <trkpt lat="48.29241" lon="3.18131">
        <ele>132.33</ele>
        <time>2019-03-30T13:57:16Z</time>
      </trkpt>
      <trkpt lat="48.29238" lon="3.18133">
        <ele>132.87</ele>
        <time>2019-03-30T13:57:21Z</time>
      </trkpt>
      <trkpt lat="48.29234" lon="3.18135">
        <ele>133.46</ele>
        <time>2019-03-30T13:57:26Z</time>
      </trkpt>
      <trkpt lat="48.29231" lon="3.18139">
        <ele>134.13</ele>
        <time>2019-03-30T13:57:31Z</time>
      </trkpt>
      <trkpt lat="48.29229" lon="3.18143">
        <ele>135.07</ele>
        <time>2019-03-30T13:57:36Z</time>
      </trkpt>
      <trkpt lat="48.29227" lon="3.18146">
        <ele>136.15</ele>
        <time>2019-03-30T13:57:41Z</time>
      </trkpt>
      <trkpt lat="48.29225" lon="3.18148">
        <ele>136.87</ele>
        <time>2019-03-30T13:57:46Z</time>
      </trkpt>
      <trkpt lat="48.29222" lon="3.18151">
        <ele>137.31</ele>
        <time>2019-03-30T13:57:51Z</time>
      </trkpt>
      <trkpt lat="48.29219" lon="3.18152">
        <ele>137.88</ele>
        <time>2019-03-30T13:57:56Z</time>
      </trkpt>
      <trkpt lat="48.29216" lon="3.18155">
        <ele>138.5</ele>
        <time>2019-03-30T13:58:01Z</time>
      </trkpt>
      <trkpt lat="48.29213" lon="3.18158">
        <ele>139.4</ele>
        <time>2019-03-30T13:58:06Z</time>
      </trkpt>
      <trkpt lat="48.2921" lon="3.18162">
        <ele>140.21</ele>
        <time>2019-03-30T13:58:11Z</time>
      </trkpt>
      <trkpt lat="48.29207" lon="3.18165">
        <ele>140.76</ele>
        <time>2019-03-30T13:58:16Z</time>
      </trkpt>
      <trkpt lat="48.29204" lon="3.18166">
        <ele>141.37</ele>
        <time>2019-03-30T13:58:21Z</time>
      </trkpt>
      <trkpt lat="48.29202" lon="3.18169">
        <ele>142.03</ele>
        <time>2019-03-30T13:58:26Z</time>
      </trkpt>
      <trkpt lat="48.29198" lon="3.1817">
        <ele>142.89</ele>
        <time>2019-03-30T13:58:31Z</time>
      </trkpt>
      <trkpt lat="48.29194" lon="3.18172">
        <ele>143.32</ele>
        <time>2019-03-30T13:58:36Z</time>
      </trkpt>
      <trkpt lat="48.29192" lon="3.18175">
        <ele>143.82</ele>
        <time>2019-03-30T13:58:41Z</time>
      </trkpt>
      <trkpt lat="48.29189" lon="3.18177">
        <ele>144.4</ele>
        <time>2019-03-30T13:58:46Z</time>
      </trkpt>
      <trkpt lat="48.29187" lon="3.1818">
        <ele>144.72</ele>
        <time>2019-03-30T13:58:51Z</time>
      </trkpt>
      <trkpt lat="48.29185" lon="3.18183">
        <ele>145.51</ele>
        <time>2019-03-30T13:58:56Z</time>
      </trkpt>
      <trkpt lat="48.29182" lon="3.18186">
        <ele>146.37</ele>
        <time>2019-03-30T13:59:01Z</time>
      </trkpt>
      <trkpt lat="48.2918" lon="3.18189">
        <ele>147.24</ele>
        <time>2019-03-30T13:59:06Z</time>
      </trkpt>
      <trkpt lat="48.29177" lon="3.1819">
        <ele>148.14</ele>
        <time>2019-03-30T13:59:11Z</time>
      </trkpt>
      <trkpt lat="48.29173" lon="3.18193">
        <ele>148.68</ele>
        <time>2019-03-30T13:59:16Z</time>
      </trkpt>
      <trkpt lat="48.29169" lon="3.18196">
        <ele>149.51</ele>
        <time>2019-03-30T13:59:21Z</time>
      </trkpt>
      <trkpt lat="48.29165" lon="3.18199">
        <ele>150.15</ele>
        <time>2019-03-30T13:59:26Z</time>
      </trkpt>
      <trkpt lat="48.29162" lon="3.18202">
        <ele>150.85</ele>
        <time>2019-03-30T13:59:31Z</time>
      </trkpt>
      <trkpt lat="48.29158" lon="3.18204">
        <ele>151.59</ele>
        <time>2019-03-30T13:59:36Z</time>
      </trkpt>
      <trkpt lat="48.29154" lon="3.18208">
        <ele>152.59</ele>
        <time>2019-03-30T13:59:41Z</time>
      </trkpt>
      <trkpt lat="48.29152" lon="3.18212">
        <ele>153.35</ele>
        <time>2019-03-30T13:59:46Z</time>
      </trkpt>
      <trkpt lat="48.29149" lon="3.18216">
        <ele>154.14</ele>
        <time>2019-03-30T13:59:51Z</time>
      </trkpt>
      <trkpt lat="48.29146" lon="3.1822">
        <ele>154.79</ele>
        <time>2019-03-30T13:59:56Z</time>
      </trkpt>
      <trkpt lat="48.29142" lon="3.18222">
        <ele>155.52</ele>
        <time>2019-03-30T14:00:01Z</time>
      </trkpt>
      <trkpt lat="48.29139" lon="3.18224">
        <ele>157.37</ele>
        <time>2019-03-30T14:00:06Z</time>
      </trkpt>
      <trkpt lat="48.29138" lon="3.18225">
        <ele>158.21</ele>
        <time>2019-03-30T14:00:11Z</time>
      </trkpt>
      <trkpt lat="48.29135" lon="3.18228">
        <ele>158.7</ele>
        <time>2019-03-30T14:00:16Z</time>
      </trkpt>
      <trkpt lat="48.29131" lon="3.18234">
        <ele>159.23</ele>
        <time>2019-03-30T14:00:21Z</time>
      </trkpt>
      <trkpt lat="48.29128" lon="3.18238">
        <ele>159.83</ele>
        <time>2019-03-30T14:00:26Z</time>
      </trkpt>
      <trkpt lat="48.29124" lon="3.18242">
        <ele>160.5</ele>
        <time>2019-03-30T14:00:31Z</time>
      </trkpt>
      <trkpt lat="48.2912" lon="3.18247">
        <ele>161.25</ele>
        <time>2019-03-30T14:00:36Z</time>
      </trkpt>
      <trkpt lat="48.29115" lon="3.1825">
        <ele>161.79</ele>
        <time>2019-03-30T14:00:41Z</time>
      </trkpt>
      <trkpt lat="48.29111" lon="3.18254">
        <ele>162.47</ele>
        <time>2019-03-30T14:00:46Z</time>
      </trkpt>
      <trkpt lat="48.29107" lon="3.18257">
        <ele>162.89</ele>
        <time>2019-03-30T14:00:51Z</time>
      </trkpt>
      <trkpt lat="48.29102" lon="3.18263">
        <ele>163.49</ele>
        <time>2019-03-30T14:00:56Z</time>
      </trkpt>
      <trkpt lat="48.29099" lon="3.18268">
        <ele>164.21</ele>
        <time>2019-03-30T14:01:01Z</time>
      </trkpt>
      <trkpt lat="48.29094" lon="3.18272">
        <ele>164.91</ele>
        <time>2019-03-30T14:01:06Z</time>
      </trkpt>
      <trkpt lat="48.29089" lon="3.18276">
        <ele>165.62</ele>
        <time>2019-03-30T14:01:11Z</time>
      </trkpt>
      <trkpt lat="48.29084" lon="3.1828">
        <ele>166.26</ele>
        <time>2019-03-30T14:01:16Z</time>
      </trkpt>
      <trkpt lat="48.29082" lon="3.18284">
        <ele>166.79</ele>
        <time>2019-03-30T14:01:21Z</time>
      </trkpt>
      <trkpt lat="48.29081" lon="3.18285">
        <ele>167.06</ele>
        <time>2019-03-30T14:01:26Z</time>
      </trkpt>
      <trkpt lat="48.2908" lon="3.18285">
        <ele>167.12</ele>
        <time>2019-03-30T14:01:31Z</time>
      </trkpt>
      <trkpt lat="48.29081" lon="3.18285">
        <ele>167.28</ele>
        <time>2019-03-30T14:01:36Z</time>
      </trkpt>
      <trkpt lat="48.2908" lon="3.18286">
        <ele>167.15</ele>
        <time>2019-03-30T14:01:41Z</time>
      </trkpt>
      <trkpt lat="48.2908" lon="3.18287">
        <ele>167.18</ele>
        <time>2019-03-30T14:01:46Z</time>
      </trkpt>
      <trkpt lat="48.2908" lon="3.18287">
        <ele>167.28</ele>
        <time>2019-03-30T14:01:51Z</time>
      </trkpt>
      <trkpt lat="48.29078" lon="3.18287">
        <ele>167.39</ele>
        <time>2019-03-30T14:01:56Z</time>
      </trkpt>
      <trkpt lat="48.29078" lon="3.18287">
        <ele>167.61</ele>
        <time>2019-03-30T14:02:01Z</time>
      </trkpt>
      <trkpt lat="48.29077" lon="3.18287">
        <ele>167.54</ele>
        <time>2019-03-30T14:02:06Z</time>
      </trkpt>
      <trkpt lat="48.29077" lon="3.18286">
        <ele>167.53</ele>
        <time>2019-03-30T14:02:11Z</time>
      </trkpt>
      <trkpt lat="48.29077" lon="3.18286">
        <ele>167.68</ele>
        <time>2019-03-30T14:02:16Z</time>
      </trkpt>
      <trkpt lat="48.29075" lon="3.18284">
        <ele>167.76</ele>
        <time>2019-03-30T14:02:21Z</time>
      </trkpt>
      <trkpt lat="48.29075" lon="3.18284">
        <ele>167.7</ele>
        <time>2019-03-30T14:02:26Z</time>
      </trkpt>
      <trkpt lat="48.29077" lon="3.18284">
        <ele>167.68</ele>
        <time>2019-03-30T14:02:31Z</time>
      </trkpt>
      <trkpt lat="48.29078" lon="3.18284">
        <ele>167.67</ele>
        <time>2019-03-30T14:02:36Z</time>
      </trkpt>
      <trkpt lat="48.29077" lon="3.18285">
        <ele>167.63</ele>
        <time>2019-03-30T14:02:41Z</time>
      </trkpt>
      <trkpt lat="48.29076" lon="3.18285">
        <ele>167.61</ele>
        <time>2019-03-30T14:02:46Z</time>
      </trkpt>
      <trkpt lat="48.29076" lon="3.18286">
        <ele>167.66</ele>
        <time>2019-03-30T14:02:51Z</time>
      </trkpt>
      <trkpt lat="48.29075" lon="3.18286">
        <ele>167.7</ele>
        <time>2019-03-30T14:02:56Z</time>
      </trkpt>
      <trkpt lat="48.29075" lon="3.18287">
        <ele>167.69</ele>
        <time>2019-03-30T14:03:01Z</time>
      </trkpt>
      <trkpt lat="48.29075" lon="3.18286">
        <ele>167.71</ele>
        <time>2019-03-30T14:03:06Z</time>
      </trkpt>
      <trkpt lat="48.29076" lon="3.18287">
        <ele>167.69</ele>
        <time>2019-03-30T14:03:11Z</time>
      </trkpt>
      <trkpt lat="48.29077" lon="3.18287">
        <ele>167.63</ele>
        <time>2019-03-30T14:03:16Z</time>
      </trkpt>
      <trkpt lat="48.29076" lon="3.18289">
        <ele>167.62</ele>
        <time>2019-03-30T14:03:21Z</time>
      </trkpt>
      <trkpt lat="48.29075" lon="3.1829">
        <ele>167.55</ele>
        <time>2019-03-30T14:03:26Z</time>
      </trkpt>
      <trkpt lat="48.29075" lon="3.1829">
        <ele>167.55</ele>
        <time>2019-03-30T14:03:31Z</time>
      </trkpt>
      <trkpt lat="48.29076" lon="3.18291">
        <ele>167.55</ele>
        <time>2019-03-30T14:03:36Z</time>
      </trkpt>
      <trkpt lat="48.29078" lon="3.1829">
        <ele>167.55</ele>
        <time>2019-03-30T14:03:41Z</time>
      </trkpt>
      <trkpt lat="48.29078" lon="3.1829">
        <ele>167.55</ele>
        <time>2019-03-30T14:03:46Z</time>
      </trkpt>
      <trkpt lat="48.29079" lon="3.18289">
        <ele>167.55</ele>
        <time>2019-03-30T14:03:51Z</time>
      </trkpt>
      <trkpt lat="48.29079" lon="3.18288">
        <ele>167.55</ele>
        <time>2019-03-30T14:03:56Z</time>
      </trkpt>
      <trkpt lat="48.29079" lon="3.18287">
        <ele>167.55</ele>
        <time>2019-03-30T14:04:01Z</time>
      </trkpt>
      <trkpt lat="48.29079" lon="3.18286">
        <ele>167.55</ele>
        <time>2019-03-30T14:04:06Z</time>
      </trkpt>
      <trkpt lat="48.29081" lon="3.18285">
        <ele>167.55</ele>
        <time>2019-03-30T14:04:11Z</time>
      </trkpt>
      <trkpt lat="48.29082" lon="3.18286">
        <ele>167.55</ele>
        <time>2019-03-30T14:04:16Z</time>
      </trkpt>
      <trkpt lat="48.29082" lon="3.18287">
        <ele>167.55</ele>
        <time>2019-03-30T14:04:21Z</time>
      </trkpt>
      <trkpt lat="48.29084" lon="3.18287">
        <ele>167.55</ele>
        <time>2019-03-30T14:04:26Z</time>
      </trkpt>
      <trkpt lat="48.29083" lon="3.18289">
        <ele>167.55</ele>
        <time>2019-03-30T14:04:31Z</time>
      </trkpt>
      <trkpt lat="48.29082" lon="3.18289">
        <ele>167.55</ele>
        <time>2019-03-30T14:04:36Z</time>
      </trkpt>
      <trkpt lat="48.2908" lon="3.18291">
        <ele>167.55</ele>
        <time>2019-03-30T14:04:41Z</time>
      </trkpt>
      <trkpt lat="48.2908" lon="3.18291">
        <ele>167.55</ele>
        <time>2019-03-30T14:04:46Z</time>
      </trkpt>
      <trkpt lat="48.29081" lon="3.18291">
        <ele>167.55</ele>
        <time>2019-03-30T14:04:51Z</time>
      </trkpt>
      <trkpt lat="48.2908" lon="3.18289">
        <ele>167.55</ele>
        <time>2019-03-30T14:04:56Z</time>
      </trkpt>
      <trkpt lat="48.2908" lon="3.18289">
        <ele>167.55</ele>
        <time>2019-03-30T14:05:01Z</time>
      </trkpt>
      <trkpt lat="48.2908" lon="3.18289">
        <ele>167.55</ele>
        <time>2019-03-30T14:05:06Z</time>
      </trkpt>
      <trkpt lat="48.29079" lon="3.1829">
        <ele>167.55</ele>
        <time>2019-03-30T14:05:11Z</time>
      </trkpt>
      <trkpt lat="48.29079" lon="3.18292">
        <ele>167.55</ele>
        <time>2019-03-30T14:05:16Z</time>
      </trkpt>
      <trkpt lat="48.29077" lon="3.18296">
        <ele>167.55</ele>
        <time>2019-03-30T14:05:21Z</time>
      </trkpt>
      <trkpt lat="48.29074" lon="3.183">
        <ele>167.55</ele>
        <time>2019-03-30T14:05:26Z</time>
      </trkpt>
      <trkpt lat="48.29073" lon="3.18302">
        <ele>167.55</ele>
        <time>2019-03-30T14:05:31Z</time>
      </trkpt>
      <trkpt lat="48.29071" lon="3.18303">
        <ele>167.55</ele>
        <time>2019-03-30T14:05:36Z</time>
      </trkpt>
      <trkpt lat="48.29068" lon="3.18305">
        <ele>167.55</ele>
        <time>2019-03-30T14:05:41Z</time>
      </trkpt>
      <trkpt lat="48.29066" lon="3.18308">
        <ele>167.55</ele>
        <time>2019-03-30T14:05:46Z</time>
      </trkpt>
      <trkpt lat="48.29064" lon="3.18308">
        <ele>167.55</ele>
        <time>2019-03-30T14:05:51Z</time>
      </trkpt>
      <trkpt lat="48.2906" lon="3.18309">
        <ele>167.55</ele>
        <time>2019-03-30T14:05:56Z</time>
      </trkpt>
      <trkpt lat="48.29056" lon="3.18311">
        <ele>168.53</ele>
        <time>2019-03-30T14:06:01Z</time>
      </trkpt>
      <trkpt lat="48.29051" lon="3.18312">
        <ele>168.87</ele>
        <time>2019-03-30T14:06:06Z</time>
      </trkpt>
      <trkpt lat="48.29048" lon="3.18314">
        <ele>168.62</ele>
        <time>2019-03-30T14:06:11Z</time>
      </trkpt>
      <trkpt lat="48.29044" lon="3.18319">
        <ele>167.97</ele>
        <time>2019-03-30T14:06:16Z</time>
      </trkpt>
      <trkpt lat="48.2904" lon="3.18323">
        <ele>167.99</ele>
        <time>2019-03-30T14:06:21Z</time>
      </trkpt>
      <trkpt lat="48.29034" lon="3.18328">
        <ele>168.95</ele>
        <time>2019-03-30T14:06:26Z</time>
      </trkpt>
      <trkpt lat="48.2903" lon="3.18333">
        <ele>168.89</ele>
        <time>2019-03-30T14:06:31Z</time>
      </trkpt>
      <trkpt lat="48.29025" lon="3.18336">
        <ele>168.7</ele>
        <time>2019-03-30T14:06:36Z</time>
      </trkpt>
      <trkpt lat="48.29022" lon="3.18338">
        <ele>168.35</ele>
        <time>2019-03-30T14:06:41Z</time>
      </trkpt>
      <trkpt lat="48.29018" lon="3.18341">
        <ele>168.05</ele>
        <time>2019-03-30T14:06:46Z</time>
      </trkpt>
      <trkpt lat="48.29015" lon="3.18345">
        <ele>168.19</ele>
        <time>2019-03-30T14:06:51Z</time>
      </trkpt>
      <trkpt lat="48.29011" lon="3.18347">
        <ele>167.81</ele>
        <time>2019-03-30T14:06:56Z</time>
      </trkpt>
      <trkpt lat="48.29006" lon="3.18351">
        <ele>167.51</ele>
        <time>2019-03-30T14:07:01Z</time>
      </trkpt>
      <trkpt lat="48.29" lon="3.18357">
        <ele>167.4</ele>
        <time>2019-03-30T14:07:06Z</time>
      </trkpt>
      <trkpt lat="48.28997" lon="3.1836">
        <ele>167.12</ele>
        <time>2019-03-30T14:07:11Z</time>
      </trkpt>
      <trkpt lat="48.28994" lon="3.18366">
        <ele>166.76</ele>
        <time>2019-03-30T14:07:16Z</time>
      </trkpt>
      <trkpt lat="48.28992" lon="3.18368">
        <ele>166.54</ele>
        <time>2019-03-30T14:07:21Z</time>
      </trkpt>
      <trkpt lat="48.28989" lon="3.18371">
        <ele>166.17</ele>
        <time>2019-03-30T14:07:26Z</time>
      </trkpt>
      <trkpt lat="48.28986" lon="3.18374">
        <ele>165.99</ele>
        <time>2019-03-30T14:07:31Z</time>
      </trkpt>
      <trkpt lat="48.28983" lon="3.18378">
        <ele>165.79</ele>
        <time>2019-03-30T14:07:36Z</time>
      </trkpt>
      <trkpt lat="48.2898" lon="3.18383">
        <ele>165.47</ele>
        <time>2019-03-30T14:07:41Z</time>
      </trkpt>
      <trkpt lat="48.28977" lon="3.18387">
        <ele>164.69</ele>
        <time>2019-03-30T14:07:46Z</time>
      </trkpt>
      <trkpt lat="48.28972" lon="3.18391">
        <ele>164.5</ele>
        <time>2019-03-30T14:07:51Z</time>
      </trkpt>
      <trkpt lat="48.28971" lon="3.18392">
        <ele>164.73</ele>
        <time>2019-03-30T14:07:56Z</time>
      </trkpt>
      <trkpt lat="48.28968" lon="3.18394">
        <ele>164.16</ele>
        <time>2019-03-30T14:08:01Z</time>
      </trkpt>
      <trkpt lat="48.28966" lon="3.18398">
        <ele>163.41</ele>
        <time>2019-03-30T14:08:06Z</time>
      </trkpt>
      <trkpt lat="48.28964" lon="3.184">
        <ele>163.03</ele>
        <time>2019-03-30T14:08:11Z</time>
      </trkpt>
      <trkpt lat="48.28961" lon="3.18401">
        <ele>163.03</ele>
        <time>2019-03-30T14:08:16Z</time>
      </trkpt>
      <trkpt lat="48.28956" lon="3.18407">
        <ele>162.53</ele>
        <time>2019-03-30T14:08:21Z</time>
      </trkpt>
      <trkpt lat="48.2895" lon="3.18412">
        <ele>162.14</ele>
        <time>2019-03-30T14:08:26Z</time>
      </trkpt>
      <trkpt lat="48.28948" lon="3.18414">
        <ele>161.99</ele>
        <time>2019-03-30T14:08:31Z</time>
      </trkpt>
      <trkpt lat="48.28947" lon="3.18416">
        <ele>161.11</ele>
        <time>2019-03-30T14:08:36Z</time>
      </trkpt>
      <trkpt lat="48.28945" lon="3.18419">
        <ele>160.9</ele>
        <time>2019-03-30T14:08:41Z</time>
      </trkpt>
      <trkpt lat="48.28938" lon="3.18427">
        <ele>160.75</ele>
        <time>2019-03-30T14:08:46Z</time>
      </trkpt>
      <trkpt lat="48.28932" lon="3.18433">
        <ele>160.43</ele>
        <time>2019-03-30T14:08:51Z</time>
      </trkpt>
      <trkpt lat="48.28928" lon="3.18438">
        <ele>159.7</ele>
        <time>2019-03-30T14:08:56Z</time>
      </trkpt>
      <trkpt lat="48.28924" lon="3.18443">
        <ele>159.02</ele>
        <time>2019-03-30T14:09:01Z</time>
      </trkpt>
      <trkpt lat="48.28919" lon="3.18446">
        <ele>158.7</ele>
        <time>2019-03-30T14:09:06Z</time>
      </trkpt>
      <trkpt lat="48.28916" lon="3.18448">
        <ele>158.12</ele>
        <time>2019-03-30T14:09:11Z</time>
      </trkpt>
      <trkpt lat="48.28912" lon="3.18451">
        <ele>157.73</ele>
        <time>2019-03-30T14:09:16Z</time>
      </trkpt>
      <trkpt lat="48.28909" lon="3.18453">
        <ele>157.37</ele>
        <time>2019-03-30T14:09:21Z</time>
      </trkpt>
      <trkpt lat="48.28906" lon="3.18458">
        <ele>156.99</ele>
        <time>2019-03-30T14:09:26Z</time>
      </trkpt>
      <trkpt lat="48.28903" lon="3.1846">
        <ele>156.63</ele>
        <time>2019-03-30T14:09:31Z</time>
      </trkpt>
      <trkpt lat="48.28901" lon="3.18464">
        <ele>156.32</ele>
        <time>2019-03-30T14:09:36Z</time>
      </trkpt>
      <trkpt lat="48.28899" lon="3.18465">
        <ele>155.62</ele>
        <time>2019-03-30T14:09:41Z</time>
      </trkpt>
      <trkpt lat="48.28892" lon="3.1847">
        <ele>154.79</ele>
        <time>2019-03-30T14:09:46Z</time>
      </trkpt>
      <trkpt lat="48.28888" lon="3.18477">
        <ele>154.15</ele>
        <time>2019-03-30T14:09:51Z</time>
      </trkpt>
      <trkpt lat="48.28883" lon="3.18481">
        <ele>153.69</ele>
        <time>2019-03-30T14:09:56Z</time>
      </trkpt>
      <trkpt lat="48.28881" lon="3.18484">
        <ele>153.24</ele>
        <time>2019-03-30T14:10:01Z</time>
      </trkpt>
      <trkpt lat="48.28878" lon="3.18486">
        <ele>152.89</ele>
        <time>2019-03-30T14:10:06Z</time>
      </trkpt>
      <trkpt lat="48.28875" lon="3.18489">
        <ele>152.37</ele>
        <time>2019-03-30T14:10:11Z</time>
      </trkpt>
      <trkpt lat="48.28873" lon="3.18491">
        <ele>151.47</ele>
        <time>2019-03-30T14:10:16Z</time>
      </trkpt>
      <trkpt lat="48.28867" lon="3.18496">
        <ele>150.53</ele>
        <time>2019-03-30T14:10:21Z</time>
      </trkpt>
      <trkpt lat="48.2886" lon="3.18502">
        <ele>149.65</ele>
        <time>2019-03-30T14:10:26Z</time>
      </trkpt>
      <trkpt lat="48.28855" lon="3.18508">
        <ele>148.97</ele>
        <time>2019-03-30T14:10:31Z</time>
      </trkpt>
      <trkpt lat="48.28852" lon="3.18513">
        <ele>148.19</ele>
        <time>2019-03-30T14:10:36Z</time>
      </trkpt>
      <trkpt lat="48.28848" lon="3.18519">
        <ele>147.63</ele>
        <time>2019-03-30T14:10:41Z</time>
      </trkpt>
      <trkpt lat="48.28843" lon="3.18521">
        <ele>146.96</ele>
        <time>2019-03-30T14:10:46Z</time>
      </trkpt>
      <trkpt lat="48.28841" lon="3.18523">
        <ele>146.35</ele>
        <time>2019-03-30T14:10:51Z</time>
      </trkpt>
      <trkpt lat="48.28838" lon="3.18524">
        <ele>145.31</ele>
        <time>2019-03-30T14:10:56Z</time>
      </trkpt>
      <trkpt lat="48.28835" lon="3.18527">
        <ele>144.27</ele>
        <time>2019-03-30T14:11:01Z</time>
      </trkpt>
      <trkpt lat="48.28833" lon="3.18527">
        <ele>143.22</ele>
        <time>2019-03-30T14:11:06Z</time>
      </trkpt>
      <trkpt lat="48.28827" lon="3.18532">
        <ele>142.45</ele>
        <time>2019-03-30T14:11:11Z</time>
      </trkpt>
      <trkpt lat="48.28822" lon="3.18538">
        <ele>141.77</ele>
        <time>2019-03-30T14:11:16Z</time>
      </trkpt>
      <trkpt lat="48.28817" lon="3.1854">
        <ele>140.96</ele>
        <time>2019-03-30T14:11:21Z</time>
      </trkpt>
      <trkpt lat="48.28813" lon="3.18544">
        <ele>140</ele>
        <time>2019-03-30T14:11:26Z</time>
      </trkpt>
      <trkpt lat="48.28808" lon="3.18546">
        <ele>139.28</ele>
        <time>2019-03-30T14:11:31Z</time>
      </trkpt>
      <trkpt lat="48.28804" lon="3.18549">
        <ele>138.45</ele>
        <time>2019-03-30T14:11:36Z</time>
      </trkpt>
      <trkpt lat="48.28801" lon="3.18554">
        <ele>137.73</ele>
        <time>2019-03-30T14:11:41Z</time>
      </trkpt>
      <trkpt lat="48.28797" lon="3.18559">
        <ele>136.89</ele>
        <time>2019-03-30T14:11:46Z</time>
      </trkpt>
      <trkpt lat="48.28794" lon="3.18563">
        <ele>136.33</ele>
        <time>2019-03-30T14:11:51Z</time>
      </trkpt>
      <trkpt lat="48.28792" lon="3.18567">
        <ele>135.7</ele>
        <time>2019-03-30T14:11:56Z</time>
      </trkpt>
      <trkpt lat="48.28788" lon="3.18573">
        <ele>134.64</ele>
        <time>2019-03-30T14:12:01Z</time>
      </trkpt>
      <trkpt lat="48.28785" lon="3.18578">
        <ele>133.94</ele>
        <time>2019-03-30T14:12:06Z</time>
      </trkpt>
      <trkpt lat="48.28782" lon="3.18581">
        <ele>133.51</ele>
        <time>2019-03-30T14:12:11Z</time>
      </trkpt>
      <trkpt lat="48.28779" lon="3.18584">
        <ele>132.65</ele>
        <time>2019-03-30T14:12:16Z</time>
      </trkpt>
      <trkpt lat="48.28777" lon="3.18586">
        <ele>131.84</ele>
        <time>2019-03-30T14:12:21Z</time>
      </trkpt>
      <trkpt lat="48.28772" lon="3.18588">
        <ele>131.33</ele>
        <time>2019-03-30T14:12:26Z</time>
      </trkpt>
      <trkpt lat="48.28767" lon="3.18594">
        <ele>130.9</ele>
        <time>2019-03-30T14:12:31Z</time>
      </trkpt>
      <trkpt lat="48.28764" lon="3.18597">
        <ele>130.22</ele>
        <time>2019-03-30T14:12:36Z</time>
      </trkpt>
      <trkpt lat="48.2876" lon="3.186">
        <ele>129.61</ele>
        <time>2019-03-30T14:12:41Z</time>
      </trkpt>
      <trkpt lat="48.28756" lon="3.18604">
        <ele>129.02</ele>
        <time>2019-03-30T14:12:46Z</time>
      </trkpt>
      <trkpt lat="48.2875" lon="3.18608">
        <ele>128.42</ele>
        <time>2019-03-30T14:12:51Z</time>
      </trkpt>
      <trkpt lat="48.28746" lon="3.18611">
        <ele>127.67</ele>
        <time>2019-03-30T14:12:56Z</time>
      </trkpt>
      <trkpt lat="48.28743" lon="3.18614">
        <ele>126.72</ele>
        <time>2019-03-30T14:13:01Z</time>
      </trkpt>
      <trkpt lat="48.28739" lon="3.18617">
        <ele>125.56</ele>
        <time>2019-03-30T14:13:06Z</time>
      </trkpt>
      <trkpt lat="48.28736" lon="3.1862">
        <ele>124.63</ele>
        <time>2019-03-30T14:13:11Z</time>
      </trkpt>
      <trkpt lat="48.28731" lon="3.18624">
        <ele>124.03</ele>
        <time>2019-03-30T14:13:16Z</time>
      </trkpt>
      <trkpt lat="48.28727" lon="3.18627">
        <ele>123.51</ele>
        <time>2019-03-30T14:13:21Z</time>
      </trkpt>
      <trkpt lat="48.28724" lon="3.18631">
        <ele>122.93</ele>
        <time>2019-03-30T14:13:26Z</time>
      </trkpt>
      <trkpt lat="48.28721" lon="3.18636">
        <ele>122.14</ele>
        <time>2019-03-30T14:13:31Z</time>
      </trkpt>
      <trkpt lat="48.28716" lon="3.18641">
        <ele>121.37</ele>
        <time>2019-03-30T14:13:36Z</time>
      </trkpt>
      <trkpt lat="48.28713" lon="3.18646">
        <ele>120.77</ele>
        <time>2019-03-30T14:13:41Z</time>
      </trkpt>
      <trkpt lat="48.2871" lon="3.1865">
        <ele>120.08</ele>
        <time>2019-03-30T14:13:46Z</time>
      </trkpt>
      <trkpt lat="48.28708" lon="3.18652">
        <ele>119.19</ele>
        <time>2019-03-30T14:13:51Z</time>
      </trkpt>
      <trkpt lat="48.28704" lon="3.18655">
        <ele>118.46</ele>
        <time>2019-03-30T14:13:56Z</time>
      </trkpt>
      <trkpt lat="48.28701" lon="3.18659">
        <ele>117.74</ele>
        <time>2019-03-30T14:14:01Z</time>
      </trkpt>
      <trkpt lat="48.28697" lon="3.18663">
        <ele>116.94</ele>
        <time>2019-03-30T14:14:06Z</time>
      </trkpt>
      <trkpt lat="48.28692" lon="3.18665">
        <ele>116.26</ele>
        <time>2019-03-30T14:14:11Z</time>
      </trkpt>
      <trkpt lat="48.28688" lon="3.1867">
        <ele>116.22</ele>
        <time>2019-03-30T14:14:16Z</time>
      </trkpt>
      <trkpt lat="48.28683" lon="3.18675">
        <ele>116.22</ele>
        <time>2019-03-30T14:14:21Z</time>
      </trkpt>
      <trkpt lat="48.28679" lon="3.18678">
        <ele>115.81</ele>
        <time>2019-03-30T14:14:26Z</time>
      </trkpt>
      <trkpt lat="48.28674" lon="3.18683">
        <ele>115.32</ele>
        <time>2019-03-30T14:14:31Z</time>
      </trkpt>
      <trkpt lat="48.2867" lon="3.18685">
        <ele>115.37</ele>
        <time>2019-03-30T14:14:36Z</time>
      </trkpt>
      <trkpt lat="48.28664" lon="3.18689">
        <ele>115.48</ele>
        <time>2019-03-30T14:14:41Z</time>
      </trkpt>
      <trkpt lat="48.28655" lon="3.18691">
        <ele>115.29</ele>
        <time>2019-03-30T14:14:46Z</time>
      </trkpt>
      <trkpt lat="48.28649" lon="3.18693">
        <ele>115.12</ele>
        <time>2019-03-30T14:14:51Z</time>
      </trkpt>
      <trkpt lat="48.28644" lon="3.18697">
        <ele>115.82</ele>
        <time>2019-03-30T14:14:56Z</time>
      </trkpt>
      <trkpt lat="48.28637" lon="3.18701">
        <ele>116.93</ele>
        <time>2019-03-30T14:15:01Z</time>
      </trkpt>
      <trkpt lat="48.28632" lon="3.18704">
        <ele>117.69</ele>
        <time>2019-03-30T14:15:06Z</time>
      </trkpt>
      <trkpt lat="48.28629" lon="3.18708">
        <ele>117.75</ele>
        <time>2019-03-30T14:15:11Z</time>
      </trkpt>
      <trkpt lat="48.28627" lon="3.18711">
        <ele>117.76</ele>
        <time>2019-03-30T14:15:16Z</time>
      </trkpt>
      <trkpt lat="48.28626" lon="3.18713">
        <ele>117.84</ele>
        <time>2019-03-30T14:15:21Z</time>
      </trkpt>
      <trkpt lat="48.28627" lon="3.18714">
        <ele>118.14</ele>
        <time>2019-03-30T14:15:26Z</time>
      </trkpt>
      <trkpt lat="48.28628" lon="3.18716">
        <ele>118.92</ele>
        <time>2019-03-30T14:15:31Z</time>
      </trkpt>
      <trkpt lat="48.28626" lon="3.18721">
        <ele>119.61</ele>
        <time>2019-03-30T14:15:36Z</time>
      </trkpt>
      <trkpt lat="48.28625" lon="3.18725">
        <ele>120.48</ele>
        <time>2019-03-30T14:15:41Z</time>
      </trkpt>
      <trkpt lat="48.28624" lon="3.1873">
        <ele>120.95</ele>
        <time>2019-03-30T14:15:46Z</time>
      </trkpt>
      <trkpt lat="48.28621" lon="3.18733">
        <ele>121.9</ele>
        <time>2019-03-30T14:15:51Z</time>
      </trkpt>
      <trkpt lat="48.2862" lon="3.18736">
        <ele>122.36</ele>
        <time>2019-03-30T14:15:56Z</time>
      </trkpt>
      <trkpt lat="48.28618" lon="3.1874">
        <ele>122.83</ele>
        <time>2019-03-30T14:16:01Z</time>
      </trkpt>
      <trkpt lat="48.28615" lon="3.18742">
        <ele>123.43</ele>
        <time>2019-03-30T14:16:06Z</time>
      </trkpt>
      <trkpt lat="48.28613" lon="3.18746">
        <ele>123.88</ele>
        <time>2019-03-30T14:16:11Z</time>
      </trkpt>
      <trkpt lat="48.28611" lon="3.18753">
        <ele>124.73</ele>
        <time>2019-03-30T14:16:16Z</time>
      </trkpt>
      <trkpt lat="48.2861" lon="3.18758">
        <ele>125.32</ele>
        <time>2019-03-30T14:16:21Z</time>
      </trkpt>
      <trkpt lat="48.28608" lon="3.18762">
        <ele>125.78</ele>
        <time>2019-03-30T14:16:26Z</time>
      </trkpt>
      <trkpt lat="48.28607" lon="3.18765">
        <ele>126.46</ele>
        <time>2019-03-30T14:16:31Z</time>
      </trkpt>
      <trkpt lat="48.28606" lon="3.1877">
        <ele>126.94</ele>
        <time>2019-03-30T14:16:36Z</time>
      </trkpt>
      <trkpt lat="48.28606" lon="3.18773">
        <ele>127.71</ele>
        <time>2019-03-30T14:16:41Z</time>
      </trkpt>
      <trkpt lat="48.28605" lon="3.18775">
        <ele>128.25</ele>
        <time>2019-03-30T14:16:46Z</time>
      </trkpt>
      <trkpt lat="48.28604" lon="3.18776">
        <ele>128.81</ele>
        <time>2019-03-30T14:16:51Z</time>
      </trkpt>
      <trkpt lat="48.28603" lon="3.18779">
        <ele>129.44</ele>
        <time>2019-03-30T14:16:56Z</time>
      </trkpt>
      <trkpt lat="48.28599" lon="3.18786">
        <ele>130.07</ele>
        <time>2019-03-30T14:17:01Z</time>
      </trkpt>
      <trkpt lat="48.28595" lon="3.18792">
        <ele>130.83</ele>
        <time>2019-03-30T14:17:06Z</time>
      </trkpt>
      <trkpt lat="48.28593" lon="3.18796">
        <ele>131.08</ele>
        <time>2019-03-30T14:17:11Z</time>
      </trkpt>
      <trkpt lat="48.2859" lon="3.188">
        <ele>131.65</ele>
        <time>2019-03-30T14:17:16Z</time>
      </trkpt>
      <trkpt lat="48.28588" lon="3.18802">
        <ele>132.43</ele>
        <time>2019-03-30T14:17:21Z</time>
      </trkpt>
      <trkpt lat="48.28586" lon="3.18807">
        <ele>132.99</ele>
        <time>2019-03-30T14:17:26Z</time>
      </trkpt>
      <trkpt lat="48.28583" lon="3.18814">
        <ele>133.7</ele>
        <time>2019-03-30T14:17:31Z</time>
      </trkpt>
      <trkpt lat="48.28582" lon="3.18821">
        <ele>134.12</ele>
        <time>2019-03-30T14:17:36Z</time>
      </trkpt>
      <trkpt lat="48.28582" lon="3.18824">
        <ele>135.24</ele>
        <time>2019-03-30T14:17:41Z</time>
      </trkpt>
      <trkpt lat="48.2858" lon="3.1883">
        <ele>135.78</ele>
        <time>2019-03-30T14:17:46Z</time>
      </trkpt>
      <trkpt lat="48.2858" lon="3.18833">
        <ele>136.01</ele>
        <time>2019-03-30T14:17:51Z</time>
      </trkpt>
      <trkpt lat="48.28578" lon="3.18836">
        <ele>136.57</ele>
        <time>2019-03-30T14:17:56Z</time>
      </trkpt>
      <trkpt lat="48.28575" lon="3.1884">
        <ele>137.13</ele>
        <time>2019-03-30T14:18:01Z</time>
      </trkpt>
      <trkpt lat="48.28572" lon="3.18845">
        <ele>137.51</ele>
        <time>2019-03-30T14:18:06Z</time>
      </trkpt>
      <trkpt lat="48.28569" lon="3.1885">
        <ele>138.1</ele>
        <time>2019-03-30T14:18:11Z</time>
      </trkpt>
      <trkpt lat="48.28567" lon="3.18857">
        <ele>138.43</ele>
        <time>2019-03-30T14:18:16Z</time>
      </trkpt>
      <trkpt lat="48.28565" lon="3.18862">
        <ele>138.58</ele>
        <time>2019-03-30T14:18:21Z</time>
      </trkpt>
      <trkpt lat="48.28564" lon="3.18868">
        <ele>139.11</ele>
        <time>2019-03-30T14:18:26Z</time>
      </trkpt>
      <trkpt lat="48.28564" lon="3.18873">
        <ele>139.13</ele>
        <time>2019-03-30T14:18:31Z</time>
      </trkpt>
      <trkpt lat="48.28563" lon="3.18877">
        <ele>139.19</ele>
        <time>2019-03-30T14:18:36Z</time>
      </trkpt>
      <trkpt lat="48.28562" lon="3.18883">
        <ele>139.29</ele>
        <time>2019-03-30T14:18:41Z</time>
      </trkpt>
      <trkpt lat="48.2856" lon="3.18888">
        <ele>139.03</ele>
        <time>2019-03-30T14:18:46Z</time>
      </trkpt>
      <trkpt lat="48.28559" lon="3.18889">
        <ele>139</ele>
        <time>2019-03-30T14:18:51Z</time>
      </trkpt>
      <trkpt lat="48.28559" lon="3.18891">
        <ele>139</ele>
        <time>2019-03-30T14:18:56Z</time>
      </trkpt>
      <trkpt lat="48.28559" lon="3.18891">
        <ele>138.81</ele>
        <time>2019-03-30T14:19:01Z</time>
      </trkpt>
      <trkpt lat="48.28558" lon="3.18891">
        <ele>138.71</ele>
        <time>2019-03-30T14:19:06Z</time>
      </trkpt>
      <trkpt lat="48.28558" lon="3.18892">
        <ele>138.77</ele>
        <time>2019-03-30T14:19:11Z</time>
      </trkpt>
      <trkpt lat="48.28558" lon="3.18893">
        <ele>138.91</ele>
        <time>2019-03-30T14:19:16Z</time>
      </trkpt>
      <trkpt lat="48.28558" lon="3.18894">
        <ele>138.91</ele>
        <time>2019-03-30T14:19:21Z</time>
      </trkpt>
      <trkpt lat="48.28558" lon="3.18893">
        <ele>138.9</ele>
        <time>2019-03-30T14:19:26Z</time>
      </trkpt>
      <trkpt lat="48.28556" lon="3.18892">
        <ele>138.81</ele>
        <time>2019-03-30T14:19:31Z</time>
      </trkpt>
      <trkpt lat="48.28556" lon="3.18893">
        <ele>138.87</ele>
        <time>2019-03-30T14:19:36Z</time>
      </trkpt>
      <trkpt lat="48.28554" lon="3.18893">
        <ele>138.79</ele>
        <time>2019-03-30T14:19:41Z</time>
      </trkpt>
      <trkpt lat="48.28554" lon="3.18892">
        <ele>138.84</ele>
        <time>2019-03-30T14:19:46Z</time>
      </trkpt>
      <trkpt lat="48.28555" lon="3.18892">
        <ele>138.86</ele>
        <time>2019-03-30T14:19:51Z</time>
      </trkpt>
      <trkpt lat="48.28556" lon="3.18891">
        <ele>138.87</ele>
        <time>2019-03-30T14:19:56Z</time>
      </trkpt>
      <trkpt lat="48.28555" lon="3.1889">
        <ele>139.02</ele>
        <time>2019-03-30T14:20:01Z</time>
      </trkpt>
      <trkpt lat="48.28554" lon="3.18889">
        <ele>138.93</ele>
        <time>2019-03-30T14:20:06Z</time>
      </trkpt>
      <trkpt lat="48.28552" lon="3.18889">
        <ele>138.99</ele>
        <time>2019-03-30T14:20:11Z</time>
      </trkpt>
      <trkpt lat="48.28551" lon="3.18888">
        <ele>139.5</ele>
        <time>2019-03-30T14:20:16Z</time>
      </trkpt>
      <trkpt lat="48.2855" lon="3.18888">
        <ele>139.49</ele>
        <time>2019-03-30T14:20:21Z</time>
      </trkpt>
      <trkpt lat="48.28549" lon="3.18887">
        <ele>139.45</ele>
        <time>2019-03-30T14:20:26Z</time>
      </trkpt>
      <trkpt lat="48.28547" lon="3.18885">
        <ele>139.4</ele>
        <time>2019-03-30T14:20:31Z</time>
      </trkpt>
      <trkpt lat="48.28547" lon="3.18883">
        <ele>139.4</ele>
        <time>2019-03-30T14:20:36Z</time>
      </trkpt>
      <trkpt lat="48.28547" lon="3.18883">
        <ele>139.4</ele>
        <time>2019-03-30T14:20:41Z</time>
      </trkpt>
      <trkpt lat="48.28546" lon="3.18882">
        <ele>139.27</ele>
        <time>2019-03-30T14:20:46Z</time>
      </trkpt>
      <trkpt lat="48.28547" lon="3.18881">
        <ele>139.35</ele>
        <time>2019-03-30T14:20:51Z</time>
      </trkpt>
      <trkpt lat="48.28546" lon="3.18882">
        <ele>139.39</ele>
        <time>2019-03-30T14:20:56Z</time>
      </trkpt>
      <trkpt lat="48.28547" lon="3.18882">
        <ele>139.3</ele>
        <time>2019-03-30T14:21:01Z</time>
      </trkpt>
      <trkpt lat="48.28548" lon="3.18883">
        <ele>139.26</ele>
        <time>2019-03-30T14:21:06Z</time>
      </trkpt>
      <trkpt lat="48.28548" lon="3.18883">
        <ele>139.16</ele>
        <time>2019-03-30T14:21:11Z</time>
      </trkpt>
      <trkpt lat="48.28547" lon="3.1888">
        <ele>139.12</ele>
        <time>2019-03-30T14:21:16Z</time>
      </trkpt>
      <trkpt lat="48.28547" lon="3.1888">
        <ele>139.18</ele>
        <time>2019-03-30T14:21:21Z</time>
      </trkpt>
      <trkpt lat="48.28546" lon="3.1888">
        <ele>139.21</ele>
        <time>2019-03-30T14:21:26Z</time>
      </trkpt>
      <trkpt lat="48.28546" lon="3.18878">
        <ele>139.13</ele>
        <time>2019-03-30T14:21:31Z</time>
      </trkpt>
      <trkpt lat="48.28547" lon="3.18878">
        <ele>139.12</ele>
        <time>2019-03-30T14:21:36Z</time>
      </trkpt>
      <trkpt lat="48.28547" lon="3.18879">
        <ele>139.18</ele>
        <time>2019-03-30T14:21:41Z</time>
      </trkpt>
      <trkpt lat="48.28547" lon="3.18878">
        <ele>139.13</ele>
        <time>2019-03-30T14:21:46Z</time>
      </trkpt>
      <trkpt lat="48.28548" lon="3.18879">
        <ele>139.1</ele>
        <time>2019-03-30T14:21:51Z</time>
      </trkpt>
      <trkpt lat="48.28547" lon="3.18878">
        <ele>139.06</ele>
        <time>2019-03-30T14:21:56Z</time>
      </trkpt>
      <trkpt lat="48.28547" lon="3.18879">
        <ele>139.06</ele>
        <time>2019-03-30T14:22:01Z</time>
      </trkpt>
      <trkpt lat="48.28548" lon="3.18881">
        <ele>139.06</ele>
        <time>2019-03-30T14:22:06Z</time>
      </trkpt>
      <trkpt lat="48.28549" lon="3.18882">
        <ele>139.06</ele>
        <time>2019-03-30T14:22:11Z</time>
      </trkpt>
      <trkpt lat="48.28551" lon="3.18883">
        <ele>139.06</ele>
        <time>2019-03-30T14:22:16Z</time>
      </trkpt>
      <trkpt lat="48.28552" lon="3.18885">
        <ele>139.06</ele>
        <time>2019-03-30T14:22:21Z</time>
      </trkpt>
      <trkpt lat="48.28553" lon="3.18886">
        <ele>139.06</ele>
        <time>2019-03-30T14:22:26Z</time>
      </trkpt>
      <trkpt lat="48.28553" lon="3.18886">
        <ele>139.06</ele>
        <time>2019-03-30T14:22:31Z</time>
      </trkpt>
      <trkpt lat="48.28554" lon="3.18886">
        <ele>139.06</ele>
        <time>2019-03-30T14:22:36Z</time>
      </trkpt>
      <trkpt lat="48.28554" lon="3.18887">
        <ele>139.06</ele>
        <time>2019-03-30T14:22:41Z</time>
      </trkpt>
      <trkpt lat="48.28554" lon="3.18886">
        <ele>139.06</ele>
        <time>2019-03-30T14:22:46Z</time>
      </trkpt>
      <trkpt lat="48.28553" lon="3.18888">
        <ele>139.06</ele>
        <time>2019-03-30T14:22:51Z</time>
      </trkpt>
      <trkpt lat="48.28553" lon="3.18888">
        <ele>139.06</ele>
        <time>2019-03-30T14:22:56Z</time>
      </trkpt>
      <trkpt lat="48.28553" lon="3.18888">
        <ele>139.06</ele>
        <time>2019-03-30T14:23:01Z</time>
      </trkpt>
      <trkpt lat="48.28552" lon="3.18888">
        <ele>139.06</ele>
        <time>2019-03-30T14:23:06Z</time>
      </trkpt>
      <trkpt lat="48.28552" lon="3.18889">
        <ele>139.06</ele>
        <time>2019-03-30T14:23:11Z</time>
      </trkpt>
      <trkpt lat="48.28552" lon="3.18889">
        <ele>139.06</ele>
        <time>2019-03-30T14:23:16Z</time>
      </trkpt>
      <trkpt lat="48.28552" lon="3.1889">
        <ele>139.06</ele>
        <time>2019-03-30T14:23:21Z</time>
      </trkpt>
      <trkpt lat="48.28552" lon="3.1889">
        <ele>139.06</ele>
        <time>2019-03-30T14:23:26Z</time>
      </trkpt>
      <trkpt lat="48.28553" lon="3.18891">
        <ele>139.06</ele>
        <time>2019-03-30T14:23:31Z</time>
      </trkpt>
      <trkpt lat="48.28554" lon="3.18893">
        <ele>139.06</ele>
        <time>2019-03-30T14:23:36Z</time>
      </trkpt>
      <trkpt lat="48.28555" lon="3.18893">
        <ele>139.06</ele>
        <time>2019-03-30T14:23:41Z</time>
      </trkpt>
      <trkpt lat="48.28556" lon="3.18893">
        <ele>139.06</ele>
        <time>2019-03-30T14:23:46Z</time>
      </trkpt>
      <trkpt lat="48.28556" lon="3.18893">
        <ele>139.06</ele>
        <time>2019-03-30T14:23:51Z</time>
      </trkpt>
      <trkpt lat="48.28556" lon="3.18892">
        <ele>139.06</ele>
        <time>2019-03-30T14:23:56Z</time>
      </trkpt>
      <trkpt lat="48.28556" lon="3.18892">
        <ele>139.06</ele>
        <time>2019-03-30T14:24:01Z</time>
      </trkpt>
      <trkpt lat="48.28556" lon="3.18892">
        <ele>139.06</ele>
        <time>2019-03-30T14:24:06Z</time>
      </trkpt>
      <trkpt lat="48.28556" lon="3.18892">
        <ele>139.06</ele>
        <time>2019-03-30T14:24:11Z</time>
      </trkpt>
      <trkpt lat="48.28556" lon="3.18893">
        <ele>139.06</ele>
        <time>2019-03-30T14:24:16Z</time>
      </trkpt>
      <trkpt lat="48.28557" lon="3.18894">
        <ele>139.06</ele>
        <time>2019-03-30T14:24:21Z</time>
      </trkpt>
      <trkpt lat="48.28557" lon="3.18894">
        <ele>139.06</ele>
        <time>2019-03-30T14:24:26Z</time>
      </trkpt>
      <trkpt lat="48.28556" lon="3.18892">
        <ele>139.06</ele>
        <time>2019-03-30T14:24:31Z</time>
      </trkpt>
      <trkpt lat="48.28555" lon="3.18892">
        <ele>139.06</ele>
        <time>2019-03-30T14:24:36Z</time>
      </trkpt>
      <trkpt lat="48.28555" lon="3.18892">
        <ele>139.06</ele>
        <time>2019-03-30T14:24:41Z</time>
      </trkpt>
      <trkpt lat="48.28555" lon="3.18891">
        <ele>139.06</ele>
        <time>2019-03-30T14:24:46Z</time>
      </trkpt>
      <trkpt lat="48.28555" lon="3.18893">
        <ele>139.06</ele>
        <time>2019-03-30T14:24:51Z</time>
      </trkpt>
      <trkpt lat="48.28553" lon="3.18898">
        <ele>139.06</ele>
        <time>2019-03-30T14:24:56Z</time>
      </trkpt>
      <trkpt lat="48.28551" lon="3.18902">
        <ele>139.06</ele>
        <time>2019-03-30T14:25:01Z</time>
      </trkpt>
      <trkpt lat="48.28547" lon="3.18905">
        <ele>139.06</ele>
        <time>2019-03-30T14:25:06Z</time>
      </trkpt>
      <trkpt lat="48.28546" lon="3.18909">
        <ele>139.06</ele>
        <time>2019-03-30T14:25:11Z</time>
      </trkpt>
      <trkpt lat="48.28544" lon="3.18911">
        <ele>139.06</ele>
        <time>2019-03-30T14:25:16Z</time>
      </trkpt>
      <trkpt lat="48.28542" lon="3.18914">
        <ele>139.06</ele>
        <time>2019-03-30T14:25:21Z</time>
      </trkpt>
      <trkpt lat="48.2854" lon="3.18916">
        <ele>139.06</ele>
        <time>2019-03-30T14:25:26Z</time>
      </trkpt>
      <trkpt lat="48.28539" lon="3.18917">
        <ele>139.06</ele>
        <time>2019-03-30T14:25:31Z</time>
      </trkpt>
      <trkpt lat="48.28538" lon="3.18918">
        <ele>139.06</ele>
        <time>2019-03-30T14:25:36Z</time>
      </trkpt>
      <trkpt lat="48.28537" lon="3.18918">
        <ele>139.06</ele>
        <time>2019-03-30T14:25:41Z</time>
      </trkpt>
      <trkpt lat="48.28536" lon="3.18919">
        <ele>139.06</ele>
        <time>2019-03-30T14:25:46Z</time>
      </trkpt>
      <trkpt lat="48.28536" lon="3.1892">
        <ele>139.06</ele>
        <time>2019-03-30T14:25:51Z</time>
      </trkpt>
      <trkpt lat="48.28537" lon="3.18924">
        <ele>139.06</ele>
        <time>2019-03-30T14:25:56Z</time>
      </trkpt>
      <trkpt lat="48.28538" lon="3.18928">
        <ele>134.66</ele>
        <time>2019-03-30T14:26:01Z</time>
      </trkpt>
      <trkpt lat="48.2854" lon="3.18932">
        <ele>134.58</ele>
        <time>2019-03-30T14:26:06Z</time>
      </trkpt>
      <trkpt lat="48.2854" lon="3.18933">
        <ele>135.06</ele>
        <time>2019-03-30T14:26:11Z</time>
      </trkpt>
      <trkpt lat="48.28541" lon="3.18932">
        <ele>135.05</ele>
        <time>2019-03-30T14:26:16Z</time>
      </trkpt>
      <trkpt lat="48.2854" lon="3.18933">
        <ele>134.8</ele>
        <time>2019-03-30T14:26:21Z</time>
      </trkpt>
      <trkpt lat="48.2854" lon="3.18934">
        <ele>135.02</ele>
        <time>2019-03-30T14:26:26Z</time>
      </trkpt>
      <trkpt lat="48.28539" lon="3.18938">
        <ele>135.25</ele>
        <time>2019-03-30T14:26:31Z</time>
      </trkpt>
      <trkpt lat="48.28541" lon="3.18944">
        <ele>135.42</ele>
        <time>2019-03-30T14:26:36Z</time>
      </trkpt>
      <trkpt lat="48.28544" lon="3.18949">
        <ele>135.55</ele>
        <time>2019-03-30T14:26:41Z</time>
      </trkpt>
      <trkpt lat="48.28546" lon="3.18955">
        <ele>135.76</ele>
        <time>2019-03-30T14:26:46Z</time>
      </trkpt>
      <trkpt lat="48.28548" lon="3.18961">
        <ele>135.92</ele>
        <time>2019-03-30T14:26:51Z</time>
      </trkpt>
      <trkpt lat="48.28551" lon="3.18968">
        <ele>136.02</ele>
        <time>2019-03-30T14:26:56Z</time>
      </trkpt>
      <trkpt lat="48.28554" lon="3.18975">
        <ele>136.86</ele>
        <time>2019-03-30T14:27:01Z</time>
      </trkpt>
      <trkpt lat="48.28557" lon="3.18981">
        <ele>137.4</ele>
        <time>2019-03-30T14:27:06Z</time>
      </trkpt>
      <trkpt lat="48.28559" lon="3.18987">
        <ele>137.55</ele>
        <time>2019-03-30T14:27:11Z</time>
      </trkpt>
      <trkpt lat="48.28562" lon="3.18994">
        <ele>137.56</ele>
        <time>2019-03-30T14:27:16Z</time>
      </trkpt>
      <trkpt lat="48.28565" lon="3.19">
        <ele>137.86</ele>
        <time>2019-03-30T14:27:21Z</time>
      </trkpt>
      <trkpt lat="48.28572" lon="3.19007">
        <ele>137.89</ele>
        <time>2019-03-30T14:27:26Z</time>
      </trkpt>
      <trkpt lat="48.28577" lon="3.19014">
        <ele>137.73</ele>
        <time>2019-03-30T14:27:31Z</time>
      </trkpt>
      <trkpt lat="48.2858" lon="3.19022">
        <ele>137.73</ele>
        <time>2019-03-30T14:27:36Z</time>
      </trkpt>
      <trkpt lat="48.2858" lon="3.19029">
        <ele>138.23</ele>
        <time>2019-03-30T14:27:41Z</time>
      </trkpt>
      <trkpt lat="48.28582" lon="3.19036">
        <ele>137.9</ele>
        <time>2019-03-30T14:27:46Z</time>
      </trkpt>
      <trkpt lat="48.28586" lon="3.19043">
        <ele>137.81</ele>
        <time>2019-03-30T14:27:51Z</time>
      </trkpt>
      <trkpt lat="48.28589" lon="3.19051">
        <ele>137.73</ele>
        <time>2019-03-30T14:27:56Z</time>
      </trkpt>
      <trkpt lat="48.28591" lon="3.19059">
        <ele>137.58</ele>
        <time>2019-03-30T14:28:01Z</time>
      </trkpt>
      <trkpt lat="48.28595" lon="3.19065">
        <ele>137.45</ele>
        <time>2019-03-30T14:28:06Z</time>
      </trkpt>
      <trkpt lat="48.28598" lon="3.19072">
        <ele>137.4</ele>
        <time>2019-03-30T14:28:11Z</time>
      </trkpt>
      <trkpt lat="48.28602" lon="3.19077">
        <ele>137.54</ele>
        <time>2019-03-30T14:28:16Z</time>
      </trkpt>
      <trkpt lat="48.28605" lon="3.19083">
        <ele>137.48</ele>
        <time>2019-03-30T14:28:21Z</time>
      </trkpt>
      <trkpt lat="48.2861" lon="3.1909">
        <ele>137.45</ele>
        <time>2019-03-30T14:28:26Z</time>
      </trkpt>
      <trkpt lat="48.28614" lon="3.19096">
        <ele>137.88</ele>
        <time>2019-03-30T14:28:31Z</time>
      </trkpt>
      <trkpt lat="48.28618" lon="3.19101">
        <ele>137.58</ele>
        <time>2019-03-30T14:28:36Z</time>
      </trkpt>
      <trkpt lat="48.28623" lon="3.19107">
        <ele>137.32</ele>
        <time>2019-03-30T14:28:41Z</time>
      </trkpt>
      <trkpt lat="48.28625" lon="3.19115">
        <ele>137.15</ele>
        <time>2019-03-30T14:28:46Z</time>
      </trkpt>
      <trkpt lat="48.28629" lon="3.19122">
        <ele>136.66</ele>
        <time>2019-03-30T14:28:51Z</time>
      </trkpt>
      <trkpt lat="48.28633" lon="3.19129">
        <ele>136.34</ele>
        <time>2019-03-30T14:28:56Z</time>
      </trkpt>
      <trkpt lat="48.28635" lon="3.19138">
        <ele>136.2</ele>
        <time>2019-03-30T14:29:01Z</time>
      </trkpt>
      <trkpt lat="48.28638" lon="3.19147">
        <ele>136.1</ele>
        <time>2019-03-30T14:29:06Z</time>
      </trkpt>
      <trkpt lat="48.2864" lon="3.19155">
        <ele>135.96</ele>
        <time>2019-03-30T14:29:11Z</time>
      </trkpt>
      <trkpt lat="48.28642" lon="3.19164">
        <ele>135.78</ele>
        <time>2019-03-30T14:29:16Z</time>
      </trkpt>
      <trkpt lat="48.28643" lon="3.19171">
        <ele>135.27</ele>
        <time>2019-03-30T14:29:21Z</time>
      </trkpt>
      <trkpt lat="48.28645" lon="3.1918">
        <ele>134.88</ele>
        <time>2019-03-30T14:29:26Z</time>
      </trkpt>
      <trkpt lat="48.28645" lon="3.19187">
        <ele>134.41</ele>
        <time>2019-03-30T14:29:31Z</time>
      </trkpt>
      <trkpt lat="48.28647" lon="3.19194">
        <ele>133.99</ele>
        <time>2019-03-30T14:29:36Z</time>
      </trkpt>
      <trkpt lat="48.28649" lon="3.19201">
        <ele>133.78</ele>
        <time>2019-03-30T14:29:41Z</time>
      </trkpt>
      <trkpt lat="48.28653" lon="3.19209">
        <ele>133.28</ele>
        <time>2019-03-30T14:29:46Z</time>
      </trkpt>
      <trkpt lat="48.28658" lon="3.19215">
        <ele>133.18</ele>
        <time>2019-03-30T14:29:51Z</time>
      </trkpt>
      <trkpt lat="48.28662" lon="3.19222">
        <ele>133.15</ele>
        <time>2019-03-30T14:29:56Z</time>
      </trkpt>
      <trkpt lat="48.28666" lon="3.19228">
        <ele>132.64</ele>
        <time>2019-03-30T14:30:01Z</time>
      </trkpt>
      <trkpt lat="48.2867" lon="3.19235">
        <ele>132.51</ele>
        <time>2019-03-30T14:30:06Z</time>
      </trkpt>
      <trkpt lat="48.28672" lon="3.19242">
        <ele>131.88</ele>
        <time>2019-03-30T14:30:11Z</time>
      </trkpt>
      <trkpt lat="48.28674" lon="3.19249">
        <ele>131.75</ele>
        <time>2019-03-30T14:30:16Z</time>
      </trkpt>
      <trkpt lat="48.28678" lon="3.19256">
        <ele>131.74</ele>
        <time>2019-03-30T14:30:21Z</time>
      </trkpt>
      <trkpt lat="48.28682" lon="3.19262">
        <ele>131.76</ele>
        <time>2019-03-30T14:30:26Z</time>
      </trkpt>
      <trkpt lat="48.28687" lon="3.19267">
        <ele>131.83</ele>
        <time>2019-03-30T14:30:31Z</time>
      </trkpt>
      <trkpt lat="48.2869" lon="3.19273">
        <ele>131.8</ele>
        <time>2019-03-30T14:30:36Z</time>
      </trkpt>
      <trkpt lat="48.28693" lon="3.1928">
        <ele>131.81</ele>
        <time>2019-03-30T14:30:41Z</time>
      </trkpt>
      <trkpt lat="48.28697" lon="3.19287">
        <ele>131.66</ele>
        <time>2019-03-30T14:30:46Z</time>
      </trkpt>
      <trkpt lat="48.287" lon="3.19296">
        <ele>131.55</ele>
        <time>2019-03-30T14:30:51Z</time>
      </trkpt>
      <trkpt lat="48.28703" lon="3.19304">
        <ele>131.65</ele>
        <time>2019-03-30T14:30:56Z</time>
      </trkpt>
      <trkpt lat="48.28707" lon="3.1931">
        <ele>131.98</ele>
        <time>2019-03-30T14:31:01Z</time>
      </trkpt>
      <trkpt lat="48.28709" lon="3.19317">
        <ele>132.28</ele>
        <time>2019-03-30T14:31:06Z</time>
      </trkpt>
      <trkpt lat="48.2871" lon="3.19327">
        <ele>132.57</ele>
        <time>2019-03-30T14:31:11Z</time>
      </trkpt>
      <trkpt lat="48.28709" lon="3.19336">
        <ele>132.59</ele>
        <time>2019-03-30T14:31:16Z</time>
      </trkpt>
      <trkpt lat="48.28709" lon="3.19344">
        <ele>132.65</ele>
        <time>2019-03-30T14:31:21Z</time>
      </trkpt>
      <trkpt lat="48.28712" lon="3.19351">
        <ele>132.66</ele>
        <time>2019-03-30T14:31:26Z</time>
      </trkpt>
      <trkpt lat="48.28716" lon="3.19358">
        <ele>132.76</ele>
        <time>2019-03-30T14:31:31Z</time>
      </trkpt>
      <trkpt lat="48.28717" lon="3.19367">
        <ele>133.2</ele>
        <time>2019-03-30T14:31:36Z</time>
      </trkpt>
      <trkpt lat="48.28717" lon="3.19376">
        <ele>133.27</ele>
        <time>2019-03-30T14:31:41Z</time>
      </trkpt>
      <trkpt lat="48.28718" lon="3.19384">
        <ele>133.22</ele>
        <time>2019-03-30T14:31:46Z</time>
      </trkpt>
      <trkpt lat="48.28718" lon="3.19392">
        <ele>133.14</ele>
        <time>2019-03-30T14:31:51Z</time>
      </trkpt>
      <trkpt lat="48.28719" lon="3.19398">
        <ele>133.15</ele>
        <time>2019-03-30T14:31:56Z</time>
      </trkpt>
      <trkpt lat="48.2872" lon="3.19405">
        <ele>133.43</ele>
        <time>2019-03-30T14:32:01Z</time>
      </trkpt>
      <trkpt lat="48.28721" lon="3.19412">
        <ele>133.52</ele>
        <time>2019-03-30T14:32:06Z</time>
      </trkpt>
      <trkpt lat="48.28724" lon="3.19419">
        <ele>133.63</ele>
        <time>2019-03-30T14:32:11Z</time>
      </trkpt>
      <trkpt lat="48.28726" lon="3.19428">
        <ele>133.79</ele>
        <time>2019-03-30T14:32:16Z</time>
      </trkpt>
      <trkpt lat="48.2873" lon="3.19435">
        <ele>133.87</ele>
        <time>2019-03-30T14:32:21Z</time>
      </trkpt>
      <trkpt lat="48.28733" lon="3.19444">
        <ele>134.19</ele>
        <time>2019-03-30T14:32:26Z</time>
      </trkpt>
      <trkpt lat="48.28733" lon="3.19451">
        <ele>134.44</ele>
        <time>2019-03-30T14:32:31Z</time>
      </trkpt>
      <trkpt lat="48.28733" lon="3.19457">
        <ele>134.82</ele>
        <time>2019-03-30T14:32:36Z</time>
      </trkpt>
      <trkpt lat="48.28733" lon="3.19465">
        <ele>135.16</ele>
        <time>2019-03-30T14:32:41Z</time>
      </trkpt>
      <trkpt lat="48.28734" lon="3.19472">
        <ele>135.33</ele>
        <time>2019-03-30T14:32:46Z</time>
      </trkpt>
      <trkpt lat="48.28737" lon="3.19478">
        <ele>135.36</ele>
        <time>2019-03-30T14:32:51Z</time>
      </trkpt>
      <trkpt lat="48.28738" lon="3.19485">
        <ele>135.5</ele>
        <time>2019-03-30T14:32:56Z</time>
      </trkpt>
      <trkpt lat="48.28739" lon="3.19494">
        <ele>135.69</ele>
        <time>2019-03-30T14:33:01Z</time>
      </trkpt>
      <trkpt lat="48.2874" lon="3.19501">
        <ele>135.71</ele>
        <time>2019-03-30T14:33:06Z</time>
      </trkpt>
      <trkpt lat="48.28742" lon="3.19506">
        <ele>135.86</ele>
        <time>2019-03-30T14:33:11Z</time>
      </trkpt>
      <trkpt lat="48.28744" lon="3.19515">
        <ele>136.08</ele>
        <time>2019-03-30T14:33:16Z</time>
      </trkpt>
      <trkpt lat="48.28746" lon="3.19523">
        <ele>136</ele>
        <time>2019-03-30T14:33:21Z</time>
      </trkpt>
      <trkpt lat="48.28746" lon="3.19531">
        <ele>135.71</ele>
        <time>2019-03-30T14:33:26Z</time>
      </trkpt>
      <trkpt lat="48.28746" lon="3.19538">
        <ele>135.43</ele>
        <time>2019-03-30T14:33:31Z</time>
      </trkpt>
      <trkpt lat="48.28747" lon="3.19546">
        <ele>135.29</ele>
        <time>2019-03-30T14:33:36Z</time>
      </trkpt>
      <trkpt lat="48.28749" lon="3.19553">
        <ele>135.02</ele>
        <time>2019-03-30T14:33:41Z</time>
      </trkpt>
      <trkpt lat="48.2875" lon="3.19559">
        <ele>134.38</ele>
        <time>2019-03-30T14:33:46Z</time>
      </trkpt>
      <trkpt lat="48.28751" lon="3.19564">
        <ele>133.97</ele>
        <time>2019-03-30T14:33:51Z</time>
      </trkpt>
      <trkpt lat="48.28753" lon="3.1957">
        <ele>133.68</ele>
        <time>2019-03-30T14:33:56Z</time>
      </trkpt>
      <trkpt lat="48.28755" lon="3.19577">
        <ele>133.27</ele>
        <time>2019-03-30T14:34:01Z</time>
      </trkpt>
      <trkpt lat="48.28756" lon="3.19584">
        <ele>132.91</ele>
        <time>2019-03-30T14:34:06Z</time>
      </trkpt>
      <trkpt lat="48.28758" lon="3.19592">
        <ele>132.58</ele>
        <time>2019-03-30T14:34:11Z</time>
      </trkpt>
      <trkpt lat="48.28762" lon="3.19598">
        <ele>132.07</ele>
        <time>2019-03-30T14:34:16Z</time>
      </trkpt>
      <trkpt lat="48.28765" lon="3.19605">
        <ele>131.61</ele>
        <time>2019-03-30T14:34:21Z</time>
      </trkpt>
      <trkpt lat="48.28769" lon="3.19612">
        <ele>131.06</ele>
        <time>2019-03-30T14:34:26Z</time>
      </trkpt>
      <trkpt lat="48.28772" lon="3.19618">
        <ele>130.79</ele>
        <time>2019-03-30T14:34:31Z</time>
      </trkpt>
      <trkpt lat="48.28773" lon="3.19626">
        <ele>130.35</ele>
        <time>2019-03-30T14:34:36Z</time>
      </trkpt>
      <trkpt lat="48.28774" lon="3.19634">
        <ele>129.81</ele>
        <time>2019-03-30T14:34:41Z</time>
      </trkpt>
      <trkpt lat="48.28776" lon="3.19641">
        <ele>129.42</ele>
        <time>2019-03-30T14:34:46Z</time>
      </trkpt>
      <trkpt lat="48.28778" lon="3.19648">
        <ele>128.92</ele>
        <time>2019-03-30T14:34:51Z</time>
      </trkpt>
      <trkpt lat="48.28782" lon="3.19655">
        <ele>128.66</ele>
        <time>2019-03-30T14:34:56Z</time>
      </trkpt>
      <trkpt lat="48.28784" lon="3.19661">
        <ele>128.12</ele>
        <time>2019-03-30T14:35:01Z</time>
      </trkpt>
      <trkpt lat="48.28786" lon="3.19669">
        <ele>127.79</ele>
        <time>2019-03-30T14:35:06Z</time>
      </trkpt>
      <trkpt lat="48.28788" lon="3.19676">
        <ele>127.27</ele>
        <time>2019-03-30T14:35:11Z</time>
      </trkpt>
      <trkpt lat="48.2879" lon="3.19681">
        <ele>126.97</ele>
        <time>2019-03-30T14:35:16Z</time>
      </trkpt>
      <trkpt lat="48.28791" lon="3.19689">
        <ele>126.6</ele>
        <time>2019-03-30T14:35:21Z</time>
      </trkpt>
      <trkpt lat="48.2879" lon="3.19696">
        <ele>126.15</ele>
        <time>2019-03-30T14:35:26Z</time>
      </trkpt>
      <trkpt lat="48.28788" lon="3.19705">
        <ele>125.88</ele>
        <time>2019-03-30T14:35:31Z</time>
      </trkpt>
      <trkpt lat="48.28786" lon="3.19712">
        <ele>125.81</ele>
        <time>2019-03-30T14:35:36Z</time>
      </trkpt>
      <trkpt lat="48.28784" lon="3.19719">
        <ele>125.37</ele>
        <time>2019-03-30T14:35:41Z</time>
      </trkpt>
      <trkpt lat="48.28783" lon="3.19725">
        <ele>125.6</ele>
        <time>2019-03-30T14:35:46Z</time>
      </trkpt>
      <trkpt lat="48.28783" lon="3.19732">
        <ele>125.32</ele>
        <time>2019-03-30T14:35:51Z</time>
      </trkpt>
      <trkpt lat="48.28784" lon="3.1974">
        <ele>125.01</ele>
        <time>2019-03-30T14:35:56Z</time>
      </trkpt>
      <trkpt lat="48.28788" lon="3.19747">
        <ele>124.76</ele>
        <time>2019-03-30T14:36:01Z</time>
      </trkpt>
      <trkpt lat="48.28789" lon="3.19753">
        <ele>124.37</ele>
        <time>2019-03-30T14:36:06Z</time>
      </trkpt>
      <trkpt lat="48.28791" lon="3.1976">
        <ele>124.28</ele>
        <time>2019-03-30T14:36:11Z</time>
      </trkpt>
      <trkpt lat="48.28795" lon="3.19767">
        <ele>124.1</ele>
        <time>2019-03-30T14:36:16Z</time>
      </trkpt>
      <trkpt lat="48.28799" lon="3.19774">
        <ele>123.81</ele>
        <time>2019-03-30T14:36:21Z</time>
      </trkpt>
      <trkpt lat="48.28802" lon="3.1978">
        <ele>123.23</ele>
        <time>2019-03-30T14:36:26Z</time>
      </trkpt>
      <trkpt lat="48.28805" lon="3.19786">
        <ele>122.75</ele>
        <time>2019-03-30T14:36:31Z</time>
      </trkpt>
      <trkpt lat="48.28808" lon="3.19793">
        <ele>122.49</ele>
        <time>2019-03-30T14:36:36Z</time>
      </trkpt>
      <trkpt lat="48.2881" lon="3.19799">
        <ele>122.02</ele>
        <time>2019-03-30T14:36:41Z</time>
      </trkpt>
      <trkpt lat="48.28813" lon="3.19805">
        <ele>121.62</ele>
        <time>2019-03-30T14:36:46Z</time>
      </trkpt>
      <trkpt lat="48.28815" lon="3.19811">
        <ele>121.45</ele>
        <time>2019-03-30T14:36:51Z</time>
      </trkpt>
      <trkpt lat="48.28818" lon="3.19818">
        <ele>121.43</ele>
        <time>2019-03-30T14:36:56Z</time>
      </trkpt>
      <trkpt lat="48.28818" lon="3.19824">
        <ele>121.1</ele>
        <time>2019-03-30T14:37:01Z</time>
      </trkpt>
      <trkpt lat="48.28817" lon="3.19829">
        <ele>121.08</ele>
        <time>2019-03-30T14:37:06Z</time>
      </trkpt>
      <trkpt lat="48.28817" lon="3.19834">
        <ele>120.71</ele>
        <time>2019-03-30T14:37:11Z</time>
      </trkpt>
      <trkpt lat="48.28816" lon="3.19842">
        <ele>120.63</ele>
        <time>2019-03-30T14:37:16Z</time>
      </trkpt>
      <trkpt lat="48.28813" lon="3.19848">
        <ele>120.36</ele>
        <time>2019-03-30T14:37:21Z</time>
      </trkpt>
      <trkpt lat="48.2881" lon="3.19855">
        <ele>120.29</ele>
        <time>2019-03-30T14:37:26Z</time>
      </trkpt>
      <trkpt lat="48.28807" lon="3.19863">
        <ele>120.29</ele>
        <time>2019-03-30T14:37:31Z</time>
      </trkpt>
      <trkpt lat="48.28803" lon="3.19871">
        <ele>120.16</ele>
        <time>2019-03-30T14:37:36Z</time>
      </trkpt>
      <trkpt lat="48.288" lon="3.19879">
        <ele>119.97</ele>
        <time>2019-03-30T14:37:41Z</time>
      </trkpt>
      <trkpt lat="48.28798" lon="3.19887">
        <ele>119.86</ele>
        <time>2019-03-30T14:37:46Z</time>
      </trkpt>
      <trkpt lat="48.28797" lon="3.19896">
        <ele>119.93</ele>
        <time>2019-03-30T14:37:51Z</time>
      </trkpt>
      <trkpt lat="48.28795" lon="3.19905">
        <ele>119.85</ele>
        <time>2019-03-30T14:37:56Z</time>
      </trkpt>
      <trkpt lat="48.28792" lon="3.19911">
        <ele>119.56</ele>
        <time>2019-03-30T14:38:01Z</time>
      </trkpt>
      <trkpt lat="48.2879" lon="3.19917">
        <ele>119.41</ele>
        <time>2019-03-30T14:38:06Z</time>
      </trkpt>
      <trkpt lat="48.2879" lon="3.19923">
        <ele>119.4</ele>
        <time>2019-03-30T14:38:11Z</time>
      </trkpt>
      <trkpt lat="48.28789" lon="3.19929">
        <ele>119.43</ele>
        <time>2019-03-30T14:38:16Z</time>
      </trkpt>
      <trkpt lat="48.2879" lon="3.19936">
        <ele>119.51</ele>
        <time>2019-03-30T14:38:21Z</time>
      </trkpt>
      <trkpt lat="48.28789" lon="3.19946">
        <ele>119.29</ele>
        <time>2019-03-30T14:38:26Z</time>
      </trkpt>
      <trkpt lat="48.28789" lon="3.19955">
        <ele>119.2</ele>
        <time>2019-03-30T14:38:31Z</time>
      </trkpt>
      <trkpt lat="48.28788" lon="3.19964">
        <ele>118.75</ele>
        <time>2019-03-30T14:38:36Z</time>
      </trkpt>
      <trkpt lat="48.28788" lon="3.19971">
        <ele>118.62</ele>
        <time>2019-03-30T14:38:41Z</time>
      </trkpt>
      <trkpt lat="48.28791" lon="3.19979">
        <ele>118.42</ele>
        <time>2019-03-30T14:38:46Z</time>
      </trkpt>
      <trkpt lat="48.28793" lon="3.19986">
        <ele>118.14</ele>
        <time>2019-03-30T14:38:51Z</time>
      </trkpt>
      <trkpt lat="48.28796" lon="3.19992">
        <ele>117.95</ele>
        <time>2019-03-30T14:38:56Z</time>
      </trkpt>
      <trkpt lat="48.28797" lon="3.19999">
        <ele>117.45</ele>
        <time>2019-03-30T14:39:01Z</time>
      </trkpt>
      <trkpt lat="48.288" lon="3.20004">
        <ele>117.14</ele>
        <time>2019-03-30T14:39:06Z</time>
      </trkpt>
      <trkpt lat="48.28803" lon="3.20009">
        <ele>116.85</ele>
        <time>2019-03-30T14:39:11Z</time>
      </trkpt>
      <trkpt lat="48.28806" lon="3.20016">
        <ele>116.6</ele>
        <time>2019-03-30T14:39:16Z</time>
      </trkpt>
      <trkpt lat="48.28809" lon="3.20021">
        <ele>115.97</ele>
        <time>2019-03-30T14:39:21Z</time>
      </trkpt>
      <trkpt lat="48.28813" lon="3.20027">
        <ele>115.5</ele>
        <time>2019-03-30T14:39:26Z</time>
      </trkpt>
      <trkpt lat="48.28816" lon="3.20034">
        <ele>114.87</ele>
        <time>2019-03-30T14:39:31Z</time>
      </trkpt>
      <trkpt lat="48.28817" lon="3.20042">
        <ele>114.26</ele>
        <time>2019-03-30T14:39:36Z</time>
      </trkpt>
      <trkpt lat="48.28822" lon="3.20048">
        <ele>113.8</ele>
        <time>2019-03-30T14:39:41Z</time>
      </trkpt>
      <trkpt lat="48.28826" lon="3.20056">
        <ele>113.27</ele>
        <time>2019-03-30T14:39:46Z</time>
      </trkpt>
      <trkpt lat="48.28828" lon="3.20062">
        <ele>112.72</ele>
        <time>2019-03-30T14:39:51Z</time>
      </trkpt>
      <trkpt lat="48.28832" lon="3.20069">
        <ele>112.1</ele>
        <time>2019-03-30T14:39:56Z</time>
      </trkpt>
      <trkpt lat="48.28832" lon="3.20078">
        <ele>111.58</ele>
        <time>2019-03-30T14:40:01Z</time>
      </trkpt>
      <trkpt lat="48.28828" lon="3.20084">
        <ele>111.06</ele>
        <time>2019-03-30T14:40:06Z</time>
      </trkpt>
      <trkpt lat="48.28823" lon="3.20086">
        <ele>111.04</ele>
        <time>2019-03-30T14:40:11Z</time>
      </trkpt>
      <trkpt lat="48.28817" lon="3.20089">
        <ele>110.81</ele>
        <time>2019-03-30T14:40:16Z</time>
      </trkpt>
      <trkpt lat="48.2881" lon="3.20091">
        <ele>110.63</ele>
        <time>2019-03-30T14:40:21Z</time>
      </trkpt>
      <trkpt lat="48.28805" lon="3.20092">
        <ele>110.28</ele>
        <time>2019-03-30T14:40:26Z</time>
      </trkpt>
      <trkpt lat="48.28799" lon="3.20093">
        <ele>109.6</ele>
        <time>2019-03-30T14:40:31Z</time>
      </trkpt>
      <trkpt lat="48.28793" lon="3.20094">
        <ele>109.03</ele>
        <time>2019-03-30T14:40:36Z</time>
      </trkpt>
      <trkpt lat="48.28787" lon="3.20095">
        <ele>108.75</ele>
        <time>2019-03-30T14:40:41Z</time>
      </trkpt>
      <trkpt lat="48.28782" lon="3.20096">
        <ele>108.16</ele>
        <time>2019-03-30T14:40:46Z</time>
      </trkpt>
      <trkpt lat="48.28777" lon="3.20098">
        <ele>107.32</ele>
        <time>2019-03-30T14:40:51Z</time>
      </trkpt>
      <trkpt lat="48.28771" lon="3.20099">
        <ele>106.4</ele>
        <time>2019-03-30T14:40:56Z</time>
      </trkpt>
      <trkpt lat="48.28766" lon="3.201">
        <ele>105.47</ele>
        <time>2019-03-30T14:41:01Z</time>
      </trkpt>
      <trkpt lat="48.2876" lon="3.20102">
        <ele>104.79</ele>
        <time>2019-03-30T14:41:06Z</time>
      </trkpt>
      <trkpt lat="48.28756" lon="3.20105">
        <ele>103.79</ele>
        <time>2019-03-30T14:41:11Z</time>
      </trkpt>
      <trkpt lat="48.28753" lon="3.20107">
        <ele>103.23</ele>
        <time>2019-03-30T14:41:16Z</time>
      </trkpt>
      <trkpt lat="48.28749" lon="3.20108">
        <ele>102.22</ele>
        <time>2019-03-30T14:41:21Z</time>
      </trkpt>
      <trkpt lat="48.28745" lon="3.20108">
        <ele>101.34</ele>
        <time>2019-03-30T14:41:26Z</time>
      </trkpt>
      <trkpt lat="48.28738" lon="3.20107">
        <ele>100.55</ele>
        <time>2019-03-30T14:41:31Z</time>
      </trkpt>
      <trkpt lat="48.28734" lon="3.20103">
        <ele>100.08</ele>
        <time>2019-03-30T14:41:36Z</time>
      </trkpt>
      <trkpt lat="48.2873" lon="3.201">
        <ele>99.35</ele>
        <time>2019-03-30T14:41:41Z</time>
      </trkpt>
      <trkpt lat="48.28726" lon="3.201">
        <ele>98.49</ele>
        <time>2019-03-30T14:41:46Z</time>
      </trkpt>
      <trkpt lat="48.28718" lon="3.201">
        <ele>97.87</ele>
        <time>2019-03-30T14:41:51Z</time>
      </trkpt>
      <trkpt lat="48.28713" lon="3.20101">
        <ele>96.73</ele>
        <time>2019-03-30T14:41:56Z</time>
      </trkpt>
      <trkpt lat="48.28705" lon="3.201">
        <ele>96.39</ele>
        <time>2019-03-30T14:42:01Z</time>
      </trkpt>
      <trkpt lat="48.28698" lon="3.201">
        <ele>96.16</ele>
        <time>2019-03-30T14:42:06Z</time>
      </trkpt>
      <trkpt lat="48.28693" lon="3.20102">
        <ele>95.94</ele>
        <time>2019-03-30T14:42:11Z</time>
      </trkpt>
      <trkpt lat="48.28687" lon="3.20105">
        <ele>95.18</ele>
        <time>2019-03-30T14:42:16Z</time>
      </trkpt>
      <trkpt lat="48.28684" lon="3.20106">
        <ele>94.52</ele>
        <time>2019-03-30T14:42:21Z</time>
      </trkpt>
      <trkpt lat="48.28681" lon="3.20107">
        <ele>93.4</ele>
        <time>2019-03-30T14:42:26Z</time>
      </trkpt>
      <trkpt lat="48.28677" lon="3.20107">
        <ele>92.26</ele>
        <time>2019-03-30T14:42:31Z</time>
      </trkpt>
      <trkpt lat="48.28671" lon="3.20111">
        <ele>91.52</ele>
        <time>2019-03-30T14:42:36Z</time>
      </trkpt>
      <trkpt lat="48.28666" lon="3.20114">
        <ele>91.19</ele>
        <time>2019-03-30T14:42:41Z</time>
      </trkpt>
      <trkpt lat="48.28662" lon="3.2012">
        <ele>90.71</ele>
        <time>2019-03-30T14:42:46Z</time>
      </trkpt>
      <trkpt lat="48.28397" lon="3.20263">
        <ele>94.82</ele>
        <time>2019-03-30T14:48:30Z</time>
      </trkpt>
      <trkpt lat="48.28392" lon="3.20267">
        <ele>95.41</ele>
        <time>2019-03-30T14:48:36Z</time>
      </trkpt>
      <trkpt lat="48.28387" lon="3.20275">
        <ele>95.65</ele>
        <time>2019-03-30T14:48:42Z</time>
      </trkpt>
      <trkpt lat="48.28381" lon="3.20279">
        <ele>95.77</ele>
        <time>2019-03-30T14:48:47Z</time>
      </trkpt>
      <trkpt lat="48.28376" lon="3.20281">
        <ele>96.31</ele>
        <time>2019-03-30T14:48:52Z</time>
      </trkpt>
      <trkpt lat="48.28373" lon="3.20284">
        <ele>95.98</ele>
        <time>2019-03-30T14:48:57Z</time>
      </trkpt>
      <trkpt lat="48.2837" lon="3.20289">
        <ele>95.85</ele>
        <time>2019-03-30T14:49:02Z</time>
      </trkpt>
      <trkpt lat="48.28366" lon="3.20293">
        <ele>96.05</ele>
        <time>2019-03-30T14:49:07Z</time>
      </trkpt>
      <trkpt lat="48.2836" lon="3.20296">
        <ele>96.13</ele>
        <time>2019-03-30T14:49:12Z</time>
      </trkpt>
      <trkpt lat="48.28356" lon="3.20301">
        <ele>96.42</ele>
        <time>2019-03-30T14:49:17Z</time>
      </trkpt>
      <trkpt lat="48.28354" lon="3.20303">
        <ele>95.88</ele>
        <time>2019-03-30T14:49:22Z</time>
      </trkpt>
      <trkpt lat="48.2835" lon="3.20308">
        <ele>95.91</ele>
        <time>2019-03-30T14:49:27Z</time>
      </trkpt>
      <trkpt lat="48.28346" lon="3.20312">
        <ele>96.17</ele>
        <time>2019-03-30T14:49:32Z</time>
      </trkpt>
      <trkpt lat="48.28342" lon="3.20316">
        <ele>96.74</ele>
        <time>2019-03-30T14:49:37Z</time>
      </trkpt>
      <trkpt lat="48.28336" lon="3.20322">
        <ele>97</ele>
        <time>2019-03-30T14:49:42Z</time>
      </trkpt>
      <trkpt lat="48.28332" lon="3.20326">
        <ele>97.34</ele>
        <time>2019-03-30T14:49:47Z</time>
      </trkpt>
      <trkpt lat="48.28328" lon="3.20331">
        <ele>97.3</ele>
        <time>2019-03-30T14:49:52Z</time>
      </trkpt>
      <trkpt lat="48.28323" lon="3.20336">
        <ele>97.46</ele>
        <time>2019-03-30T14:49:57Z</time>
      </trkpt>
      <trkpt lat="48.28324" lon="3.20343">
        <ele>98.04</ele>
        <time>2019-03-30T14:50:02Z</time>
      </trkpt>
      <trkpt lat="48.28323" lon="3.20347">
        <ele>98.21</ele>
        <time>2019-03-30T14:50:07Z</time>
      </trkpt>
      <trkpt lat="48.28318" lon="3.2035">
        <ele>98.18</ele>
        <time>2019-03-30T14:50:12Z</time>
      </trkpt>
      <trkpt lat="48.28313" lon="3.20349">
        <ele>98.28</ele>
        <time>2019-03-30T14:50:17Z</time>
      </trkpt>
      <trkpt lat="48.28307" lon="3.2035">
        <ele>98.7</ele>
        <time>2019-03-30T14:50:22Z</time>
      </trkpt>
      <trkpt lat="48.28299" lon="3.2035">
        <ele>99.37</ele>
        <time>2019-03-30T14:50:27Z</time>
      </trkpt>
      <trkpt lat="48.28293" lon="3.2035">
        <ele>99.5</ele>
        <time>2019-03-30T14:50:32Z</time>
      </trkpt>
      <trkpt lat="48.28288" lon="3.20352">
        <ele>99.48</ele>
        <time>2019-03-30T14:50:37Z</time>
      </trkpt>
      <trkpt lat="48.28284" lon="3.20357">
        <ele>99.62</ele>
        <time>2019-03-30T14:50:42Z</time>
      </trkpt>
      <trkpt lat="48.28282" lon="3.20359">
        <ele>100.25</ele>
        <time>2019-03-30T14:50:47Z</time>
      </trkpt>
      <trkpt lat="48.2828" lon="3.20359">
        <ele>100.56</ele>
        <time>2019-03-30T14:50:52Z</time>
      </trkpt>
      <trkpt lat="48.2828" lon="3.20359">
        <ele>100.98</ele>
        <time>2019-03-30T14:50:57Z</time>
      </trkpt>
      <trkpt lat="48.2828" lon="3.2036">
        <ele>100.98</ele>
        <time>2019-03-30T14:51:02Z</time>
      </trkpt>
      <trkpt lat="48.2828" lon="3.2036">
        <ele>101.05</ele>
        <time>2019-03-30T14:51:07Z</time>
      </trkpt>
      <trkpt lat="48.28281" lon="3.20359">
        <ele>101</ele>
        <time>2019-03-30T14:51:12Z</time>
      </trkpt>
      <trkpt lat="48.28281" lon="3.20359">
        <ele>100.96</ele>
        <time>2019-03-30T14:51:17Z</time>
      </trkpt>
      <trkpt lat="48.2828" lon="3.20359">
        <ele>100.56</ele>
        <time>2019-03-30T14:51:22Z</time>
      </trkpt>
      <trkpt lat="48.2828" lon="3.20359">
        <ele>100.27</ele>
        <time>2019-03-30T14:51:27Z</time>
      </trkpt>
      <trkpt lat="48.28281" lon="3.20359">
        <ele>100.2</ele>
        <time>2019-03-30T14:51:32Z</time>
      </trkpt>
      <trkpt lat="48.28281" lon="3.20358">
        <ele>100.12</ele>
        <time>2019-03-30T14:51:37Z</time>
      </trkpt>
      <trkpt lat="48.28281" lon="3.20358">
        <ele>100.1</ele>
        <time>2019-03-30T14:51:42Z</time>
      </trkpt>
      <trkpt lat="48.28281" lon="3.20359">
        <ele>100.53</ele>
        <time>2019-03-30T14:51:47Z</time>
      </trkpt>
      <trkpt lat="48.28281" lon="3.20358">
        <ele>100.58</ele>
        <time>2019-03-30T14:51:52Z</time>
      </trkpt>
      <trkpt lat="48.28281" lon="3.20358">
        <ele>100.59</ele>
        <time>2019-03-30T14:51:57Z</time>
      </trkpt>
      <trkpt lat="48.28281" lon="3.20358">
        <ele>100.59</ele>
        <time>2019-03-30T14:52:02Z</time>
      </trkpt>
      <trkpt lat="48.28281" lon="3.20358">
        <ele>100.57</ele>
        <time>2019-03-30T14:52:07Z</time>
      </trkpt>
      <trkpt lat="48.28281" lon="3.20358">
        <ele>100.74</ele>
        <time>2019-03-30T14:52:12Z</time>
      </trkpt>
      <trkpt lat="48.28281" lon="3.20359">
        <ele>100.83</ele>
        <time>2019-03-30T14:52:17Z</time>
      </trkpt>
      <trkpt lat="48.28282" lon="3.20358">
        <ele>100.78</ele>
        <time>2019-03-30T14:52:22Z</time>
      </trkpt>
      <trkpt lat="48.28283" lon="3.20357">
        <ele>100.78</ele>
        <time>2019-03-30T14:52:27Z</time>
      </trkpt>
      <trkpt lat="48.28284" lon="3.20357">
        <ele>100.65</ele>
        <time>2019-03-30T14:52:32Z</time>
      </trkpt>
      <trkpt lat="48.28284" lon="3.20355">
        <ele>100.61</ele>
        <time>2019-03-30T14:52:37Z</time>
      </trkpt>
      <trkpt lat="48.28285" lon="3.20356">
        <ele>100.66</ele>
        <time>2019-03-30T14:52:42Z</time>
      </trkpt>
      <trkpt lat="48.28285" lon="3.20356">
        <ele>100.81</ele>
        <time>2019-03-30T14:52:47Z</time>
      </trkpt>
    </trkseg>
  </trk>
</gpx>